<?xml version="1.0" encoding="UTF-8" standalone="no" ?>
<gpx xmlns="http://www.topografix.com/GPX/1/1" xmlns:xsi="http://www.w3.org/2001/XMLSchema-instance" xsi:schemaLocation="http://www.topografix.com/GPX/1/1 http://www.topografix.com/GPX/1/1/gpx.xsd" version="1.1" creator="VisuGPX - https://www.visugpx.com">
  <metadata>
    <name>pic d'esquine d'ase pic de nabre pic d'en beys</name>
    <desc><![CDATA[rando sur deux jours avec bivouac étangs des peyrisses
parking de vives 09500 carte 2249 OT l'hospitalet:     vallée du nabre. pour le pic d'en beys, passage escalade 3, arrête aérienne sur le final, une corde peux être utile         ]]></desc>
  </metadata>
  <trk>
    <name><![CDATA[Pic D'esquine D'ase Pic De Nabre Pic D'en Beys on GPSies.com]]></name>
    <trkseg>
      <trkpt lat="42.62922" lon="1.91233">
        <ele>2325.2858</ele>
        <time>2016-10-28T06:27:15Z</time>
      </trkpt>
      <trkpt lat="42.62922" lon="1.91233">
        <ele>2334.9211</ele>
        <time>2010-01-01T00:00:00Z</time>
      </trkpt>
      <trkpt lat="42.62912" lon="1.91228">
        <ele>2362.9858</ele>
        <time>2010-01-01T00:00:04Z</time>
      </trkpt>
      <trkpt lat="42.62908" lon="1.91216">
        <ele>2362.6</ele>
        <time>2010-01-01T00:00:08Z</time>
      </trkpt>
      <trkpt lat="42.62902" lon="1.91205">
        <ele>2362.1</ele>
        <time>2010-01-01T00:00:12Z</time>
      </trkpt>
      <trkpt lat="42.62897" lon="1.91194">
        <ele>2361.8</ele>
        <time>2010-01-01T00:00:16Z</time>
      </trkpt>
      <trkpt lat="42.62898" lon="1.9118">
        <ele>2361.1</ele>
        <time>2010-01-01T00:00:20Z</time>
      </trkpt>
      <trkpt lat="42.62901" lon="1.91168">
        <ele>2360.1999</ele>
        <time>2010-01-01T00:00:23Z</time>
      </trkpt>
      <trkpt lat="42.62901" lon="1.91156">
        <ele>2359.6999</ele>
        <time>2010-01-01T00:00:27Z</time>
      </trkpt>
      <trkpt lat="42.62897" lon="1.91144">
        <ele>2359.6</ele>
        <time>2010-01-01T00:00:31Z</time>
      </trkpt>
      <trkpt lat="42.62892" lon="1.91133">
        <ele>2359.6</ele>
        <time>2010-01-01T00:00:35Z</time>
      </trkpt>
      <trkpt lat="42.62888" lon="1.91121">
        <ele>2359.5</ele>
        <time>2010-01-01T00:00:38Z</time>
      </trkpt>
      <trkpt lat="42.6288" lon="1.91116">
        <ele>2359.3999</ele>
        <time>2010-01-01T00:00:42Z</time>
      </trkpt>
      <trkpt lat="42.62871" lon="1.91114">
        <ele>2359.3999</ele>
        <time>2010-01-01T00:00:46Z</time>
      </trkpt>
      <trkpt lat="42.62862" lon="1.91111">
        <ele>2359.3999</ele>
        <time>2010-01-01T00:00:49Z</time>
      </trkpt>
      <trkpt lat="42.62853" lon="1.91109">
        <ele>2359.3999</ele>
        <time>2010-01-01T00:00:53Z</time>
      </trkpt>
      <trkpt lat="42.62844" lon="1.91105">
        <ele>2359.3999</ele>
        <time>2010-01-01T00:00:57Z</time>
      </trkpt>
      <trkpt lat="42.62839" lon="1.91094">
        <ele>2358.6999</ele>
        <time>2010-01-01T00:01:01Z</time>
      </trkpt>
      <trkpt lat="42.62832" lon="1.91085">
        <ele>2358.5</ele>
        <time>2010-01-01T00:01:04Z</time>
      </trkpt>
      <trkpt lat="42.62825" lon="1.91077">
        <ele>2361.1999</ele>
        <time>2010-01-01T00:01:08Z</time>
      </trkpt>
      <trkpt lat="42.62821" lon="1.91066">
        <ele>2363.8999</ele>
        <time>2010-01-01T00:01:12Z</time>
      </trkpt>
      <trkpt lat="42.62814" lon="1.91056">
        <ele>2366.5</ele>
        <time>2010-01-01T00:01:16Z</time>
      </trkpt>
      <trkpt lat="42.62807" lon="1.91049">
        <ele>2369.6</ele>
        <time>2010-01-01T00:01:20Z</time>
      </trkpt>
      <trkpt lat="42.62801" lon="1.91039">
        <ele>2372.3999</ele>
        <time>2010-01-01T00:01:23Z</time>
      </trkpt>
      <trkpt lat="42.62792" lon="1.91034">
        <ele>2375.1</ele>
        <time>2010-01-01T00:01:27Z</time>
      </trkpt>
      <trkpt lat="42.62785" lon="1.91042">
        <ele>2378.3</ele>
        <time>2010-01-01T00:01:31Z</time>
      </trkpt>
      <trkpt lat="42.62782" lon="1.91054">
        <ele>2379.6999</ele>
        <time>2010-01-01T00:01:35Z</time>
      </trkpt>
      <trkpt lat="42.62776" lon="1.91064">
        <ele>2381.1</ele>
        <time>2010-01-01T00:01:38Z</time>
      </trkpt>
      <trkpt lat="42.62767" lon="1.91068">
        <ele>2385</ele>
        <time>2010-01-01T00:01:42Z</time>
      </trkpt>
      <trkpt lat="42.62758" lon="1.91071">
        <ele>2388.3999</ele>
        <time>2010-01-01T00:01:46Z</time>
      </trkpt>
      <trkpt lat="42.62749" lon="1.91076">
        <ele>2392.1</ele>
        <time>2010-01-01T00:01:50Z</time>
      </trkpt>
      <trkpt lat="42.6274" lon="1.91075">
        <ele>2395.3999</ele>
        <time>2010-01-01T00:01:53Z</time>
      </trkpt>
      <trkpt lat="42.6273" lon="1.91073">
        <ele>2397.8</ele>
        <time>2010-01-01T00:01:57Z</time>
      </trkpt>
      <trkpt lat="42.62721" lon="1.91071">
        <ele>2400.8</ele>
        <time>2010-01-01T00:02:01Z</time>
      </trkpt>
      <trkpt lat="42.62712" lon="1.91073">
        <ele>2404.3999</ele>
        <time>2010-01-01T00:02:05Z</time>
      </trkpt>
      <trkpt lat="42.62703" lon="1.91068">
        <ele>2407.1999</ele>
        <time>2010-01-01T00:02:08Z</time>
      </trkpt>
      <trkpt lat="42.62694" lon="1.91068">
        <ele>2410.1999</ele>
        <time>2010-01-01T00:02:12Z</time>
      </trkpt>
      <trkpt lat="42.62689" lon="1.91079">
        <ele>2412.5</ele>
        <time>2010-01-01T00:02:16Z</time>
      </trkpt>
      <trkpt lat="42.62684" lon="1.91088">
        <ele>2414.1999</ele>
        <time>2010-01-01T00:02:19Z</time>
      </trkpt>
      <trkpt lat="42.62675" lon="1.91095">
        <ele>2417.3999</ele>
        <time>2010-01-01T00:02:23Z</time>
      </trkpt>
      <trkpt lat="42.62667" lon="1.91099">
        <ele>2420.6999</ele>
        <time>2010-01-01T00:02:27Z</time>
      </trkpt>
      <trkpt lat="42.6266" lon="1.91109">
        <ele>2423.1999</ele>
        <time>2010-01-01T00:02:31Z</time>
      </trkpt>
      <trkpt lat="42.62665" lon="1.91119">
        <ele>2423.8</ele>
        <time>2010-01-01T00:02:34Z</time>
      </trkpt>
      <trkpt lat="42.62666" lon="1.91132">
        <ele>2425.1</ele>
        <time>2010-01-01T00:02:38Z</time>
      </trkpt>
      <trkpt lat="42.62669" lon="1.91143">
        <ele>2425.6999</ele>
        <time>2010-01-01T00:02:42Z</time>
      </trkpt>
      <trkpt lat="42.62666" lon="1.91155">
        <ele>2427.5</ele>
        <time>2010-01-01T00:02:45Z</time>
      </trkpt>
      <trkpt lat="42.62664" lon="1.91168">
        <ele>2428.8</ele>
        <time>2010-01-01T00:02:49Z</time>
      </trkpt>
      <trkpt lat="42.62667" lon="1.9118">
        <ele>2426.8</ele>
        <time>2010-01-01T00:02:53Z</time>
      </trkpt>
      <trkpt lat="42.62667" lon="1.91193">
        <ele>2424.6999</ele>
        <time>2010-01-01T00:02:57Z</time>
      </trkpt>
      <trkpt lat="42.62666" lon="1.91205">
        <ele>2422.8</ele>
        <time>2010-01-01T00:03:00Z</time>
      </trkpt>
      <trkpt lat="42.62661" lon="1.91216">
        <ele>2421.1999</ele>
        <time>2010-01-01T00:03:04Z</time>
      </trkpt>
      <trkpt lat="42.62661" lon="1.91228">
        <ele>2419.3999</ele>
        <time>2010-01-01T00:03:08Z</time>
      </trkpt>
      <trkpt lat="42.62662" lon="1.91241">
        <ele>2416.8999</ele>
        <time>2010-01-01T00:03:11Z</time>
      </trkpt>
      <trkpt lat="42.62671" lon="1.9124">
        <ele>2415.1</ele>
        <time>2010-01-01T00:03:15Z</time>
      </trkpt>
      <trkpt lat="42.6268" lon="1.91236">
        <ele>2413.8</ele>
        <time>2010-01-01T00:03:19Z</time>
      </trkpt>
      <trkpt lat="42.62689" lon="1.91233">
        <ele>2412.1999</ele>
        <time>2010-01-01T00:03:23Z</time>
      </trkpt>
      <trkpt lat="42.62699" lon="1.91231">
        <ele>2410.5</ele>
        <time>2010-01-01T00:03:27Z</time>
      </trkpt>
      <trkpt lat="42.62707" lon="1.91237">
        <ele>2408</ele>
        <time>2010-01-01T00:03:30Z</time>
      </trkpt>
      <trkpt lat="42.62708" lon="1.91249">
        <ele>2405.6999</ele>
        <time>2010-01-01T00:03:34Z</time>
      </trkpt>
      <trkpt lat="42.62704" lon="1.9126">
        <ele>2404.5</ele>
        <time>2010-01-01T00:03:38Z</time>
      </trkpt>
      <trkpt lat="42.62707" lon="1.91273">
        <ele>2401.6</ele>
        <time>2010-01-01T00:03:41Z</time>
      </trkpt>
      <trkpt lat="42.6271" lon="1.91285">
        <ele>2397.8</ele>
        <time>2010-01-01T00:03:45Z</time>
      </trkpt>
      <trkpt lat="42.6271" lon="1.91299">
        <ele>2394.6</ele>
        <time>2010-01-01T00:03:49Z</time>
      </trkpt>
      <trkpt lat="42.62712" lon="1.91311">
        <ele>2390.8999</ele>
        <time>2010-01-01T00:03:53Z</time>
      </trkpt>
      <trkpt lat="42.62717" lon="1.91322">
        <ele>2387.1</ele>
        <time>2010-01-01T00:03:57Z</time>
      </trkpt>
      <trkpt lat="42.62723" lon="1.91333">
        <ele>2383.1999</ele>
        <time>2010-01-01T00:04:01Z</time>
      </trkpt>
      <trkpt lat="42.62726" lon="1.91346">
        <ele>2381.3</ele>
        <time>2010-01-01T00:04:05Z</time>
      </trkpt>
      <trkpt lat="42.62731" lon="1.91356">
        <ele>2380.1</ele>
        <time>2010-01-01T00:04:08Z</time>
      </trkpt>
      <trkpt lat="42.62736" lon="1.91367">
        <ele>2378.8999</ele>
        <time>2010-01-01T00:04:12Z</time>
      </trkpt>
      <trkpt lat="42.62743" lon="1.91374">
        <ele>2377.3</ele>
        <time>2010-01-01T00:04:16Z</time>
      </trkpt>
      <trkpt lat="42.62751" lon="1.91381">
        <ele>2375.3999</ele>
        <time>2010-01-01T00:04:19Z</time>
      </trkpt>
      <trkpt lat="42.62759" lon="1.91387">
        <ele>2374.3</ele>
        <time>2010-01-01T00:04:23Z</time>
      </trkpt>
      <trkpt lat="42.62764" lon="1.91397">
        <ele>2373.6</ele>
        <time>2010-01-01T00:04:27Z</time>
      </trkpt>
      <trkpt lat="42.62773" lon="1.91402">
        <ele>2372.6</ele>
        <time>2010-01-01T00:04:31Z</time>
      </trkpt>
      <trkpt lat="42.62779" lon="1.91412">
        <ele>2371.6999</ele>
        <time>2010-01-01T00:04:34Z</time>
      </trkpt>
      <trkpt lat="42.6277" lon="1.9141">
        <ele>2372.6</ele>
        <time>2010-01-01T00:04:38Z</time>
      </trkpt>
      <trkpt lat="42.62764" lon="1.91419">
        <ele>2373.1999</ele>
        <time>2010-01-01T00:04:42Z</time>
      </trkpt>
      <trkpt lat="42.62762" lon="1.91431">
        <ele>2372.8</ele>
        <time>2010-01-01T00:04:45Z</time>
      </trkpt>
      <trkpt lat="42.62766" lon="1.91442">
        <ele>2371.8</ele>
        <time>2010-01-01T00:04:49Z</time>
      </trkpt>
      <trkpt lat="42.62763" lon="1.91454">
        <ele>2371.1999</ele>
        <time>2010-01-01T00:04:53Z</time>
      </trkpt>
      <trkpt lat="42.62756" lon="1.91464">
        <ele>2370.8999</ele>
        <time>2010-01-01T00:04:57Z</time>
      </trkpt>
      <trkpt lat="42.62762" lon="1.91474">
        <ele>2370.1</ele>
        <time>2010-01-01T00:05:00Z</time>
      </trkpt>
      <trkpt lat="42.62768" lon="1.91484">
        <ele>2369.3</ele>
        <time>2010-01-01T00:05:04Z</time>
      </trkpt>
      <trkpt lat="42.62777" lon="1.91491">
        <ele>2368.8</ele>
        <time>2010-01-01T00:05:09Z</time>
      </trkpt>
      <trkpt lat="42.62786" lon="1.91494">
        <ele>2368.6999</ele>
        <time>2010-01-01T00:05:12Z</time>
      </trkpt>
      <trkpt lat="42.62793" lon="1.91503">
        <ele>2368.5</ele>
        <time>2010-01-01T00:05:16Z</time>
      </trkpt>
      <trkpt lat="42.62801" lon="1.91509">
        <ele>2368.6999</ele>
        <time>2010-01-01T00:05:20Z</time>
      </trkpt>
      <trkpt lat="42.62806" lon="1.91521">
        <ele>2368.8999</ele>
        <time>2010-01-01T00:05:24Z</time>
      </trkpt>
      <trkpt lat="42.62814" lon="1.91527">
        <ele>2369.1</ele>
        <time>2010-01-01T00:05:27Z</time>
      </trkpt>
      <trkpt lat="42.62822" lon="1.91533">
        <ele>2369.3</ele>
        <time>2010-01-01T00:05:31Z</time>
      </trkpt>
      <trkpt lat="42.62826" lon="1.91545">
        <ele>2369.5</ele>
        <time>2010-01-01T00:05:35Z</time>
      </trkpt>
      <trkpt lat="42.62833" lon="1.91554">
        <ele>2369.6</ele>
        <time>2010-01-01T00:05:39Z</time>
      </trkpt>
      <trkpt lat="42.62833" lon="1.91567">
        <ele>2369.8</ele>
        <time>2010-01-01T00:05:43Z</time>
      </trkpt>
      <trkpt lat="42.62841" lon="1.91574">
        <ele>2371.1999</ele>
        <time>2010-01-01T00:05:46Z</time>
      </trkpt>
      <trkpt lat="42.62848" lon="1.91582">
        <ele>2372.6999</ele>
        <time>2010-01-01T00:05:50Z</time>
      </trkpt>
      <trkpt lat="42.62857" lon="1.9159">
        <ele>2374.6</ele>
        <time>2010-01-01T00:05:54Z</time>
      </trkpt>
      <trkpt lat="42.62865" lon="1.91596">
        <ele>2377.3</ele>
        <time>2010-01-01T00:05:58Z</time>
      </trkpt>
      <trkpt lat="42.62862" lon="1.91609">
        <ele>2377.6999</ele>
        <time>2010-01-01T00:06:02Z</time>
      </trkpt>
      <trkpt lat="42.62868" lon="1.91619">
        <ele>2379.6</ele>
        <time>2010-01-01T00:06:06Z</time>
      </trkpt>
      <trkpt lat="42.62871" lon="1.91632">
        <ele>2381.3</ele>
        <time>2010-01-01T00:06:10Z</time>
      </trkpt>
      <trkpt lat="42.62879" lon="1.91638">
        <ele>2383.3999</ele>
        <time>2010-01-01T00:06:13Z</time>
      </trkpt>
      <trkpt lat="42.62887" lon="1.91645">
        <ele>2386.5</ele>
        <time>2010-01-01T00:06:17Z</time>
      </trkpt>
      <trkpt lat="42.62891" lon="1.91657">
        <ele>2388.6999</ele>
        <time>2010-01-01T00:06:21Z</time>
      </trkpt>
      <trkpt lat="42.62891" lon="1.9167">
        <ele>2390.1999</ele>
        <time>2010-01-01T00:06:24Z</time>
      </trkpt>
      <trkpt lat="42.62895" lon="1.91682">
        <ele>2391.8999</ele>
        <time>2010-01-01T00:06:28Z</time>
      </trkpt>
      <trkpt lat="42.62901" lon="1.91692">
        <ele>2394.5</ele>
        <time>2010-01-01T00:06:32Z</time>
      </trkpt>
      <trkpt lat="42.62906" lon="1.91703">
        <ele>2397.1999</ele>
        <time>2010-01-01T00:06:36Z</time>
      </trkpt>
      <trkpt lat="42.62908" lon="1.91716">
        <ele>2399.5</ele>
        <time>2010-01-01T00:06:40Z</time>
      </trkpt>
      <trkpt lat="42.62904" lon="1.91727">
        <ele>2399.3</ele>
        <time>2010-01-01T00:06:44Z</time>
      </trkpt>
      <trkpt lat="42.62901" lon="1.9174">
        <ele>2399.1999</ele>
        <time>2010-01-01T00:06:48Z</time>
      </trkpt>
      <trkpt lat="42.629" lon="1.91753">
        <ele>2399.1</ele>
        <time>2010-01-01T00:06:51Z</time>
      </trkpt>
      <trkpt lat="42.62898" lon="1.91765">
        <ele>2397.5</ele>
        <time>2010-01-01T00:06:55Z</time>
      </trkpt>
      <trkpt lat="42.629" lon="1.91778">
        <ele>2397.8</ele>
        <time>2010-01-01T00:06:59Z</time>
      </trkpt>
      <trkpt lat="42.62903" lon="1.91791">
        <ele>2399.3</ele>
        <time>2010-01-01T00:07:03Z</time>
      </trkpt>
      <trkpt lat="42.62902" lon="1.91803">
        <ele>2398.6999</ele>
        <time>2010-01-01T00:07:07Z</time>
      </trkpt>
      <trkpt lat="42.6291" lon="1.9181">
        <ele>2402.3</ele>
        <time>2010-01-01T00:07:10Z</time>
      </trkpt>
      <trkpt lat="42.62908" lon="1.91822">
        <ele>2402.5</ele>
        <time>2010-01-01T00:07:14Z</time>
      </trkpt>
      <trkpt lat="42.62903" lon="1.91833">
        <ele>2398.8999</ele>
        <time>2010-01-01T00:07:18Z</time>
      </trkpt>
      <trkpt lat="42.62895" lon="1.9184">
        <ele>2392.8</ele>
        <time>2010-01-01T00:07:22Z</time>
      </trkpt>
      <trkpt lat="42.62892" lon="1.91853">
        <ele>2385.5</ele>
        <time>2010-01-01T00:07:26Z</time>
      </trkpt>
      <trkpt lat="42.62888" lon="1.91865">
        <ele>2378.5</ele>
        <time>2010-01-01T00:07:30Z</time>
      </trkpt>
      <trkpt lat="42.62886" lon="1.91877">
        <ele>2374.8999</ele>
        <time>2010-01-01T00:07:33Z</time>
      </trkpt>
      <trkpt lat="42.62886" lon="1.9189">
        <ele>2370.1999</ele>
        <time>2010-01-01T00:07:37Z</time>
      </trkpt>
      <trkpt lat="42.62881" lon="1.91901">
        <ele>2364.1999</ele>
        <time>2010-01-01T00:07:41Z</time>
      </trkpt>
      <trkpt lat="42.62878" lon="1.91913">
        <ele>2357.8</ele>
        <time>2010-01-01T00:07:45Z</time>
      </trkpt>
      <trkpt lat="42.62879" lon="1.91925">
        <ele>2354.3</ele>
        <time>2010-01-01T00:07:48Z</time>
      </trkpt>
      <trkpt lat="42.62876" lon="1.91937">
        <ele>2348</ele>
        <time>2010-01-01T00:07:52Z</time>
      </trkpt>
      <trkpt lat="42.62871" lon="1.91946">
        <ele>2340.1999</ele>
        <time>2010-01-01T00:07:56Z</time>
      </trkpt>
      <trkpt lat="42.62874" lon="1.91959">
        <ele>2338.1999</ele>
        <time>2010-01-01T00:07:59Z</time>
      </trkpt>
      <trkpt lat="42.62868" lon="1.91969">
        <ele>2331.3</ele>
        <time>2010-01-01T00:08:03Z</time>
      </trkpt>
      <trkpt lat="42.62861" lon="1.91977">
        <ele>2323.1999</ele>
        <time>2010-01-01T00:08:07Z</time>
      </trkpt>
      <trkpt lat="42.62862" lon="1.9199">
        <ele>2318.6</ele>
        <time>2010-01-01T00:08:10Z</time>
      </trkpt>
      <trkpt lat="42.62862" lon="1.92002">
        <ele>2314.3999</ele>
        <time>2010-01-01T00:08:14Z</time>
      </trkpt>
      <trkpt lat="42.62864" lon="1.92016">
        <ele>2310.6999</ele>
        <time>2010-01-01T00:08:18Z</time>
      </trkpt>
      <trkpt lat="42.62864" lon="1.92028">
        <ele>2305.3999</ele>
        <time>2010-01-01T00:08:22Z</time>
      </trkpt>
      <trkpt lat="42.62865" lon="1.92041">
        <ele>2299.6</ele>
        <time>2010-01-01T00:08:26Z</time>
      </trkpt>
      <trkpt lat="42.62868" lon="1.92053">
        <ele>2295.1999</ele>
        <time>2010-01-01T00:08:30Z</time>
      </trkpt>
      <trkpt lat="42.62869" lon="1.92067">
        <ele>2289.6</ele>
        <time>2010-01-01T00:08:33Z</time>
      </trkpt>
      <trkpt lat="42.62868" lon="1.92079">
        <ele>2283.8999</ele>
        <time>2010-01-01T00:08:37Z</time>
      </trkpt>
      <trkpt lat="42.6287" lon="1.92093">
        <ele>2278.6</ele>
        <time>2010-01-01T00:08:41Z</time>
      </trkpt>
      <trkpt lat="42.62871" lon="1.92106">
        <ele>2273.6</ele>
        <time>2010-01-01T00:08:45Z</time>
      </trkpt>
      <trkpt lat="42.62871" lon="1.92118">
        <ele>2268.1999</ele>
        <time>2010-01-01T00:08:49Z</time>
      </trkpt>
      <trkpt lat="42.62873" lon="1.92131">
        <ele>2263.5</ele>
        <time>2010-01-01T00:08:53Z</time>
      </trkpt>
      <trkpt lat="42.6288" lon="1.92146">
        <ele>2258.1</ele>
        <time>2010-01-01T00:08:58Z</time>
      </trkpt>
      <trkpt lat="42.62883" lon="1.92158">
        <ele>2253.6999</ele>
        <time>2010-01-01T00:09:02Z</time>
      </trkpt>
      <trkpt lat="42.62891" lon="1.92164">
        <ele>2251.1</ele>
        <time>2010-01-01T00:09:05Z</time>
      </trkpt>
      <trkpt lat="42.62899" lon="1.9217">
        <ele>2249.8</ele>
        <time>2010-01-01T00:09:09Z</time>
      </trkpt>
      <trkpt lat="42.62908" lon="1.92175">
        <ele>2249.8999</ele>
        <time>2010-01-01T00:09:13Z</time>
      </trkpt>
      <trkpt lat="42.62915" lon="1.92183">
        <ele>2249.6</ele>
        <time>2010-01-01T00:09:17Z</time>
      </trkpt>
      <trkpt lat="42.62921" lon="1.92194">
        <ele>2248.5</ele>
        <time>2010-01-01T00:09:21Z</time>
      </trkpt>
      <trkpt lat="42.62928" lon="1.92203">
        <ele>2247.1999</ele>
        <time>2010-01-01T00:09:24Z</time>
      </trkpt>
      <trkpt lat="42.62937" lon="1.92205">
        <ele>2246.8999</ele>
        <time>2010-01-01T00:09:28Z</time>
      </trkpt>
      <trkpt lat="42.62946" lon="1.92208">
        <ele>2246.5</ele>
        <time>2010-01-01T00:09:32Z</time>
      </trkpt>
      <trkpt lat="42.62954" lon="1.92215">
        <ele>2245.1999</ele>
        <time>2010-01-01T00:09:36Z</time>
      </trkpt>
      <trkpt lat="42.62964" lon="1.92217">
        <ele>2244.5</ele>
        <time>2010-01-01T00:09:40Z</time>
      </trkpt>
      <trkpt lat="42.62973" lon="1.92219">
        <ele>2243.8999</ele>
        <time>2010-01-01T00:09:43Z</time>
      </trkpt>
      <trkpt lat="42.62982" lon="1.92213">
        <ele>2245.1</ele>
        <time>2010-01-01T00:09:47Z</time>
      </trkpt>
      <trkpt lat="42.6299" lon="1.92206">
        <ele>2247.8</ele>
        <time>2010-01-01T00:09:51Z</time>
      </trkpt>
      <trkpt lat="42.62998" lon="1.92212">
        <ele>2246.6999</ele>
        <time>2010-01-01T00:09:55Z</time>
      </trkpt>
      <trkpt lat="42.63004" lon="1.92221">
        <ele>2243.8</ele>
        <time>2010-01-01T00:09:58Z</time>
      </trkpt>
      <trkpt lat="42.63009" lon="1.92233">
        <ele>2239.6999</ele>
        <time>2010-01-01T00:10:02Z</time>
      </trkpt>
      <trkpt lat="42.63015" lon="1.92242">
        <ele>2235.3999</ele>
        <time>2010-01-01T00:10:06Z</time>
      </trkpt>
      <trkpt lat="42.63024" lon="1.92246">
        <ele>2233.5</ele>
        <time>2010-01-01T00:10:10Z</time>
      </trkpt>
      <trkpt lat="42.63033" lon="1.92253">
        <ele>2231.1</ele>
        <time>2010-01-01T00:10:14Z</time>
      </trkpt>
      <trkpt lat="42.63042" lon="1.9226">
        <ele>2230</ele>
        <time>2010-01-01T00:10:18Z</time>
      </trkpt>
      <trkpt lat="42.63049" lon="1.92267">
        <ele>2229.1999</ele>
        <time>2010-01-01T00:10:21Z</time>
      </trkpt>
      <trkpt lat="42.63058" lon="1.92269">
        <ele>2228.6999</ele>
        <time>2010-01-01T00:10:25Z</time>
      </trkpt>
      <trkpt lat="42.63067" lon="1.92274">
        <ele>2228</ele>
        <time>2010-01-01T00:10:29Z</time>
      </trkpt>
      <trkpt lat="42.63075" lon="1.9228">
        <ele>2227.1999</ele>
        <time>2010-01-01T00:10:33Z</time>
      </trkpt>
      <trkpt lat="42.6308" lon="1.92292">
        <ele>2225.8</ele>
        <time>2010-01-01T00:10:37Z</time>
      </trkpt>
      <trkpt lat="42.6308" lon="1.92305">
        <ele>2224.3</ele>
        <time>2010-01-01T00:10:40Z</time>
      </trkpt>
      <trkpt lat="42.63083" lon="1.92317">
        <ele>2222.5</ele>
        <time>2010-01-01T00:10:44Z</time>
      </trkpt>
      <trkpt lat="42.63088" lon="1.92328">
        <ele>2220.5</ele>
        <time>2010-01-01T00:10:48Z</time>
      </trkpt>
      <trkpt lat="42.63095" lon="1.92334">
        <ele>2219</ele>
        <time>2010-01-01T00:10:52Z</time>
      </trkpt>
      <trkpt lat="42.631" lon="1.92345">
        <ele>2219.8</ele>
        <time>2010-01-01T00:10:55Z</time>
      </trkpt>
      <trkpt lat="42.631" lon="1.92358">
        <ele>2222.8</ele>
        <time>2010-01-01T00:10:59Z</time>
      </trkpt>
      <trkpt lat="42.63095" lon="1.92369">
        <ele>2225.3999</ele>
        <time>2010-01-01T00:11:03Z</time>
      </trkpt>
      <trkpt lat="42.63095" lon="1.92382">
        <ele>2228.3999</ele>
        <time>2010-01-01T00:11:07Z</time>
      </trkpt>
      <trkpt lat="42.63096" lon="1.92394">
        <ele>2230.6</ele>
        <time>2010-01-01T00:11:10Z</time>
      </trkpt>
      <trkpt lat="42.63095" lon="1.92407">
        <ele>2233.6999</ele>
        <time>2010-01-01T00:11:14Z</time>
      </trkpt>
      <trkpt lat="42.63101" lon="1.92416">
        <ele>2235.1999</ele>
        <time>2010-01-01T00:11:18Z</time>
      </trkpt>
      <trkpt lat="42.63102" lon="1.92429">
        <ele>2237.3</ele>
        <time>2010-01-01T00:11:22Z</time>
      </trkpt>
      <trkpt lat="42.63106" lon="1.9244">
        <ele>2240.3</ele>
        <time>2010-01-01T00:11:25Z</time>
      </trkpt>
      <trkpt lat="42.63109" lon="1.92451">
        <ele>2242.3999</ele>
        <time>2010-01-01T00:11:29Z</time>
      </trkpt>
      <trkpt lat="42.63112" lon="1.92464">
        <ele>2245.6</ele>
        <time>2010-01-01T00:11:33Z</time>
      </trkpt>
      <trkpt lat="42.63108" lon="1.92476">
        <ele>2249.1999</ele>
        <time>2010-01-01T00:11:37Z</time>
      </trkpt>
      <trkpt lat="42.63101" lon="1.92486">
        <ele>2252.8999</ele>
        <time>2010-01-01T00:11:41Z</time>
      </trkpt>
      <trkpt lat="42.63097" lon="1.92497">
        <ele>2256.3</ele>
        <time>2010-01-01T00:11:44Z</time>
      </trkpt>
      <trkpt lat="42.63096" lon="1.92509">
        <ele>2259.3999</ele>
        <time>2010-01-01T00:11:48Z</time>
      </trkpt>
      <trkpt lat="42.63102" lon="1.92519">
        <ele>2261.1999</ele>
        <time>2010-01-01T00:11:52Z</time>
      </trkpt>
      <trkpt lat="42.63108" lon="1.9253">
        <ele>2262.8</ele>
        <time>2010-01-01T00:11:55Z</time>
      </trkpt>
      <trkpt lat="42.63108" lon="1.92543">
        <ele>2265.3</ele>
        <time>2010-01-01T00:11:59Z</time>
      </trkpt>
      <trkpt lat="42.63105" lon="1.92556">
        <ele>2268.3</ele>
        <time>2010-01-01T00:12:03Z</time>
      </trkpt>
      <trkpt lat="42.63099" lon="1.92566">
        <ele>2270.8</ele>
        <time>2010-01-01T00:12:07Z</time>
      </trkpt>
      <trkpt lat="42.63096" lon="1.92578">
        <ele>2273.3</ele>
        <time>2010-01-01T00:12:11Z</time>
      </trkpt>
      <trkpt lat="42.63096" lon="1.9259">
        <ele>2276.3</ele>
        <time>2010-01-01T00:12:15Z</time>
      </trkpt>
      <trkpt lat="42.63101" lon="1.926">
        <ele>2279.8</ele>
        <time>2010-01-01T00:12:18Z</time>
      </trkpt>
      <trkpt lat="42.63102" lon="1.92613">
        <ele>2282.8999</ele>
        <time>2010-01-01T00:12:22Z</time>
      </trkpt>
      <trkpt lat="42.63099" lon="1.92625">
        <ele>2286.1999</ele>
        <time>2010-01-01T00:12:26Z</time>
      </trkpt>
      <trkpt lat="42.63107" lon="1.92633">
        <ele>2289.6999</ele>
        <time>2010-01-01T00:12:29Z</time>
      </trkpt>
      <trkpt lat="42.63106" lon="1.92645">
        <ele>2293.1</ele>
        <time>2010-01-01T00:12:33Z</time>
      </trkpt>
      <trkpt lat="42.63113" lon="1.92654">
        <ele>2295.8999</ele>
        <time>2010-01-01T00:12:37Z</time>
      </trkpt>
      <trkpt lat="42.63116" lon="1.92666">
        <ele>2299.3999</ele>
        <time>2010-01-01T00:12:41Z</time>
      </trkpt>
      <trkpt lat="42.63121" lon="1.92677">
        <ele>2302.6999</ele>
        <time>2010-01-01T00:12:44Z</time>
      </trkpt>
      <trkpt lat="42.63128" lon="1.92686">
        <ele>2305.6</ele>
        <time>2010-01-01T00:12:48Z</time>
      </trkpt>
      <trkpt lat="42.63128" lon="1.92699">
        <ele>2309.1999</ele>
        <time>2010-01-01T00:12:52Z</time>
      </trkpt>
      <trkpt lat="42.6313" lon="1.92712">
        <ele>2312.8999</ele>
        <time>2010-01-01T00:12:56Z</time>
      </trkpt>
      <trkpt lat="42.63126" lon="1.92723">
        <ele>2316.1999</ele>
        <time>2010-01-01T00:12:59Z</time>
      </trkpt>
      <trkpt lat="42.63133" lon="1.9273">
        <ele>2319.1</ele>
        <time>2010-01-01T00:13:03Z</time>
      </trkpt>
      <trkpt lat="42.63142" lon="1.92745">
        <ele>2323</ele>
        <time>2010-01-01T00:13:09Z</time>
      </trkpt>
      <trkpt lat="42.63147" lon="1.92755">
        <ele>2327.1999</ele>
        <time>2010-01-01T00:13:13Z</time>
      </trkpt>
      <trkpt lat="42.6315" lon="1.92767">
        <ele>2330.6</ele>
        <time>2010-01-01T00:13:16Z</time>
      </trkpt>
      <trkpt lat="42.63157" lon="1.92777">
        <ele>2333.6999</ele>
        <time>2010-01-01T00:13:20Z</time>
      </trkpt>
      <trkpt lat="42.63166" lon="1.92775">
        <ele>2334.1999</ele>
        <time>2010-01-01T00:13:24Z</time>
      </trkpt>
      <trkpt lat="42.63173" lon="1.92784">
        <ele>2334.8999</ele>
        <time>2010-01-01T00:13:28Z</time>
      </trkpt>
      <trkpt lat="42.63179" lon="1.92794">
        <ele>2335.3999</ele>
        <time>2010-01-01T00:13:31Z</time>
      </trkpt>
      <trkpt lat="42.63174" lon="1.92805">
        <ele>2338.8</ele>
        <time>2010-01-01T00:13:35Z</time>
      </trkpt>
      <trkpt lat="42.63171" lon="1.92817">
        <ele>2341.8</ele>
        <time>2010-01-01T00:13:39Z</time>
      </trkpt>
      <trkpt lat="42.63167" lon="1.92828">
        <ele>2345.1</ele>
        <time>2010-01-01T00:13:42Z</time>
      </trkpt>
      <trkpt lat="42.63175" lon="1.92836">
        <ele>2346.3999</ele>
        <time>2010-01-01T00:13:46Z</time>
      </trkpt>
      <trkpt lat="42.63182" lon="1.92844">
        <ele>2346.6999</ele>
        <time>2010-01-01T00:13:50Z</time>
      </trkpt>
      <trkpt lat="42.63183" lon="1.92856">
        <ele>2348.6999</ele>
        <time>2010-01-01T00:13:54Z</time>
      </trkpt>
      <trkpt lat="42.6318" lon="1.92868">
        <ele>2351.6999</ele>
        <time>2010-01-01T00:13:57Z</time>
      </trkpt>
      <trkpt lat="42.63178" lon="1.9288">
        <ele>2354.6999</ele>
        <time>2010-01-01T00:14:01Z</time>
      </trkpt>
      <trkpt lat="42.63177" lon="1.92893">
        <ele>2357.1</ele>
        <time>2010-01-01T00:14:05Z</time>
      </trkpt>
      <trkpt lat="42.63173" lon="1.92905">
        <ele>2360.1</ele>
        <time>2010-01-01T00:14:08Z</time>
      </trkpt>
      <trkpt lat="42.63175" lon="1.92917">
        <ele>2362.6</ele>
        <time>2010-01-01T00:14:12Z</time>
      </trkpt>
      <trkpt lat="42.63181" lon="1.92927">
        <ele>2364.1</ele>
        <time>2010-01-01T00:14:16Z</time>
      </trkpt>
      <trkpt lat="42.63187" lon="1.92936">
        <ele>2365.1</ele>
        <time>2010-01-01T00:14:19Z</time>
      </trkpt>
      <trkpt lat="42.63191" lon="1.92947">
        <ele>2366.8</ele>
        <time>2010-01-01T00:14:23Z</time>
      </trkpt>
      <trkpt lat="42.63185" lon="1.92957">
        <ele>2369.8999</ele>
        <time>2010-01-01T00:14:27Z</time>
      </trkpt>
      <trkpt lat="42.63179" lon="1.92967">
        <ele>2373</ele>
        <time>2010-01-01T00:14:31Z</time>
      </trkpt>
      <trkpt lat="42.63178" lon="1.9298">
        <ele>2376</ele>
        <time>2010-01-01T00:14:34Z</time>
      </trkpt>
      <trkpt lat="42.63179" lon="1.92994">
        <ele>2378.8999</ele>
        <time>2010-01-01T00:14:38Z</time>
      </trkpt>
      <trkpt lat="42.63177" lon="1.93006">
        <ele>2382.6999</ele>
        <time>2010-01-01T00:14:42Z</time>
      </trkpt>
      <trkpt lat="42.63175" lon="1.9302">
        <ele>2388.3999</ele>
        <time>2010-01-01T00:14:46Z</time>
      </trkpt>
      <trkpt lat="42.63168" lon="1.9303">
        <ele>2393.8</ele>
        <time>2010-01-01T00:14:51Z</time>
      </trkpt>
      <trkpt lat="42.63171" lon="1.93042">
        <ele>2398.1</ele>
        <time>2010-01-01T00:14:54Z</time>
      </trkpt>
      <trkpt lat="42.63167" lon="1.93053">
        <ele>2403.3999</ele>
        <time>2010-01-01T00:14:58Z</time>
      </trkpt>
      <trkpt lat="42.63169" lon="1.93066">
        <ele>2407.8999</ele>
        <time>2010-01-01T00:15:02Z</time>
      </trkpt>
      <trkpt lat="42.63176" lon="1.93075">
        <ele>2410.1999</ele>
        <time>2010-01-01T00:15:06Z</time>
      </trkpt>
      <trkpt lat="42.6318" lon="1.93086">
        <ele>2412.3999</ele>
        <time>2010-01-01T00:15:09Z</time>
      </trkpt>
      <trkpt lat="42.63182" lon="1.931">
        <ele>2418.6999</ele>
        <time>2010-01-01T00:15:13Z</time>
      </trkpt>
      <trkpt lat="42.63186" lon="1.93112">
        <ele>2421.8</ele>
        <time>2010-01-01T00:15:17Z</time>
      </trkpt>
      <trkpt lat="42.6318" lon="1.93121">
        <ele>2430.3999</ele>
        <time>2010-01-01T00:15:21Z</time>
      </trkpt>
      <trkpt lat="42.6317" lon="1.93119">
        <ele>2433.6</ele>
        <time>2010-01-01T00:15:25Z</time>
      </trkpt>
      <trkpt lat="42.63158" lon="1.93118">
        <ele>2437.8999</ele>
        <time>2010-01-01T00:15:30Z</time>
      </trkpt>
      <trkpt lat="42.63149" lon="1.93116">
        <ele>2438</ele>
        <time>2010-01-01T00:15:33Z</time>
      </trkpt>
      <trkpt lat="42.63133" lon="1.93102">
        <ele>2437</ele>
        <time>2010-01-01T00:15:41Z</time>
      </trkpt>
      <trkpt lat="42.63133" lon="1.93115">
        <ele>2441.8</ele>
        <time>2010-01-01T00:15:45Z</time>
      </trkpt>
      <trkpt lat="42.63127" lon="1.93125">
        <ele>2448.5</ele>
        <time>2010-01-01T00:15:48Z</time>
      </trkpt>
      <trkpt lat="42.63134" lon="1.93138">
        <ele>2452.1</ele>
        <time>2010-01-01T00:15:53Z</time>
      </trkpt>
      <trkpt lat="42.63141" lon="1.93146">
        <ele>2455.8</ele>
        <time>2010-01-01T00:15:57Z</time>
      </trkpt>
      <trkpt lat="42.63148" lon="1.93153">
        <ele>2457.5</ele>
        <time>2010-01-01T00:16:00Z</time>
      </trkpt>
      <trkpt lat="42.63157" lon="1.93165">
        <ele>2460.1</ele>
        <time>2010-01-01T00:16:05Z</time>
      </trkpt>
      <trkpt lat="42.63146" lon="1.93148">
        <ele>2456</ele>
        <time>2010-01-01T00:16:12Z</time>
      </trkpt>
      <trkpt lat="42.63161" lon="1.93167">
        <ele>2460</ele>
        <time>2010-01-01T00:16:20Z</time>
      </trkpt>
      <trkpt lat="42.63177" lon="1.93184">
        <ele>2463</ele>
        <time>2010-01-01T00:16:28Z</time>
      </trkpt>
      <trkpt lat="42.63187" lon="1.93192">
        <ele>2462.1</ele>
        <time>2010-01-01T00:16:33Z</time>
      </trkpt>
      <trkpt lat="42.63192" lon="1.93202">
        <ele>2463</ele>
        <time>2010-01-01T00:16:37Z</time>
      </trkpt>
      <trkpt lat="42.63197" lon="1.93214">
        <ele>2467.5</ele>
        <time>2010-01-01T00:16:40Z</time>
      </trkpt>
      <trkpt lat="42.63205" lon="1.93217">
        <ele>2464.1999</ele>
        <time>2010-01-01T00:16:44Z</time>
      </trkpt>
      <trkpt lat="42.63213" lon="1.93225">
        <ele>2463.1</ele>
        <time>2010-01-01T00:16:48Z</time>
      </trkpt>
      <trkpt lat="42.63204" lon="1.93215">
        <ele>2463.1</ele>
        <time>2010-01-01T00:16:53Z</time>
      </trkpt>
      <trkpt lat="42.63189" lon="1.93194">
        <ele>2463</ele>
        <time>2010-01-01T00:17:01Z</time>
      </trkpt>
      <trkpt lat="42.63183" lon="1.93182">
        <ele>2459.3</ele>
        <time>2010-01-01T00:17:05Z</time>
      </trkpt>
      <trkpt lat="42.63174" lon="1.93191">
        <ele>2464.8</ele>
        <time>2010-01-01T00:17:10Z</time>
      </trkpt>
      <trkpt lat="42.63173" lon="1.93178">
        <ele>2464.6</ele>
        <time>2010-01-01T00:17:14Z</time>
      </trkpt>
      <trkpt lat="42.63166" lon="1.93169">
        <ele>2462.1999</ele>
        <time>2010-01-01T00:17:17Z</time>
      </trkpt>
      <trkpt lat="42.63158" lon="1.9316">
        <ele>2459.6</ele>
        <time>2010-01-01T00:17:22Z</time>
      </trkpt>
      <trkpt lat="42.63151" lon="1.93151">
        <ele>2456.8999</ele>
        <time>2010-01-01T00:17:25Z</time>
      </trkpt>
      <trkpt lat="42.63145" lon="1.93139">
        <ele>2452.3999</ele>
        <time>2010-01-01T00:17:30Z</time>
      </trkpt>
      <trkpt lat="42.63124" lon="1.9311">
        <ele>2445</ele>
        <time>2010-01-01T00:17:42Z</time>
      </trkpt>
      <trkpt lat="42.6312" lon="1.93098">
        <ele>2441.1</ele>
        <time>2010-01-01T00:17:46Z</time>
      </trkpt>
      <trkpt lat="42.63117" lon="1.93086">
        <ele>2434.5</ele>
        <time>2010-01-01T00:17:49Z</time>
      </trkpt>
      <trkpt lat="42.63141" lon="1.93088">
        <ele>2427</ele>
        <time>2010-01-01T00:17:59Z</time>
      </trkpt>
      <trkpt lat="42.63158" lon="1.93085">
        <ele>2423.1</ele>
        <time>2010-01-01T00:18:06Z</time>
      </trkpt>
      <trkpt lat="42.63167" lon="1.93079">
        <ele>2416.1</ele>
        <time>2010-01-01T00:18:10Z</time>
      </trkpt>
      <trkpt lat="42.63173" lon="1.93068">
        <ele>2409.8</ele>
        <time>2010-01-01T00:18:14Z</time>
      </trkpt>
      <trkpt lat="42.63173" lon="1.93056">
        <ele>2404.3999</ele>
        <time>2010-01-01T00:18:18Z</time>
      </trkpt>
      <trkpt lat="42.63175" lon="1.93044">
        <ele>2399.3</ele>
        <time>2010-01-01T00:18:21Z</time>
      </trkpt>
      <trkpt lat="42.63177" lon="1.93031">
        <ele>2394</ele>
        <time>2010-01-01T00:18:25Z</time>
      </trkpt>
      <trkpt lat="42.63182" lon="1.9302">
        <ele>2388.8999</ele>
        <time>2010-01-01T00:18:29Z</time>
      </trkpt>
      <trkpt lat="42.6318" lon="1.93008">
        <ele>2384.6</ele>
        <time>2010-01-01T00:18:32Z</time>
      </trkpt>
      <trkpt lat="42.63188" lon="1.93001">
        <ele>2380.6999</ele>
        <time>2010-01-01T00:18:36Z</time>
      </trkpt>
      <trkpt lat="42.63187" lon="1.92989">
        <ele>2377.3999</ele>
        <time>2010-01-01T00:18:40Z</time>
      </trkpt>
      <trkpt lat="42.63183" lon="1.92978">
        <ele>2375.8</ele>
        <time>2010-01-01T00:18:43Z</time>
      </trkpt>
      <trkpt lat="42.63188" lon="1.92968">
        <ele>2372.6999</ele>
        <time>2010-01-01T00:18:47Z</time>
      </trkpt>
      <trkpt lat="42.63185" lon="1.92956">
        <ele>2370.8</ele>
        <time>2010-01-01T00:18:51Z</time>
      </trkpt>
      <trkpt lat="42.63185" lon="1.92943">
        <ele>2368.1999</ele>
        <time>2010-01-01T00:18:54Z</time>
      </trkpt>
      <trkpt lat="42.6318" lon="1.92932">
        <ele>2366.1999</ele>
        <time>2010-01-01T00:18:58Z</time>
      </trkpt>
      <trkpt lat="42.63175" lon="1.92921">
        <ele>2364.1999</ele>
        <time>2010-01-01T00:19:02Z</time>
      </trkpt>
      <trkpt lat="42.63171" lon="1.92909">
        <ele>2362.3</ele>
        <time>2010-01-01T00:19:06Z</time>
      </trkpt>
      <trkpt lat="42.63167" lon="1.92898">
        <ele>2360.5</ele>
        <time>2010-01-01T00:19:09Z</time>
      </trkpt>
      <trkpt lat="42.63167" lon="1.92885">
        <ele>2358</ele>
        <time>2010-01-01T00:19:13Z</time>
      </trkpt>
      <trkpt lat="42.63168" lon="1.92873">
        <ele>2355.1</ele>
        <time>2010-01-01T00:19:17Z</time>
      </trkpt>
      <trkpt lat="42.63167" lon="1.9286">
        <ele>2352.8999</ele>
        <time>2010-01-01T00:19:21Z</time>
      </trkpt>
      <trkpt lat="42.63164" lon="1.92849">
        <ele>2350.3999</ele>
        <time>2010-01-01T00:19:24Z</time>
      </trkpt>
      <trkpt lat="42.6316" lon="1.92838">
        <ele>2348.3</ele>
        <time>2010-01-01T00:19:28Z</time>
      </trkpt>
      <trkpt lat="42.63155" lon="1.92826">
        <ele>2345.3999</ele>
        <time>2010-01-01T00:19:32Z</time>
      </trkpt>
      <trkpt lat="42.63155" lon="1.92813">
        <ele>2342.6</ele>
        <time>2010-01-01T00:19:36Z</time>
      </trkpt>
      <trkpt lat="42.6315" lon="1.92803">
        <ele>2339.3</ele>
        <time>2010-01-01T00:19:39Z</time>
      </trkpt>
      <trkpt lat="42.63141" lon="1.928">
        <ele>2338.3</ele>
        <time>2010-01-01T00:19:43Z</time>
      </trkpt>
      <trkpt lat="42.63136" lon="1.92789">
        <ele>2335.6999</ele>
        <time>2010-01-01T00:19:47Z</time>
      </trkpt>
      <trkpt lat="42.63132" lon="1.92777">
        <ele>2332.6999</ele>
        <time>2010-01-01T00:19:51Z</time>
      </trkpt>
      <trkpt lat="42.63131" lon="1.92764">
        <ele>2329.6999</ele>
        <time>2010-01-01T00:19:55Z</time>
      </trkpt>
      <trkpt lat="42.63124" lon="1.92756">
        <ele>2326.6999</ele>
        <time>2010-01-01T00:19:58Z</time>
      </trkpt>
      <trkpt lat="42.63116" lon="1.92751">
        <ele>2324.8999</ele>
        <time>2010-01-01T00:20:02Z</time>
      </trkpt>
      <trkpt lat="42.63113" lon="1.92739">
        <ele>2321.1</ele>
        <time>2010-01-01T00:20:06Z</time>
      </trkpt>
      <trkpt lat="42.6311" lon="1.92727">
        <ele>2317.6999</ele>
        <time>2010-01-01T00:20:09Z</time>
      </trkpt>
      <trkpt lat="42.63111" lon="1.92714">
        <ele>2314.3999</ele>
        <time>2010-01-01T00:20:13Z</time>
      </trkpt>
      <trkpt lat="42.63118" lon="1.92705">
        <ele>2311.8999</ele>
        <time>2010-01-01T00:20:17Z</time>
      </trkpt>
      <trkpt lat="42.63116" lon="1.92693">
        <ele>2308.8</ele>
        <time>2010-01-01T00:20:21Z</time>
      </trkpt>
      <trkpt lat="42.63116" lon="1.9268">
        <ele>2305.1999</ele>
        <time>2010-01-01T00:20:24Z</time>
      </trkpt>
      <trkpt lat="42.63109" lon="1.92672">
        <ele>2302.1</ele>
        <time>2010-01-01T00:20:28Z</time>
      </trkpt>
      <trkpt lat="42.63103" lon="1.92661">
        <ele>2298.6999</ele>
        <time>2010-01-01T00:20:32Z</time>
      </trkpt>
      <trkpt lat="42.63102" lon="1.92649">
        <ele>2295.5</ele>
        <time>2010-01-01T00:20:35Z</time>
      </trkpt>
      <trkpt lat="42.63105" lon="1.92636">
        <ele>2291.8</ele>
        <time>2010-01-01T00:20:39Z</time>
      </trkpt>
      <trkpt lat="42.6311" lon="1.92626">
        <ele>2288.6999</ele>
        <time>2010-01-01T00:20:43Z</time>
      </trkpt>
      <trkpt lat="42.63103" lon="1.92619">
        <ele>2285.8</ele>
        <time>2010-01-01T00:20:47Z</time>
      </trkpt>
      <trkpt lat="42.63102" lon="1.92606">
        <ele>2282.3999</ele>
        <time>2010-01-01T00:20:50Z</time>
      </trkpt>
      <trkpt lat="42.63095" lon="1.92597">
        <ele>2279.8</ele>
        <time>2010-01-01T00:20:54Z</time>
      </trkpt>
      <trkpt lat="42.63091" lon="1.92585">
        <ele>2276.1999</ele>
        <time>2010-01-01T00:20:58Z</time>
      </trkpt>
      <trkpt lat="42.63086" lon="1.92575">
        <ele>2273.5</ele>
        <time>2010-01-01T00:21:02Z</time>
      </trkpt>
      <trkpt lat="42.63083" lon="1.92563">
        <ele>2271.8999</ele>
        <time>2010-01-01T00:21:05Z</time>
      </trkpt>
      <trkpt lat="42.63085" lon="1.9255">
        <ele>2269.8999</ele>
        <time>2010-01-01T00:21:09Z</time>
      </trkpt>
      <trkpt lat="42.63089" lon="1.92536">
        <ele>2267.1999</ele>
        <time>2010-01-01T00:21:13Z</time>
      </trkpt>
      <trkpt lat="42.63093" lon="1.92525">
        <ele>2264.6999</ele>
        <time>2010-01-01T00:21:17Z</time>
      </trkpt>
      <trkpt lat="42.63091" lon="1.92513">
        <ele>2262</ele>
        <time>2010-01-01T00:21:21Z</time>
      </trkpt>
      <trkpt lat="42.63089" lon="1.925">
        <ele>2260</ele>
        <time>2010-01-01T00:21:25Z</time>
      </trkpt>
      <trkpt lat="42.63083" lon="1.92489">
        <ele>2257.8</ele>
        <time>2010-01-01T00:21:29Z</time>
      </trkpt>
      <trkpt lat="42.63082" lon="1.92477">
        <ele>2254.8999</ele>
        <time>2010-01-01T00:21:33Z</time>
      </trkpt>
      <trkpt lat="42.63084" lon="1.92464">
        <ele>2251.8</ele>
        <time>2010-01-01T00:21:36Z</time>
      </trkpt>
      <trkpt lat="42.63089" lon="1.92453">
        <ele>2248</ele>
        <time>2010-01-01T00:21:40Z</time>
      </trkpt>
      <trkpt lat="42.6309" lon="1.9244">
        <ele>2244.6</ele>
        <time>2010-01-01T00:21:44Z</time>
      </trkpt>
      <trkpt lat="42.63092" lon="1.92427">
        <ele>2240.6999</ele>
        <time>2010-01-01T00:21:48Z</time>
      </trkpt>
      <trkpt lat="42.63094" lon="1.92414">
        <ele>2237.6</ele>
        <time>2010-01-01T00:21:52Z</time>
      </trkpt>
      <trkpt lat="42.63088" lon="1.92404">
        <ele>2235.6</ele>
        <time>2010-01-01T00:21:55Z</time>
      </trkpt>
      <trkpt lat="42.63088" lon="1.92391">
        <ele>2233.1</ele>
        <time>2010-01-01T00:21:59Z</time>
      </trkpt>
      <trkpt lat="42.63088" lon="1.92378">
        <ele>2230.5</ele>
        <time>2010-01-01T00:22:03Z</time>
      </trkpt>
      <trkpt lat="42.63087" lon="1.92365">
        <ele>2227.3999</ele>
        <time>2010-01-01T00:22:07Z</time>
      </trkpt>
      <trkpt lat="42.63083" lon="1.92354">
        <ele>2225.3</ele>
        <time>2010-01-01T00:22:10Z</time>
      </trkpt>
      <trkpt lat="42.63083" lon="1.92341">
        <ele>2222.3999</ele>
        <time>2010-01-01T00:22:14Z</time>
      </trkpt>
      <trkpt lat="42.63084" lon="1.92328">
        <ele>2220.5</ele>
        <time>2010-01-01T00:22:18Z</time>
      </trkpt>
      <trkpt lat="42.63076" lon="1.9232">
        <ele>2221.6</ele>
        <time>2010-01-01T00:22:22Z</time>
      </trkpt>
      <trkpt lat="42.63069" lon="1.92312">
        <ele>2223.1999</ele>
        <time>2010-01-01T00:22:26Z</time>
      </trkpt>
      <trkpt lat="42.63072" lon="1.923">
        <ele>2224.1999</ele>
        <time>2010-01-01T00:22:29Z</time>
      </trkpt>
      <trkpt lat="42.63074" lon="1.92287">
        <ele>2225.6</ele>
        <time>2010-01-01T00:22:33Z</time>
      </trkpt>
      <trkpt lat="42.63071" lon="1.92275">
        <ele>2227</ele>
        <time>2010-01-01T00:22:37Z</time>
      </trkpt>
      <trkpt lat="42.63062" lon="1.9227">
        <ele>2228.1</ele>
        <time>2010-01-01T00:22:41Z</time>
      </trkpt>
      <trkpt lat="42.63053" lon="1.92269">
        <ele>2228.5</ele>
        <time>2010-01-01T00:22:45Z</time>
      </trkpt>
      <trkpt lat="42.63044" lon="1.92266">
        <ele>2229</ele>
        <time>2010-01-01T00:22:48Z</time>
      </trkpt>
      <trkpt lat="42.63037" lon="1.92257">
        <ele>2229.8</ele>
        <time>2010-01-01T00:22:52Z</time>
      </trkpt>
      <trkpt lat="42.63029" lon="1.92252">
        <ele>2230.3999</ele>
        <time>2010-01-01T00:22:56Z</time>
      </trkpt>
      <trkpt lat="42.6302" lon="1.92245">
        <ele>2232.8999</ele>
        <time>2010-01-01T00:23:00Z</time>
      </trkpt>
      <trkpt lat="42.63012" lon="1.92239">
        <ele>2235.1999</ele>
        <time>2010-01-01T00:23:04Z</time>
      </trkpt>
      <trkpt lat="42.63005" lon="1.9223">
        <ele>2238.6</ele>
        <time>2010-01-01T00:23:08Z</time>
      </trkpt>
      <trkpt lat="42.63" lon="1.92219">
        <ele>2242.6</ele>
        <time>2010-01-01T00:23:11Z</time>
      </trkpt>
      <trkpt lat="42.62994" lon="1.92209">
        <ele>2246.5</ele>
        <time>2010-01-01T00:23:15Z</time>
      </trkpt>
      <trkpt lat="42.62988" lon="1.92199">
        <ele>2250.6999</ele>
        <time>2010-01-01T00:23:19Z</time>
      </trkpt>
      <trkpt lat="42.6298" lon="1.92206">
        <ele>2248.6</ele>
        <time>2010-01-01T00:23:23Z</time>
      </trkpt>
      <trkpt lat="42.62974" lon="1.92215">
        <ele>2245.6999</ele>
        <time>2010-01-01T00:23:26Z</time>
      </trkpt>
      <trkpt lat="42.62965" lon="1.92218">
        <ele>2244.1</ele>
        <time>2010-01-01T00:23:30Z</time>
      </trkpt>
      <trkpt lat="42.62956" lon="1.92215">
        <ele>2244.5</ele>
        <time>2010-01-01T00:23:34Z</time>
      </trkpt>
      <trkpt lat="42.62946" lon="1.92213">
        <ele>2245.1999</ele>
        <time>2010-01-01T00:23:38Z</time>
      </trkpt>
      <trkpt lat="42.62937" lon="1.92208">
        <ele>2245.6</ele>
        <time>2010-01-01T00:23:42Z</time>
      </trkpt>
      <trkpt lat="42.6293" lon="1.92199">
        <ele>2247.3999</ele>
        <time>2010-01-01T00:23:45Z</time>
      </trkpt>
      <trkpt lat="42.62921" lon="1.922">
        <ele>2247.3</ele>
        <time>2010-01-01T00:23:49Z</time>
      </trkpt>
      <trkpt lat="42.62912" lon="1.92197">
        <ele>2246.8</ele>
        <time>2010-01-01T00:23:53Z</time>
      </trkpt>
      <trkpt lat="42.62908" lon="1.92186">
        <ele>2247.8999</ele>
        <time>2010-01-01T00:23:56Z</time>
      </trkpt>
      <trkpt lat="42.62903" lon="1.92176">
        <ele>2249.1999</ele>
        <time>2010-01-01T00:24:00Z</time>
      </trkpt>
      <trkpt lat="42.62894" lon="1.9217">
        <ele>2249.1999</ele>
        <time>2010-01-01T00:24:04Z</time>
      </trkpt>
      <trkpt lat="42.62886" lon="1.92163">
        <ele>2249.8999</ele>
        <time>2010-01-01T00:24:08Z</time>
      </trkpt>
      <trkpt lat="42.62878" lon="1.92154">
        <ele>2252.5</ele>
        <time>2010-01-01T00:24:12Z</time>
      </trkpt>
      <trkpt lat="42.62874" lon="1.92143">
        <ele>2255.8999</ele>
        <time>2010-01-01T00:24:16Z</time>
      </trkpt>
      <trkpt lat="42.6287" lon="1.92132">
        <ele>2260.1</ele>
        <time>2010-01-01T00:24:19Z</time>
      </trkpt>
      <trkpt lat="42.62866" lon="1.9212">
        <ele>2263.1</ele>
        <time>2010-01-01T00:24:23Z</time>
      </trkpt>
      <trkpt lat="42.62866" lon="1.92108">
        <ele>2268.1999</ele>
        <time>2010-01-01T00:24:27Z</time>
      </trkpt>
      <trkpt lat="42.62866" lon="1.92095">
        <ele>2273.3999</ele>
        <time>2010-01-01T00:24:31Z</time>
      </trkpt>
      <trkpt lat="42.62867" lon="1.92082">
        <ele>2278.5</ele>
        <time>2010-01-01T00:24:34Z</time>
      </trkpt>
      <trkpt lat="42.62865" lon="1.92069">
        <ele>2284</ele>
        <time>2010-01-01T00:24:38Z</time>
      </trkpt>
      <trkpt lat="42.62866" lon="1.92057">
        <ele>2290</ele>
        <time>2010-01-01T00:24:42Z</time>
      </trkpt>
      <trkpt lat="42.62866" lon="1.92045">
        <ele>2296</ele>
        <time>2010-01-01T00:24:45Z</time>
      </trkpt>
      <trkpt lat="42.62863" lon="1.92033">
        <ele>2299.3999</ele>
        <time>2010-01-01T00:24:49Z</time>
      </trkpt>
      <trkpt lat="42.6286" lon="1.9202">
        <ele>2303.6999</ele>
        <time>2010-01-01T00:24:53Z</time>
      </trkpt>
      <trkpt lat="42.62858" lon="1.92008">
        <ele>2307.6</ele>
        <time>2010-01-01T00:24:57Z</time>
      </trkpt>
      <trkpt lat="42.62856" lon="1.91996">
        <ele>2311.3</ele>
        <time>2010-01-01T00:25:00Z</time>
      </trkpt>
      <trkpt lat="42.62863" lon="1.91988">
        <ele>2317.8</ele>
        <time>2010-01-01T00:25:04Z</time>
      </trkpt>
      <trkpt lat="42.62865" lon="1.91975">
        <ele>2324.6</ele>
        <time>2010-01-01T00:25:08Z</time>
      </trkpt>
      <trkpt lat="42.62867" lon="1.91963">
        <ele>2329.8</ele>
        <time>2010-01-01T00:25:12Z</time>
      </trkpt>
      <trkpt lat="42.62875" lon="1.91956">
        <ele>2338</ele>
        <time>2010-01-01T00:25:15Z</time>
      </trkpt>
      <trkpt lat="42.62874" lon="1.91943">
        <ele>2342.6</ele>
        <time>2010-01-01T00:25:19Z</time>
      </trkpt>
      <trkpt lat="42.62882" lon="1.91937">
        <ele>2349.5</ele>
        <time>2010-01-01T00:25:23Z</time>
      </trkpt>
      <trkpt lat="42.62879" lon="1.91924">
        <ele>2352.6</ele>
        <time>2010-01-01T00:25:27Z</time>
      </trkpt>
      <trkpt lat="42.62878" lon="1.91912">
        <ele>2356.8</ele>
        <time>2010-01-01T00:25:31Z</time>
      </trkpt>
      <trkpt lat="42.62882" lon="1.91899">
        <ele>2362.3</ele>
        <time>2010-01-01T00:25:34Z</time>
      </trkpt>
      <trkpt lat="42.62882" lon="1.91881">
        <ele>2368.8999</ele>
        <time>2010-01-01T00:25:40Z</time>
      </trkpt>
      <trkpt lat="42.62883" lon="1.91868">
        <ele>2373.6999</ele>
        <time>2010-01-01T00:25:44Z</time>
      </trkpt>
      <trkpt lat="42.62884" lon="1.91856">
        <ele>2378</ele>
        <time>2010-01-01T00:25:47Z</time>
      </trkpt>
      <trkpt lat="42.62887" lon="1.91843">
        <ele>2380.1</ele>
        <time>2010-01-01T00:25:51Z</time>
      </trkpt>
      <trkpt lat="42.62892" lon="1.91833">
        <ele>2386.5</ele>
        <time>2010-01-01T00:25:55Z</time>
      </trkpt>
      <trkpt lat="42.62884" lon="1.91827">
        <ele>2387.5</ele>
        <time>2010-01-01T00:25:59Z</time>
      </trkpt>
      <trkpt lat="42.62892" lon="1.91823">
        <ele>2390.6</ele>
        <time>2010-01-01T00:26:02Z</time>
      </trkpt>
      <trkpt lat="42.62902" lon="1.91822">
        <ele>2396.3</ele>
        <time>2010-01-01T00:26:06Z</time>
      </trkpt>
      <trkpt lat="42.62905" lon="1.91811">
        <ele>2400</ele>
        <time>2010-01-01T00:26:10Z</time>
      </trkpt>
      <trkpt lat="42.62901" lon="1.91799">
        <ele>2398.5</ele>
        <time>2010-01-01T00:26:13Z</time>
      </trkpt>
      <trkpt lat="42.62896" lon="1.91787">
        <ele>2396</ele>
        <time>2010-01-01T00:26:17Z</time>
      </trkpt>
      <trkpt lat="42.62894" lon="1.91775">
        <ele>2395.3</ele>
        <time>2010-01-01T00:26:21Z</time>
      </trkpt>
      <trkpt lat="42.62891" lon="1.91763">
        <ele>2394.3</ele>
        <time>2010-01-01T00:26:25Z</time>
      </trkpt>
      <trkpt lat="42.62891" lon="1.9175">
        <ele>2394.6999</ele>
        <time>2010-01-01T00:26:29Z</time>
      </trkpt>
      <trkpt lat="42.62893" lon="1.91738">
        <ele>2394.8</ele>
        <time>2010-01-01T00:26:32Z</time>
      </trkpt>
      <trkpt lat="42.62896" lon="1.91725">
        <ele>2395.5</ele>
        <time>2010-01-01T00:26:36Z</time>
      </trkpt>
      <trkpt lat="42.62899" lon="1.91714">
        <ele>2396</ele>
        <time>2010-01-01T00:26:40Z</time>
      </trkpt>
      <trkpt lat="42.62899" lon="1.917">
        <ele>2395.5</ele>
        <time>2010-01-01T00:26:44Z</time>
      </trkpt>
      <trkpt lat="42.62893" lon="1.9169">
        <ele>2393.1</ele>
        <time>2010-01-01T00:26:48Z</time>
      </trkpt>
      <trkpt lat="42.62887" lon="1.91681">
        <ele>2390.3999</ele>
        <time>2010-01-01T00:26:52Z</time>
      </trkpt>
      <trkpt lat="42.62885" lon="1.91668">
        <ele>2388.8</ele>
        <time>2010-01-01T00:26:55Z</time>
      </trkpt>
      <trkpt lat="42.62883" lon="1.91655">
        <ele>2387.1999</ele>
        <time>2010-01-01T00:26:59Z</time>
      </trkpt>
      <trkpt lat="42.62879" lon="1.91644">
        <ele>2385.3999</ele>
        <time>2010-01-01T00:27:03Z</time>
      </trkpt>
      <trkpt lat="42.62874" lon="1.91634">
        <ele>2383.1</ele>
        <time>2010-01-01T00:27:07Z</time>
      </trkpt>
      <trkpt lat="42.62871" lon="1.91622">
        <ele>2381.3999</ele>
        <time>2010-01-01T00:27:10Z</time>
      </trkpt>
      <trkpt lat="42.6287" lon="1.91609">
        <ele>2380.1</ele>
        <time>2010-01-01T00:27:14Z</time>
      </trkpt>
      <trkpt lat="42.62871" lon="1.91596">
        <ele>2379.3</ele>
        <time>2010-01-01T00:27:18Z</time>
      </trkpt>
      <trkpt lat="42.62867" lon="1.91584">
        <ele>2377.8</ele>
        <time>2010-01-01T00:27:22Z</time>
      </trkpt>
      <trkpt lat="42.62859" lon="1.91578">
        <ele>2375.6999</ele>
        <time>2010-01-01T00:27:25Z</time>
      </trkpt>
      <trkpt lat="42.6285" lon="1.91578">
        <ele>2373.8</ele>
        <time>2010-01-01T00:27:29Z</time>
      </trkpt>
      <trkpt lat="42.62841" lon="1.91583">
        <ele>2372.1999</ele>
        <time>2010-01-01T00:27:33Z</time>
      </trkpt>
      <trkpt lat="42.62831" lon="1.91584">
        <ele>2370.3</ele>
        <time>2010-01-01T00:27:37Z</time>
      </trkpt>
      <trkpt lat="42.62824" lon="1.91577">
        <ele>2369.8999</ele>
        <time>2010-01-01T00:27:41Z</time>
      </trkpt>
      <trkpt lat="42.62818" lon="1.91567">
        <ele>2369.8</ele>
        <time>2010-01-01T00:27:44Z</time>
      </trkpt>
      <trkpt lat="42.6281" lon="1.91561">
        <ele>2369.6999</ele>
        <time>2010-01-01T00:27:48Z</time>
      </trkpt>
      <trkpt lat="42.62802" lon="1.91555">
        <ele>2369.6</ele>
        <time>2010-01-01T00:27:52Z</time>
      </trkpt>
      <trkpt lat="42.62797" lon="1.91544">
        <ele>2369.3</ele>
        <time>2010-01-01T00:27:55Z</time>
      </trkpt>
      <trkpt lat="42.6279" lon="1.91537">
        <ele>2369.1999</ele>
        <time>2010-01-01T00:27:59Z</time>
      </trkpt>
      <trkpt lat="42.62781" lon="1.9153">
        <ele>2369</ele>
        <time>2010-01-01T00:28:03Z</time>
      </trkpt>
      <trkpt lat="42.62779" lon="1.91518">
        <ele>2368.8</ele>
        <time>2010-01-01T00:28:07Z</time>
      </trkpt>
      <trkpt lat="42.62772" lon="1.91509">
        <ele>2368.5</ele>
        <time>2010-01-01T00:28:10Z</time>
      </trkpt>
      <trkpt lat="42.62763" lon="1.91506">
        <ele>2368.3</ele>
        <time>2010-01-01T00:28:14Z</time>
      </trkpt>
      <trkpt lat="42.62755" lon="1.91498">
        <ele>2368.1999</ele>
        <time>2010-01-01T00:28:18Z</time>
      </trkpt>
      <trkpt lat="42.62748" lon="1.91489">
        <ele>2369.1</ele>
        <time>2010-01-01T00:28:22Z</time>
      </trkpt>
      <trkpt lat="42.62741" lon="1.91482">
        <ele>2371.6999</ele>
        <time>2010-01-01T00:28:25Z</time>
      </trkpt>
      <trkpt lat="42.62735" lon="1.91471">
        <ele>2374.3</ele>
        <time>2010-01-01T00:28:29Z</time>
      </trkpt>
      <trkpt lat="42.62733" lon="1.9146">
        <ele>2376.1</ele>
        <time>2010-01-01T00:28:33Z</time>
      </trkpt>
      <trkpt lat="42.62728" lon="1.91449">
        <ele>2377.6</ele>
        <time>2010-01-01T00:28:36Z</time>
      </trkpt>
      <trkpt lat="42.62719" lon="1.91447">
        <ele>2380.1999</ele>
        <time>2010-01-01T00:28:40Z</time>
      </trkpt>
      <trkpt lat="42.62716" lon="1.91434">
        <ele>2381.8999</ele>
        <time>2010-01-01T00:28:44Z</time>
      </trkpt>
      <trkpt lat="42.62711" lon="1.91424">
        <ele>2383.6999</ele>
        <time>2010-01-01T00:28:48Z</time>
      </trkpt>
      <trkpt lat="42.62703" lon="1.91418">
        <ele>2385.5</ele>
        <time>2010-01-01T00:28:51Z</time>
      </trkpt>
      <trkpt lat="42.627" lon="1.91406">
        <ele>2386.6999</ele>
        <time>2010-01-01T00:28:55Z</time>
      </trkpt>
      <trkpt lat="42.62701" lon="1.91394">
        <ele>2386.8</ele>
        <time>2010-01-01T00:28:59Z</time>
      </trkpt>
      <trkpt lat="42.62692" lon="1.91389">
        <ele>2388.3</ele>
        <time>2010-01-01T00:29:03Z</time>
      </trkpt>
      <trkpt lat="42.62684" lon="1.91382">
        <ele>2390.5</ele>
        <time>2010-01-01T00:29:07Z</time>
      </trkpt>
      <trkpt lat="42.6268" lon="1.9137">
        <ele>2391.3999</ele>
        <time>2010-01-01T00:29:10Z</time>
      </trkpt>
      <trkpt lat="42.62676" lon="1.91358">
        <ele>2392.3999</ele>
        <time>2010-01-01T00:29:14Z</time>
      </trkpt>
      <trkpt lat="42.62671" lon="1.91348">
        <ele>2393.6999</ele>
        <time>2010-01-01T00:29:18Z</time>
      </trkpt>
      <trkpt lat="42.6267" lon="1.91336">
        <ele>2394.1</ele>
        <time>2010-01-01T00:29:22Z</time>
      </trkpt>
      <trkpt lat="42.62668" lon="1.91323">
        <ele>2396.1999</ele>
        <time>2010-01-01T00:29:25Z</time>
      </trkpt>
      <trkpt lat="42.62668" lon="1.91311">
        <ele>2399</ele>
        <time>2010-01-01T00:29:29Z</time>
      </trkpt>
      <trkpt lat="42.6267" lon="1.91298">
        <ele>2401.3999</ele>
        <time>2010-01-01T00:29:33Z</time>
      </trkpt>
      <trkpt lat="42.62675" lon="1.91287">
        <ele>2403.5</ele>
        <time>2010-01-01T00:29:37Z</time>
      </trkpt>
      <trkpt lat="42.6268" lon="1.91277">
        <ele>2404.6</ele>
        <time>2010-01-01T00:29:40Z</time>
      </trkpt>
      <trkpt lat="42.62683" lon="1.91264">
        <ele>2407.1</ele>
        <time>2010-01-01T00:29:44Z</time>
      </trkpt>
      <trkpt lat="42.62688" lon="1.91253">
        <ele>2408.6</ele>
        <time>2010-01-01T00:29:48Z</time>
      </trkpt>
      <trkpt lat="42.62686" lon="1.9124">
        <ele>2411.1999</ele>
        <time>2010-01-01T00:29:52Z</time>
      </trkpt>
      <trkpt lat="42.62685" lon="1.91227">
        <ele>2413.1</ele>
        <time>2010-01-01T00:29:56Z</time>
      </trkpt>
      <trkpt lat="42.62681" lon="1.91216">
        <ele>2415.6</ele>
        <time>2010-01-01T00:29:59Z</time>
      </trkpt>
      <trkpt lat="42.62679" lon="1.91203">
        <ele>2418.1</ele>
        <time>2010-01-01T00:30:03Z</time>
      </trkpt>
      <trkpt lat="42.62675" lon="1.91191">
        <ele>2421.5</ele>
        <time>2010-01-01T00:30:07Z</time>
      </trkpt>
      <trkpt lat="42.62677" lon="1.9118">
        <ele>2423</ele>
        <time>2010-01-01T00:30:11Z</time>
      </trkpt>
      <trkpt lat="42.62672" lon="1.91169">
        <ele>2425.8999</ele>
        <time>2010-01-01T00:30:15Z</time>
      </trkpt>
      <trkpt lat="42.62668" lon="1.91158">
        <ele>2427.3</ele>
        <time>2010-01-01T00:30:18Z</time>
      </trkpt>
      <trkpt lat="42.62663" lon="1.91147">
        <ele>2427.1999</ele>
        <time>2010-01-01T00:30:22Z</time>
      </trkpt>
      <trkpt lat="42.62661" lon="1.91134">
        <ele>2426</ele>
        <time>2010-01-01T00:30:26Z</time>
      </trkpt>
      <trkpt lat="42.62659" lon="1.91121">
        <ele>2425.1</ele>
        <time>2010-01-01T00:30:30Z</time>
      </trkpt>
      <trkpt lat="42.62655" lon="1.91109">
        <ele>2424.1999</ele>
        <time>2010-01-01T00:30:34Z</time>
      </trkpt>
      <trkpt lat="42.62654" lon="1.91097">
        <ele>2423.3999</ele>
        <time>2010-01-01T00:30:37Z</time>
      </trkpt>
      <trkpt lat="42.62657" lon="1.91085">
        <ele>2421.8</ele>
        <time>2010-01-01T00:30:41Z</time>
      </trkpt>
      <trkpt lat="42.62662" lon="1.91073">
        <ele>2421</ele>
        <time>2010-01-01T00:30:45Z</time>
      </trkpt>
      <trkpt lat="42.6267" lon="1.91067">
        <ele>2419.5</ele>
        <time>2010-01-01T00:30:48Z</time>
      </trkpt>
      <trkpt lat="42.62677" lon="1.9106">
        <ele>2416.5</ele>
        <time>2010-01-01T00:30:52Z</time>
      </trkpt>
      <trkpt lat="42.62685" lon="1.91052">
        <ele>2414.1999</ele>
        <time>2010-01-01T00:30:56Z</time>
      </trkpt>
      <trkpt lat="42.62694" lon="1.91054">
        <ele>2410.8</ele>
        <time>2010-01-01T00:31:00Z</time>
      </trkpt>
      <trkpt lat="42.62688" lon="1.91044">
        <ele>2412.5</ele>
        <time>2010-01-01T00:31:03Z</time>
      </trkpt>
      <trkpt lat="42.62687" lon="1.91031">
        <ele>2412.5</ele>
        <time>2010-01-01T00:31:07Z</time>
      </trkpt>
      <trkpt lat="42.62681" lon="1.91022">
        <ele>2414.3999</ele>
        <time>2010-01-01T00:31:11Z</time>
      </trkpt>
      <trkpt lat="42.62677" lon="1.91011">
        <ele>2415.8</ele>
        <time>2010-01-01T00:31:15Z</time>
      </trkpt>
      <trkpt lat="42.62678" lon="1.90998">
        <ele>2416.1999</ele>
        <time>2010-01-01T00:31:18Z</time>
      </trkpt>
      <trkpt lat="42.6268" lon="1.90986">
        <ele>2419.6999</ele>
        <time>2010-01-01T00:31:22Z</time>
      </trkpt>
      <trkpt lat="42.62683" lon="1.90974">
        <ele>2423.1</ele>
        <time>2010-01-01T00:31:26Z</time>
      </trkpt>
      <trkpt lat="42.62686" lon="1.90961">
        <ele>2427.8999</ele>
        <time>2010-01-01T00:31:29Z</time>
      </trkpt>
      <trkpt lat="42.62683" lon="1.90949">
        <ele>2433.6999</ele>
        <time>2010-01-01T00:31:33Z</time>
      </trkpt>
      <trkpt lat="42.62678" lon="1.90939">
        <ele>2437.3</ele>
        <time>2010-01-01T00:31:37Z</time>
      </trkpt>
      <trkpt lat="42.62678" lon="1.90926">
        <ele>2441.8</ele>
        <time>2010-01-01T00:31:41Z</time>
      </trkpt>
      <trkpt lat="42.62677" lon="1.90914">
        <ele>2446.1</ele>
        <time>2010-01-01T00:31:44Z</time>
      </trkpt>
      <trkpt lat="42.62677" lon="1.90901">
        <ele>2451.5</ele>
        <time>2010-01-01T00:31:48Z</time>
      </trkpt>
      <trkpt lat="42.62677" lon="1.90888">
        <ele>2456.1999</ele>
        <time>2010-01-01T00:31:52Z</time>
      </trkpt>
      <trkpt lat="42.62676" lon="1.90876">
        <ele>2460.5</ele>
        <time>2010-01-01T00:31:55Z</time>
      </trkpt>
      <trkpt lat="42.62682" lon="1.90867">
        <ele>2466</ele>
        <time>2010-01-01T00:31:59Z</time>
      </trkpt>
      <trkpt lat="42.62685" lon="1.90855">
        <ele>2472</ele>
        <time>2010-01-01T00:32:03Z</time>
      </trkpt>
      <trkpt lat="42.62683" lon="1.90842">
        <ele>2476.8999</ele>
        <time>2010-01-01T00:32:07Z</time>
      </trkpt>
      <trkpt lat="42.62684" lon="1.9083">
        <ele>2482.1999</ele>
        <time>2010-01-01T00:32:10Z</time>
      </trkpt>
      <trkpt lat="42.62686" lon="1.90818">
        <ele>2486.8999</ele>
        <time>2010-01-01T00:32:14Z</time>
      </trkpt>
      <trkpt lat="42.62681" lon="1.90806">
        <ele>2490.8</ele>
        <time>2010-01-01T00:32:18Z</time>
      </trkpt>
      <trkpt lat="42.62675" lon="1.90796">
        <ele>2490</ele>
        <time>2010-01-01T00:32:22Z</time>
      </trkpt>
      <trkpt lat="42.62666" lon="1.90793">
        <ele>2488</ele>
        <time>2010-01-01T00:32:26Z</time>
      </trkpt>
      <trkpt lat="42.6266" lon="1.90783">
        <ele>2489.8999</ele>
        <time>2010-01-01T00:32:29Z</time>
      </trkpt>
      <trkpt lat="42.62659" lon="1.90771">
        <ele>2493.8999</ele>
        <time>2010-01-01T00:32:33Z</time>
      </trkpt>
      <trkpt lat="42.62655" lon="1.9076">
        <ele>2497.6999</ele>
        <time>2010-01-01T00:32:37Z</time>
      </trkpt>
      <trkpt lat="42.62651" lon="1.90749">
        <ele>2500.6999</ele>
        <time>2010-01-01T00:32:40Z</time>
      </trkpt>
      <trkpt lat="42.62648" lon="1.90737">
        <ele>2504.3999</ele>
        <time>2010-01-01T00:32:44Z</time>
      </trkpt>
      <trkpt lat="42.6264" lon="1.90743">
        <ele>2502.8999</ele>
        <time>2010-01-01T00:32:48Z</time>
      </trkpt>
      <trkpt lat="42.62631" lon="1.90743">
        <ele>2501.1</ele>
        <time>2010-01-01T00:32:51Z</time>
      </trkpt>
      <trkpt lat="42.62627" lon="1.90731">
        <ele>2504.1</ele>
        <time>2010-01-01T00:32:55Z</time>
      </trkpt>
      <trkpt lat="42.62624" lon="1.90719">
        <ele>2507.8999</ele>
        <time>2010-01-01T00:32:59Z</time>
      </trkpt>
      <trkpt lat="42.62615" lon="1.90709">
        <ele>2510.6999</ele>
        <time>2010-01-01T00:33:03Z</time>
      </trkpt>
      <trkpt lat="42.62605" lon="1.90701">
        <ele>2514.3999</ele>
        <time>2010-01-01T00:33:08Z</time>
      </trkpt>
      <trkpt lat="42.62601" lon="1.90712">
        <ele>2510.1999</ele>
        <time>2010-01-01T00:33:12Z</time>
      </trkpt>
      <trkpt lat="42.62593" lon="1.90707">
        <ele>2510.3</ele>
        <time>2010-01-01T00:33:15Z</time>
      </trkpt>
      <trkpt lat="42.62589" lon="1.90695">
        <ele>2514.6</ele>
        <time>2010-01-01T00:33:19Z</time>
      </trkpt>
      <trkpt lat="42.62583" lon="1.90686">
        <ele>2517.6999</ele>
        <time>2010-01-01T00:33:23Z</time>
      </trkpt>
      <trkpt lat="42.62574" lon="1.90677">
        <ele>2523</ele>
        <time>2010-01-01T00:33:27Z</time>
      </trkpt>
      <trkpt lat="42.62567" lon="1.90669">
        <ele>2528.6999</ele>
        <time>2010-01-01T00:33:31Z</time>
      </trkpt>
      <trkpt lat="42.6256" lon="1.90662">
        <ele>2533.1</ele>
        <time>2010-01-01T00:33:34Z</time>
      </trkpt>
      <trkpt lat="42.62551" lon="1.90657">
        <ele>2536.3</ele>
        <time>2010-01-01T00:33:38Z</time>
      </trkpt>
      <trkpt lat="42.62543" lon="1.9065">
        <ele>2539.5</ele>
        <time>2010-01-01T00:33:42Z</time>
      </trkpt>
      <trkpt lat="42.62536" lon="1.90642">
        <ele>2542.6</ele>
        <time>2010-01-01T00:33:46Z</time>
      </trkpt>
      <trkpt lat="42.62533" lon="1.90629">
        <ele>2544.3999</ele>
        <time>2010-01-01T00:33:50Z</time>
      </trkpt>
      <trkpt lat="42.62533" lon="1.90616">
        <ele>2545.6999</ele>
        <time>2010-01-01T00:33:53Z</time>
      </trkpt>
      <trkpt lat="42.6253" lon="1.90604">
        <ele>2547.6999</ele>
        <time>2010-01-01T00:33:57Z</time>
      </trkpt>
      <trkpt lat="42.62525" lon="1.90594">
        <ele>2550.3</ele>
        <time>2010-01-01T00:34:01Z</time>
      </trkpt>
      <trkpt lat="42.62519" lon="1.90585">
        <ele>2553.6</ele>
        <time>2010-01-01T00:34:05Z</time>
      </trkpt>
      <trkpt lat="42.6251" lon="1.90583">
        <ele>2557.8999</ele>
        <time>2010-01-01T00:34:08Z</time>
      </trkpt>
      <trkpt lat="42.62501" lon="1.90586">
        <ele>2561.8</ele>
        <time>2010-01-01T00:34:12Z</time>
      </trkpt>
      <trkpt lat="42.62491" lon="1.90589">
        <ele>2565.8999</ele>
        <time>2010-01-01T00:34:16Z</time>
      </trkpt>
      <trkpt lat="42.62471" lon="1.90583">
        <ele>2574</ele>
        <time>2010-01-01T00:34:24Z</time>
      </trkpt>
      <trkpt lat="42.62462" lon="1.90577">
        <ele>2579.8999</ele>
        <time>2010-01-01T00:34:28Z</time>
      </trkpt>
      <trkpt lat="42.62453" lon="1.90574">
        <ele>2584.3</ele>
        <time>2010-01-01T00:34:32Z</time>
      </trkpt>
      <trkpt lat="42.62445" lon="1.90582">
        <ele>2588.8</ele>
        <time>2010-01-01T00:34:36Z</time>
      </trkpt>
      <trkpt lat="42.62436" lon="1.90575">
        <ele>2592.6999</ele>
        <time>2010-01-01T00:34:40Z</time>
      </trkpt>
      <trkpt lat="42.62427" lon="1.90572">
        <ele>2597.1</ele>
        <time>2010-01-01T00:34:44Z</time>
      </trkpt>
      <trkpt lat="42.62418" lon="1.90573">
        <ele>2601.6</ele>
        <time>2010-01-01T00:34:47Z</time>
      </trkpt>
      <trkpt lat="42.62409" lon="1.9057">
        <ele>2604.1</ele>
        <time>2010-01-01T00:34:51Z</time>
      </trkpt>
      <trkpt lat="42.62401" lon="1.90577">
        <ele>2605.8</ele>
        <time>2010-01-01T00:34:55Z</time>
      </trkpt>
      <trkpt lat="42.62393" lon="1.90583">
        <ele>2607.3</ele>
        <time>2010-01-01T00:34:58Z</time>
      </trkpt>
      <trkpt lat="42.62387" lon="1.90573">
        <ele>2608.5</ele>
        <time>2010-01-01T00:35:02Z</time>
      </trkpt>
      <trkpt lat="42.62381" lon="1.90564">
        <ele>2609.6999</ele>
        <time>2010-01-01T00:35:06Z</time>
      </trkpt>
      <trkpt lat="42.62372" lon="1.90569">
        <ele>2611.3999</ele>
        <time>2010-01-01T00:35:10Z</time>
      </trkpt>
      <trkpt lat="42.62365" lon="1.90577">
        <ele>2612.8</ele>
        <time>2010-01-01T00:35:14Z</time>
      </trkpt>
      <trkpt lat="42.62357" lon="1.90584">
        <ele>2614.1</ele>
        <time>2010-01-01T00:35:17Z</time>
      </trkpt>
      <trkpt lat="42.62348" lon="1.90587">
        <ele>2615.5</ele>
        <time>2010-01-01T00:35:21Z</time>
      </trkpt>
      <trkpt lat="42.62339" lon="1.90583">
        <ele>2617.5</ele>
        <time>2010-01-01T00:35:25Z</time>
      </trkpt>
      <trkpt lat="42.62331" lon="1.90577">
        <ele>2618.3</ele>
        <time>2010-01-01T00:35:28Z</time>
      </trkpt>
      <trkpt lat="42.62322" lon="1.90575">
        <ele>2612.1</ele>
        <time>2010-01-01T00:35:32Z</time>
      </trkpt>
      <trkpt lat="42.62313" lon="1.90575">
        <ele>2606.1</ele>
        <time>2010-01-01T00:35:36Z</time>
      </trkpt>
      <trkpt lat="42.62307" lon="1.90566">
        <ele>2601.1999</ele>
        <time>2010-01-01T00:35:39Z</time>
      </trkpt>
      <trkpt lat="42.62299" lon="1.9056">
        <ele>2595.8</ele>
        <time>2010-01-01T00:35:43Z</time>
      </trkpt>
      <trkpt lat="42.6229" lon="1.90555">
        <ele>2589.5</ele>
        <time>2010-01-01T00:35:47Z</time>
      </trkpt>
      <trkpt lat="42.62282" lon="1.90548">
        <ele>2584.1</ele>
        <time>2010-01-01T00:35:51Z</time>
      </trkpt>
      <trkpt lat="42.62273" lon="1.90549">
        <ele>2577.8</ele>
        <time>2010-01-01T00:35:54Z</time>
      </trkpt>
      <trkpt lat="42.62263" lon="1.90545">
        <ele>2571.8</ele>
        <time>2010-01-01T00:35:58Z</time>
      </trkpt>
      <trkpt lat="42.62254" lon="1.90545">
        <ele>2564.1999</ele>
        <time>2010-01-01T00:36:02Z</time>
      </trkpt>
      <trkpt lat="42.62245" lon="1.90543">
        <ele>2558.3</ele>
        <time>2010-01-01T00:36:06Z</time>
      </trkpt>
      <trkpt lat="42.62237" lon="1.90537">
        <ele>2553</ele>
        <time>2010-01-01T00:36:09Z</time>
      </trkpt>
      <trkpt lat="42.6223" lon="1.90528">
        <ele>2548.5</ele>
        <time>2010-01-01T00:36:13Z</time>
      </trkpt>
      <trkpt lat="42.62223" lon="1.90519">
        <ele>2543.1999</ele>
        <time>2010-01-01T00:36:17Z</time>
      </trkpt>
      <trkpt lat="42.62216" lon="1.9051">
        <ele>2539.1</ele>
        <time>2010-01-01T00:36:21Z</time>
      </trkpt>
      <trkpt lat="42.62211" lon="1.90521">
        <ele>2535.1</ele>
        <time>2010-01-01T00:36:25Z</time>
      </trkpt>
      <trkpt lat="42.62208" lon="1.90533">
        <ele>2532.6999</ele>
        <time>2010-01-01T00:36:28Z</time>
      </trkpt>
      <trkpt lat="42.622" lon="1.90527">
        <ele>2527.6999</ele>
        <time>2010-01-01T00:36:32Z</time>
      </trkpt>
      <trkpt lat="42.62192" lon="1.90521">
        <ele>2522.3</ele>
        <time>2010-01-01T00:36:36Z</time>
      </trkpt>
      <trkpt lat="42.62186" lon="1.90511">
        <ele>2517.1999</ele>
        <time>2010-01-01T00:36:40Z</time>
      </trkpt>
      <trkpt lat="42.62181" lon="1.90501">
        <ele>2512.8</ele>
        <time>2010-01-01T00:36:43Z</time>
      </trkpt>
      <trkpt lat="42.62176" lon="1.9049">
        <ele>2510.3999</ele>
        <time>2010-01-01T00:36:47Z</time>
      </trkpt>
      <trkpt lat="42.6217" lon="1.9048">
        <ele>2507.5</ele>
        <time>2010-01-01T00:36:51Z</time>
      </trkpt>
      <trkpt lat="42.62162" lon="1.90472">
        <ele>2503.6</ele>
        <time>2010-01-01T00:36:55Z</time>
      </trkpt>
      <trkpt lat="42.62153" lon="1.90475">
        <ele>2498.5</ele>
        <time>2010-01-01T00:36:59Z</time>
      </trkpt>
      <trkpt lat="42.62144" lon="1.9048">
        <ele>2492.8999</ele>
        <time>2010-01-01T00:37:02Z</time>
      </trkpt>
      <trkpt lat="42.62135" lon="1.90474">
        <ele>2488.3</ele>
        <time>2010-01-01T00:37:06Z</time>
      </trkpt>
      <trkpt lat="42.62129" lon="1.90465">
        <ele>2483.6999</ele>
        <time>2010-01-01T00:37:10Z</time>
      </trkpt>
      <trkpt lat="42.62123" lon="1.90456">
        <ele>2480.8</ele>
        <time>2010-01-01T00:37:14Z</time>
      </trkpt>
      <trkpt lat="42.62114" lon="1.90449">
        <ele>2475.6</ele>
        <time>2010-01-01T00:37:18Z</time>
      </trkpt>
      <trkpt lat="42.62106" lon="1.90443">
        <ele>2470.6999</ele>
        <time>2010-01-01T00:37:22Z</time>
      </trkpt>
      <trkpt lat="42.62097" lon="1.90442">
        <ele>2464.1999</ele>
        <time>2010-01-01T00:37:25Z</time>
      </trkpt>
      <trkpt lat="42.62088" lon="1.90438">
        <ele>2458.3</ele>
        <time>2010-01-01T00:37:29Z</time>
      </trkpt>
      <trkpt lat="42.62081" lon="1.90431">
        <ele>2453.1999</ele>
        <time>2010-01-01T00:37:33Z</time>
      </trkpt>
      <trkpt lat="42.62076" lon="1.90419">
        <ele>2450.5</ele>
        <time>2010-01-01T00:37:36Z</time>
      </trkpt>
      <trkpt lat="42.62074" lon="1.90407">
        <ele>2449.8</ele>
        <time>2010-01-01T00:37:40Z</time>
      </trkpt>
      <trkpt lat="42.62072" lon="1.90394">
        <ele>2450.6</ele>
        <time>2010-01-01T00:37:44Z</time>
      </trkpt>
      <trkpt lat="42.62066" lon="1.90385">
        <ele>2449.3</ele>
        <time>2010-01-01T00:37:48Z</time>
      </trkpt>
      <trkpt lat="42.62061" lon="1.90375">
        <ele>2447.8999</ele>
        <time>2010-01-01T00:37:51Z</time>
      </trkpt>
      <trkpt lat="42.62059" lon="1.90363">
        <ele>2448</ele>
        <time>2010-01-01T00:37:55Z</time>
      </trkpt>
      <trkpt lat="42.62055" lon="1.90351">
        <ele>2448</ele>
        <time>2010-01-01T00:37:59Z</time>
      </trkpt>
      <trkpt lat="42.6205" lon="1.9034">
        <ele>2447.8999</ele>
        <time>2010-01-01T00:38:02Z</time>
      </trkpt>
      <trkpt lat="42.62044" lon="1.90331">
        <ele>2446.1999</ele>
        <time>2010-01-01T00:38:06Z</time>
      </trkpt>
      <trkpt lat="42.62036" lon="1.90323">
        <ele>2442.3999</ele>
        <time>2010-01-01T00:38:10Z</time>
      </trkpt>
      <trkpt lat="42.62028" lon="1.90316">
        <ele>2438.8999</ele>
        <time>2010-01-01T00:38:14Z</time>
      </trkpt>
      <trkpt lat="42.62022" lon="1.90308">
        <ele>2435.3999</ele>
        <time>2010-01-01T00:38:17Z</time>
      </trkpt>
      <trkpt lat="42.62016" lon="1.90297">
        <ele>2432.5</ele>
        <time>2010-01-01T00:38:21Z</time>
      </trkpt>
      <trkpt lat="42.62014" lon="1.90284">
        <ele>2430.8999</ele>
        <time>2010-01-01T00:38:25Z</time>
      </trkpt>
      <trkpt lat="42.62011" lon="1.90272">
        <ele>2429.1999</ele>
        <time>2010-01-01T00:38:29Z</time>
      </trkpt>
      <trkpt lat="42.62007" lon="1.9026">
        <ele>2427.6999</ele>
        <time>2010-01-01T00:38:33Z</time>
      </trkpt>
      <trkpt lat="42.62004" lon="1.90248">
        <ele>2426.1</ele>
        <time>2010-01-01T00:38:36Z</time>
      </trkpt>
      <trkpt lat="42.62003" lon="1.90234">
        <ele>2419.3</ele>
        <time>2010-01-01T00:38:40Z</time>
      </trkpt>
      <trkpt lat="42.61999" lon="1.90223">
        <ele>2413.8</ele>
        <time>2010-01-01T00:38:44Z</time>
      </trkpt>
      <trkpt lat="42.61998" lon="1.9021">
        <ele>2407.5</ele>
        <time>2010-01-01T00:38:48Z</time>
      </trkpt>
      <trkpt lat="42.61997" lon="1.90197">
        <ele>2401</ele>
        <time>2010-01-01T00:38:52Z</time>
      </trkpt>
      <trkpt lat="42.61994" lon="1.90185">
        <ele>2395.8999</ele>
        <time>2010-01-01T00:38:56Z</time>
      </trkpt>
      <trkpt lat="42.61982" lon="1.90201">
        <ele>2401.1</ele>
        <time>2010-01-01T00:39:02Z</time>
      </trkpt>
      <trkpt lat="42.61979" lon="1.90214">
        <ele>2406.1999</ele>
        <time>2010-01-01T00:39:06Z</time>
      </trkpt>
      <trkpt lat="42.61973" lon="1.90224">
        <ele>2409.8999</ele>
        <time>2010-01-01T00:39:10Z</time>
      </trkpt>
      <trkpt lat="42.61966" lon="1.90234">
        <ele>2412.6</ele>
        <time>2010-01-01T00:39:14Z</time>
      </trkpt>
      <trkpt lat="42.61957" lon="1.90234">
        <ele>2412.5</ele>
        <time>2010-01-01T00:39:18Z</time>
      </trkpt>
      <trkpt lat="42.61948" lon="1.9023">
        <ele>2410.6</ele>
        <time>2010-01-01T00:39:22Z</time>
      </trkpt>
      <trkpt lat="42.61939" lon="1.90228">
        <ele>2409</ele>
        <time>2010-01-01T00:39:25Z</time>
      </trkpt>
      <trkpt lat="42.61931" lon="1.90222">
        <ele>2407.3</ele>
        <time>2010-01-01T00:39:29Z</time>
      </trkpt>
      <trkpt lat="42.61922" lon="1.90216">
        <ele>2405.8999</ele>
        <time>2010-01-01T00:39:33Z</time>
      </trkpt>
      <trkpt lat="42.61914" lon="1.90208">
        <ele>2405</ele>
        <time>2010-01-01T00:39:37Z</time>
      </trkpt>
      <trkpt lat="42.61907" lon="1.902">
        <ele>2403.5</ele>
        <time>2010-01-01T00:39:40Z</time>
      </trkpt>
      <trkpt lat="42.619" lon="1.90193">
        <ele>2401.8</ele>
        <time>2010-01-01T00:39:44Z</time>
      </trkpt>
      <trkpt lat="42.61895" lon="1.90181">
        <ele>2400.3</ele>
        <time>2010-01-01T00:39:48Z</time>
      </trkpt>
      <trkpt lat="42.61892" lon="1.90169">
        <ele>2398.6</ele>
        <time>2010-01-01T00:39:52Z</time>
      </trkpt>
      <trkpt lat="42.61891" lon="1.90157">
        <ele>2394.1</ele>
        <time>2010-01-01T00:39:55Z</time>
      </trkpt>
      <trkpt lat="42.61887" lon="1.90145">
        <ele>2389.3999</ele>
        <time>2010-01-01T00:39:59Z</time>
      </trkpt>
      <trkpt lat="42.61879" lon="1.90137">
        <ele>2384.8</ele>
        <time>2010-01-01T00:40:03Z</time>
      </trkpt>
      <trkpt lat="42.61875" lon="1.90126">
        <ele>2379.8999</ele>
        <time>2010-01-01T00:40:07Z</time>
      </trkpt>
      <trkpt lat="42.61872" lon="1.90114">
        <ele>2375.3999</ele>
        <time>2010-01-01T00:40:10Z</time>
      </trkpt>
      <trkpt lat="42.61864" lon="1.90106">
        <ele>2372.1</ele>
        <time>2010-01-01T00:40:14Z</time>
      </trkpt>
      <trkpt lat="42.61867" lon="1.90094">
        <ele>2366.6999</ele>
        <time>2010-01-01T00:40:18Z</time>
      </trkpt>
      <trkpt lat="42.61867" lon="1.90081">
        <ele>2363.3</ele>
        <time>2010-01-01T00:40:22Z</time>
      </trkpt>
      <trkpt lat="42.61865" lon="1.90069">
        <ele>2358.3999</ele>
        <time>2010-01-01T00:40:26Z</time>
      </trkpt>
      <trkpt lat="42.61867" lon="1.90057">
        <ele>2353.6</ele>
        <time>2010-01-01T00:40:29Z</time>
      </trkpt>
      <trkpt lat="42.61867" lon="1.90044">
        <ele>2349.3</ele>
        <time>2010-01-01T00:40:33Z</time>
      </trkpt>
      <trkpt lat="42.6187" lon="1.90032">
        <ele>2343.1999</ele>
        <time>2010-01-01T00:40:37Z</time>
      </trkpt>
      <trkpt lat="42.61877" lon="1.90023">
        <ele>2338.5</ele>
        <time>2010-01-01T00:40:41Z</time>
      </trkpt>
      <trkpt lat="42.6188" lon="1.90011">
        <ele>2331.6999</ele>
        <time>2010-01-01T00:40:44Z</time>
      </trkpt>
      <trkpt lat="42.61889" lon="1.90005">
        <ele>2325.8</ele>
        <time>2010-01-01T00:40:48Z</time>
      </trkpt>
      <trkpt lat="42.61894" lon="1.89995">
        <ele>2321</ele>
        <time>2010-01-01T00:40:52Z</time>
      </trkpt>
      <trkpt lat="42.61899" lon="1.89985">
        <ele>2317.5</ele>
        <time>2010-01-01T00:40:55Z</time>
      </trkpt>
      <trkpt lat="42.61903" lon="1.89973">
        <ele>2314.5</ele>
        <time>2010-01-01T00:40:59Z</time>
      </trkpt>
      <trkpt lat="42.61911" lon="1.89967">
        <ele>2310.1</ele>
        <time>2010-01-01T00:41:03Z</time>
      </trkpt>
      <trkpt lat="42.61916" lon="1.89957">
        <ele>2306.6999</ele>
        <time>2010-01-01T00:41:06Z</time>
      </trkpt>
      <trkpt lat="42.61923" lon="1.89948">
        <ele>2303.1</ele>
        <time>2010-01-01T00:41:10Z</time>
      </trkpt>
      <trkpt lat="42.6193" lon="1.8994">
        <ele>2299.3999</ele>
        <time>2010-01-01T00:41:14Z</time>
      </trkpt>
      <trkpt lat="42.61936" lon="1.8993">
        <ele>2295.6999</ele>
        <time>2010-01-01T00:41:18Z</time>
      </trkpt>
      <trkpt lat="42.61945" lon="1.89929">
        <ele>2291.6</ele>
        <time>2010-01-01T00:41:21Z</time>
      </trkpt>
      <trkpt lat="42.61954" lon="1.89928">
        <ele>2287.6</ele>
        <time>2010-01-01T00:41:25Z</time>
      </trkpt>
      <trkpt lat="42.61963" lon="1.89925">
        <ele>2283.6999</ele>
        <time>2010-01-01T00:41:29Z</time>
      </trkpt>
      <trkpt lat="42.61972" lon="1.8993">
        <ele>2280.6</ele>
        <time>2010-01-01T00:41:32Z</time>
      </trkpt>
      <trkpt lat="42.6198" lon="1.89924">
        <ele>2276.3999</ele>
        <time>2010-01-01T00:41:36Z</time>
      </trkpt>
      <trkpt lat="42.61984" lon="1.89912">
        <ele>2273.6</ele>
        <time>2010-01-01T00:41:40Z</time>
      </trkpt>
      <trkpt lat="42.61985" lon="1.89899">
        <ele>2274</ele>
        <time>2010-01-01T00:41:44Z</time>
      </trkpt>
      <trkpt lat="42.61989" lon="1.89887">
        <ele>2273.1999</ele>
        <time>2010-01-01T00:41:48Z</time>
      </trkpt>
      <trkpt lat="42.61999" lon="1.89883">
        <ele>2269.5</ele>
        <time>2010-01-01T00:41:52Z</time>
      </trkpt>
      <trkpt lat="42.62008" lon="1.89881">
        <ele>2267.3999</ele>
        <time>2010-01-01T00:41:55Z</time>
      </trkpt>
      <trkpt lat="42.62017" lon="1.89879">
        <ele>2266.5</ele>
        <time>2010-01-01T00:41:59Z</time>
      </trkpt>
      <trkpt lat="42.62026" lon="1.89876">
        <ele>2265.3999</ele>
        <time>2010-01-01T00:42:03Z</time>
      </trkpt>
      <trkpt lat="42.62033" lon="1.89867">
        <ele>2264.3</ele>
        <time>2010-01-01T00:42:07Z</time>
      </trkpt>
      <trkpt lat="42.62041" lon="1.89861">
        <ele>2263.3999</ele>
        <time>2010-01-01T00:42:10Z</time>
      </trkpt>
      <trkpt lat="42.62049" lon="1.89868">
        <ele>2262.3999</ele>
        <time>2010-01-01T00:42:14Z</time>
      </trkpt>
      <trkpt lat="42.62057" lon="1.89864">
        <ele>2261.1</ele>
        <time>2010-01-01T00:42:18Z</time>
      </trkpt>
      <trkpt lat="42.62067" lon="1.89865">
        <ele>2259.8</ele>
        <time>2010-01-01T00:42:21Z</time>
      </trkpt>
      <trkpt lat="42.62074" lon="1.89856">
        <ele>2258.1</ele>
        <time>2010-01-01T00:42:25Z</time>
      </trkpt>
      <trkpt lat="42.62083" lon="1.89857">
        <ele>2256.3999</ele>
        <time>2010-01-01T00:42:29Z</time>
      </trkpt>
      <trkpt lat="42.62093" lon="1.89858">
        <ele>2257.6999</ele>
        <time>2010-01-01T00:42:33Z</time>
      </trkpt>
      <trkpt lat="42.62097" lon="1.89847">
        <ele>2257.8999</ele>
        <time>2010-01-01T00:42:37Z</time>
      </trkpt>
      <trkpt lat="42.62104" lon="1.89839">
        <ele>2257.8999</ele>
        <time>2010-01-01T00:42:40Z</time>
      </trkpt>
      <trkpt lat="42.62112" lon="1.89831">
        <ele>2258.6</ele>
        <time>2010-01-01T00:42:44Z</time>
      </trkpt>
      <trkpt lat="42.62119" lon="1.89823">
        <ele>2259</ele>
        <time>2010-01-01T00:42:48Z</time>
      </trkpt>
      <trkpt lat="42.62128" lon="1.89824">
        <ele>2260.5</ele>
        <time>2010-01-01T00:42:52Z</time>
      </trkpt>
      <trkpt lat="42.62138" lon="1.89821">
        <ele>2261.8</ele>
        <time>2010-01-01T00:42:55Z</time>
      </trkpt>
      <trkpt lat="42.62147" lon="1.8982">
        <ele>2263.3</ele>
        <time>2010-01-01T00:42:59Z</time>
      </trkpt>
      <trkpt lat="42.62156" lon="1.89815">
        <ele>2264.3999</ele>
        <time>2010-01-01T00:43:03Z</time>
      </trkpt>
      <trkpt lat="42.62165" lon="1.89813">
        <ele>2265.6999</ele>
        <time>2010-01-01T00:43:07Z</time>
      </trkpt>
      <trkpt lat="42.6217" lon="1.89802">
        <ele>2266.3999</ele>
        <time>2010-01-01T00:43:11Z</time>
      </trkpt>
      <trkpt lat="42.62175" lon="1.89791">
        <ele>2266.8999</ele>
        <time>2010-01-01T00:43:14Z</time>
      </trkpt>
      <trkpt lat="42.6218" lon="1.89781">
        <ele>2267.3999</ele>
        <time>2010-01-01T00:43:18Z</time>
      </trkpt>
      <trkpt lat="42.62184" lon="1.89769">
        <ele>2267.3999</ele>
        <time>2010-01-01T00:43:22Z</time>
      </trkpt>
      <trkpt lat="42.62187" lon="1.89757">
        <ele>2267</ele>
        <time>2010-01-01T00:43:26Z</time>
      </trkpt>
      <trkpt lat="42.62187" lon="1.89743">
        <ele>2265.6999</ele>
        <time>2010-01-01T00:43:29Z</time>
      </trkpt>
      <trkpt lat="42.6219" lon="1.89731">
        <ele>2264.5</ele>
        <time>2010-01-01T00:43:33Z</time>
      </trkpt>
      <trkpt lat="42.62196" lon="1.89721">
        <ele>2264.1</ele>
        <time>2010-01-01T00:43:37Z</time>
      </trkpt>
      <trkpt lat="42.62195" lon="1.89709">
        <ele>2262.3</ele>
        <time>2010-01-01T00:43:41Z</time>
      </trkpt>
      <trkpt lat="42.62196" lon="1.89697">
        <ele>2260.6999</ele>
        <time>2010-01-01T00:43:44Z</time>
      </trkpt>
      <trkpt lat="42.62198" lon="1.89684">
        <ele>2259.3</ele>
        <time>2010-01-01T00:43:48Z</time>
      </trkpt>
      <trkpt lat="42.62198" lon="1.89672">
        <ele>2257.3999</ele>
        <time>2010-01-01T00:43:52Z</time>
      </trkpt>
      <trkpt lat="42.62201" lon="1.8966">
        <ele>2255.8</ele>
        <time>2010-01-01T00:43:55Z</time>
      </trkpt>
      <trkpt lat="42.62201" lon="1.89648">
        <ele>2252.3999</ele>
        <time>2010-01-01T00:43:59Z</time>
      </trkpt>
      <trkpt lat="42.62205" lon="1.89636">
        <ele>2249.6</ele>
        <time>2010-01-01T00:44:03Z</time>
      </trkpt>
      <trkpt lat="42.62207" lon="1.89623">
        <ele>2246.1999</ele>
        <time>2010-01-01T00:44:07Z</time>
      </trkpt>
      <trkpt lat="42.62207" lon="1.8961">
        <ele>2242.3</ele>
        <time>2010-01-01T00:44:10Z</time>
      </trkpt>
      <trkpt lat="42.62212" lon="1.89599">
        <ele>2239.6</ele>
        <time>2010-01-01T00:44:14Z</time>
      </trkpt>
      <trkpt lat="42.62217" lon="1.89588">
        <ele>2237.1999</ele>
        <time>2010-01-01T00:44:18Z</time>
      </trkpt>
      <trkpt lat="42.62224" lon="1.8958">
        <ele>2235.6999</ele>
        <time>2010-01-01T00:44:22Z</time>
      </trkpt>
      <trkpt lat="42.62229" lon="1.8957">
        <ele>2234</ele>
        <time>2010-01-01T00:44:25Z</time>
      </trkpt>
      <trkpt lat="42.62236" lon="1.89561">
        <ele>2232.5</ele>
        <time>2010-01-01T00:44:29Z</time>
      </trkpt>
      <trkpt lat="42.62246" lon="1.89557">
        <ele>2232.3999</ele>
        <time>2010-01-01T00:44:33Z</time>
      </trkpt>
      <trkpt lat="42.6225" lon="1.89546">
        <ele>2230.3999</ele>
        <time>2010-01-01T00:44:37Z</time>
      </trkpt>
      <trkpt lat="42.62255" lon="1.89535">
        <ele>2228.6999</ele>
        <time>2010-01-01T00:44:41Z</time>
      </trkpt>
      <trkpt lat="42.62261" lon="1.89525">
        <ele>2226.6999</ele>
        <time>2010-01-01T00:44:44Z</time>
      </trkpt>
      <trkpt lat="42.62266" lon="1.89514">
        <ele>2224.1999</ele>
        <time>2010-01-01T00:44:48Z</time>
      </trkpt>
      <trkpt lat="42.62273" lon="1.89505">
        <ele>2222.3999</ele>
        <time>2010-01-01T00:44:52Z</time>
      </trkpt>
      <trkpt lat="42.62274" lon="1.89492">
        <ele>2219</ele>
        <time>2010-01-01T00:44:56Z</time>
      </trkpt>
      <trkpt lat="42.62275" lon="1.8948">
        <ele>2215</ele>
        <time>2010-01-01T00:45:00Z</time>
      </trkpt>
      <trkpt lat="42.62278" lon="1.89468">
        <ele>2211.3999</ele>
        <time>2010-01-01T00:45:03Z</time>
      </trkpt>
      <trkpt lat="42.6228" lon="1.89455">
        <ele>2207.6999</ele>
        <time>2010-01-01T00:45:07Z</time>
      </trkpt>
      <trkpt lat="42.62287" lon="1.89447">
        <ele>2205.3999</ele>
        <time>2010-01-01T00:45:11Z</time>
      </trkpt>
      <trkpt lat="42.62291" lon="1.89435">
        <ele>2201.8</ele>
        <time>2010-01-01T00:45:15Z</time>
      </trkpt>
      <trkpt lat="42.62293" lon="1.89423">
        <ele>2198</ele>
        <time>2010-01-01T00:45:18Z</time>
      </trkpt>
      <trkpt lat="42.62298" lon="1.89414">
        <ele>2194.3999</ele>
        <time>2010-01-01T00:45:22Z</time>
      </trkpt>
      <trkpt lat="42.62302" lon="1.89402">
        <ele>2191.8999</ele>
        <time>2010-01-01T00:45:25Z</time>
      </trkpt>
      <trkpt lat="42.62303" lon="1.8939">
        <ele>2189.8</ele>
        <time>2010-01-01T00:45:29Z</time>
      </trkpt>
      <trkpt lat="42.62304" lon="1.89377">
        <ele>2187.6</ele>
        <time>2010-01-01T00:45:33Z</time>
      </trkpt>
      <trkpt lat="42.62311" lon="1.89369">
        <ele>2185.8999</ele>
        <time>2010-01-01T00:45:37Z</time>
      </trkpt>
      <trkpt lat="42.62316" lon="1.89359">
        <ele>2184.1</ele>
        <time>2010-01-01T00:45:40Z</time>
      </trkpt>
      <trkpt lat="42.62312" lon="1.89347">
        <ele>2182.1</ele>
        <time>2010-01-01T00:45:44Z</time>
      </trkpt>
      <trkpt lat="42.62309" lon="1.89335">
        <ele>2179.8999</ele>
        <time>2010-01-01T00:45:48Z</time>
      </trkpt>
      <trkpt lat="42.6234" lon="1.89337">
        <ele>2179.0715</ele>
        <time>2010-01-01T00:46:01Z</time>
      </trkpt>
      <trkpt lat="42.6234" lon="1.89296">
        <ele>2166.4685</ele>
        <time>2010-01-01T00:46:13Z</time>
      </trkpt>
      <trkpt lat="42.62322" lon="1.893">
        <ele>2170.8</ele>
        <time>2010-01-01T00:46:20Z</time>
      </trkpt>
      <trkpt lat="42.62323" lon="1.89287">
        <ele>2167</ele>
        <time>2010-01-01T00:46:24Z</time>
      </trkpt>
      <trkpt lat="42.62325" lon="1.89275">
        <ele>2163.3</ele>
        <time>2010-01-01T00:46:28Z</time>
      </trkpt>
      <trkpt lat="42.62328" lon="1.89263">
        <ele>2159</ele>
        <time>2010-01-01T00:46:32Z</time>
      </trkpt>
      <trkpt lat="42.62326" lon="1.89249">
        <ele>2155.3</ele>
        <time>2010-01-01T00:46:36Z</time>
      </trkpt>
      <trkpt lat="42.62319" lon="1.8924">
        <ele>2153.8</ele>
        <time>2010-01-01T00:46:39Z</time>
      </trkpt>
      <trkpt lat="42.62311" lon="1.89233">
        <ele>2154.3999</ele>
        <time>2010-01-01T00:46:43Z</time>
      </trkpt>
      <trkpt lat="42.62306" lon="1.89222">
        <ele>2154.3999</ele>
        <time>2010-01-01T00:46:47Z</time>
      </trkpt>
      <trkpt lat="42.623" lon="1.89212">
        <ele>2154.6</ele>
        <time>2010-01-01T00:46:51Z</time>
      </trkpt>
      <trkpt lat="42.62304" lon="1.89201">
        <ele>2152.3999</ele>
        <time>2010-01-01T00:46:55Z</time>
      </trkpt>
      <trkpt lat="42.62308" lon="1.89189">
        <ele>2150.3</ele>
        <time>2010-01-01T00:46:58Z</time>
      </trkpt>
      <trkpt lat="42.62315" lon="1.8918">
        <ele>2147.5</ele>
        <time>2010-01-01T00:47:02Z</time>
      </trkpt>
      <trkpt lat="42.62323" lon="1.89174">
        <ele>2144.3999</ele>
        <time>2010-01-01T00:47:06Z</time>
      </trkpt>
      <trkpt lat="42.62327" lon="1.89162">
        <ele>2141.8999</ele>
        <time>2010-01-01T00:47:10Z</time>
      </trkpt>
      <trkpt lat="42.62327" lon="1.8915">
        <ele>2140.6999</ele>
        <time>2010-01-01T00:47:13Z</time>
      </trkpt>
      <trkpt lat="42.62332" lon="1.89139">
        <ele>2138.8999</ele>
        <time>2010-01-01T00:47:17Z</time>
      </trkpt>
      <trkpt lat="42.6234" lon="1.89134">
        <ele>2136.8</ele>
        <time>2010-01-01T00:47:20Z</time>
      </trkpt>
      <trkpt lat="42.62349" lon="1.89131">
        <ele>2134.8999</ele>
        <time>2010-01-01T00:47:24Z</time>
      </trkpt>
      <trkpt lat="42.62357" lon="1.89123">
        <ele>2133</ele>
        <time>2010-01-01T00:47:28Z</time>
      </trkpt>
      <trkpt lat="42.62363" lon="1.89115">
        <ele>2131</ele>
        <time>2010-01-01T00:47:32Z</time>
      </trkpt>
      <trkpt lat="42.62367" lon="1.89102">
        <ele>2129.6</ele>
        <time>2010-01-01T00:47:35Z</time>
      </trkpt>
      <trkpt lat="42.62375" lon="1.891">
        <ele>2127.6</ele>
        <time>2010-01-01T00:47:39Z</time>
      </trkpt>
      <trkpt lat="42.62377" lon="1.89087">
        <ele>2126.6</ele>
        <time>2010-01-01T00:47:43Z</time>
      </trkpt>
      <trkpt lat="42.62386" lon="1.89087">
        <ele>2125.1999</ele>
        <time>2010-01-01T00:47:46Z</time>
      </trkpt>
      <trkpt lat="42.62391" lon="1.89076">
        <ele>2124</ele>
        <time>2010-01-01T00:47:50Z</time>
      </trkpt>
      <trkpt lat="42.62392" lon="1.89063">
        <ele>2124.3999</ele>
        <time>2010-01-01T00:47:54Z</time>
      </trkpt>
      <trkpt lat="42.62395" lon="1.89051">
        <ele>2124.8</ele>
        <time>2010-01-01T00:47:58Z</time>
      </trkpt>
      <trkpt lat="42.624" lon="1.89041">
        <ele>2124.5</ele>
        <time>2010-01-01T00:48:01Z</time>
      </trkpt>
      <trkpt lat="42.62407" lon="1.89033">
        <ele>2124</ele>
        <time>2010-01-01T00:48:05Z</time>
      </trkpt>
      <trkpt lat="42.62409" lon="1.8902">
        <ele>2124.3999</ele>
        <time>2010-01-01T00:48:09Z</time>
      </trkpt>
      <trkpt lat="42.62414" lon="1.89009">
        <ele>2124.8</ele>
        <time>2010-01-01T00:48:13Z</time>
      </trkpt>
      <trkpt lat="42.62412" lon="1.88997">
        <ele>2125.3999</ele>
        <time>2010-01-01T00:48:16Z</time>
      </trkpt>
      <trkpt lat="42.62418" lon="1.88986">
        <ele>2125.6999</ele>
        <time>2010-01-01T00:48:20Z</time>
      </trkpt>
      <trkpt lat="42.62425" lon="1.88978">
        <ele>2125.5</ele>
        <time>2010-01-01T00:48:24Z</time>
      </trkpt>
      <trkpt lat="42.62433" lon="1.88972">
        <ele>2124.8</ele>
        <time>2010-01-01T00:48:28Z</time>
      </trkpt>
      <trkpt lat="42.62442" lon="1.88977">
        <ele>2123.8999</ele>
        <time>2010-01-01T00:48:31Z</time>
      </trkpt>
      <trkpt lat="42.6245" lon="1.8897">
        <ele>2122.8999</ele>
        <time>2010-01-01T00:48:35Z</time>
      </trkpt>
      <trkpt lat="42.62448" lon="1.88957">
        <ele>2122.1999</ele>
        <time>2010-01-01T00:48:39Z</time>
      </trkpt>
      <trkpt lat="42.62448" lon="1.88944">
        <ele>2121.3999</ele>
        <time>2010-01-01T00:48:43Z</time>
      </trkpt>
      <trkpt lat="42.62446" lon="1.88931">
        <ele>2121.1</ele>
        <time>2010-01-01T00:48:47Z</time>
      </trkpt>
      <trkpt lat="42.62444" lon="1.88919">
        <ele>2120.6999</ele>
        <time>2010-01-01T00:48:50Z</time>
      </trkpt>
      <trkpt lat="42.62447" lon="1.88906">
        <ele>2116.3</ele>
        <time>2010-01-01T00:48:54Z</time>
      </trkpt>
      <trkpt lat="42.62456" lon="1.889">
        <ele>2110.1999</ele>
        <time>2010-01-01T00:48:58Z</time>
      </trkpt>
      <trkpt lat="42.62465" lon="1.88896">
        <ele>2104.6999</ele>
        <time>2010-01-01T00:49:02Z</time>
      </trkpt>
      <trkpt lat="42.62474" lon="1.88894">
        <ele>2100.3</ele>
        <time>2010-01-01T00:49:06Z</time>
      </trkpt>
      <trkpt lat="42.62482" lon="1.88886">
        <ele>2093.5</ele>
        <time>2010-01-01T00:49:09Z</time>
      </trkpt>
      <trkpt lat="42.6249" lon="1.8888">
        <ele>2086.8999</ele>
        <time>2010-01-01T00:49:13Z</time>
      </trkpt>
      <trkpt lat="42.62482" lon="1.88875">
        <ele>2085.6999</ele>
        <time>2010-01-01T00:49:17Z</time>
      </trkpt>
      <trkpt lat="42.62478" lon="1.88863">
        <ele>2081.8</ele>
        <time>2010-01-01T00:49:21Z</time>
      </trkpt>
      <trkpt lat="42.62481" lon="1.8885">
        <ele>2074.6</ele>
        <time>2010-01-01T00:49:24Z</time>
      </trkpt>
      <trkpt lat="42.62477" lon="1.88839">
        <ele>2068.6</ele>
        <time>2010-01-01T00:49:28Z</time>
      </trkpt>
      <trkpt lat="42.62482" lon="1.88829">
        <ele>2063.5</ele>
        <time>2010-01-01T00:49:32Z</time>
      </trkpt>
      <trkpt lat="42.62481" lon="1.88816">
        <ele>2059.3</ele>
        <time>2010-01-01T00:49:35Z</time>
      </trkpt>
      <trkpt lat="42.62483" lon="1.88804">
        <ele>2056.8999</ele>
        <time>2010-01-01T00:49:39Z</time>
      </trkpt>
      <trkpt lat="42.62485" lon="1.88792">
        <ele>2053.6</ele>
        <time>2010-01-01T00:49:43Z</time>
      </trkpt>
      <trkpt lat="42.62492" lon="1.88783">
        <ele>2049.1999</ele>
        <time>2010-01-01T00:49:47Z</time>
      </trkpt>
      <trkpt lat="42.62498" lon="1.88774">
        <ele>2044.8</ele>
        <time>2010-01-01T00:49:50Z</time>
      </trkpt>
      <trkpt lat="42.62506" lon="1.88767">
        <ele>2042.6999</ele>
        <time>2010-01-01T00:49:54Z</time>
      </trkpt>
      <trkpt lat="42.62515" lon="1.88762">
        <ele>2042.8</ele>
        <time>2010-01-01T00:49:58Z</time>
      </trkpt>
      <trkpt lat="42.62513" lon="1.8875">
        <ele>2040.5</ele>
        <time>2010-01-01T00:50:02Z</time>
      </trkpt>
      <trkpt lat="42.62521" lon="1.88746">
        <ele>2039.9</ele>
        <time>2010-01-01T00:50:05Z</time>
      </trkpt>
      <trkpt lat="42.6253" lon="1.88741">
        <ele>2039.6999</ele>
        <time>2010-01-01T00:50:09Z</time>
      </trkpt>
      <trkpt lat="42.62537" lon="1.88734">
        <ele>2038.3</ele>
        <time>2010-01-01T00:50:13Z</time>
      </trkpt>
      <trkpt lat="42.62543" lon="1.88724">
        <ele>2036.0999</ele>
        <time>2010-01-01T00:50:16Z</time>
      </trkpt>
      <trkpt lat="42.62552" lon="1.88725">
        <ele>2037</ele>
        <time>2010-01-01T00:50:20Z</time>
      </trkpt>
      <trkpt lat="42.6256" lon="1.88718">
        <ele>2035.4</ele>
        <time>2010-01-01T00:50:24Z</time>
      </trkpt>
      <trkpt lat="42.62566" lon="1.88708">
        <ele>2033.5</ele>
        <time>2010-01-01T00:50:28Z</time>
      </trkpt>
      <trkpt lat="42.62572" lon="1.88698">
        <ele>2030.5</ele>
        <time>2010-01-01T00:50:32Z</time>
      </trkpt>
      <trkpt lat="42.6258" lon="1.8869">
        <ele>2028.0999</ele>
        <time>2010-01-01T00:50:35Z</time>
      </trkpt>
      <trkpt lat="42.62586" lon="1.88681">
        <ele>2025.5</ele>
        <time>2010-01-01T00:50:39Z</time>
      </trkpt>
      <trkpt lat="42.62591" lon="1.88671">
        <ele>2024</ele>
        <time>2010-01-01T00:50:43Z</time>
      </trkpt>
      <trkpt lat="42.62595" lon="1.88659">
        <ele>2021</ele>
        <time>2010-01-01T00:50:47Z</time>
      </trkpt>
      <trkpt lat="42.62601" lon="1.88649">
        <ele>2019.1999</ele>
        <time>2010-01-01T00:50:50Z</time>
      </trkpt>
      <trkpt lat="42.62608" lon="1.88642">
        <ele>2018</ele>
        <time>2010-01-01T00:50:54Z</time>
      </trkpt>
      <trkpt lat="42.62614" lon="1.88632">
        <ele>2015.8</ele>
        <time>2010-01-01T00:50:58Z</time>
      </trkpt>
      <trkpt lat="42.62619" lon="1.88622">
        <ele>2012.6999</ele>
        <time>2010-01-01T00:51:01Z</time>
      </trkpt>
      <trkpt lat="42.62625" lon="1.88611">
        <ele>2009.0999</ele>
        <time>2010-01-01T00:51:05Z</time>
      </trkpt>
      <trkpt lat="42.6263" lon="1.886">
        <ele>2004.6999</ele>
        <time>2010-01-01T00:51:09Z</time>
      </trkpt>
      <trkpt lat="42.62635" lon="1.8859">
        <ele>1999.9</ele>
        <time>2010-01-01T00:51:13Z</time>
      </trkpt>
      <trkpt lat="42.62638" lon="1.88578">
        <ele>1996.1999</ele>
        <time>2010-01-01T00:51:16Z</time>
      </trkpt>
      <trkpt lat="42.62642" lon="1.88567">
        <ele>1992.5999</ele>
        <time>2010-01-01T00:51:20Z</time>
      </trkpt>
      <trkpt lat="42.62648" lon="1.88557">
        <ele>1989.4</ele>
        <time>2010-01-01T00:51:24Z</time>
      </trkpt>
      <trkpt lat="42.62655" lon="1.88548">
        <ele>1985.8</ele>
        <time>2010-01-01T00:51:28Z</time>
      </trkpt>
      <trkpt lat="42.62662" lon="1.88539">
        <ele>1981.9</ele>
        <time>2010-01-01T00:51:32Z</time>
      </trkpt>
      <trkpt lat="42.62662" lon="1.88527">
        <ele>1977</ele>
        <time>2010-01-01T00:51:35Z</time>
      </trkpt>
      <trkpt lat="42.62652" lon="1.88522">
        <ele>1976.8</ele>
        <time>2010-01-01T00:51:39Z</time>
      </trkpt>
      <trkpt lat="42.62651" lon="1.8851">
        <ele>1974.3</ele>
        <time>2010-01-01T00:51:43Z</time>
      </trkpt>
      <trkpt lat="42.62659" lon="1.885">
        <ele>1969.9</ele>
        <time>2010-01-01T00:51:47Z</time>
      </trkpt>
      <trkpt lat="42.62659" lon="1.88487">
        <ele>1966.3</ele>
        <time>2010-01-01T00:51:51Z</time>
      </trkpt>
      <trkpt lat="42.62663" lon="1.88475">
        <ele>1963</ele>
        <time>2010-01-01T00:51:55Z</time>
      </trkpt>
      <trkpt lat="42.62664" lon="1.88463">
        <ele>1960</ele>
        <time>2010-01-01T00:51:58Z</time>
      </trkpt>
      <trkpt lat="42.62668" lon="1.88452">
        <ele>1956.6999</ele>
        <time>2010-01-01T00:52:02Z</time>
      </trkpt>
      <trkpt lat="42.62672" lon="1.8844">
        <ele>1953</ele>
        <time>2010-01-01T00:52:06Z</time>
      </trkpt>
      <trkpt lat="42.62679" lon="1.88432">
        <ele>1949.3</ele>
        <time>2010-01-01T00:52:10Z</time>
      </trkpt>
      <trkpt lat="42.62688" lon="1.88434">
        <ele>1946.9</ele>
        <time>2010-01-01T00:52:13Z</time>
      </trkpt>
      <trkpt lat="42.62697" lon="1.8843">
        <ele>1943.6999</ele>
        <time>2010-01-01T00:52:17Z</time>
      </trkpt>
      <trkpt lat="42.62704" lon="1.88421">
        <ele>1940.0999</ele>
        <time>2010-01-01T00:52:21Z</time>
      </trkpt>
      <trkpt lat="42.62713" lon="1.88417">
        <ele>1936.1999</ele>
        <time>2010-01-01T00:52:25Z</time>
      </trkpt>
      <trkpt lat="42.62722" lon="1.88414">
        <ele>1933.0999</ele>
        <time>2010-01-01T00:52:29Z</time>
      </trkpt>
      <trkpt lat="42.62731" lon="1.8842">
        <ele>1931.5</ele>
        <time>2010-01-01T00:52:32Z</time>
      </trkpt>
      <trkpt lat="42.62737" lon="1.88429">
        <ele>1930.9</ele>
        <time>2010-01-01T00:52:36Z</time>
      </trkpt>
      <trkpt lat="42.62745" lon="1.88437">
        <ele>1930.8</ele>
        <time>2010-01-01T00:52:40Z</time>
      </trkpt>
      <trkpt lat="42.62753" lon="1.88442">
        <ele>1929.9</ele>
        <time>2010-01-01T00:52:44Z</time>
      </trkpt>
      <trkpt lat="42.62763" lon="1.88447">
        <ele>1929.8</ele>
        <time>2010-01-01T00:52:48Z</time>
      </trkpt>
      <trkpt lat="42.62771" lon="1.88453">
        <ele>1930.0999</ele>
        <time>2010-01-01T00:52:51Z</time>
      </trkpt>
      <trkpt lat="42.62779" lon="1.88457">
        <ele>1930.3</ele>
        <time>2010-01-01T00:52:55Z</time>
      </trkpt>
      <trkpt lat="42.62789" lon="1.88454">
        <ele>1929.0999</ele>
        <time>2010-01-01T00:52:59Z</time>
      </trkpt>
      <trkpt lat="42.62796" lon="1.88447">
        <ele>1927.0999</ele>
        <time>2010-01-01T00:53:03Z</time>
      </trkpt>
      <trkpt lat="42.62805" lon="1.88445">
        <ele>1925.4</ele>
        <time>2010-01-01T00:53:06Z</time>
      </trkpt>
      <trkpt lat="42.62806" lon="1.88433">
        <ele>1922.9</ele>
        <time>2010-01-01T00:53:10Z</time>
      </trkpt>
      <trkpt lat="42.62808" lon="1.8842">
        <ele>1920.0999</ele>
        <time>2010-01-01T00:53:14Z</time>
      </trkpt>
      <trkpt lat="42.62813" lon="1.88408">
        <ele>1917.1999</ele>
        <time>2010-01-01T00:53:18Z</time>
      </trkpt>
      <trkpt lat="42.62822" lon="1.88404">
        <ele>1915.4</ele>
        <time>2010-01-01T00:53:21Z</time>
      </trkpt>
      <trkpt lat="42.6282" lon="1.88391">
        <ele>1913.3</ele>
        <time>2010-01-01T00:53:25Z</time>
      </trkpt>
      <trkpt lat="42.62817" lon="1.8838">
        <ele>1911.4</ele>
        <time>2010-01-01T00:53:29Z</time>
      </trkpt>
      <trkpt lat="42.62822" lon="1.88368">
        <ele>1909.1999</ele>
        <time>2010-01-01T00:53:33Z</time>
      </trkpt>
      <trkpt lat="42.62829" lon="1.88358">
        <ele>1907.0999</ele>
        <time>2010-01-01T00:53:37Z</time>
      </trkpt>
      <trkpt lat="42.6283" lon="1.88346">
        <ele>1904.5999</ele>
        <time>2010-01-01T00:53:40Z</time>
      </trkpt>
      <trkpt lat="42.62839" lon="1.88341">
        <ele>1904.5</ele>
        <time>2010-01-01T00:53:44Z</time>
      </trkpt>
      <trkpt lat="42.62847" lon="1.88335">
        <ele>1905</ele>
        <time>2010-01-01T00:53:48Z</time>
      </trkpt>
      <trkpt lat="42.62854" lon="1.88327">
        <ele>1905.0999</ele>
        <time>2010-01-01T00:53:52Z</time>
      </trkpt>
      <trkpt lat="42.62863" lon="1.88321">
        <ele>1905.3</ele>
        <time>2010-01-01T00:53:55Z</time>
      </trkpt>
      <trkpt lat="42.62871" lon="1.88315">
        <ele>1905.6999</ele>
        <time>2010-01-01T00:53:59Z</time>
      </trkpt>
      <trkpt lat="42.6288" lon="1.88314">
        <ele>1907</ele>
        <time>2010-01-01T00:54:03Z</time>
      </trkpt>
      <trkpt lat="42.6289" lon="1.88311">
        <ele>1908.0999</ele>
        <time>2010-01-01T00:54:07Z</time>
      </trkpt>
      <trkpt lat="42.62884" lon="1.88301">
        <ele>1906.1999</ele>
        <time>2010-01-01T00:54:10Z</time>
      </trkpt>
      <trkpt lat="42.62881" lon="1.88289">
        <ele>1903.0999</ele>
        <time>2010-01-01T00:54:14Z</time>
      </trkpt>
      <trkpt lat="42.62878" lon="1.88277">
        <ele>1900.5999</ele>
        <time>2010-01-01T00:54:18Z</time>
      </trkpt>
      <trkpt lat="42.62883" lon="1.88265">
        <ele>1898</ele>
        <time>2010-01-01T00:54:22Z</time>
      </trkpt>
      <trkpt lat="42.62893" lon="1.88263">
        <ele>1898.1999</ele>
        <time>2010-01-01T00:54:26Z</time>
      </trkpt>
      <trkpt lat="42.62902" lon="1.88263">
        <ele>1899.0999</ele>
        <time>2010-01-01T00:54:30Z</time>
      </trkpt>
      <trkpt lat="42.6291" lon="1.88256">
        <ele>1899.3</ele>
        <time>2010-01-01T00:54:33Z</time>
      </trkpt>
      <trkpt lat="42.62918" lon="1.88248">
        <ele>1897.6999</ele>
        <time>2010-01-01T00:54:37Z</time>
      </trkpt>
      <trkpt lat="42.62923" lon="1.88237">
        <ele>1896.5</ele>
        <time>2010-01-01T00:54:41Z</time>
      </trkpt>
      <trkpt lat="42.62924" lon="1.88224">
        <ele>1892.6999</ele>
        <time>2010-01-01T00:54:45Z</time>
      </trkpt>
      <trkpt lat="42.6292" lon="1.88212">
        <ele>1887.1999</ele>
        <time>2010-01-01T00:54:49Z</time>
      </trkpt>
      <trkpt lat="42.62929" lon="1.88207">
        <ele>1886.6999</ele>
        <time>2010-01-01T00:54:52Z</time>
      </trkpt>
      <trkpt lat="42.62938" lon="1.88202">
        <ele>1888.4</ele>
        <time>2010-01-01T00:54:56Z</time>
      </trkpt>
      <trkpt lat="42.62941" lon="1.8819">
        <ele>1887.3</ele>
        <time>2010-01-01T00:55:00Z</time>
      </trkpt>
      <trkpt lat="42.62943" lon="1.88177">
        <ele>1883.3</ele>
        <time>2010-01-01T00:55:04Z</time>
      </trkpt>
      <trkpt lat="42.62943" lon="1.88165">
        <ele>1880.4</ele>
        <time>2010-01-01T00:55:08Z</time>
      </trkpt>
      <trkpt lat="42.62945" lon="1.88152">
        <ele>1877.0999</ele>
        <time>2010-01-01T00:55:11Z</time>
      </trkpt>
      <trkpt lat="42.62951" lon="1.88142">
        <ele>1875</ele>
        <time>2010-01-01T00:55:15Z</time>
      </trkpt>
      <trkpt lat="42.62955" lon="1.88131">
        <ele>1874.0999</ele>
        <time>2010-01-01T00:55:19Z</time>
      </trkpt>
      <trkpt lat="42.62962" lon="1.88122">
        <ele>1873.5999</ele>
        <time>2010-01-01T00:55:22Z</time>
      </trkpt>
      <trkpt lat="42.62968" lon="1.88113">
        <ele>1873.5</ele>
        <time>2010-01-01T00:55:26Z</time>
      </trkpt>
      <trkpt lat="42.62972" lon="1.881">
        <ele>1871.9</ele>
        <time>2010-01-01T00:55:30Z</time>
      </trkpt>
      <trkpt lat="42.62974" lon="1.88087">
        <ele>1868.8</ele>
        <time>2010-01-01T00:55:34Z</time>
      </trkpt>
      <trkpt lat="42.62982" lon="1.88078">
        <ele>1868.6999</ele>
        <time>2010-01-01T00:55:39Z</time>
      </trkpt>
      <trkpt lat="42.62984" lon="1.88065">
        <ele>1869.3</ele>
        <time>2010-01-01T00:55:43Z</time>
      </trkpt>
      <trkpt lat="42.62985" lon="1.88051">
        <ele>1867.9</ele>
        <time>2010-01-01T00:55:47Z</time>
      </trkpt>
      <trkpt lat="42.62988" lon="1.88039">
        <ele>1868</ele>
        <time>2010-01-01T00:55:50Z</time>
      </trkpt>
      <trkpt lat="42.62988" lon="1.88026">
        <ele>1866.6999</ele>
        <time>2010-01-01T00:55:54Z</time>
      </trkpt>
      <trkpt lat="42.62985" lon="1.88014">
        <ele>1865.0999</ele>
        <time>2010-01-01T00:55:58Z</time>
      </trkpt>
      <trkpt lat="42.62986" lon="1.88002">
        <ele>1864.0999</ele>
        <time>2010-01-01T00:56:02Z</time>
      </trkpt>
      <trkpt lat="42.62988" lon="1.87988">
        <ele>1863.0999</ele>
        <time>2010-01-01T00:56:06Z</time>
      </trkpt>
      <trkpt lat="42.6299" lon="1.87975">
        <ele>1862.0999</ele>
        <time>2010-01-01T00:56:10Z</time>
      </trkpt>
      <trkpt lat="42.62993" lon="1.87963">
        <ele>1861.4</ele>
        <time>2010-01-01T00:56:13Z</time>
      </trkpt>
      <trkpt lat="42.62996" lon="1.87951">
        <ele>1861.1999</ele>
        <time>2010-01-01T00:56:17Z</time>
      </trkpt>
      <trkpt lat="42.62991" lon="1.87939">
        <ele>1858.9</ele>
        <time>2010-01-01T00:56:21Z</time>
      </trkpt>
      <trkpt lat="42.6299" lon="1.87925">
        <ele>1856.1999</ele>
        <time>2010-01-01T00:56:25Z</time>
      </trkpt>
      <trkpt lat="42.62991" lon="1.87911">
        <ele>1855.4</ele>
        <time>2010-01-01T00:56:29Z</time>
      </trkpt>
      <trkpt lat="42.62992" lon="1.87898">
        <ele>1853.8</ele>
        <time>2010-01-01T00:56:33Z</time>
      </trkpt>
      <trkpt lat="42.62991" lon="1.87885">
        <ele>1851.8</ele>
        <time>2010-01-01T00:56:37Z</time>
      </trkpt>
      <trkpt lat="42.62991" lon="1.87872">
        <ele>1849.5</ele>
        <time>2010-01-01T00:56:41Z</time>
      </trkpt>
      <trkpt lat="42.62992" lon="1.87859">
        <ele>1848.1999</ele>
        <time>2010-01-01T00:56:45Z</time>
      </trkpt>
      <trkpt lat="42.6299" lon="1.87847">
        <ele>1846.3</ele>
        <time>2010-01-01T00:56:48Z</time>
      </trkpt>
      <trkpt lat="42.62992" lon="1.87834">
        <ele>1844.6999</ele>
        <time>2010-01-01T00:56:52Z</time>
      </trkpt>
      <trkpt lat="42.62994" lon="1.87821">
        <ele>1843.0999</ele>
        <time>2010-01-01T00:56:56Z</time>
      </trkpt>
      <trkpt lat="42.63" lon="1.87812">
        <ele>1842</ele>
        <time>2010-01-01T00:57:00Z</time>
      </trkpt>
      <trkpt lat="42.63005" lon="1.878">
        <ele>1842.0999</ele>
        <time>2010-01-01T00:57:04Z</time>
      </trkpt>
      <trkpt lat="42.63013" lon="1.87792">
        <ele>1843.5</ele>
        <time>2010-01-01T00:57:08Z</time>
      </trkpt>
      <trkpt lat="42.63018" lon="1.8778">
        <ele>1844.5999</ele>
        <time>2010-01-01T00:57:12Z</time>
      </trkpt>
      <trkpt lat="42.6302" lon="1.87768">
        <ele>1844.1999</ele>
        <time>2010-01-01T00:57:15Z</time>
      </trkpt>
      <trkpt lat="42.63019" lon="1.87755">
        <ele>1842</ele>
        <time>2010-01-01T00:57:19Z</time>
      </trkpt>
      <trkpt lat="42.63018" lon="1.87743">
        <ele>1839.1999</ele>
        <time>2010-01-01T00:57:23Z</time>
      </trkpt>
      <trkpt lat="42.6302" lon="1.8773">
        <ele>1837.4</ele>
        <time>2010-01-01T00:57:27Z</time>
      </trkpt>
      <trkpt lat="42.6302" lon="1.87716">
        <ele>1835.3</ele>
        <time>2010-01-01T00:57:31Z</time>
      </trkpt>
      <trkpt lat="42.63024" lon="1.87704">
        <ele>1834.4</ele>
        <time>2010-01-01T00:57:35Z</time>
      </trkpt>
      <trkpt lat="42.63029" lon="1.87692">
        <ele>1834.1999</ele>
        <time>2010-01-01T00:57:39Z</time>
      </trkpt>
      <trkpt lat="42.63035" lon="1.87683">
        <ele>1835.5999</ele>
        <time>2010-01-01T00:57:42Z</time>
      </trkpt>
      <trkpt lat="42.6304" lon="1.87671">
        <ele>1836.5999</ele>
        <time>2010-01-01T00:57:46Z</time>
      </trkpt>
      <trkpt lat="42.63042" lon="1.87659">
        <ele>1836.4</ele>
        <time>2010-01-01T00:57:50Z</time>
      </trkpt>
      <trkpt lat="42.63047" lon="1.87648">
        <ele>1836.5999</ele>
        <time>2010-01-01T00:57:54Z</time>
      </trkpt>
      <trkpt lat="42.63051" lon="1.87637">
        <ele>1838</ele>
        <time>2010-01-01T00:57:57Z</time>
      </trkpt>
      <trkpt lat="42.63056" lon="1.87626">
        <ele>1838.8</ele>
        <time>2010-01-01T00:58:01Z</time>
      </trkpt>
      <trkpt lat="42.6306" lon="1.87614">
        <ele>1839.5</ele>
        <time>2010-01-01T00:58:05Z</time>
      </trkpt>
      <trkpt lat="42.63062" lon="1.87601">
        <ele>1839</ele>
        <time>2010-01-01T00:58:09Z</time>
      </trkpt>
      <trkpt lat="42.63057" lon="1.8759">
        <ele>1836.1999</ele>
        <time>2010-01-01T00:58:13Z</time>
      </trkpt>
      <trkpt lat="42.63062" lon="1.8758">
        <ele>1835.0999</ele>
        <time>2010-01-01T00:58:16Z</time>
      </trkpt>
      <trkpt lat="42.63064" lon="1.87568">
        <ele>1835.8</ele>
        <time>2010-01-01T00:58:20Z</time>
      </trkpt>
      <trkpt lat="42.63066" lon="1.87555">
        <ele>1835.1999</ele>
        <time>2010-01-01T00:58:24Z</time>
      </trkpt>
      <trkpt lat="42.63072" lon="1.87546">
        <ele>1836.9</ele>
        <time>2010-01-01T00:58:27Z</time>
      </trkpt>
      <trkpt lat="42.63074" lon="1.87534">
        <ele>1836.8</ele>
        <time>2010-01-01T00:58:31Z</time>
      </trkpt>
      <trkpt lat="42.63077" lon="1.87522">
        <ele>1837.4</ele>
        <time>2010-01-01T00:58:35Z</time>
      </trkpt>
      <trkpt lat="42.63082" lon="1.8751">
        <ele>1837.1999</ele>
        <time>2010-01-01T00:58:39Z</time>
      </trkpt>
      <trkpt lat="42.63085" lon="1.87498">
        <ele>1837.1999</ele>
        <time>2010-01-01T00:58:43Z</time>
      </trkpt>
      <trkpt lat="42.63092" lon="1.8749">
        <ele>1840.0999</ele>
        <time>2010-01-01T00:58:46Z</time>
      </trkpt>
      <trkpt lat="42.63097" lon="1.87477">
        <ele>1840.6999</ele>
        <time>2010-01-01T00:58:50Z</time>
      </trkpt>
      <trkpt lat="42.63098" lon="1.87465">
        <ele>1839.4</ele>
        <time>2010-01-01T00:58:54Z</time>
      </trkpt>
      <trkpt lat="42.63095" lon="1.87452">
        <ele>1834.5999</ele>
        <time>2010-01-01T00:58:58Z</time>
      </trkpt>
      <trkpt lat="42.63095" lon="1.87439">
        <ele>1830.6999</ele>
        <time>2010-01-01T00:59:02Z</time>
      </trkpt>
      <trkpt lat="42.63093" lon="1.87426">
        <ele>1826.4</ele>
        <time>2010-01-01T00:59:06Z</time>
      </trkpt>
      <trkpt lat="42.63095" lon="1.87414">
        <ele>1823.0999</ele>
        <time>2010-01-01T00:59:09Z</time>
      </trkpt>
      <trkpt lat="42.63098" lon="1.87402">
        <ele>1822.1999</ele>
        <time>2010-01-01T00:59:13Z</time>
      </trkpt>
      <trkpt lat="42.631" lon="1.87388">
        <ele>1820.3</ele>
        <time>2010-01-01T00:59:17Z</time>
      </trkpt>
      <trkpt lat="42.631" lon="1.87375">
        <ele>1817.5</ele>
        <time>2010-01-01T00:59:21Z</time>
      </trkpt>
      <trkpt lat="42.63103" lon="1.87362">
        <ele>1814.8</ele>
        <time>2010-01-01T00:59:25Z</time>
      </trkpt>
      <trkpt lat="42.63103" lon="1.87349">
        <ele>1811.4</ele>
        <time>2010-01-01T00:59:29Z</time>
      </trkpt>
      <trkpt lat="42.63101" lon="1.87336">
        <ele>1807.5</ele>
        <time>2010-01-01T00:59:33Z</time>
      </trkpt>
      <trkpt lat="42.63104" lon="1.87323">
        <ele>1804.6999</ele>
        <time>2010-01-01T00:59:37Z</time>
      </trkpt>
      <trkpt lat="42.63108" lon="1.87311">
        <ele>1803.0999</ele>
        <time>2010-01-01T00:59:41Z</time>
      </trkpt>
      <trkpt lat="42.63113" lon="1.873">
        <ele>1802.5999</ele>
        <time>2010-01-01T00:59:44Z</time>
      </trkpt>
      <trkpt lat="42.63118" lon="1.87288">
        <ele>1800.9</ele>
        <time>2010-01-01T00:59:48Z</time>
      </trkpt>
      <trkpt lat="42.63124" lon="1.87278">
        <ele>1799.6999</ele>
        <time>2010-01-01T00:59:52Z</time>
      </trkpt>
      <trkpt lat="42.63129" lon="1.87268">
        <ele>1798.9</ele>
        <time>2010-01-01T00:59:56Z</time>
      </trkpt>
      <trkpt lat="42.63135" lon="1.87258">
        <ele>1798.0999</ele>
        <time>2010-01-01T00:59:59Z</time>
      </trkpt>
      <trkpt lat="42.63137" lon="1.87246">
        <ele>1794.8</ele>
        <time>2010-01-01T01:00:03Z</time>
      </trkpt>
      <trkpt lat="42.63141" lon="1.87234">
        <ele>1793.3</ele>
        <time>2010-01-01T01:00:07Z</time>
      </trkpt>
      <trkpt lat="42.63145" lon="1.87221">
        <ele>1791.0999</ele>
        <time>2010-01-01T01:00:11Z</time>
      </trkpt>
      <trkpt lat="42.63147" lon="1.87209">
        <ele>1788.4</ele>
        <time>2010-01-01T01:00:15Z</time>
      </trkpt>
      <trkpt lat="42.63153" lon="1.87199">
        <ele>1786.8</ele>
        <time>2010-01-01T01:00:18Z</time>
      </trkpt>
      <trkpt lat="42.63157" lon="1.87188">
        <ele>1783.9</ele>
        <time>2010-01-01T01:00:22Z</time>
      </trkpt>
      <trkpt lat="42.63163" lon="1.87178">
        <ele>1781.5</ele>
        <time>2010-01-01T01:00:26Z</time>
      </trkpt>
      <trkpt lat="42.6317" lon="1.8717">
        <ele>1779.1999</ele>
        <time>2010-01-01T01:00:30Z</time>
      </trkpt>
      <trkpt lat="42.63177" lon="1.87162">
        <ele>1777.5999</ele>
        <time>2010-01-01T01:00:33Z</time>
      </trkpt>
      <trkpt lat="42.63184" lon="1.87153">
        <ele>1775.9</ele>
        <time>2010-01-01T01:00:37Z</time>
      </trkpt>
      <trkpt lat="42.63193" lon="1.87146">
        <ele>1774.4</ele>
        <time>2010-01-01T01:00:41Z</time>
      </trkpt>
      <trkpt lat="42.63201" lon="1.87141">
        <ele>1774.0999</ele>
        <time>2010-01-01T01:00:45Z</time>
      </trkpt>
      <trkpt lat="42.63209" lon="1.87134">
        <ele>1773.1999</ele>
        <time>2010-01-01T01:00:49Z</time>
      </trkpt>
      <trkpt lat="42.63219" lon="1.8713">
        <ele>1772.5999</ele>
        <time>2010-01-01T01:00:53Z</time>
      </trkpt>
      <trkpt lat="42.63226" lon="1.87122">
        <ele>1771</ele>
        <time>2010-01-01T01:00:56Z</time>
      </trkpt>
      <trkpt lat="42.63233" lon="1.87114">
        <ele>1769</ele>
        <time>2010-01-01T01:01:00Z</time>
      </trkpt>
      <trkpt lat="42.63238" lon="1.87102">
        <ele>1765.6999</ele>
        <time>2010-01-01T01:01:04Z</time>
      </trkpt>
      <trkpt lat="42.63244" lon="1.87093">
        <ele>1762.1999</ele>
        <time>2010-01-01T01:01:08Z</time>
      </trkpt>
      <trkpt lat="42.6325" lon="1.87083">
        <ele>1758.6999</ele>
        <time>2010-01-01T01:01:12Z</time>
      </trkpt>
      <trkpt lat="42.63256" lon="1.87073">
        <ele>1757.5999</ele>
        <time>2010-01-01T01:01:15Z</time>
      </trkpt>
      <trkpt lat="42.6326" lon="1.87062">
        <ele>1757</ele>
        <time>2010-01-01T01:01:19Z</time>
      </trkpt>
      <trkpt lat="42.63266" lon="1.87052">
        <ele>1756.4</ele>
        <time>2010-01-01T01:01:23Z</time>
      </trkpt>
      <trkpt lat="42.63271" lon="1.87043">
        <ele>1756.0999</ele>
        <time>2010-01-01T01:01:26Z</time>
      </trkpt>
      <trkpt lat="42.63278" lon="1.87034">
        <ele>1756</ele>
        <time>2010-01-01T01:01:30Z</time>
      </trkpt>
      <trkpt lat="42.63282" lon="1.87023">
        <ele>1754.6999</ele>
        <time>2010-01-01T01:01:34Z</time>
      </trkpt>
      <trkpt lat="42.63292" lon="1.87019">
        <ele>1755.1999</ele>
        <time>2010-01-01T01:01:38Z</time>
      </trkpt>
      <trkpt lat="42.633" lon="1.87012">
        <ele>1756.0999</ele>
        <time>2010-01-01T01:01:41Z</time>
      </trkpt>
      <trkpt lat="42.63302" lon="1.87">
        <ele>1753.5</ele>
        <time>2010-01-01T01:01:45Z</time>
      </trkpt>
      <trkpt lat="42.63307" lon="1.8699">
        <ele>1753</ele>
        <time>2010-01-01T01:01:49Z</time>
      </trkpt>
      <trkpt lat="42.63314" lon="1.86981">
        <ele>1752.4</ele>
        <time>2010-01-01T01:01:52Z</time>
      </trkpt>
      <trkpt lat="42.63323" lon="1.86978">
        <ele>1752.6999</ele>
        <time>2010-01-01T01:01:56Z</time>
      </trkpt>
      <trkpt lat="42.63332" lon="1.86978">
        <ele>1753.9</ele>
        <time>2010-01-01T01:02:00Z</time>
      </trkpt>
      <trkpt lat="42.6334" lon="1.86972">
        <ele>1754.6999</ele>
        <time>2010-01-01T01:02:04Z</time>
      </trkpt>
      <trkpt lat="42.63341" lon="1.86959">
        <ele>1752</ele>
        <time>2010-01-01T01:02:07Z</time>
      </trkpt>
      <trkpt lat="42.63347" lon="1.86949">
        <ele>1749.4</ele>
        <time>2010-01-01T01:02:11Z</time>
      </trkpt>
      <trkpt lat="42.63351" lon="1.86937">
        <ele>1746.8</ele>
        <time>2010-01-01T01:02:15Z</time>
      </trkpt>
      <trkpt lat="42.63358" lon="1.86929">
        <ele>1744.1999</ele>
        <time>2010-01-01T01:02:19Z</time>
      </trkpt>
      <trkpt lat="42.63369" lon="1.86926">
        <ele>1742</ele>
        <time>2010-01-01T01:02:23Z</time>
      </trkpt>
      <trkpt lat="42.63378" lon="1.86922">
        <ele>1742</ele>
        <time>2010-01-01T01:02:27Z</time>
      </trkpt>
      <trkpt lat="42.63387" lon="1.86918">
        <ele>1740.5999</ele>
        <time>2010-01-01T01:02:31Z</time>
      </trkpt>
      <trkpt lat="42.63397" lon="1.86916">
        <ele>1740</ele>
        <time>2010-01-01T01:02:35Z</time>
      </trkpt>
      <trkpt lat="42.63406" lon="1.86912">
        <ele>1739.1999</ele>
        <time>2010-01-01T01:02:39Z</time>
      </trkpt>
      <trkpt lat="42.63412" lon="1.86901">
        <ele>1737.0999</ele>
        <time>2010-01-01T01:02:43Z</time>
      </trkpt>
      <trkpt lat="42.63421" lon="1.86896">
        <ele>1735.5999</ele>
        <time>2010-01-01T01:02:46Z</time>
      </trkpt>
      <trkpt lat="42.63429" lon="1.86889">
        <ele>1734.6999</ele>
        <time>2010-01-01T01:02:50Z</time>
      </trkpt>
      <trkpt lat="42.63438" lon="1.86884">
        <ele>1733.3</ele>
        <time>2010-01-01T01:02:54Z</time>
      </trkpt>
      <trkpt lat="42.63446" lon="1.86879">
        <ele>1732.5</ele>
        <time>2010-01-01T01:02:58Z</time>
      </trkpt>
      <trkpt lat="42.63455" lon="1.86876">
        <ele>1731.9</ele>
        <time>2010-01-01T01:03:01Z</time>
      </trkpt>
      <trkpt lat="42.63465" lon="1.86873">
        <ele>1731.5</ele>
        <time>2010-01-01T01:03:05Z</time>
      </trkpt>
      <trkpt lat="42.63473" lon="1.86867">
        <ele>1730.4</ele>
        <time>2010-01-01T01:03:09Z</time>
      </trkpt>
      <trkpt lat="42.63483" lon="1.86862">
        <ele>1729.1999</ele>
        <time>2010-01-01T01:03:13Z</time>
      </trkpt>
      <trkpt lat="42.63493" lon="1.86863">
        <ele>1729.3</ele>
        <time>2010-01-01T01:03:17Z</time>
      </trkpt>
      <trkpt lat="42.63501" lon="1.86857">
        <ele>1728.8</ele>
        <time>2010-01-01T01:03:21Z</time>
      </trkpt>
      <trkpt lat="42.63505" lon="1.86846">
        <ele>1726.9</ele>
        <time>2010-01-01T01:03:25Z</time>
      </trkpt>
      <trkpt lat="42.63515" lon="1.86841">
        <ele>1726.5</ele>
        <time>2010-01-01T01:03:29Z</time>
      </trkpt>
      <trkpt lat="42.63522" lon="1.86834">
        <ele>1725.9</ele>
        <time>2010-01-01T01:03:32Z</time>
      </trkpt>
      <trkpt lat="42.63531" lon="1.8683">
        <ele>1725.8</ele>
        <time>2010-01-01T01:03:36Z</time>
      </trkpt>
      <trkpt lat="42.63539" lon="1.86825">
        <ele>1726</ele>
        <time>2010-01-01T01:03:40Z</time>
      </trkpt>
      <trkpt lat="42.63548" lon="1.86818">
        <ele>1725.4</ele>
        <time>2010-01-01T01:03:44Z</time>
      </trkpt>
      <trkpt lat="42.63556" lon="1.86811">
        <ele>1724.4</ele>
        <time>2010-01-01T01:03:47Z</time>
      </trkpt>
      <trkpt lat="42.63564" lon="1.86804">
        <ele>1722.5999</ele>
        <time>2010-01-01T01:03:51Z</time>
      </trkpt>
      <trkpt lat="42.63573" lon="1.86796">
        <ele>1720.5999</ele>
        <time>2010-01-01T01:03:56Z</time>
      </trkpt>
      <trkpt lat="42.63581" lon="1.86791">
        <ele>1718.5</ele>
        <time>2010-01-01T01:03:59Z</time>
      </trkpt>
      <trkpt lat="42.63589" lon="1.86786">
        <ele>1716.9</ele>
        <time>2010-01-01T01:04:03Z</time>
      </trkpt>
      <trkpt lat="42.63598" lon="1.86779">
        <ele>1715.3</ele>
        <time>2010-01-01T01:04:07Z</time>
      </trkpt>
      <trkpt lat="42.63604" lon="1.86769">
        <ele>1712.5999</ele>
        <time>2010-01-01T01:04:11Z</time>
      </trkpt>
      <trkpt lat="42.63611" lon="1.86763">
        <ele>1709.9</ele>
        <time>2010-01-01T01:04:14Z</time>
      </trkpt>
      <trkpt lat="42.63621" lon="1.86763">
        <ele>1710.3</ele>
        <time>2010-01-01T01:04:18Z</time>
      </trkpt>
      <trkpt lat="42.63631" lon="1.86759">
        <ele>1710.1999</ele>
        <time>2010-01-01T01:04:22Z</time>
      </trkpt>
      <trkpt lat="42.6364" lon="1.86762">
        <ele>1711.6999</ele>
        <time>2010-01-01T01:04:26Z</time>
      </trkpt>
      <trkpt lat="42.63649" lon="1.86759">
        <ele>1712.5999</ele>
        <time>2010-01-01T01:04:30Z</time>
      </trkpt>
      <trkpt lat="42.63656" lon="1.86749">
        <ele>1709.4</ele>
        <time>2010-01-01T01:04:34Z</time>
      </trkpt>
      <trkpt lat="42.63665" lon="1.86744">
        <ele>1708.5</ele>
        <time>2010-01-01T01:04:38Z</time>
      </trkpt>
      <trkpt lat="42.63674" lon="1.86738">
        <ele>1707.4</ele>
        <time>2010-01-01T01:04:41Z</time>
      </trkpt>
      <trkpt lat="42.63683" lon="1.86736">
        <ele>1706.5999</ele>
        <time>2010-01-01T01:04:45Z</time>
      </trkpt>
      <trkpt lat="42.6369" lon="1.86727">
        <ele>1704.0999</ele>
        <time>2010-01-01T01:04:49Z</time>
      </trkpt>
      <trkpt lat="42.637" lon="1.86722">
        <ele>1701.9</ele>
        <time>2010-01-01T01:04:53Z</time>
      </trkpt>
      <trkpt lat="42.63709" lon="1.86722">
        <ele>1701.0999</ele>
        <time>2010-01-01T01:04:57Z</time>
      </trkpt>
      <trkpt lat="42.63718" lon="1.86716">
        <ele>1699.1999</ele>
        <time>2010-01-01T01:05:01Z</time>
      </trkpt>
      <trkpt lat="42.63727" lon="1.8671">
        <ele>1696.3</ele>
        <time>2010-01-01T01:05:05Z</time>
      </trkpt>
      <trkpt lat="42.63736" lon="1.86708">
        <ele>1694.3</ele>
        <time>2010-01-01T01:05:09Z</time>
      </trkpt>
      <trkpt lat="42.63745" lon="1.86704">
        <ele>1692.3</ele>
        <time>2010-01-01T01:05:13Z</time>
      </trkpt>
      <trkpt lat="42.63753" lon="1.86697">
        <ele>1688.5</ele>
        <time>2010-01-01T01:05:16Z</time>
      </trkpt>
      <trkpt lat="42.6376" lon="1.8669">
        <ele>1685.3</ele>
        <time>2010-01-01T01:05:20Z</time>
      </trkpt>
      <trkpt lat="42.63769" lon="1.86683">
        <ele>1681.8</ele>
        <time>2010-01-01T01:05:24Z</time>
      </trkpt>
      <trkpt lat="42.63778" lon="1.86681">
        <ele>1680.6999</ele>
        <time>2010-01-01T01:05:28Z</time>
      </trkpt>
      <trkpt lat="42.63788" lon="1.8668">
        <ele>1680.0999</ele>
        <time>2010-01-01T01:05:32Z</time>
      </trkpt>
      <trkpt lat="42.63797" lon="1.86678">
        <ele>1680.0999</ele>
        <time>2010-01-01T01:05:35Z</time>
      </trkpt>
      <trkpt lat="42.63803" lon="1.86669">
        <ele>1674.6999</ele>
        <time>2010-01-01T01:05:39Z</time>
      </trkpt>
      <trkpt lat="42.63812" lon="1.86671">
        <ele>1675</ele>
        <time>2010-01-01T01:05:43Z</time>
      </trkpt>
      <trkpt lat="42.63819" lon="1.86662">
        <ele>1671.5</ele>
        <time>2010-01-01T01:05:47Z</time>
      </trkpt>
      <trkpt lat="42.63828" lon="1.86656">
        <ele>1668.8</ele>
        <time>2010-01-01T01:05:50Z</time>
      </trkpt>
      <trkpt lat="42.63834" lon="1.86647">
        <ele>1664.5999</ele>
        <time>2010-01-01T01:05:54Z</time>
      </trkpt>
      <trkpt lat="42.6384" lon="1.86637">
        <ele>1662.1999</ele>
        <time>2010-01-01T01:05:58Z</time>
      </trkpt>
      <trkpt lat="42.63846" lon="1.86627">
        <ele>1659.5999</ele>
        <time>2010-01-01T01:06:02Z</time>
      </trkpt>
      <trkpt lat="42.63855" lon="1.86627">
        <ele>1662.5</ele>
        <time>2010-01-01T01:06:05Z</time>
      </trkpt>
      <trkpt lat="42.63863" lon="1.8662">
        <ele>1662.8</ele>
        <time>2010-01-01T01:06:09Z</time>
      </trkpt>
      <trkpt lat="42.63872" lon="1.86614">
        <ele>1662</ele>
        <time>2010-01-01T01:06:13Z</time>
      </trkpt>
      <trkpt lat="42.63878" lon="1.86606">
        <ele>1659.9</ele>
        <time>2010-01-01T01:06:17Z</time>
      </trkpt>
      <trkpt lat="42.63887" lon="1.86607">
        <ele>1663.3</ele>
        <time>2010-01-01T01:06:20Z</time>
      </trkpt>
      <trkpt lat="42.63895" lon="1.86599">
        <ele>1663.1999</ele>
        <time>2010-01-01T01:06:24Z</time>
      </trkpt>
      <trkpt lat="42.63903" lon="1.86592">
        <ele>1661</ele>
        <time>2010-01-01T01:06:28Z</time>
      </trkpt>
      <trkpt lat="42.63912" lon="1.86586">
        <ele>1660.5</ele>
        <time>2010-01-01T01:06:32Z</time>
      </trkpt>
      <trkpt lat="42.63918" lon="1.86576">
        <ele>1658.0999</ele>
        <time>2010-01-01T01:06:36Z</time>
      </trkpt>
      <trkpt lat="42.63922" lon="1.86563">
        <ele>1654.9</ele>
        <time>2010-01-01T01:06:40Z</time>
      </trkpt>
      <trkpt lat="42.63927" lon="1.86553">
        <ele>1651.6999</ele>
        <time>2010-01-01T01:06:43Z</time>
      </trkpt>
      <trkpt lat="42.63929" lon="1.86539">
        <ele>1647.3</ele>
        <time>2010-01-01T01:06:48Z</time>
      </trkpt>
      <trkpt lat="42.63935" lon="1.86529">
        <ele>1643.8</ele>
        <time>2010-01-01T01:06:51Z</time>
      </trkpt>
      <trkpt lat="42.63942" lon="1.8652">
        <ele>1641.5999</ele>
        <time>2010-01-01T01:06:55Z</time>
      </trkpt>
      <trkpt lat="42.63947" lon="1.8651">
        <ele>1639</ele>
        <time>2010-01-01T01:06:59Z</time>
      </trkpt>
      <trkpt lat="42.63953" lon="1.865">
        <ele>1635.6999</ele>
        <time>2010-01-01T01:07:03Z</time>
      </trkpt>
      <trkpt lat="42.63958" lon="1.86488">
        <ele>1632.4</ele>
        <time>2010-01-01T01:07:07Z</time>
      </trkpt>
      <trkpt lat="42.6396" lon="1.86476">
        <ele>1628.1999</ele>
        <time>2010-01-01T01:07:10Z</time>
      </trkpt>
      <trkpt lat="42.63961" lon="1.86464">
        <ele>1622.5999</ele>
        <time>2010-01-01T01:07:14Z</time>
      </trkpt>
      <trkpt lat="42.63968" lon="1.86454">
        <ele>1618.1999</ele>
        <time>2010-01-01T01:07:18Z</time>
      </trkpt>
      <trkpt lat="42.63973" lon="1.86443">
        <ele>1612</ele>
        <time>2010-01-01T01:07:22Z</time>
      </trkpt>
      <trkpt lat="42.63982" lon="1.86437">
        <ele>1608.5</ele>
        <time>2010-01-01T01:07:26Z</time>
      </trkpt>
      <trkpt lat="42.63992" lon="1.86434">
        <ele>1605.6999</ele>
        <time>2010-01-01T01:07:30Z</time>
      </trkpt>
      <trkpt lat="42.64001" lon="1.86428">
        <ele>1601.3</ele>
        <time>2010-01-01T01:07:34Z</time>
      </trkpt>
      <trkpt lat="42.6401" lon="1.86427">
        <ele>1600.3</ele>
        <time>2010-01-01T01:07:37Z</time>
      </trkpt>
      <trkpt lat="42.64019" lon="1.86423">
        <ele>1599.4</ele>
        <time>2010-01-01T01:07:41Z</time>
      </trkpt>
      <trkpt lat="42.64029" lon="1.86422">
        <ele>1598.4</ele>
        <time>2010-01-01T01:07:45Z</time>
      </trkpt>
      <trkpt lat="42.64039" lon="1.86421">
        <ele>1598.6999</ele>
        <time>2010-01-01T01:07:49Z</time>
      </trkpt>
      <trkpt lat="42.64046" lon="1.86413">
        <ele>1596.0999</ele>
        <time>2010-01-01T01:07:53Z</time>
      </trkpt>
      <trkpt lat="42.64052" lon="1.86404">
        <ele>1592.0999</ele>
        <time>2010-01-01T01:07:57Z</time>
      </trkpt>
      <trkpt lat="42.64062" lon="1.86399">
        <ele>1590.8</ele>
        <time>2010-01-01T01:08:01Z</time>
      </trkpt>
      <trkpt lat="42.64071" lon="1.86394">
        <ele>1588.9</ele>
        <time>2010-01-01T01:08:04Z</time>
      </trkpt>
      <trkpt lat="42.64079" lon="1.86388">
        <ele>1586.5999</ele>
        <time>2010-01-01T01:08:08Z</time>
      </trkpt>
      <trkpt lat="42.64085" lon="1.86378">
        <ele>1582.8</ele>
        <time>2010-01-01T01:08:12Z</time>
      </trkpt>
      <trkpt lat="42.64094" lon="1.86373">
        <ele>1579.5</ele>
        <time>2010-01-01T01:08:16Z</time>
      </trkpt>
      <trkpt lat="42.64102" lon="1.86367">
        <ele>1576.9</ele>
        <time>2010-01-01T01:08:20Z</time>
      </trkpt>
      <trkpt lat="42.64112" lon="1.86363">
        <ele>1574.3</ele>
        <time>2010-01-01T01:08:24Z</time>
      </trkpt>
      <trkpt lat="42.64118" lon="1.86355">
        <ele>1570.3</ele>
        <time>2010-01-01T01:08:27Z</time>
      </trkpt>
      <trkpt lat="42.6412" lon="1.86341">
        <ele>1564.9</ele>
        <time>2010-01-01T01:08:31Z</time>
      </trkpt>
      <trkpt lat="42.64122" lon="1.86329">
        <ele>1559.6999</ele>
        <time>2010-01-01T01:08:35Z</time>
      </trkpt>
      <trkpt lat="42.6413" lon="1.86321">
        <ele>1556.5</ele>
        <time>2010-01-01T01:08:39Z</time>
      </trkpt>
      <trkpt lat="42.64135" lon="1.86311">
        <ele>1553.5</ele>
        <time>2010-01-01T01:08:42Z</time>
      </trkpt>
      <trkpt lat="42.64143" lon="1.86304">
        <ele>1550.6999</ele>
        <time>2010-01-01T01:08:46Z</time>
      </trkpt>
      <trkpt lat="42.64152" lon="1.86299">
        <ele>1548.5</ele>
        <time>2010-01-01T01:08:50Z</time>
      </trkpt>
      <trkpt lat="42.64161" lon="1.86299">
        <ele>1546.8</ele>
        <time>2010-01-01T01:08:53Z</time>
      </trkpt>
      <trkpt lat="42.64166" lon="1.86285">
        <ele>1542.8</ele>
        <time>2010-01-01T01:08:58Z</time>
      </trkpt>
      <trkpt lat="42.64175" lon="1.8628">
        <ele>1540</ele>
        <time>2010-01-01T01:09:02Z</time>
      </trkpt>
      <trkpt lat="42.64184" lon="1.86278">
        <ele>1538.3</ele>
        <time>2010-01-01T01:09:06Z</time>
      </trkpt>
      <trkpt lat="42.64194" lon="1.86276">
        <ele>1536.4</ele>
        <time>2010-01-01T01:09:10Z</time>
      </trkpt>
      <trkpt lat="42.64204" lon="1.86275">
        <ele>1535.0999</ele>
        <time>2010-01-01T01:09:14Z</time>
      </trkpt>
      <trkpt lat="42.64213" lon="1.86271">
        <ele>1533.4</ele>
        <time>2010-01-01T01:09:17Z</time>
      </trkpt>
      <trkpt lat="42.64222" lon="1.86268">
        <ele>1531.5999</ele>
        <time>2010-01-01T01:09:21Z</time>
      </trkpt>
      <trkpt lat="42.64232" lon="1.86267">
        <ele>1530.3</ele>
        <time>2010-01-01T01:09:25Z</time>
      </trkpt>
      <trkpt lat="42.64241" lon="1.86268">
        <ele>1529.5</ele>
        <time>2010-01-01T01:09:29Z</time>
      </trkpt>
      <trkpt lat="42.64251" lon="1.86271">
        <ele>1529.1999</ele>
        <time>2010-01-01T01:09:33Z</time>
      </trkpt>
      <trkpt lat="42.64261" lon="1.86274">
        <ele>1529.5999</ele>
        <time>2010-01-01T01:09:37Z</time>
      </trkpt>
      <trkpt lat="42.6427" lon="1.86272">
        <ele>1529.5</ele>
        <time>2010-01-01T01:09:40Z</time>
      </trkpt>
      <trkpt lat="42.64277" lon="1.86264">
        <ele>1527.5999</ele>
        <time>2010-01-01T01:09:44Z</time>
      </trkpt>
      <trkpt lat="42.64287" lon="1.86263">
        <ele>1526.3</ele>
        <time>2010-01-01T01:09:48Z</time>
      </trkpt>
      <trkpt lat="42.64297" lon="1.8626">
        <ele>1525.4</ele>
        <time>2010-01-01T01:09:52Z</time>
      </trkpt>
      <trkpt lat="42.64307" lon="1.86259">
        <ele>1524.5</ele>
        <time>2010-01-01T01:09:56Z</time>
      </trkpt>
      <trkpt lat="42.64315" lon="1.86253">
        <ele>1522.6999</ele>
        <time>2010-01-01T01:10:00Z</time>
      </trkpt>
      <trkpt lat="42.64324" lon="1.86249">
        <ele>1520.6999</ele>
        <time>2010-01-01T01:10:04Z</time>
      </trkpt>
      <trkpt lat="42.64334" lon="1.86247">
        <ele>1519.6999</ele>
        <time>2010-01-01T01:10:08Z</time>
      </trkpt>
      <trkpt lat="42.64343" lon="1.86241">
        <ele>1519.3</ele>
        <time>2010-01-01T01:10:12Z</time>
      </trkpt>
      <trkpt lat="42.64353" lon="1.86241">
        <ele>1519.9</ele>
        <time>2010-01-01T01:10:16Z</time>
      </trkpt>
      <trkpt lat="42.64362" lon="1.86242">
        <ele>1521.4</ele>
        <time>2010-01-01T01:10:20Z</time>
      </trkpt>
      <trkpt lat="42.64372" lon="1.86241">
        <ele>1522.5999</ele>
        <time>2010-01-01T01:10:23Z</time>
      </trkpt>
      <trkpt lat="42.64381" lon="1.86237">
        <ele>1522.6999</ele>
        <time>2010-01-01T01:10:27Z</time>
      </trkpt>
      <trkpt lat="42.6439" lon="1.86239">
        <ele>1523.8</ele>
        <time>2010-01-01T01:10:31Z</time>
      </trkpt>
      <trkpt lat="42.64399" lon="1.86239">
        <ele>1525.0999</ele>
        <time>2010-01-01T01:10:35Z</time>
      </trkpt>
      <trkpt lat="42.64408" lon="1.86236">
        <ele>1525.8</ele>
        <time>2010-01-01T01:10:38Z</time>
      </trkpt>
      <trkpt lat="42.64417" lon="1.86236">
        <ele>1526.4</ele>
        <time>2010-01-01T01:10:42Z</time>
      </trkpt>
      <trkpt lat="42.64427" lon="1.86232">
        <ele>1526.5999</ele>
        <time>2010-01-01T01:10:46Z</time>
      </trkpt>
      <trkpt lat="42.64435" lon="1.86228">
        <ele>1526</ele>
        <time>2010-01-01T01:10:50Z</time>
      </trkpt>
      <trkpt lat="42.64444" lon="1.86233">
        <ele>1527.8</ele>
        <time>2010-01-01T01:10:53Z</time>
      </trkpt>
      <trkpt lat="42.64454" lon="1.86234">
        <ele>1530.0999</ele>
        <time>2010-01-01T01:10:57Z</time>
      </trkpt>
      <trkpt lat="42.64463" lon="1.86232">
        <ele>1530.9</ele>
        <time>2010-01-01T01:11:01Z</time>
      </trkpt>
      <trkpt lat="42.64471" lon="1.86226">
        <ele>1530.8</ele>
        <time>2010-01-01T01:11:05Z</time>
      </trkpt>
      <trkpt lat="42.64474" lon="1.86214">
        <ele>1527.3</ele>
        <time>2010-01-01T01:11:08Z</time>
      </trkpt>
      <trkpt lat="42.64482" lon="1.86206">
        <ele>1524.1999</ele>
        <time>2010-01-01T01:11:12Z</time>
      </trkpt>
      <trkpt lat="42.64491" lon="1.86203">
        <ele>1524</ele>
        <time>2010-01-01T01:11:16Z</time>
      </trkpt>
      <trkpt lat="42.64501" lon="1.862">
        <ele>1524.0999</ele>
        <time>2010-01-01T01:11:20Z</time>
      </trkpt>
      <trkpt lat="42.64507" lon="1.8619">
        <ele>1522.3</ele>
        <time>2010-01-01T01:11:24Z</time>
      </trkpt>
      <trkpt lat="42.64509" lon="1.86178">
        <ele>1518</ele>
        <time>2010-01-01T01:11:28Z</time>
      </trkpt>
      <trkpt lat="42.64513" lon="1.86166">
        <ele>1513.8</ele>
        <time>2010-01-01T01:11:31Z</time>
      </trkpt>
      <trkpt lat="42.64516" lon="1.86154">
        <ele>1509.5999</ele>
        <time>2010-01-01T01:11:35Z</time>
      </trkpt>
      <trkpt lat="42.64519" lon="1.86142">
        <ele>1505.1999</ele>
        <time>2010-01-01T01:11:39Z</time>
      </trkpt>
      <trkpt lat="42.64525" lon="1.86134">
        <ele>1501.6999</ele>
        <time>2010-01-01T01:11:42Z</time>
      </trkpt>
      <trkpt lat="42.64533" lon="1.86126">
        <ele>1498.5999</ele>
        <time>2010-01-01T01:11:46Z</time>
      </trkpt>
      <trkpt lat="42.64541" lon="1.86117">
        <ele>1496.4</ele>
        <time>2010-01-01T01:11:50Z</time>
      </trkpt>
      <trkpt lat="42.64546" lon="1.86106">
        <ele>1492.5999</ele>
        <time>2010-01-01T01:11:54Z</time>
      </trkpt>
      <trkpt lat="42.64552" lon="1.86097">
        <ele>1488.9</ele>
        <time>2010-01-01T01:11:58Z</time>
      </trkpt>
      <trkpt lat="42.6456" lon="1.86089">
        <ele>1486</ele>
        <time>2010-01-01T01:12:02Z</time>
      </trkpt>
      <trkpt lat="42.64566" lon="1.86079">
        <ele>1483</ele>
        <time>2010-01-01T01:12:05Z</time>
      </trkpt>
      <trkpt lat="42.64571" lon="1.86069">
        <ele>1479.8</ele>
        <time>2010-01-01T01:12:09Z</time>
      </trkpt>
      <trkpt lat="42.64576" lon="1.86057">
        <ele>1476.5999</ele>
        <time>2010-01-01T01:12:13Z</time>
      </trkpt>
      <trkpt lat="42.64582" lon="1.86048">
        <ele>1473.5999</ele>
        <time>2010-01-01T01:12:17Z</time>
      </trkpt>
      <trkpt lat="42.6459" lon="1.86041">
        <ele>1472.1999</ele>
        <time>2010-01-01T01:12:21Z</time>
      </trkpt>
      <trkpt lat="42.6459" lon="1.86029">
        <ele>1469.3</ele>
        <time>2010-01-01T01:12:24Z</time>
      </trkpt>
      <trkpt lat="42.64599" lon="1.86026">
        <ele>1469.0999</ele>
        <time>2010-01-01T01:12:28Z</time>
      </trkpt>
      <trkpt lat="42.64597" lon="1.86013">
        <ele>1465.5999</ele>
        <time>2010-01-01T01:12:32Z</time>
      </trkpt>
      <trkpt lat="42.64606" lon="1.86019">
        <ele>1467.3</ele>
        <time>2010-01-01T01:12:36Z</time>
      </trkpt>
      <trkpt lat="42.64615" lon="1.86021">
        <ele>1470.5</ele>
        <time>2010-01-01T01:12:39Z</time>
      </trkpt>
      <trkpt lat="42.64623" lon="1.86014">
        <ele>1471.8</ele>
        <time>2010-01-01T01:12:43Z</time>
      </trkpt>
      <trkpt lat="42.64624" lon="1.86002">
        <ele>1468.3</ele>
        <time>2010-01-01T01:12:47Z</time>
      </trkpt>
      <trkpt lat="42.64625" lon="1.85988">
        <ele>1463.4</ele>
        <time>2010-01-01T01:12:51Z</time>
      </trkpt>
      <trkpt lat="42.6463" lon="1.85978">
        <ele>1459.5999</ele>
        <time>2010-01-01T01:12:54Z</time>
      </trkpt>
      <trkpt lat="42.64636" lon="1.85968">
        <ele>1456.9</ele>
        <time>2010-01-01T01:12:58Z</time>
      </trkpt>
      <trkpt lat="42.64639" lon="1.85955">
        <ele>1453.0999</ele>
        <time>2010-01-01T01:13:02Z</time>
      </trkpt>
      <trkpt lat="42.64648" lon="1.85951">
        <ele>1451.3</ele>
        <time>2010-01-01T01:13:06Z</time>
      </trkpt>
      <trkpt lat="42.64655" lon="1.85941">
        <ele>1449.5</ele>
        <time>2010-01-01T01:13:10Z</time>
      </trkpt>
      <trkpt lat="42.64661" lon="1.85931">
        <ele>1446.8</ele>
        <time>2010-01-01T01:13:14Z</time>
      </trkpt>
      <trkpt lat="42.64668" lon="1.85922">
        <ele>1444.3</ele>
        <time>2010-01-01T01:13:18Z</time>
      </trkpt>
      <trkpt lat="42.64676" lon="1.85915">
        <ele>1443.0999</ele>
        <time>2010-01-01T01:13:21Z</time>
      </trkpt>
      <trkpt lat="42.64685" lon="1.85911">
        <ele>1444.4</ele>
        <time>2010-01-01T01:13:25Z</time>
      </trkpt>
      <trkpt lat="42.64693" lon="1.85904">
        <ele>1444.6999</ele>
        <time>2010-01-01T01:13:29Z</time>
      </trkpt>
      <trkpt lat="42.64701" lon="1.85896">
        <ele>1444.5</ele>
        <time>2010-01-01T01:13:33Z</time>
      </trkpt>
      <trkpt lat="42.64708" lon="1.85887">
        <ele>1443.0999</ele>
        <time>2010-01-01T01:13:37Z</time>
      </trkpt>
      <trkpt lat="42.64714" lon="1.85878">
        <ele>1441.6999</ele>
        <time>2010-01-01T01:13:40Z</time>
      </trkpt>
      <trkpt lat="42.64718" lon="1.85866">
        <ele>1438.6999</ele>
        <time>2010-01-01T01:13:45Z</time>
      </trkpt>
      <trkpt lat="42.6472" lon="1.85852">
        <ele>1433.1999</ele>
        <time>2010-01-01T01:13:49Z</time>
      </trkpt>
      <trkpt lat="42.64727" lon="1.85842">
        <ele>1430.5999</ele>
        <time>2010-01-01T01:13:53Z</time>
      </trkpt>
      <trkpt lat="42.64732" lon="1.8583">
        <ele>1427.1999</ele>
        <time>2010-01-01T01:13:57Z</time>
      </trkpt>
      <trkpt lat="42.64737" lon="1.85819">
        <ele>1423.9</ele>
        <time>2010-01-01T01:14:00Z</time>
      </trkpt>
      <trkpt lat="42.64743" lon="1.8581">
        <ele>1421.6999</ele>
        <time>2010-01-01T01:14:04Z</time>
      </trkpt>
      <trkpt lat="42.6475" lon="1.85801">
        <ele>1419.5</ele>
        <time>2010-01-01T01:14:08Z</time>
      </trkpt>
      <trkpt lat="42.64757" lon="1.85792">
        <ele>1418.3</ele>
        <time>2010-01-01T01:14:12Z</time>
      </trkpt>
      <trkpt lat="42.64762" lon="1.8578">
        <ele>1415.8</ele>
        <time>2010-01-01T01:14:16Z</time>
      </trkpt>
      <trkpt lat="42.64771" lon="1.85776">
        <ele>1416</ele>
        <time>2010-01-01T01:14:19Z</time>
      </trkpt>
      <trkpt lat="42.64778" lon="1.85767">
        <ele>1416.4</ele>
        <time>2010-01-01T01:14:23Z</time>
      </trkpt>
      <trkpt lat="42.64786" lon="1.85759">
        <ele>1414.9</ele>
        <time>2010-01-01T01:14:27Z</time>
      </trkpt>
      <trkpt lat="42.64794" lon="1.85754">
        <ele>1415</ele>
        <time>2010-01-01T01:14:31Z</time>
      </trkpt>
      <trkpt lat="42.64802" lon="1.85745">
        <ele>1415.5999</ele>
        <time>2010-01-01T01:14:35Z</time>
      </trkpt>
      <trkpt lat="42.6481" lon="1.8574">
        <ele>1416.3</ele>
        <time>2010-01-01T01:14:39Z</time>
      </trkpt>
      <trkpt lat="42.64818" lon="1.85733">
        <ele>1417.1999</ele>
        <time>2010-01-01T01:14:42Z</time>
      </trkpt>
      <trkpt lat="42.64827" lon="1.85727">
        <ele>1418.1999</ele>
        <time>2010-01-01T01:14:46Z</time>
      </trkpt>
      <trkpt lat="42.64834" lon="1.8572">
        <ele>1419</ele>
        <time>2010-01-01T01:14:50Z</time>
      </trkpt>
      <trkpt lat="42.64841" lon="1.85711">
        <ele>1420.0999</ele>
        <time>2010-01-01T01:14:54Z</time>
      </trkpt>
      <trkpt lat="42.64849" lon="1.85702">
        <ele>1421.3</ele>
        <time>2010-01-01T01:14:58Z</time>
      </trkpt>
      <trkpt lat="42.64856" lon="1.85695">
        <ele>1422.6999</ele>
        <time>2010-01-01T01:15:01Z</time>
      </trkpt>
      <trkpt lat="42.64861" lon="1.85683">
        <ele>1422</ele>
        <time>2010-01-01T01:15:05Z</time>
      </trkpt>
      <trkpt lat="42.64867" lon="1.85674">
        <ele>1420.9</ele>
        <time>2010-01-01T01:15:09Z</time>
      </trkpt>
      <trkpt lat="42.64874" lon="1.85664">
        <ele>1421.5999</ele>
        <time>2010-01-01T01:15:13Z</time>
      </trkpt>
      <trkpt lat="42.64879" lon="1.85653">
        <ele>1420.9</ele>
        <time>2010-01-01T01:15:17Z</time>
      </trkpt>
      <trkpt lat="42.64885" lon="1.85643">
        <ele>1419.8</ele>
        <time>2010-01-01T01:15:21Z</time>
      </trkpt>
      <trkpt lat="42.64888" lon="1.8563">
        <ele>1417</ele>
        <time>2010-01-01T01:15:25Z</time>
      </trkpt>
      <trkpt lat="42.64894" lon="1.85621">
        <ele>1415.9</ele>
        <time>2010-01-01T01:15:29Z</time>
      </trkpt>
      <trkpt lat="42.64901" lon="1.85611">
        <ele>1415.1999</ele>
        <time>2010-01-01T01:15:32Z</time>
      </trkpt>
      <trkpt lat="42.64907" lon="1.85601">
        <ele>1414.0999</ele>
        <time>2010-01-01T01:15:36Z</time>
      </trkpt>
      <trkpt lat="42.64915" lon="1.85592">
        <ele>1413.5</ele>
        <time>2010-01-01T01:15:40Z</time>
      </trkpt>
      <trkpt lat="42.64922" lon="1.85582">
        <ele>1413</ele>
        <time>2010-01-01T01:15:44Z</time>
      </trkpt>
      <trkpt lat="42.64926" lon="1.85571">
        <ele>1411.3</ele>
        <time>2010-01-01T01:15:48Z</time>
      </trkpt>
      <trkpt lat="42.64931" lon="1.85559">
        <ele>1409.5</ele>
        <time>2010-01-01T01:15:52Z</time>
      </trkpt>
      <trkpt lat="42.64935" lon="1.85546">
        <ele>1407</ele>
        <time>2010-01-01T01:15:56Z</time>
      </trkpt>
      <trkpt lat="42.64934" lon="1.85533">
        <ele>1403</ele>
        <time>2010-01-01T01:16:00Z</time>
      </trkpt>
      <trkpt lat="42.64936" lon="1.8552">
        <ele>1399.1999</ele>
        <time>2010-01-01T01:16:04Z</time>
      </trkpt>
      <trkpt lat="42.6494" lon="1.85507">
        <ele>1395.8</ele>
        <time>2010-01-01T01:16:08Z</time>
      </trkpt>
      <trkpt lat="42.64947" lon="1.85499">
        <ele>1394.5</ele>
        <time>2010-01-01T01:16:12Z</time>
      </trkpt>
      <trkpt lat="42.64955" lon="1.85491">
        <ele>1394.9</ele>
        <time>2010-01-01T01:16:16Z</time>
      </trkpt>
      <trkpt lat="42.64963" lon="1.85482">
        <ele>1395</ele>
        <time>2010-01-01T01:16:20Z</time>
      </trkpt>
      <trkpt lat="42.64971" lon="1.85476">
        <ele>1395.4</ele>
        <time>2010-01-01T01:16:23Z</time>
      </trkpt>
      <trkpt lat="42.64979" lon="1.85468">
        <ele>1395.9</ele>
        <time>2010-01-01T01:16:28Z</time>
      </trkpt>
      <trkpt lat="42.64988" lon="1.85463">
        <ele>1396.6999</ele>
        <time>2010-01-01T01:16:32Z</time>
      </trkpt>
      <trkpt lat="42.64993" lon="1.85452">
        <ele>1395.6999</ele>
        <time>2010-01-01T01:16:35Z</time>
      </trkpt>
      <trkpt lat="42.64997" lon="1.85439">
        <ele>1392.9</ele>
        <time>2010-01-01T01:16:40Z</time>
      </trkpt>
      <trkpt lat="42.65002" lon="1.85428">
        <ele>1390.4</ele>
        <time>2010-01-01T01:16:43Z</time>
      </trkpt>
      <trkpt lat="42.65007" lon="1.85416">
        <ele>1388.0999</ele>
        <time>2010-01-01T01:16:47Z</time>
      </trkpt>
      <trkpt lat="42.65011" lon="1.85404">
        <ele>1384.9</ele>
        <time>2010-01-01T01:16:51Z</time>
      </trkpt>
      <trkpt lat="42.65011" lon="1.85391">
        <ele>1380.1999</ele>
        <time>2010-01-01T01:16:55Z</time>
      </trkpt>
      <trkpt lat="42.65016" lon="1.85379">
        <ele>1376.6999</ele>
        <time>2010-01-01T01:16:59Z</time>
      </trkpt>
      <trkpt lat="42.6502" lon="1.85366">
        <ele>1373.0999</ele>
        <time>2010-01-01T01:17:03Z</time>
      </trkpt>
      <trkpt lat="42.65023" lon="1.85354">
        <ele>1368.5999</ele>
        <time>2010-01-01T01:17:07Z</time>
      </trkpt>
      <trkpt lat="42.65029" lon="1.85343">
        <ele>1364.9</ele>
        <time>2010-01-01T01:17:11Z</time>
      </trkpt>
      <trkpt lat="42.65035" lon="1.85333">
        <ele>1361.9</ele>
        <time>2010-01-01T01:17:15Z</time>
      </trkpt>
      <trkpt lat="42.65041" lon="1.85323">
        <ele>1358.8</ele>
        <time>2010-01-01T01:17:19Z</time>
      </trkpt>
      <trkpt lat="42.65044" lon="1.85311">
        <ele>1354.6999</ele>
        <time>2010-01-01T01:17:22Z</time>
      </trkpt>
      <trkpt lat="42.65048" lon="1.85299">
        <ele>1351.9</ele>
        <time>2010-01-01T01:17:26Z</time>
      </trkpt>
      <trkpt lat="42.65055" lon="1.85288">
        <ele>1348.3</ele>
        <time>2010-01-01T01:17:30Z</time>
      </trkpt>
      <trkpt lat="42.65062" lon="1.8528">
        <ele>1346</ele>
        <time>2010-01-01T01:17:34Z</time>
      </trkpt>
      <trkpt lat="42.65069" lon="1.85273">
        <ele>1344</ele>
        <time>2010-01-01T01:17:38Z</time>
      </trkpt>
      <trkpt lat="42.65078" lon="1.85267">
        <ele>1342.3</ele>
        <time>2010-01-01T01:17:42Z</time>
      </trkpt>
      <trkpt lat="42.65087" lon="1.85268">
        <ele>1342.3</ele>
        <time>2010-01-01T01:17:45Z</time>
      </trkpt>
      <trkpt lat="42.65096" lon="1.85262">
        <ele>1342.3</ele>
        <time>2010-01-01T01:17:49Z</time>
      </trkpt>
      <trkpt lat="42.65102" lon="1.85252">
        <ele>1339.5999</ele>
        <time>2010-01-01T01:17:53Z</time>
      </trkpt>
      <trkpt lat="42.65107" lon="1.85241">
        <ele>1336.1999</ele>
        <time>2010-01-01T01:17:57Z</time>
      </trkpt>
      <trkpt lat="42.65114" lon="1.85231">
        <ele>1333.5999</ele>
        <time>2010-01-01T01:18:01Z</time>
      </trkpt>
      <trkpt lat="42.65122" lon="1.85227">
        <ele>1331.9</ele>
        <time>2010-01-01T01:18:04Z</time>
      </trkpt>
      <trkpt lat="42.65132" lon="1.85226">
        <ele>1332.0999</ele>
        <time>2010-01-01T01:18:08Z</time>
      </trkpt>
      <trkpt lat="42.65141" lon="1.85224">
        <ele>1332.4</ele>
        <time>2010-01-01T01:18:12Z</time>
      </trkpt>
      <trkpt lat="42.65151" lon="1.85224">
        <ele>1333</ele>
        <time>2010-01-01T01:18:16Z</time>
      </trkpt>
      <trkpt lat="42.65161" lon="1.85224">
        <ele>1333.8</ele>
        <time>2010-01-01T01:18:20Z</time>
      </trkpt>
      <trkpt lat="42.6517" lon="1.85221">
        <ele>1334.1999</ele>
        <time>2010-01-01T01:18:24Z</time>
      </trkpt>
      <trkpt lat="42.65179" lon="1.85216">
        <ele>1334.0999</ele>
        <time>2010-01-01T01:18:27Z</time>
      </trkpt>
      <trkpt lat="42.65185" lon="1.85206">
        <ele>1332.3</ele>
        <time>2010-01-01T01:18:31Z</time>
      </trkpt>
      <trkpt lat="42.65178" lon="1.85199">
        <ele>1328.6999</ele>
        <time>2010-01-01T01:18:35Z</time>
      </trkpt>
      <trkpt lat="42.65181" lon="1.85188">
        <ele>1324.9</ele>
        <time>2010-01-01T01:18:38Z</time>
      </trkpt>
      <trkpt lat="42.65173" lon="1.85179">
        <ele>1319.9</ele>
        <time>2010-01-01T01:18:43Z</time>
      </trkpt>
      <trkpt lat="42.65179" lon="1.85169">
        <ele>1316.9</ele>
        <time>2010-01-01T01:18:46Z</time>
      </trkpt>
      <trkpt lat="42.65182" lon="1.85157">
        <ele>1312.5999</ele>
        <time>2010-01-01T01:18:50Z</time>
      </trkpt>
      <trkpt lat="42.65184" lon="1.85145">
        <ele>1306.9</ele>
        <time>2010-01-01T01:18:54Z</time>
      </trkpt>
      <trkpt lat="42.65181" lon="1.85133">
        <ele>1301.5</ele>
        <time>2010-01-01T01:18:58Z</time>
      </trkpt>
      <trkpt lat="42.65178" lon="1.8512">
        <ele>1295</ele>
        <time>2010-01-01T01:19:01Z</time>
      </trkpt>
      <trkpt lat="42.65186" lon="1.85114">
        <ele>1292.5999</ele>
        <time>2010-01-01T01:19:05Z</time>
      </trkpt>
      <trkpt lat="42.65195" lon="1.85107">
        <ele>1289.6999</ele>
        <time>2010-01-01T01:19:09Z</time>
      </trkpt>
      <trkpt lat="42.65203" lon="1.851">
        <ele>1288.1999</ele>
        <time>2010-01-01T01:19:13Z</time>
      </trkpt>
      <trkpt lat="42.65204" lon="1.85088">
        <ele>1283.5</ele>
        <time>2010-01-01T01:19:17Z</time>
      </trkpt>
      <trkpt lat="42.65207" lon="1.85076">
        <ele>1279</ele>
        <time>2010-01-01T01:19:20Z</time>
      </trkpt>
      <trkpt lat="42.65212" lon="1.85066">
        <ele>1275.0999</ele>
        <time>2010-01-01T01:19:24Z</time>
      </trkpt>
      <trkpt lat="42.65217" lon="1.85055">
        <ele>1271.4</ele>
        <time>2010-01-01T01:19:28Z</time>
      </trkpt>
      <trkpt lat="42.65225" lon="1.85047">
        <ele>1269.3</ele>
        <time>2010-01-01T01:19:31Z</time>
      </trkpt>
      <trkpt lat="42.65232" lon="1.85041">
        <ele>1267.1999</ele>
        <time>2010-01-01T01:19:35Z</time>
      </trkpt>
      <trkpt lat="42.65239" lon="1.85031">
        <ele>1264</ele>
        <time>2010-01-01T01:19:39Z</time>
      </trkpt>
      <trkpt lat="42.65243" lon="1.8502">
        <ele>1260.3</ele>
        <time>2010-01-01T01:19:43Z</time>
      </trkpt>
      <trkpt lat="42.65251" lon="1.85011">
        <ele>1256.8</ele>
        <time>2010-01-01T01:19:47Z</time>
      </trkpt>
      <trkpt lat="42.65258" lon="1.85001">
        <ele>1253.1999</ele>
        <time>2010-01-01T01:19:51Z</time>
      </trkpt>
      <trkpt lat="42.65265" lon="1.84992">
        <ele>1250.1999</ele>
        <time>2010-01-01T01:19:55Z</time>
      </trkpt>
      <trkpt lat="42.65274" lon="1.84985">
        <ele>1248</ele>
        <time>2010-01-01T01:19:59Z</time>
      </trkpt>
      <trkpt lat="42.65284" lon="1.84981">
        <ele>1246.9</ele>
        <time>2010-01-01T01:20:03Z</time>
      </trkpt>
      <trkpt lat="42.65293" lon="1.84976">
        <ele>1246.4</ele>
        <time>2010-01-01T01:20:07Z</time>
      </trkpt>
      <trkpt lat="42.65298" lon="1.84965">
        <ele>1243.6999</ele>
        <time>2010-01-01T01:20:11Z</time>
      </trkpt>
      <trkpt lat="42.65304" lon="1.84954">
        <ele>1240.0999</ele>
        <time>2010-01-01T01:20:15Z</time>
      </trkpt>
      <trkpt lat="42.65312" lon="1.84948">
        <ele>1238.0999</ele>
        <time>2010-01-01T01:20:18Z</time>
      </trkpt>
      <trkpt lat="42.65318" lon="1.84937">
        <ele>1235.1999</ele>
        <time>2010-01-01T01:20:22Z</time>
      </trkpt>
      <trkpt lat="42.65325" lon="1.84928">
        <ele>1232.9</ele>
        <time>2010-01-01T01:20:26Z</time>
      </trkpt>
      <trkpt lat="42.65331" lon="1.84918">
        <ele>1230.3</ele>
        <time>2010-01-01T01:20:30Z</time>
      </trkpt>
      <trkpt lat="42.65338" lon="1.84908">
        <ele>1228.0999</ele>
        <time>2010-01-01T01:20:34Z</time>
      </trkpt>
      <trkpt lat="42.65345" lon="1.84898">
        <ele>1227</ele>
        <time>2010-01-01T01:20:38Z</time>
      </trkpt>
      <trkpt lat="42.65353" lon="1.8489">
        <ele>1226.4</ele>
        <time>2010-01-01T01:20:42Z</time>
      </trkpt>
      <trkpt lat="42.65362" lon="1.84885">
        <ele>1226.3</ele>
        <time>2010-01-01T01:20:46Z</time>
      </trkpt>
      <trkpt lat="42.65371" lon="1.84881">
        <ele>1226.8</ele>
        <time>2010-01-01T01:20:50Z</time>
      </trkpt>
      <trkpt lat="42.65379" lon="1.84873">
        <ele>1226.5999</ele>
        <time>2010-01-01T01:20:54Z</time>
      </trkpt>
      <trkpt lat="42.65383" lon="1.8486">
        <ele>1224.8</ele>
        <time>2010-01-01T01:20:58Z</time>
      </trkpt>
      <trkpt lat="42.65389" lon="1.84849">
        <ele>1223.0999</ele>
        <time>2010-01-01T01:21:02Z</time>
      </trkpt>
      <trkpt lat="42.65394" lon="1.84836">
        <ele>1221.1999</ele>
        <time>2010-01-01T01:21:06Z</time>
      </trkpt>
      <trkpt lat="42.65401" lon="1.84826">
        <ele>1219.9</ele>
        <time>2010-01-01T01:21:10Z</time>
      </trkpt>
      <trkpt lat="42.65405" lon="1.84814">
        <ele>1219</ele>
        <time>2010-01-01T01:21:14Z</time>
      </trkpt>
      <trkpt lat="42.65407" lon="1.84801">
        <ele>1217.6999</ele>
        <time>2010-01-01T01:21:18Z</time>
      </trkpt>
      <trkpt lat="42.65411" lon="1.84789">
        <ele>1216.0999</ele>
        <time>2010-01-01T01:21:22Z</time>
      </trkpt>
      <trkpt lat="42.65418" lon="1.84781">
        <ele>1215.6999</ele>
        <time>2010-01-01T01:21:26Z</time>
      </trkpt>
      <trkpt lat="42.65426" lon="1.84773">
        <ele>1215.3</ele>
        <time>2010-01-01T01:21:30Z</time>
      </trkpt>
      <trkpt lat="42.65433" lon="1.84765">
        <ele>1214.9</ele>
        <time>2010-01-01T01:21:33Z</time>
      </trkpt>
      <trkpt lat="42.65438" lon="1.84754">
        <ele>1213.9</ele>
        <time>2010-01-01T01:21:37Z</time>
      </trkpt>
      <trkpt lat="42.65442" lon="1.84741">
        <ele>1212.0999</ele>
        <time>2010-01-01T01:21:41Z</time>
      </trkpt>
      <trkpt lat="42.65439" lon="1.84729">
        <ele>1209.9</ele>
        <time>2010-01-01T01:21:45Z</time>
      </trkpt>
      <trkpt lat="42.65437" lon="1.84715">
        <ele>1207.5999</ele>
        <time>2010-01-01T01:21:49Z</time>
      </trkpt>
      <trkpt lat="42.65436" lon="1.84701">
        <ele>1205</ele>
        <time>2010-01-01T01:21:53Z</time>
      </trkpt>
      <trkpt lat="42.65437" lon="1.84688">
        <ele>1202.9</ele>
        <time>2010-01-01T01:21:57Z</time>
      </trkpt>
      <trkpt lat="42.6544" lon="1.84676">
        <ele>1201.0999</ele>
        <time>2010-01-01T01:22:01Z</time>
      </trkpt>
      <trkpt lat="42.65443" lon="1.84662">
        <ele>1199</ele>
        <time>2010-01-01T01:22:05Z</time>
      </trkpt>
      <trkpt lat="42.65444" lon="1.8465">
        <ele>1196.8</ele>
        <time>2010-01-01T01:22:09Z</time>
      </trkpt>
      <trkpt lat="42.6545" lon="1.8464">
        <ele>1195</ele>
        <time>2010-01-01T01:22:13Z</time>
      </trkpt>
      <trkpt lat="42.65457" lon="1.8463">
        <ele>1193.4</ele>
        <time>2010-01-01T01:22:16Z</time>
      </trkpt>
      <trkpt lat="42.65454" lon="1.84617">
        <ele>1191</ele>
        <time>2010-01-01T01:22:20Z</time>
      </trkpt>
      <trkpt lat="42.65452" lon="1.84604">
        <ele>1188.3</ele>
        <time>2010-01-01T01:22:24Z</time>
      </trkpt>
      <trkpt lat="42.65457" lon="1.84595">
        <ele>1186.4</ele>
        <time>2010-01-01T01:22:28Z</time>
      </trkpt>
      <trkpt lat="42.65467" lon="1.8459">
        <ele>1185.4</ele>
        <time>2010-01-01T01:22:32Z</time>
      </trkpt>
      <trkpt lat="42.65477" lon="1.84588">
        <ele>1185</ele>
        <time>2010-01-01T01:22:36Z</time>
      </trkpt>
      <trkpt lat="42.65487" lon="1.84587">
        <ele>1185.0999</ele>
        <time>2010-01-01T01:22:40Z</time>
      </trkpt>
      <trkpt lat="42.65497" lon="1.84586">
        <ele>1185.3</ele>
        <time>2010-01-01T01:22:44Z</time>
      </trkpt>
      <trkpt lat="42.65507" lon="1.84586">
        <ele>1185.6999</ele>
        <time>2010-01-01T01:22:48Z</time>
      </trkpt>
      <trkpt lat="42.65517" lon="1.84581">
        <ele>1185.9</ele>
        <time>2010-01-01T01:22:52Z</time>
      </trkpt>
      <trkpt lat="42.65526" lon="1.84575">
        <ele>1185.9</ele>
        <time>2010-01-01T01:22:56Z</time>
      </trkpt>
      <trkpt lat="42.65536" lon="1.84575">
        <ele>1186.1999</ele>
        <time>2010-01-01T01:23:00Z</time>
      </trkpt>
      <trkpt lat="42.65539" lon="1.84577">
        <ele>1187.0999</ele>
        <time>2010-01-01T01:23:02Z</time>
      </trkpt>
      <trkpt lat="42.65555" lon="1.846">
        <ele>1193.559</ele>
        <time>2010-01-01T01:23:11Z</time>
      </trkpt>
      <trkpt lat="42.65555" lon="1.846">
        <ele>1193.559</ele>
        <time>2010-01-01T01:23:11Z</time>
      </trkpt>
      <trkpt lat="42.65535" lon="1.84585">
        <ele>1189</ele>
        <time>2010-01-01T01:23:20Z</time>
      </trkpt>
      <trkpt lat="42.65526" lon="1.84585">
        <ele>1188.0999</ele>
        <time>2010-01-01T01:23:24Z</time>
      </trkpt>
      <trkpt lat="42.65517" lon="1.84588">
        <ele>1187.4</ele>
        <time>2010-01-01T01:23:28Z</time>
      </trkpt>
      <trkpt lat="42.65508" lon="1.8459">
        <ele>1187.0999</ele>
        <time>2010-01-01T01:23:31Z</time>
      </trkpt>
      <trkpt lat="42.65499" lon="1.84591">
        <ele>1186.4</ele>
        <time>2010-01-01T01:23:35Z</time>
      </trkpt>
      <trkpt lat="42.65488" lon="1.84592">
        <ele>1186.3</ele>
        <time>2010-01-01T01:23:39Z</time>
      </trkpt>
      <trkpt lat="42.65478" lon="1.84594">
        <ele>1186.4</ele>
        <time>2010-01-01T01:23:43Z</time>
      </trkpt>
      <trkpt lat="42.65468" lon="1.84596">
        <ele>1186.5</ele>
        <time>2010-01-01T01:23:47Z</time>
      </trkpt>
      <trkpt lat="42.65462" lon="1.84606">
        <ele>1187.1999</ele>
        <time>2010-01-01T01:23:51Z</time>
      </trkpt>
      <trkpt lat="42.65459" lon="1.84618">
        <ele>1189.5</ele>
        <time>2010-01-01T01:23:55Z</time>
      </trkpt>
      <trkpt lat="42.65464" lon="1.84629">
        <ele>1192.1999</ele>
        <time>2010-01-01T01:23:58Z</time>
      </trkpt>
      <trkpt lat="42.65463" lon="1.84642">
        <ele>1194.5</ele>
        <time>2010-01-01T01:24:02Z</time>
      </trkpt>
      <trkpt lat="42.65459" lon="1.84653">
        <ele>1196.8</ele>
        <time>2010-01-01T01:24:06Z</time>
      </trkpt>
      <trkpt lat="42.65453" lon="1.84663">
        <ele>1198.1999</ele>
        <time>2010-01-01T01:24:10Z</time>
      </trkpt>
      <trkpt lat="42.65449" lon="1.84674">
        <ele>1200</ele>
        <time>2010-01-01T01:24:13Z</time>
      </trkpt>
      <trkpt lat="42.65446" lon="1.84687">
        <ele>1201.9</ele>
        <time>2010-01-01T01:24:17Z</time>
      </trkpt>
      <trkpt lat="42.65443" lon="1.84699">
        <ele>1203.6999</ele>
        <time>2010-01-01T01:24:21Z</time>
      </trkpt>
      <trkpt lat="42.65445" lon="1.84711">
        <ele>1206</ele>
        <time>2010-01-01T01:24:25Z</time>
      </trkpt>
      <trkpt lat="42.65447" lon="1.84724">
        <ele>1208.3</ele>
        <time>2010-01-01T01:24:28Z</time>
      </trkpt>
      <trkpt lat="42.65447" lon="1.84737">
        <ele>1210.1999</ele>
        <time>2010-01-01T01:24:32Z</time>
      </trkpt>
      <trkpt lat="42.65448" lon="1.84749">
        <ele>1212.5</ele>
        <time>2010-01-01T01:24:36Z</time>
      </trkpt>
      <trkpt lat="42.65444" lon="1.84762">
        <ele>1214.0999</ele>
        <time>2010-01-01T01:24:40Z</time>
      </trkpt>
      <trkpt lat="42.65439" lon="1.84773">
        <ele>1215.6999</ele>
        <time>2010-01-01T01:24:44Z</time>
      </trkpt>
      <trkpt lat="42.65432" lon="1.84782">
        <ele>1216.9</ele>
        <time>2010-01-01T01:24:48Z</time>
      </trkpt>
      <trkpt lat="42.65426" lon="1.84792">
        <ele>1217.6999</ele>
        <time>2010-01-01T01:24:51Z</time>
      </trkpt>
      <trkpt lat="42.65418" lon="1.848">
        <ele>1218.0999</ele>
        <time>2010-01-01T01:24:55Z</time>
      </trkpt>
      <trkpt lat="42.65414" lon="1.84811">
        <ele>1219</ele>
        <time>2010-01-01T01:24:59Z</time>
      </trkpt>
      <trkpt lat="42.65413" lon="1.84824">
        <ele>1220.3</ele>
        <time>2010-01-01T01:25:03Z</time>
      </trkpt>
      <trkpt lat="42.65412" lon="1.84837">
        <ele>1222.1999</ele>
        <time>2010-01-01T01:25:07Z</time>
      </trkpt>
      <trkpt lat="42.65407" lon="1.84849">
        <ele>1224.5</ele>
        <time>2010-01-01T01:25:11Z</time>
      </trkpt>
      <trkpt lat="42.65403" lon="1.84861">
        <ele>1226.4</ele>
        <time>2010-01-01T01:25:15Z</time>
      </trkpt>
      <trkpt lat="42.65396" lon="1.84871">
        <ele>1228.0999</ele>
        <time>2010-01-01T01:25:19Z</time>
      </trkpt>
      <trkpt lat="42.65392" lon="1.84882">
        <ele>1229.5999</ele>
        <time>2010-01-01T01:25:22Z</time>
      </trkpt>
      <trkpt lat="42.65387" lon="1.84894">
        <ele>1231.5999</ele>
        <time>2010-01-01T01:25:26Z</time>
      </trkpt>
      <trkpt lat="42.65379" lon="1.849">
        <ele>1232.0999</ele>
        <time>2010-01-01T01:25:30Z</time>
      </trkpt>
      <trkpt lat="42.6537" lon="1.84904">
        <ele>1231.9</ele>
        <time>2010-01-01T01:25:34Z</time>
      </trkpt>
      <trkpt lat="42.65362" lon="1.8491">
        <ele>1231.6999</ele>
        <time>2010-01-01T01:25:38Z</time>
      </trkpt>
      <trkpt lat="42.65356" lon="1.8492">
        <ele>1233</ele>
        <time>2010-01-01T01:25:41Z</time>
      </trkpt>
      <trkpt lat="42.6535" lon="1.84929">
        <ele>1235.4</ele>
        <time>2010-01-01T01:25:45Z</time>
      </trkpt>
      <trkpt lat="42.65342" lon="1.84936">
        <ele>1237.0999</ele>
        <time>2010-01-01T01:25:49Z</time>
      </trkpt>
      <trkpt lat="42.65338" lon="1.84947">
        <ele>1239.8</ele>
        <time>2010-01-01T01:25:52Z</time>
      </trkpt>
      <trkpt lat="42.65332" lon="1.84957">
        <ele>1242.6999</ele>
        <time>2010-01-01T01:25:56Z</time>
      </trkpt>
      <trkpt lat="42.65329" lon="1.84969">
        <ele>1246.5</ele>
        <time>2010-01-01T01:26:00Z</time>
      </trkpt>
      <trkpt lat="42.65321" lon="1.84975">
        <ele>1248</ele>
        <time>2010-01-01T01:26:03Z</time>
      </trkpt>
      <trkpt lat="42.65313" lon="1.84983">
        <ele>1250</ele>
        <time>2010-01-01T01:26:07Z</time>
      </trkpt>
      <trkpt lat="42.65309" lon="1.84994">
        <ele>1253.6999</ele>
        <time>2010-01-01T01:26:11Z</time>
      </trkpt>
      <trkpt lat="42.653" lon="1.84999">
        <ele>1255.5</ele>
        <time>2010-01-01T01:26:15Z</time>
      </trkpt>
      <trkpt lat="42.65292" lon="1.85003">
        <ele>1255.8</ele>
        <time>2010-01-01T01:26:19Z</time>
      </trkpt>
      <trkpt lat="42.65283" lon="1.85007">
        <ele>1256.8</ele>
        <time>2010-01-01T01:26:22Z</time>
      </trkpt>
      <trkpt lat="42.65275" lon="1.85014">
        <ele>1259</ele>
        <time>2010-01-01T01:26:26Z</time>
      </trkpt>
      <trkpt lat="42.65267" lon="1.8502">
        <ele>1260.6999</ele>
        <time>2010-01-01T01:26:30Z</time>
      </trkpt>
      <trkpt lat="42.65259" lon="1.85027">
        <ele>1262.6999</ele>
        <time>2010-01-01T01:26:33Z</time>
      </trkpt>
      <trkpt lat="42.65256" lon="1.85039">
        <ele>1267.1999</ele>
        <time>2010-01-01T01:26:37Z</time>
      </trkpt>
      <trkpt lat="42.65252" lon="1.8505">
        <ele>1271.8</ele>
        <time>2010-01-01T01:26:41Z</time>
      </trkpt>
      <trkpt lat="42.65244" lon="1.85057">
        <ele>1274.4</ele>
        <time>2010-01-01T01:26:44Z</time>
      </trkpt>
      <trkpt lat="42.65238" lon="1.85066">
        <ele>1277.3</ele>
        <time>2010-01-01T01:26:48Z</time>
      </trkpt>
      <trkpt lat="42.65231" lon="1.85075">
        <ele>1279.9</ele>
        <time>2010-01-01T01:26:52Z</time>
      </trkpt>
      <trkpt lat="42.65224" lon="1.85082">
        <ele>1281.8</ele>
        <time>2010-01-01T01:26:56Z</time>
      </trkpt>
      <trkpt lat="42.6522" lon="1.85093">
        <ele>1286.1999</ele>
        <time>2010-01-01T01:26:59Z</time>
      </trkpt>
      <trkpt lat="42.65226" lon="1.85103">
        <ele>1292</ele>
        <time>2010-01-01T01:27:03Z</time>
      </trkpt>
      <trkpt lat="42.65217" lon="1.85111">
        <ele>1294.8</ele>
        <time>2010-01-01T01:27:08Z</time>
      </trkpt>
      <trkpt lat="42.65209" lon="1.85118">
        <ele>1297.5</ele>
        <time>2010-01-01T01:27:11Z</time>
      </trkpt>
      <trkpt lat="42.65205" lon="1.85129">
        <ele>1301.5999</ele>
        <time>2010-01-01T01:27:15Z</time>
      </trkpt>
      <trkpt lat="42.65196" lon="1.85132">
        <ele>1301.1999</ele>
        <time>2010-01-01T01:27:19Z</time>
      </trkpt>
      <trkpt lat="42.65194" lon="1.85144">
        <ele>1306.9</ele>
        <time>2010-01-01T01:27:23Z</time>
      </trkpt>
      <trkpt lat="42.652" lon="1.85154">
        <ele>1311.8</ele>
        <time>2010-01-01T01:27:26Z</time>
      </trkpt>
      <trkpt lat="42.65198" lon="1.85166">
        <ele>1317.6999</ele>
        <time>2010-01-01T01:27:30Z</time>
      </trkpt>
      <trkpt lat="42.65199" lon="1.8518">
        <ele>1322.8</ele>
        <time>2010-01-01T01:27:34Z</time>
      </trkpt>
      <trkpt lat="42.65191" lon="1.85186">
        <ele>1324.5999</ele>
        <time>2010-01-01T01:27:38Z</time>
      </trkpt>
      <trkpt lat="42.65194" lon="1.85198">
        <ele>1329.8</ele>
        <time>2010-01-01T01:27:41Z</time>
      </trkpt>
      <trkpt lat="42.65186" lon="1.85206">
        <ele>1331.3</ele>
        <time>2010-01-01T01:27:45Z</time>
      </trkpt>
      <trkpt lat="42.65194" lon="1.85214">
        <ele>1335.5999</ele>
        <time>2010-01-01T01:27:49Z</time>
      </trkpt>
      <trkpt lat="42.65188" lon="1.85225">
        <ele>1338.6999</ele>
        <time>2010-01-01T01:27:53Z</time>
      </trkpt>
      <trkpt lat="42.65179" lon="1.85231">
        <ele>1339.6999</ele>
        <time>2010-01-01T01:27:57Z</time>
      </trkpt>
      <trkpt lat="42.65171" lon="1.85236">
        <ele>1340.3</ele>
        <time>2010-01-01T01:28:00Z</time>
      </trkpt>
      <trkpt lat="42.65161" lon="1.85234">
        <ele>1339.1999</ele>
        <time>2010-01-01T01:28:04Z</time>
      </trkpt>
      <trkpt lat="42.65151" lon="1.85237">
        <ele>1338.4</ele>
        <time>2010-01-01T01:28:08Z</time>
      </trkpt>
      <trkpt lat="42.65142" lon="1.85239">
        <ele>1338.0999</ele>
        <time>2010-01-01T01:28:12Z</time>
      </trkpt>
      <trkpt lat="42.65133" lon="1.8524">
        <ele>1337.3</ele>
        <time>2010-01-01T01:28:15Z</time>
      </trkpt>
      <trkpt lat="42.65125" lon="1.85245">
        <ele>1338</ele>
        <time>2010-01-01T01:28:19Z</time>
      </trkpt>
      <trkpt lat="42.65117" lon="1.85253">
        <ele>1340</ele>
        <time>2010-01-01T01:28:23Z</time>
      </trkpt>
      <trkpt lat="42.65112" lon="1.85264">
        <ele>1343.9</ele>
        <time>2010-01-01T01:28:27Z</time>
      </trkpt>
      <trkpt lat="42.65107" lon="1.85274">
        <ele>1347.4</ele>
        <time>2010-01-01T01:28:30Z</time>
      </trkpt>
      <trkpt lat="42.651" lon="1.85282">
        <ele>1349.6999</ele>
        <time>2010-01-01T01:28:34Z</time>
      </trkpt>
      <trkpt lat="42.65091" lon="1.8528">
        <ele>1348.3</ele>
        <time>2010-01-01T01:28:38Z</time>
      </trkpt>
      <trkpt lat="42.65081" lon="1.85285">
        <ele>1348.0999</ele>
        <time>2010-01-01T01:28:42Z</time>
      </trkpt>
      <trkpt lat="42.65073" lon="1.85292">
        <ele>1349.9</ele>
        <time>2010-01-01T01:28:46Z</time>
      </trkpt>
      <trkpt lat="42.65067" lon="1.85301">
        <ele>1352.1999</ele>
        <time>2010-01-01T01:28:50Z</time>
      </trkpt>
      <trkpt lat="42.65061" lon="1.8531">
        <ele>1354.6999</ele>
        <time>2010-01-01T01:28:53Z</time>
      </trkpt>
      <trkpt lat="42.65058" lon="1.85322">
        <ele>1358.5</ele>
        <time>2010-01-01T01:28:57Z</time>
      </trkpt>
      <trkpt lat="42.65055" lon="1.85335">
        <ele>1362.6999</ele>
        <time>2010-01-01T01:29:01Z</time>
      </trkpt>
      <trkpt lat="42.65049" lon="1.85346">
        <ele>1366.9</ele>
        <time>2010-01-01T01:29:05Z</time>
      </trkpt>
      <trkpt lat="42.65044" lon="1.85355">
        <ele>1370.0999</ele>
        <time>2010-01-01T01:29:08Z</time>
      </trkpt>
      <trkpt lat="42.65038" lon="1.85365">
        <ele>1373.6999</ele>
        <time>2010-01-01T01:29:12Z</time>
      </trkpt>
      <trkpt lat="42.65033" lon="1.85377">
        <ele>1377</ele>
        <time>2010-01-01T01:29:16Z</time>
      </trkpt>
      <trkpt lat="42.6503" lon="1.85388">
        <ele>1381.1999</ele>
        <time>2010-01-01T01:29:20Z</time>
      </trkpt>
      <trkpt lat="42.65028" lon="1.85401">
        <ele>1385.8</ele>
        <time>2010-01-01T01:29:23Z</time>
      </trkpt>
      <trkpt lat="42.65023" lon="1.85412">
        <ele>1388.8</ele>
        <time>2010-01-01T01:29:27Z</time>
      </trkpt>
      <trkpt lat="42.65018" lon="1.85422">
        <ele>1391.9</ele>
        <time>2010-01-01T01:29:31Z</time>
      </trkpt>
      <trkpt lat="42.65013" lon="1.85434">
        <ele>1394.4</ele>
        <time>2010-01-01T01:29:35Z</time>
      </trkpt>
      <trkpt lat="42.65009" lon="1.85445">
        <ele>1397</ele>
        <time>2010-01-01T01:29:39Z</time>
      </trkpt>
      <trkpt lat="42.65006" lon="1.85457">
        <ele>1400.1999</ele>
        <time>2010-01-01T01:29:42Z</time>
      </trkpt>
      <trkpt lat="42.65003" lon="1.85469">
        <ele>1403.5</ele>
        <time>2010-01-01T01:29:46Z</time>
      </trkpt>
      <trkpt lat="42.64995" lon="1.85476">
        <ele>1404</ele>
        <time>2010-01-01T01:29:50Z</time>
      </trkpt>
      <trkpt lat="42.64986" lon="1.85483">
        <ele>1403.5</ele>
        <time>2010-01-01T01:29:54Z</time>
      </trkpt>
      <trkpt lat="42.64978" lon="1.85489">
        <ele>1402.4</ele>
        <time>2010-01-01T01:29:58Z</time>
      </trkpt>
      <trkpt lat="42.6497" lon="1.85497">
        <ele>1402.0999</ele>
        <time>2010-01-01T01:30:02Z</time>
      </trkpt>
      <trkpt lat="42.64962" lon="1.85504">
        <ele>1401.9</ele>
        <time>2010-01-01T01:30:05Z</time>
      </trkpt>
      <trkpt lat="42.64956" lon="1.85513">
        <ele>1402.1999</ele>
        <time>2010-01-01T01:30:09Z</time>
      </trkpt>
      <trkpt lat="42.6495" lon="1.85524">
        <ele>1403.5999</ele>
        <time>2010-01-01T01:30:13Z</time>
      </trkpt>
      <trkpt lat="42.64949" lon="1.85537">
        <ele>1406.9</ele>
        <time>2010-01-01T01:30:17Z</time>
      </trkpt>
      <trkpt lat="42.64947" lon="1.8555">
        <ele>1410.6999</ele>
        <time>2010-01-01T01:30:21Z</time>
      </trkpt>
      <trkpt lat="42.64948" lon="1.85563">
        <ele>1415</ele>
        <time>2010-01-01T01:30:25Z</time>
      </trkpt>
      <trkpt lat="42.64945" lon="1.85576">
        <ele>1419</ele>
        <time>2010-01-01T01:30:28Z</time>
      </trkpt>
      <trkpt lat="42.64938" lon="1.85585">
        <ele>1419.5999</ele>
        <time>2010-01-01T01:30:32Z</time>
      </trkpt>
      <trkpt lat="42.64932" lon="1.85594">
        <ele>1420.4</ele>
        <time>2010-01-01T01:30:36Z</time>
      </trkpt>
      <trkpt lat="42.64925" lon="1.85603">
        <ele>1421.5999</ele>
        <time>2010-01-01T01:30:40Z</time>
      </trkpt>
      <trkpt lat="42.64918" lon="1.85611">
        <ele>1421.8</ele>
        <time>2010-01-01T01:30:43Z</time>
      </trkpt>
      <trkpt lat="42.64912" lon="1.85621">
        <ele>1422.0999</ele>
        <time>2010-01-01T01:30:47Z</time>
      </trkpt>
      <trkpt lat="42.64906" lon="1.85631">
        <ele>1423.3</ele>
        <time>2010-01-01T01:30:51Z</time>
      </trkpt>
      <trkpt lat="42.649" lon="1.8564">
        <ele>1424.4</ele>
        <time>2010-01-01T01:30:55Z</time>
      </trkpt>
      <trkpt lat="42.64895" lon="1.85651">
        <ele>1425.4</ele>
        <time>2010-01-01T01:30:58Z</time>
      </trkpt>
      <trkpt lat="42.6489" lon="1.85662">
        <ele>1427.5999</ele>
        <time>2010-01-01T01:31:02Z</time>
      </trkpt>
      <trkpt lat="42.64885" lon="1.85672">
        <ele>1428.6999</ele>
        <time>2010-01-01T01:31:06Z</time>
      </trkpt>
      <trkpt lat="42.64879" lon="1.85683">
        <ele>1429.8</ele>
        <time>2010-01-01T01:31:10Z</time>
      </trkpt>
      <trkpt lat="42.64872" lon="1.85692">
        <ele>1429.9</ele>
        <time>2010-01-01T01:31:14Z</time>
      </trkpt>
      <trkpt lat="42.64868" lon="1.85704">
        <ele>1431.3</ele>
        <time>2010-01-01T01:31:18Z</time>
      </trkpt>
      <trkpt lat="42.64862" lon="1.85714">
        <ele>1431.8</ele>
        <time>2010-01-01T01:31:21Z</time>
      </trkpt>
      <trkpt lat="42.64855" lon="1.85723">
        <ele>1431.5999</ele>
        <time>2010-01-01T01:31:25Z</time>
      </trkpt>
      <trkpt lat="42.64847" lon="1.85731">
        <ele>1429.9</ele>
        <time>2010-01-01T01:31:29Z</time>
      </trkpt>
      <trkpt lat="42.6484" lon="1.85738">
        <ele>1427.8</ele>
        <time>2010-01-01T01:31:33Z</time>
      </trkpt>
      <trkpt lat="42.64831" lon="1.8574">
        <ele>1423.6999</ele>
        <time>2010-01-01T01:31:36Z</time>
      </trkpt>
      <trkpt lat="42.64823" lon="1.85746">
        <ele>1422.9</ele>
        <time>2010-01-01T01:31:40Z</time>
      </trkpt>
      <trkpt lat="42.64815" lon="1.85754">
        <ele>1422.5</ele>
        <time>2010-01-01T01:31:44Z</time>
      </trkpt>
      <trkpt lat="42.64808" lon="1.85764">
        <ele>1423.8</ele>
        <time>2010-01-01T01:31:48Z</time>
      </trkpt>
      <trkpt lat="42.64801" lon="1.85771">
        <ele>1424.1999</ele>
        <time>2010-01-01T01:31:52Z</time>
      </trkpt>
      <trkpt lat="42.64794" lon="1.85779">
        <ele>1425</ele>
        <time>2010-01-01T01:31:55Z</time>
      </trkpt>
      <trkpt lat="42.64786" lon="1.85787">
        <ele>1425.9</ele>
        <time>2010-01-01T01:31:59Z</time>
      </trkpt>
      <trkpt lat="42.64778" lon="1.85792">
        <ele>1425.0999</ele>
        <time>2010-01-01T01:32:03Z</time>
      </trkpt>
      <trkpt lat="42.64773" lon="1.85803">
        <ele>1426.5999</ele>
        <time>2010-01-01T01:32:06Z</time>
      </trkpt>
      <trkpt lat="42.64767" lon="1.85812">
        <ele>1428.4</ele>
        <time>2010-01-01T01:32:10Z</time>
      </trkpt>
      <trkpt lat="42.6476" lon="1.8582">
        <ele>1429</ele>
        <time>2010-01-01T01:32:14Z</time>
      </trkpt>
      <trkpt lat="42.64753" lon="1.85829">
        <ele>1430</ele>
        <time>2010-01-01T01:32:18Z</time>
      </trkpt>
      <trkpt lat="42.64746" lon="1.85838">
        <ele>1431.4</ele>
        <time>2010-01-01T01:32:21Z</time>
      </trkpt>
      <trkpt lat="42.64743" lon="1.8585">
        <ele>1435.6999</ele>
        <time>2010-01-01T01:32:25Z</time>
      </trkpt>
      <trkpt lat="42.64738" lon="1.8586">
        <ele>1438.9</ele>
        <time>2010-01-01T01:32:29Z</time>
      </trkpt>
      <trkpt lat="42.64734" lon="1.85871">
        <ele>1442.5999</ele>
        <time>2010-01-01T01:32:32Z</time>
      </trkpt>
      <trkpt lat="42.64729" lon="1.85883">
        <ele>1446</ele>
        <time>2010-01-01T01:32:36Z</time>
      </trkpt>
      <trkpt lat="42.64723" lon="1.85893">
        <ele>1448.8</ele>
        <time>2010-01-01T01:32:40Z</time>
      </trkpt>
      <trkpt lat="42.64716" lon="1.85901">
        <ele>1450.5999</ele>
        <time>2010-01-01T01:32:44Z</time>
      </trkpt>
      <trkpt lat="42.64709" lon="1.8591">
        <ele>1451.6999</ele>
        <time>2010-01-01T01:32:47Z</time>
      </trkpt>
      <trkpt lat="42.64703" lon="1.85918">
        <ele>1452.5</ele>
        <time>2010-01-01T01:32:51Z</time>
      </trkpt>
      <trkpt lat="42.64694" lon="1.85923">
        <ele>1452.9</ele>
        <time>2010-01-01T01:32:55Z</time>
      </trkpt>
      <trkpt lat="42.64686" lon="1.85928">
        <ele>1452.0999</ele>
        <time>2010-01-01T01:32:59Z</time>
      </trkpt>
      <trkpt lat="42.64679" lon="1.85936">
        <ele>1452.8</ele>
        <time>2010-01-01T01:33:02Z</time>
      </trkpt>
      <trkpt lat="42.64671" lon="1.85944">
        <ele>1453.5</ele>
        <time>2010-01-01T01:33:06Z</time>
      </trkpt>
      <trkpt lat="42.64665" lon="1.85953">
        <ele>1455.0999</ele>
        <time>2010-01-01T01:33:10Z</time>
      </trkpt>
      <trkpt lat="42.64659" lon="1.85963">
        <ele>1457.8</ele>
        <time>2010-01-01T01:33:13Z</time>
      </trkpt>
      <trkpt lat="42.6465" lon="1.85968">
        <ele>1458.0999</ele>
        <time>2010-01-01T01:33:17Z</time>
      </trkpt>
      <trkpt lat="42.64646" lon="1.85979">
        <ele>1461.1999</ele>
        <time>2010-01-01T01:33:21Z</time>
      </trkpt>
      <trkpt lat="42.6464" lon="1.85989">
        <ele>1464.3</ele>
        <time>2010-01-01T01:33:25Z</time>
      </trkpt>
      <trkpt lat="42.64633" lon="1.85997">
        <ele>1466.0999</ele>
        <time>2010-01-01T01:33:28Z</time>
      </trkpt>
      <trkpt lat="42.64632" lon="1.8601">
        <ele>1470.0999</ele>
        <time>2010-01-01T01:33:32Z</time>
      </trkpt>
      <trkpt lat="42.64628" lon="1.86021">
        <ele>1473.6999</ele>
        <time>2010-01-01T01:33:36Z</time>
      </trkpt>
      <trkpt lat="42.64621" lon="1.86028">
        <ele>1475.5</ele>
        <time>2010-01-01T01:33:40Z</time>
      </trkpt>
      <trkpt lat="42.64611" lon="1.86027">
        <ele>1473.4</ele>
        <time>2010-01-01T01:33:43Z</time>
      </trkpt>
      <trkpt lat="42.64602" lon="1.86026">
        <ele>1469.9</ele>
        <time>2010-01-01T01:33:47Z</time>
      </trkpt>
      <trkpt lat="42.64599" lon="1.86037">
        <ele>1472.4</ele>
        <time>2010-01-01T01:33:50Z</time>
      </trkpt>
      <trkpt lat="42.64596" lon="1.8605">
        <ele>1476.3</ele>
        <time>2010-01-01T01:33:54Z</time>
      </trkpt>
      <trkpt lat="42.6459" lon="1.86059">
        <ele>1477.5999</ele>
        <time>2010-01-01T01:33:58Z</time>
      </trkpt>
      <trkpt lat="42.64586" lon="1.8607">
        <ele>1479.5999</ele>
        <time>2010-01-01T01:34:02Z</time>
      </trkpt>
      <trkpt lat="42.64579" lon="1.86079">
        <ele>1481.8</ele>
        <time>2010-01-01T01:34:05Z</time>
      </trkpt>
      <trkpt lat="42.64573" lon="1.86089">
        <ele>1484.5999</ele>
        <time>2010-01-01T01:34:09Z</time>
      </trkpt>
      <trkpt lat="42.64567" lon="1.86099">
        <ele>1488.3</ele>
        <time>2010-01-01T01:34:13Z</time>
      </trkpt>
      <trkpt lat="42.64561" lon="1.86109">
        <ele>1491.8</ele>
        <time>2010-01-01T01:34:17Z</time>
      </trkpt>
      <trkpt lat="42.64554" lon="1.86117">
        <ele>1495.0999</ele>
        <time>2010-01-01T01:34:21Z</time>
      </trkpt>
      <trkpt lat="42.64549" lon="1.86128">
        <ele>1498.8</ele>
        <time>2010-01-01T01:34:24Z</time>
      </trkpt>
      <trkpt lat="42.64542" lon="1.86137">
        <ele>1502.0999</ele>
        <time>2010-01-01T01:34:28Z</time>
      </trkpt>
      <trkpt lat="42.64534" lon="1.86144">
        <ele>1504.4</ele>
        <time>2010-01-01T01:34:32Z</time>
      </trkpt>
      <trkpt lat="42.64527" lon="1.86152">
        <ele>1507.1999</ele>
        <time>2010-01-01T01:34:36Z</time>
      </trkpt>
      <trkpt lat="42.64522" lon="1.86163">
        <ele>1510.8</ele>
        <time>2010-01-01T01:34:39Z</time>
      </trkpt>
      <trkpt lat="42.64521" lon="1.86175">
        <ele>1515.4</ele>
        <time>2010-01-01T01:34:43Z</time>
      </trkpt>
      <trkpt lat="42.64518" lon="1.86187">
        <ele>1519.6999</ele>
        <time>2010-01-01T01:34:47Z</time>
      </trkpt>
      <trkpt lat="42.64514" lon="1.86199">
        <ele>1523.6999</ele>
        <time>2010-01-01T01:34:51Z</time>
      </trkpt>
      <trkpt lat="42.64508" lon="1.86209">
        <ele>1526.9</ele>
        <time>2010-01-01T01:34:54Z</time>
      </trkpt>
      <trkpt lat="42.64499" lon="1.86213">
        <ele>1528.6999</ele>
        <time>2010-01-01T01:34:58Z</time>
      </trkpt>
      <trkpt lat="42.64491" lon="1.86219">
        <ele>1529.8</ele>
        <time>2010-01-01T01:35:02Z</time>
      </trkpt>
      <trkpt lat="42.64482" lon="1.86225">
        <ele>1530.5</ele>
        <time>2010-01-01T01:35:06Z</time>
      </trkpt>
      <trkpt lat="42.64478" lon="1.86237">
        <ele>1533.8</ele>
        <time>2010-01-01T01:35:10Z</time>
      </trkpt>
      <trkpt lat="42.6447" lon="1.86242">
        <ele>1535.9</ele>
        <time>2010-01-01T01:35:13Z</time>
      </trkpt>
      <trkpt lat="42.6446" lon="1.86243">
        <ele>1535.1999</ele>
        <time>2010-01-01T01:35:17Z</time>
      </trkpt>
      <trkpt lat="42.64451" lon="1.86243">
        <ele>1534.1999</ele>
        <time>2010-01-01T01:35:21Z</time>
      </trkpt>
      <trkpt lat="42.64443" lon="1.86238">
        <ele>1531.5</ele>
        <time>2010-01-01T01:35:24Z</time>
      </trkpt>
      <trkpt lat="42.64433" lon="1.86241">
        <ele>1530.6999</ele>
        <time>2010-01-01T01:35:28Z</time>
      </trkpt>
      <trkpt lat="42.64424" lon="1.86246">
        <ele>1531</ele>
        <time>2010-01-01T01:35:32Z</time>
      </trkpt>
      <trkpt lat="42.64415" lon="1.86247">
        <ele>1530.8</ele>
        <time>2010-01-01T01:35:36Z</time>
      </trkpt>
      <trkpt lat="42.64406" lon="1.8625">
        <ele>1530.4</ele>
        <time>2010-01-01T01:35:39Z</time>
      </trkpt>
      <trkpt lat="42.64397" lon="1.8625">
        <ele>1529.3</ele>
        <time>2010-01-01T01:35:43Z</time>
      </trkpt>
      <trkpt lat="42.64388" lon="1.8625">
        <ele>1528</ele>
        <time>2010-01-01T01:35:47Z</time>
      </trkpt>
      <trkpt lat="42.64378" lon="1.86253">
        <ele>1527.4</ele>
        <time>2010-01-01T01:35:51Z</time>
      </trkpt>
      <trkpt lat="42.64369" lon="1.86254">
        <ele>1527</ele>
        <time>2010-01-01T01:35:54Z</time>
      </trkpt>
      <trkpt lat="42.6436" lon="1.86254">
        <ele>1525.6999</ele>
        <time>2010-01-01T01:35:58Z</time>
      </trkpt>
      <trkpt lat="42.6435" lon="1.86257">
        <ele>1524.8</ele>
        <time>2010-01-01T01:36:02Z</time>
      </trkpt>
      <trkpt lat="42.64342" lon="1.86262">
        <ele>1525.1999</ele>
        <time>2010-01-01T01:36:06Z</time>
      </trkpt>
      <trkpt lat="42.64333" lon="1.86264">
        <ele>1525.5</ele>
        <time>2010-01-01T01:36:09Z</time>
      </trkpt>
      <trkpt lat="42.64324" lon="1.86268">
        <ele>1526.4</ele>
        <time>2010-01-01T01:36:13Z</time>
      </trkpt>
      <trkpt lat="42.64315" lon="1.86271">
        <ele>1528</ele>
        <time>2010-01-01T01:36:17Z</time>
      </trkpt>
      <trkpt lat="42.64306" lon="1.86271">
        <ele>1528.1999</ele>
        <time>2010-01-01T01:36:21Z</time>
      </trkpt>
      <trkpt lat="42.64297" lon="1.86274">
        <ele>1529.1999</ele>
        <time>2010-01-01T01:36:24Z</time>
      </trkpt>
      <trkpt lat="42.64287" lon="1.86274">
        <ele>1529.5999</ele>
        <time>2010-01-01T01:36:28Z</time>
      </trkpt>
      <trkpt lat="42.64278" lon="1.86278">
        <ele>1530.6999</ele>
        <time>2010-01-01T01:36:32Z</time>
      </trkpt>
      <trkpt lat="42.6427" lon="1.86283">
        <ele>1532</ele>
        <time>2010-01-01T01:36:36Z</time>
      </trkpt>
      <trkpt lat="42.6426" lon="1.86283">
        <ele>1532.4</ele>
        <time>2010-01-01T01:36:39Z</time>
      </trkpt>
      <trkpt lat="42.64252" lon="1.86278">
        <ele>1531.4</ele>
        <time>2010-01-01T01:36:43Z</time>
      </trkpt>
      <trkpt lat="42.64243" lon="1.86276">
        <ele>1531</ele>
        <time>2010-01-01T01:36:47Z</time>
      </trkpt>
      <trkpt lat="42.64233" lon="1.86276">
        <ele>1531.9</ele>
        <time>2010-01-01T01:36:50Z</time>
      </trkpt>
      <trkpt lat="42.64225" lon="1.8628">
        <ele>1533.5999</ele>
        <time>2010-01-01T01:36:54Z</time>
      </trkpt>
      <trkpt lat="42.64216" lon="1.86284">
        <ele>1535.3</ele>
        <time>2010-01-01T01:36:58Z</time>
      </trkpt>
      <trkpt lat="42.64207" lon="1.86288">
        <ele>1537.5</ele>
        <time>2010-01-01T01:37:02Z</time>
      </trkpt>
      <trkpt lat="42.64197" lon="1.86288">
        <ele>1538.8</ele>
        <time>2010-01-01T01:37:05Z</time>
      </trkpt>
      <trkpt lat="42.64188" lon="1.86291">
        <ele>1540.4</ele>
        <time>2010-01-01T01:37:09Z</time>
      </trkpt>
      <trkpt lat="42.64179" lon="1.86293">
        <ele>1541.9</ele>
        <time>2010-01-01T01:37:13Z</time>
      </trkpt>
      <trkpt lat="42.64171" lon="1.86299">
        <ele>1544.4</ele>
        <time>2010-01-01T01:37:17Z</time>
      </trkpt>
      <trkpt lat="42.64167" lon="1.8631">
        <ele>1548.1999</ele>
        <time>2010-01-01T01:37:20Z</time>
      </trkpt>
      <trkpt lat="42.64157" lon="1.86312">
        <ele>1549.9</ele>
        <time>2010-01-01T01:37:24Z</time>
      </trkpt>
      <trkpt lat="42.64149" lon="1.86319">
        <ele>1552.5999</ele>
        <time>2010-01-01T01:37:28Z</time>
      </trkpt>
      <trkpt lat="42.64144" lon="1.8633">
        <ele>1555.8</ele>
        <time>2010-01-01T01:37:32Z</time>
      </trkpt>
      <trkpt lat="42.64137" lon="1.86336">
        <ele>1558.1999</ele>
        <time>2010-01-01T01:37:35Z</time>
      </trkpt>
      <trkpt lat="42.64131" lon="1.86346">
        <ele>1562.6999</ele>
        <time>2010-01-01T01:37:39Z</time>
      </trkpt>
      <trkpt lat="42.64128" lon="1.86358">
        <ele>1568.9</ele>
        <time>2010-01-01T01:37:43Z</time>
      </trkpt>
      <trkpt lat="42.64124" lon="1.86369">
        <ele>1574</ele>
        <time>2010-01-01T01:37:46Z</time>
      </trkpt>
      <trkpt lat="42.64117" lon="1.86378">
        <ele>1578.6999</ele>
        <time>2010-01-01T01:37:50Z</time>
      </trkpt>
      <trkpt lat="42.64109" lon="1.86386">
        <ele>1582.4</ele>
        <time>2010-01-01T01:37:54Z</time>
      </trkpt>
      <trkpt lat="42.641" lon="1.86392">
        <ele>1586.0999</ele>
        <time>2010-01-01T01:37:58Z</time>
      </trkpt>
      <trkpt lat="42.64092" lon="1.86395">
        <ele>1588.0999</ele>
        <time>2010-01-01T01:38:01Z</time>
      </trkpt>
      <trkpt lat="42.64084" lon="1.86402">
        <ele>1591.6999</ele>
        <time>2010-01-01T01:38:05Z</time>
      </trkpt>
      <trkpt lat="42.64076" lon="1.86409">
        <ele>1594.4</ele>
        <time>2010-01-01T01:38:09Z</time>
      </trkpt>
      <trkpt lat="42.64068" lon="1.86416">
        <ele>1597.1999</ele>
        <time>2010-01-01T01:38:13Z</time>
      </trkpt>
      <trkpt lat="42.64059" lon="1.86421">
        <ele>1599.0999</ele>
        <time>2010-01-01T01:38:17Z</time>
      </trkpt>
      <trkpt lat="42.64051" lon="1.86429">
        <ele>1602.9</ele>
        <time>2010-01-01T01:38:20Z</time>
      </trkpt>
      <trkpt lat="42.64043" lon="1.86434">
        <ele>1605.8</ele>
        <time>2010-01-01T01:38:24Z</time>
      </trkpt>
      <trkpt lat="42.64034" lon="1.86435">
        <ele>1606.0999</ele>
        <time>2010-01-01T01:38:28Z</time>
      </trkpt>
      <trkpt lat="42.64024" lon="1.86437">
        <ele>1607.3</ele>
        <time>2010-01-01T01:38:32Z</time>
      </trkpt>
      <trkpt lat="42.64015" lon="1.86439">
        <ele>1608.4</ele>
        <time>2010-01-01T01:38:35Z</time>
      </trkpt>
      <trkpt lat="42.64006" lon="1.86441">
        <ele>1608.8</ele>
        <time>2010-01-01T01:38:39Z</time>
      </trkpt>
      <trkpt lat="42.63998" lon="1.86447">
        <ele>1612</ele>
        <time>2010-01-01T01:38:43Z</time>
      </trkpt>
      <trkpt lat="42.63988" lon="1.8645">
        <ele>1614.1999</ele>
        <time>2010-01-01T01:38:47Z</time>
      </trkpt>
      <trkpt lat="42.63981" lon="1.86457">
        <ele>1618.0999</ele>
        <time>2010-01-01T01:38:50Z</time>
      </trkpt>
      <trkpt lat="42.63976" lon="1.86469">
        <ele>1623.4</ele>
        <time>2010-01-01T01:38:54Z</time>
      </trkpt>
      <trkpt lat="42.63972" lon="1.8648">
        <ele>1628.5999</ele>
        <time>2010-01-01T01:38:58Z</time>
      </trkpt>
      <trkpt lat="42.6397" lon="1.86493">
        <ele>1634.1999</ele>
        <time>2010-01-01T01:39:02Z</time>
      </trkpt>
      <trkpt lat="42.63966" lon="1.86504">
        <ele>1639.4</ele>
        <time>2010-01-01T01:39:05Z</time>
      </trkpt>
      <trkpt lat="42.6396" lon="1.86514">
        <ele>1642.8</ele>
        <time>2010-01-01T01:39:09Z</time>
      </trkpt>
      <trkpt lat="42.63955" lon="1.86526">
        <ele>1647.3</ele>
        <time>2010-01-01T01:39:13Z</time>
      </trkpt>
      <trkpt lat="42.63949" lon="1.86537">
        <ele>1650.1999</ele>
        <time>2010-01-01T01:39:17Z</time>
      </trkpt>
      <trkpt lat="42.63942" lon="1.86545">
        <ele>1652.5999</ele>
        <time>2010-01-01T01:39:21Z</time>
      </trkpt>
      <trkpt lat="42.63939" lon="1.86558">
        <ele>1656.5</ele>
        <time>2010-01-01T01:39:25Z</time>
      </trkpt>
      <trkpt lat="42.63934" lon="1.86568">
        <ele>1659.8</ele>
        <time>2010-01-01T01:39:29Z</time>
      </trkpt>
      <trkpt lat="42.6393" lon="1.8658">
        <ele>1663.4</ele>
        <time>2010-01-01T01:39:32Z</time>
      </trkpt>
      <trkpt lat="42.63925" lon="1.8659">
        <ele>1666.4</ele>
        <time>2010-01-01T01:39:36Z</time>
      </trkpt>
      <trkpt lat="42.63918" lon="1.86598">
        <ele>1669.8</ele>
        <time>2010-01-01T01:39:40Z</time>
      </trkpt>
      <trkpt lat="42.63909" lon="1.86603">
        <ele>1670.0999</ele>
        <time>2010-01-01T01:39:43Z</time>
      </trkpt>
      <trkpt lat="42.63902" lon="1.8661">
        <ele>1671.4</ele>
        <time>2010-01-01T01:39:47Z</time>
      </trkpt>
      <trkpt lat="42.63892" lon="1.86614">
        <ele>1671.0999</ele>
        <time>2010-01-01T01:39:51Z</time>
      </trkpt>
      <trkpt lat="42.63884" lon="1.86616">
        <ele>1668.5999</ele>
        <time>2010-01-01T01:39:55Z</time>
      </trkpt>
      <trkpt lat="42.63877" lon="1.86625">
        <ele>1671.1999</ele>
        <time>2010-01-01T01:39:58Z</time>
      </trkpt>
      <trkpt lat="42.6387" lon="1.86632">
        <ele>1672</ele>
        <time>2010-01-01T01:40:02Z</time>
      </trkpt>
      <trkpt lat="42.63862" lon="1.86639">
        <ele>1672.5999</ele>
        <time>2010-01-01T01:40:06Z</time>
      </trkpt>
      <trkpt lat="42.63854" lon="1.86645">
        <ele>1671.4</ele>
        <time>2010-01-01T01:40:09Z</time>
      </trkpt>
      <trkpt lat="42.63848" lon="1.86655">
        <ele>1673.1999</ele>
        <time>2010-01-01T01:40:13Z</time>
      </trkpt>
      <trkpt lat="42.63841" lon="1.86663">
        <ele>1673.6999</ele>
        <time>2010-01-01T01:40:17Z</time>
      </trkpt>
      <trkpt lat="42.63833" lon="1.8667">
        <ele>1674.3</ele>
        <time>2010-01-01T01:40:21Z</time>
      </trkpt>
      <trkpt lat="42.63825" lon="1.86676">
        <ele>1677</ele>
        <time>2010-01-01T01:40:24Z</time>
      </trkpt>
      <trkpt lat="42.63817" lon="1.86683">
        <ele>1681.5</ele>
        <time>2010-01-01T01:40:28Z</time>
      </trkpt>
      <trkpt lat="42.63807" lon="1.86682">
        <ele>1681.4</ele>
        <time>2010-01-01T01:40:32Z</time>
      </trkpt>
      <trkpt lat="42.63801" lon="1.86692">
        <ele>1686.3</ele>
        <time>2010-01-01T01:40:36Z</time>
      </trkpt>
      <trkpt lat="42.63791" lon="1.86691">
        <ele>1686.5999</ele>
        <time>2010-01-01T01:40:40Z</time>
      </trkpt>
      <trkpt lat="42.63782" lon="1.86694">
        <ele>1687.3</ele>
        <time>2010-01-01T01:40:43Z</time>
      </trkpt>
      <trkpt lat="42.63773" lon="1.86696">
        <ele>1688.1999</ele>
        <time>2010-01-01T01:40:47Z</time>
      </trkpt>
      <trkpt lat="42.63765" lon="1.86703">
        <ele>1691.4</ele>
        <time>2010-01-01T01:40:51Z</time>
      </trkpt>
      <trkpt lat="42.63759" lon="1.86711">
        <ele>1694.6999</ele>
        <time>2010-01-01T01:40:54Z</time>
      </trkpt>
      <trkpt lat="42.63749" lon="1.86716">
        <ele>1695.9</ele>
        <time>2010-01-01T01:40:58Z</time>
      </trkpt>
      <trkpt lat="42.6374" lon="1.8672">
        <ele>1698.1999</ele>
        <time>2010-01-01T01:41:02Z</time>
      </trkpt>
      <trkpt lat="42.63731" lon="1.86721">
        <ele>1699.5</ele>
        <time>2010-01-01T01:41:06Z</time>
      </trkpt>
      <trkpt lat="42.63724" lon="1.86728">
        <ele>1702.3</ele>
        <time>2010-01-01T01:41:09Z</time>
      </trkpt>
      <trkpt lat="42.63715" lon="1.86732">
        <ele>1704.4</ele>
        <time>2010-01-01T01:41:13Z</time>
      </trkpt>
      <trkpt lat="42.63706" lon="1.86734">
        <ele>1705.0999</ele>
        <time>2010-01-01T01:41:17Z</time>
      </trkpt>
      <trkpt lat="42.63697" lon="1.86738">
        <ele>1706.4</ele>
        <time>2010-01-01T01:41:20Z</time>
      </trkpt>
      <trkpt lat="42.63689" lon="1.86744">
        <ele>1708.4</ele>
        <time>2010-01-01T01:41:24Z</time>
      </trkpt>
      <trkpt lat="42.6368" lon="1.86751">
        <ele>1709.8</ele>
        <time>2010-01-01T01:41:28Z</time>
      </trkpt>
      <trkpt lat="42.63672" lon="1.86757">
        <ele>1712.6999</ele>
        <time>2010-01-01T01:41:32Z</time>
      </trkpt>
      <trkpt lat="42.63663" lon="1.86761">
        <ele>1714.5</ele>
        <time>2010-01-01T01:41:36Z</time>
      </trkpt>
      <trkpt lat="42.63656" lon="1.86769">
        <ele>1717</ele>
        <time>2010-01-01T01:41:39Z</time>
      </trkpt>
      <trkpt lat="42.63646" lon="1.8677">
        <ele>1717.5</ele>
        <time>2010-01-01T01:41:43Z</time>
      </trkpt>
      <trkpt lat="42.63637" lon="1.86769">
        <ele>1715.6999</ele>
        <time>2010-01-01T01:41:47Z</time>
      </trkpt>
      <trkpt lat="42.63628" lon="1.86775">
        <ele>1716.9</ele>
        <time>2010-01-01T01:41:51Z</time>
      </trkpt>
      <trkpt lat="42.63618" lon="1.86775">
        <ele>1716.0999</ele>
        <time>2010-01-01T01:41:55Z</time>
      </trkpt>
      <trkpt lat="42.63611" lon="1.86783">
        <ele>1717.4</ele>
        <time>2010-01-01T01:41:59Z</time>
      </trkpt>
      <trkpt lat="42.63604" lon="1.86792">
        <ele>1719.9</ele>
        <time>2010-01-01T01:42:03Z</time>
      </trkpt>
      <trkpt lat="42.63595" lon="1.86798">
        <ele>1721.9</ele>
        <time>2010-01-01T01:42:07Z</time>
      </trkpt>
      <trkpt lat="42.63586" lon="1.86803">
        <ele>1722.5999</ele>
        <time>2010-01-01T01:42:10Z</time>
      </trkpt>
      <trkpt lat="42.63578" lon="1.86808">
        <ele>1723.6999</ele>
        <time>2010-01-01T01:42:14Z</time>
      </trkpt>
      <trkpt lat="42.63571" lon="1.86817">
        <ele>1726.1999</ele>
        <time>2010-01-01T01:42:18Z</time>
      </trkpt>
      <trkpt lat="42.63562" lon="1.86825">
        <ele>1728.1999</ele>
        <time>2010-01-01T01:42:22Z</time>
      </trkpt>
      <trkpt lat="42.63553" lon="1.86831">
        <ele>1729.1999</ele>
        <time>2010-01-01T01:42:26Z</time>
      </trkpt>
      <trkpt lat="42.63544" lon="1.86836">
        <ele>1729.4</ele>
        <time>2010-01-01T01:42:30Z</time>
      </trkpt>
      <trkpt lat="42.63535" lon="1.86841">
        <ele>1729.8</ele>
        <time>2010-01-01T01:42:34Z</time>
      </trkpt>
      <trkpt lat="42.63527" lon="1.86846">
        <ele>1729.6999</ele>
        <time>2010-01-01T01:42:38Z</time>
      </trkpt>
      <trkpt lat="42.63518" lon="1.86852">
        <ele>1730.0999</ele>
        <time>2010-01-01T01:42:41Z</time>
      </trkpt>
      <trkpt lat="42.6351" lon="1.8686">
        <ele>1730.6999</ele>
        <time>2010-01-01T01:42:45Z</time>
      </trkpt>
      <trkpt lat="42.63504" lon="1.8687">
        <ele>1732.0999</ele>
        <time>2010-01-01T01:42:49Z</time>
      </trkpt>
      <trkpt lat="42.63495" lon="1.86871">
        <ele>1731.6999</ele>
        <time>2010-01-01T01:42:53Z</time>
      </trkpt>
      <trkpt lat="42.63486" lon="1.86873">
        <ele>1731.6999</ele>
        <time>2010-01-01T01:42:57Z</time>
      </trkpt>
      <trkpt lat="42.63477" lon="1.86878">
        <ele>1732.5999</ele>
        <time>2010-01-01T01:43:00Z</time>
      </trkpt>
      <trkpt lat="42.63468" lon="1.86882">
        <ele>1733.5</ele>
        <time>2010-01-01T01:43:04Z</time>
      </trkpt>
      <trkpt lat="42.6346" lon="1.86888">
        <ele>1734.5999</ele>
        <time>2010-01-01T01:43:08Z</time>
      </trkpt>
      <trkpt lat="42.63451" lon="1.86892">
        <ele>1735.3</ele>
        <time>2010-01-01T01:43:12Z</time>
      </trkpt>
      <trkpt lat="42.63441" lon="1.86896">
        <ele>1735.9</ele>
        <time>2010-01-01T01:43:16Z</time>
      </trkpt>
      <trkpt lat="42.63434" lon="1.86904">
        <ele>1737.3</ele>
        <time>2010-01-01T01:43:20Z</time>
      </trkpt>
      <trkpt lat="42.63425" lon="1.86909">
        <ele>1738.3</ele>
        <time>2010-01-01T01:43:24Z</time>
      </trkpt>
      <trkpt lat="42.63417" lon="1.86916">
        <ele>1739.5</ele>
        <time>2010-01-01T01:43:27Z</time>
      </trkpt>
      <trkpt lat="42.63409" lon="1.86922">
        <ele>1741.3</ele>
        <time>2010-01-01T01:43:31Z</time>
      </trkpt>
      <trkpt lat="42.634" lon="1.86927">
        <ele>1743.4</ele>
        <time>2010-01-01T01:43:35Z</time>
      </trkpt>
      <trkpt lat="42.63391" lon="1.86928">
        <ele>1743.5999</ele>
        <time>2010-01-01T01:43:38Z</time>
      </trkpt>
      <trkpt lat="42.63383" lon="1.86935">
        <ele>1745.1999</ele>
        <time>2010-01-01T01:43:42Z</time>
      </trkpt>
      <trkpt lat="42.63374" lon="1.8694">
        <ele>1746.9</ele>
        <time>2010-01-01T01:43:46Z</time>
      </trkpt>
      <trkpt lat="42.63365" lon="1.86944">
        <ele>1747.6999</ele>
        <time>2010-01-01T01:43:50Z</time>
      </trkpt>
      <trkpt lat="42.63357" lon="1.86951">
        <ele>1748.9</ele>
        <time>2010-01-01T01:43:54Z</time>
      </trkpt>
      <trkpt lat="42.63352" lon="1.86962">
        <ele>1751.3</ele>
        <time>2010-01-01T01:43:58Z</time>
      </trkpt>
      <trkpt lat="42.63349" lon="1.86974">
        <ele>1754.8</ele>
        <time>2010-01-01T01:44:01Z</time>
      </trkpt>
      <trkpt lat="42.63344" lon="1.86985">
        <ele>1756.9</ele>
        <time>2010-01-01T01:44:05Z</time>
      </trkpt>
      <trkpt lat="42.63336" lon="1.86991">
        <ele>1758.5</ele>
        <time>2010-01-01T01:44:09Z</time>
      </trkpt>
      <trkpt lat="42.63327" lon="1.86993">
        <ele>1757.1999</ele>
        <time>2010-01-01T01:44:12Z</time>
      </trkpt>
      <trkpt lat="42.63318" lon="1.86998">
        <ele>1756.5999</ele>
        <time>2010-01-01T01:44:16Z</time>
      </trkpt>
      <trkpt lat="42.63311" lon="1.87006">
        <ele>1756.5999</ele>
        <time>2010-01-01T01:44:20Z</time>
      </trkpt>
      <trkpt lat="42.63305" lon="1.87016">
        <ele>1757.4</ele>
        <time>2010-01-01T01:44:24Z</time>
      </trkpt>
      <trkpt lat="42.63301" lon="1.87028">
        <ele>1760.1999</ele>
        <time>2010-01-01T01:44:28Z</time>
      </trkpt>
      <trkpt lat="42.63291" lon="1.87032">
        <ele>1759.1999</ele>
        <time>2010-01-01T01:44:32Z</time>
      </trkpt>
      <trkpt lat="42.63285" lon="1.87042">
        <ele>1759.4</ele>
        <time>2010-01-01T01:44:36Z</time>
      </trkpt>
      <trkpt lat="42.63281" lon="1.87053">
        <ele>1761</ele>
        <time>2010-01-01T01:44:39Z</time>
      </trkpt>
      <trkpt lat="42.63273" lon="1.87059">
        <ele>1760.0999</ele>
        <time>2010-01-01T01:44:43Z</time>
      </trkpt>
      <trkpt lat="42.63274" lon="1.87071">
        <ele>1762</ele>
        <time>2010-01-01T01:44:47Z</time>
      </trkpt>
      <trkpt lat="42.63265" lon="1.87074">
        <ele>1761.5</ele>
        <time>2010-01-01T01:44:50Z</time>
      </trkpt>
      <trkpt lat="42.63258" lon="1.87083">
        <ele>1760.5</ele>
        <time>2010-01-01T01:44:54Z</time>
      </trkpt>
      <trkpt lat="42.63252" lon="1.87093">
        <ele>1761.5999</ele>
        <time>2010-01-01T01:44:58Z</time>
      </trkpt>
      <trkpt lat="42.63246" lon="1.87101">
        <ele>1763.6999</ele>
        <time>2010-01-01T01:45:02Z</time>
      </trkpt>
      <trkpt lat="42.63239" lon="1.8711">
        <ele>1766</ele>
        <time>2010-01-01T01:45:05Z</time>
      </trkpt>
      <trkpt lat="42.63239" lon="1.87122">
        <ele>1769.8</ele>
        <time>2010-01-01T01:45:09Z</time>
      </trkpt>
      <trkpt lat="42.63238" lon="1.87135">
        <ele>1774.5999</ele>
        <time>2010-01-01T01:45:13Z</time>
      </trkpt>
      <trkpt lat="42.63231" lon="1.87143">
        <ele>1777.5999</ele>
        <time>2010-01-01T01:45:17Z</time>
      </trkpt>
      <trkpt lat="42.63222" lon="1.87148">
        <ele>1779.3</ele>
        <time>2010-01-01T01:45:20Z</time>
      </trkpt>
      <trkpt lat="42.63214" lon="1.87154">
        <ele>1780.3</ele>
        <time>2010-01-01T01:45:24Z</time>
      </trkpt>
      <trkpt lat="42.63208" lon="1.87163">
        <ele>1782</ele>
        <time>2010-01-01T01:45:28Z</time>
      </trkpt>
      <trkpt lat="42.632" lon="1.87168">
        <ele>1782.5999</ele>
        <time>2010-01-01T01:45:31Z</time>
      </trkpt>
      <trkpt lat="42.63192" lon="1.87176">
        <ele>1784.8</ele>
        <time>2010-01-01T01:45:35Z</time>
      </trkpt>
      <trkpt lat="42.63185" lon="1.87184">
        <ele>1786.5999</ele>
        <time>2010-01-01T01:45:39Z</time>
      </trkpt>
      <trkpt lat="42.63177" lon="1.87191">
        <ele>1787.4</ele>
        <time>2010-01-01T01:45:43Z</time>
      </trkpt>
      <trkpt lat="42.6317" lon="1.87201">
        <ele>1788.9</ele>
        <time>2010-01-01T01:45:47Z</time>
      </trkpt>
      <trkpt lat="42.63164" lon="1.87211">
        <ele>1790.8</ele>
        <time>2010-01-01T01:45:50Z</time>
      </trkpt>
      <trkpt lat="42.63162" lon="1.87223">
        <ele>1794.1999</ele>
        <time>2010-01-01T01:45:54Z</time>
      </trkpt>
      <trkpt lat="42.63155" lon="1.87232">
        <ele>1795.9</ele>
        <time>2010-01-01T01:45:58Z</time>
      </trkpt>
      <trkpt lat="42.63151" lon="1.87244">
        <ele>1798.5</ele>
        <time>2010-01-01T01:46:02Z</time>
      </trkpt>
      <trkpt lat="42.63147" lon="1.87255">
        <ele>1799.9</ele>
        <time>2010-01-01T01:46:06Z</time>
      </trkpt>
      <trkpt lat="42.63145" lon="1.87267">
        <ele>1803.4</ele>
        <time>2010-01-01T01:46:09Z</time>
      </trkpt>
      <trkpt lat="42.6314" lon="1.87278">
        <ele>1806.8</ele>
        <time>2010-01-01T01:46:13Z</time>
      </trkpt>
      <trkpt lat="42.63132" lon="1.87285">
        <ele>1806.5</ele>
        <time>2010-01-01T01:46:17Z</time>
      </trkpt>
      <trkpt lat="42.63126" lon="1.87295">
        <ele>1806.4</ele>
        <time>2010-01-01T01:46:21Z</time>
      </trkpt>
      <trkpt lat="42.63123" lon="1.87308">
        <ele>1808.5999</ele>
        <time>2010-01-01T01:46:25Z</time>
      </trkpt>
      <trkpt lat="42.63118" lon="1.87318">
        <ele>1810.0999</ele>
        <time>2010-01-01T01:46:28Z</time>
      </trkpt>
      <trkpt lat="42.63113" lon="1.8733">
        <ele>1810.9</ele>
        <time>2010-01-01T01:46:32Z</time>
      </trkpt>
      <trkpt lat="42.63109" lon="1.87341">
        <ele>1811.9</ele>
        <time>2010-01-01T01:46:36Z</time>
      </trkpt>
      <trkpt lat="42.63111" lon="1.87355">
        <ele>1815.5999</ele>
        <time>2010-01-01T01:46:40Z</time>
      </trkpt>
      <trkpt lat="42.63113" lon="1.87367">
        <ele>1820.1999</ele>
        <time>2010-01-01T01:46:44Z</time>
      </trkpt>
      <trkpt lat="42.63109" lon="1.87378">
        <ele>1822.9</ele>
        <time>2010-01-01T01:46:47Z</time>
      </trkpt>
      <trkpt lat="42.63109" lon="1.87391">
        <ele>1825.5</ele>
        <time>2010-01-01T01:46:51Z</time>
      </trkpt>
      <trkpt lat="42.63105" lon="1.87402">
        <ele>1826.8</ele>
        <time>2010-01-01T01:46:55Z</time>
      </trkpt>
      <trkpt lat="42.63104" lon="1.87414">
        <ele>1829.1999</ele>
        <time>2010-01-01T01:46:58Z</time>
      </trkpt>
      <trkpt lat="42.631" lon="1.87426">
        <ele>1829.9</ele>
        <time>2010-01-01T01:47:02Z</time>
      </trkpt>
      <trkpt lat="42.63101" lon="1.87439">
        <ele>1832.5999</ele>
        <time>2010-01-01T01:47:06Z</time>
      </trkpt>
      <trkpt lat="42.63103" lon="1.87451">
        <ele>1837.4</ele>
        <time>2010-01-01T01:47:10Z</time>
      </trkpt>
      <trkpt lat="42.63106" lon="1.87463">
        <ele>1842.3</ele>
        <time>2010-01-01T01:47:13Z</time>
      </trkpt>
      <trkpt lat="42.63106" lon="1.87475">
        <ele>1847.0999</ele>
        <time>2010-01-01T01:47:17Z</time>
      </trkpt>
      <trkpt lat="42.63103" lon="1.87487">
        <ele>1848.5999</ele>
        <time>2010-01-01T01:47:21Z</time>
      </trkpt>
      <trkpt lat="42.63098" lon="1.87498">
        <ele>1847.5999</ele>
        <time>2010-01-01T01:47:24Z</time>
      </trkpt>
      <trkpt lat="42.63091" lon="1.87507">
        <ele>1844.0999</ele>
        <time>2010-01-01T01:47:28Z</time>
      </trkpt>
      <trkpt lat="42.63088" lon="1.8752">
        <ele>1843.9</ele>
        <time>2010-01-01T01:47:32Z</time>
      </trkpt>
      <trkpt lat="42.63085" lon="1.87532">
        <ele>1842.8</ele>
        <time>2010-01-01T01:47:36Z</time>
      </trkpt>
      <trkpt lat="42.63081" lon="1.87544">
        <ele>1841.4</ele>
        <time>2010-01-01T01:47:40Z</time>
      </trkpt>
      <trkpt lat="42.63077" lon="1.87555">
        <ele>1841.3</ele>
        <time>2010-01-01T01:47:43Z</time>
      </trkpt>
      <trkpt lat="42.63071" lon="1.87564">
        <ele>1839</ele>
        <time>2010-01-01T01:47:47Z</time>
      </trkpt>
      <trkpt lat="42.63071" lon="1.87577">
        <ele>1839.5999</ele>
        <time>2010-01-01T01:47:51Z</time>
      </trkpt>
      <trkpt lat="42.63066" lon="1.87587">
        <ele>1839.3</ele>
        <time>2010-01-01T01:47:55Z</time>
      </trkpt>
      <trkpt lat="42.63066" lon="1.876">
        <ele>1840.0999</ele>
        <time>2010-01-01T01:47:58Z</time>
      </trkpt>
      <trkpt lat="42.63068" lon="1.87612">
        <ele>1842.6999</ele>
        <time>2010-01-01T01:48:02Z</time>
      </trkpt>
      <trkpt lat="42.63067" lon="1.87625">
        <ele>1844.5</ele>
        <time>2010-01-01T01:48:06Z</time>
      </trkpt>
      <trkpt lat="42.63062" lon="1.87636">
        <ele>1843.8</ele>
        <time>2010-01-01T01:48:10Z</time>
      </trkpt>
      <trkpt lat="42.63059" lon="1.87649">
        <ele>1843.9</ele>
        <time>2010-01-01T01:48:14Z</time>
      </trkpt>
      <trkpt lat="42.63052" lon="1.87658">
        <ele>1841.8</ele>
        <time>2010-01-01T01:48:18Z</time>
      </trkpt>
      <trkpt lat="42.63047" lon="1.87669">
        <ele>1840.5</ele>
        <time>2010-01-01T01:48:21Z</time>
      </trkpt>
      <trkpt lat="42.63044" lon="1.87682">
        <ele>1840.6999</ele>
        <time>2010-01-01T01:48:25Z</time>
      </trkpt>
      <trkpt lat="42.63041" lon="1.87694">
        <ele>1841.1999</ele>
        <time>2010-01-01T01:48:29Z</time>
      </trkpt>
      <trkpt lat="42.63037" lon="1.87705">
        <ele>1841.5</ele>
        <time>2010-01-01T01:48:33Z</time>
      </trkpt>
      <trkpt lat="42.63035" lon="1.87718">
        <ele>1842.0999</ele>
        <time>2010-01-01T01:48:37Z</time>
      </trkpt>
      <trkpt lat="42.6303" lon="1.8773">
        <ele>1842.4</ele>
        <time>2010-01-01T01:48:41Z</time>
      </trkpt>
      <trkpt lat="42.63025" lon="1.87741">
        <ele>1841.8</ele>
        <time>2010-01-01T01:48:44Z</time>
      </trkpt>
      <trkpt lat="42.63026" lon="1.87754">
        <ele>1843</ele>
        <time>2010-01-01T01:48:48Z</time>
      </trkpt>
      <trkpt lat="42.63027" lon="1.87767">
        <ele>1846.5</ele>
        <time>2010-01-01T01:48:52Z</time>
      </trkpt>
      <trkpt lat="42.63026" lon="1.87779">
        <ele>1847.9</ele>
        <time>2010-01-01T01:48:56Z</time>
      </trkpt>
      <trkpt lat="42.63022" lon="1.87791">
        <ele>1848.5999</ele>
        <time>2010-01-01T01:48:59Z</time>
      </trkpt>
      <trkpt lat="42.63017" lon="1.87803">
        <ele>1848.5</ele>
        <time>2010-01-01T01:49:03Z</time>
      </trkpt>
      <trkpt lat="42.63011" lon="1.87812">
        <ele>1847.5</ele>
        <time>2010-01-01T01:49:07Z</time>
      </trkpt>
      <trkpt lat="42.63006" lon="1.87823">
        <ele>1847.0999</ele>
        <time>2010-01-01T01:49:11Z</time>
      </trkpt>
      <trkpt lat="42.62999" lon="1.87833">
        <ele>1845.9</ele>
        <time>2010-01-01T01:49:15Z</time>
      </trkpt>
      <trkpt lat="42.62994" lon="1.87844">
        <ele>1846.0999</ele>
        <time>2010-01-01T01:49:19Z</time>
      </trkpt>
      <trkpt lat="42.63" lon="1.87855">
        <ele>1848.5</ele>
        <time>2010-01-01T01:49:22Z</time>
      </trkpt>
      <trkpt lat="42.63001" lon="1.87867">
        <ele>1850.5999</ele>
        <time>2010-01-01T01:49:26Z</time>
      </trkpt>
      <trkpt lat="42.63001" lon="1.8788">
        <ele>1852.5</ele>
        <time>2010-01-01T01:49:30Z</time>
      </trkpt>
      <trkpt lat="42.63003" lon="1.87892">
        <ele>1855.5</ele>
        <time>2010-01-01T01:49:34Z</time>
      </trkpt>
      <trkpt lat="42.63003" lon="1.87905">
        <ele>1857</ele>
        <time>2010-01-01T01:49:37Z</time>
      </trkpt>
      <trkpt lat="42.63001" lon="1.87918">
        <ele>1858.5</ele>
        <time>2010-01-01T01:49:41Z</time>
      </trkpt>
      <trkpt lat="42.62996" lon="1.87929">
        <ele>1858.4</ele>
        <time>2010-01-01T01:49:45Z</time>
      </trkpt>
      <trkpt lat="42.62997" lon="1.87942">
        <ele>1859.4</ele>
        <time>2010-01-01T01:49:49Z</time>
      </trkpt>
      <trkpt lat="42.63" lon="1.87954">
        <ele>1861.8</ele>
        <time>2010-01-01T01:49:53Z</time>
      </trkpt>
      <trkpt lat="42.63002" lon="1.87966">
        <ele>1865.4</ele>
        <time>2010-01-01T01:49:56Z</time>
      </trkpt>
      <trkpt lat="42.62997" lon="1.87978">
        <ele>1864.0999</ele>
        <time>2010-01-01T01:50:00Z</time>
      </trkpt>
      <trkpt lat="42.62996" lon="1.8799">
        <ele>1865</ele>
        <time>2010-01-01T01:50:04Z</time>
      </trkpt>
      <trkpt lat="42.62994" lon="1.88003">
        <ele>1866.0999</ele>
        <time>2010-01-01T01:50:08Z</time>
      </trkpt>
      <trkpt lat="42.62993" lon="1.88016">
        <ele>1866.8</ele>
        <time>2010-01-01T01:50:12Z</time>
      </trkpt>
      <trkpt lat="42.62991" lon="1.88029">
        <ele>1867.5999</ele>
        <time>2010-01-01T01:50:15Z</time>
      </trkpt>
      <trkpt lat="42.62993" lon="1.88041">
        <ele>1868.9</ele>
        <time>2010-01-01T01:50:19Z</time>
      </trkpt>
      <trkpt lat="42.62994" lon="1.88053">
        <ele>1870.5</ele>
        <time>2010-01-01T01:50:23Z</time>
      </trkpt>
      <trkpt lat="42.62989" lon="1.88063">
        <ele>1870.1999</ele>
        <time>2010-01-01T01:50:26Z</time>
      </trkpt>
      <trkpt lat="42.62991" lon="1.88076">
        <ele>1871.5</ele>
        <time>2010-01-01T01:50:30Z</time>
      </trkpt>
      <trkpt lat="42.62988" lon="1.88087">
        <ele>1873</ele>
        <time>2010-01-01T01:50:34Z</time>
      </trkpt>
      <trkpt lat="42.6298" lon="1.88094">
        <ele>1872.4</ele>
        <time>2010-01-01T01:50:37Z</time>
      </trkpt>
      <trkpt lat="42.62979" lon="1.88107">
        <ele>1874.3</ele>
        <time>2010-01-01T01:50:41Z</time>
      </trkpt>
      <trkpt lat="42.62975" lon="1.88118">
        <ele>1876.9</ele>
        <time>2010-01-01T01:50:45Z</time>
      </trkpt>
      <trkpt lat="42.6297" lon="1.88128">
        <ele>1877.9</ele>
        <time>2010-01-01T01:50:48Z</time>
      </trkpt>
      <trkpt lat="42.62963" lon="1.88137">
        <ele>1878.4</ele>
        <time>2010-01-01T01:50:52Z</time>
      </trkpt>
      <trkpt lat="42.62958" lon="1.88147">
        <ele>1879.0999</ele>
        <time>2010-01-01T01:50:56Z</time>
      </trkpt>
      <trkpt lat="42.62955" lon="1.88159">
        <ele>1880.9</ele>
        <time>2010-01-01T01:51:00Z</time>
      </trkpt>
      <trkpt lat="42.62955" lon="1.88172">
        <ele>1885.0999</ele>
        <time>2010-01-01T01:51:03Z</time>
      </trkpt>
      <trkpt lat="42.62949" lon="1.88182">
        <ele>1885.9</ele>
        <time>2010-01-01T01:51:07Z</time>
      </trkpt>
      <trkpt lat="42.62948" lon="1.88194">
        <ele>1889.3</ele>
        <time>2010-01-01T01:51:11Z</time>
      </trkpt>
      <trkpt lat="42.62943" lon="1.88205">
        <ele>1891.0999</ele>
        <time>2010-01-01T01:51:14Z</time>
      </trkpt>
      <trkpt lat="42.62933" lon="1.88209">
        <ele>1890.3</ele>
        <time>2010-01-01T01:51:18Z</time>
      </trkpt>
      <trkpt lat="42.62927" lon="1.88217">
        <ele>1889.6999</ele>
        <time>2010-01-01T01:51:22Z</time>
      </trkpt>
      <trkpt lat="42.62928" lon="1.88229">
        <ele>1893.6999</ele>
        <time>2010-01-01T01:51:26Z</time>
      </trkpt>
      <trkpt lat="42.62928" lon="1.88242">
        <ele>1898.1999</ele>
        <time>2010-01-01T01:51:29Z</time>
      </trkpt>
      <trkpt lat="42.62926" lon="1.88255">
        <ele>1901.4</ele>
        <time>2010-01-01T01:51:33Z</time>
      </trkpt>
      <trkpt lat="42.62924" lon="1.88267">
        <ele>1903.9</ele>
        <time>2010-01-01T01:51:37Z</time>
      </trkpt>
      <trkpt lat="42.62934" lon="1.88271">
        <ele>1907</ele>
        <time>2010-01-01T01:51:41Z</time>
      </trkpt>
      <trkpt lat="42.62943" lon="1.88276">
        <ele>1910.5</ele>
        <time>2010-01-01T01:51:45Z</time>
      </trkpt>
      <trkpt lat="42.62943" lon="1.88289">
        <ele>1914</ele>
        <time>2010-01-01T01:51:49Z</time>
      </trkpt>
      <trkpt lat="42.62952" lon="1.88289">
        <ele>1916.8</ele>
        <time>2010-01-01T01:51:53Z</time>
      </trkpt>
      <trkpt lat="42.62961" lon="1.8829">
        <ele>1918.8</ele>
        <time>2010-01-01T01:51:56Z</time>
      </trkpt>
      <trkpt lat="42.62952" lon="1.88293">
        <ele>1917.6999</ele>
        <time>2010-01-01T01:52:00Z</time>
      </trkpt>
      <trkpt lat="42.62945" lon="1.88301">
        <ele>1917.5</ele>
        <time>2010-01-01T01:52:04Z</time>
      </trkpt>
      <trkpt lat="42.62937" lon="1.88308">
        <ele>1917.5999</ele>
        <time>2010-01-01T01:52:07Z</time>
      </trkpt>
      <trkpt lat="42.6293" lon="1.88316">
        <ele>1917.8</ele>
        <time>2010-01-01T01:52:11Z</time>
      </trkpt>
      <trkpt lat="42.62922" lon="1.88311">
        <ele>1915.1999</ele>
        <time>2010-01-01T01:52:15Z</time>
      </trkpt>
      <trkpt lat="42.62913" lon="1.88317">
        <ele>1914.1999</ele>
        <time>2010-01-01T01:52:19Z</time>
      </trkpt>
      <trkpt lat="42.62904" lon="1.8832">
        <ele>1912.9</ele>
        <time>2010-01-01T01:52:22Z</time>
      </trkpt>
      <trkpt lat="42.62914" lon="1.88318">
        <ele>1913.3</ele>
        <time>2010-01-01T01:52:26Z</time>
      </trkpt>
      <trkpt lat="42.62918" lon="1.8833">
        <ele>1917.0999</ele>
        <time>2010-01-01T01:52:30Z</time>
      </trkpt>
      <trkpt lat="42.62918" lon="1.88344">
        <ele>1920</ele>
        <time>2010-01-01T01:52:34Z</time>
      </trkpt>
      <trkpt lat="42.62918" lon="1.88356">
        <ele>1921.9</ele>
        <time>2010-01-01T01:52:38Z</time>
      </trkpt>
      <trkpt lat="42.6292" lon="1.88369">
        <ele>1924</ele>
        <time>2010-01-01T01:52:42Z</time>
      </trkpt>
      <trkpt lat="42.62929" lon="1.88375">
        <ele>1926.5999</ele>
        <time>2010-01-01T01:52:46Z</time>
      </trkpt>
      <trkpt lat="42.62938" lon="1.8838">
        <ele>1929.4</ele>
        <time>2010-01-01T01:52:49Z</time>
      </trkpt>
      <trkpt lat="42.62947" lon="1.8838">
        <ele>1931.9</ele>
        <time>2010-01-01T01:52:53Z</time>
      </trkpt>
      <trkpt lat="42.62956" lon="1.88383">
        <ele>1934.8</ele>
        <time>2010-01-01T01:52:57Z</time>
      </trkpt>
      <trkpt lat="42.62963" lon="1.88393">
        <ele>1937.6999</ele>
        <time>2010-01-01T01:53:01Z</time>
      </trkpt>
      <trkpt lat="42.62967" lon="1.88405">
        <ele>1940.8</ele>
        <time>2010-01-01T01:53:05Z</time>
      </trkpt>
      <trkpt lat="42.62966" lon="1.88418">
        <ele>1943</ele>
        <time>2010-01-01T01:53:09Z</time>
      </trkpt>
      <trkpt lat="42.62973" lon="1.88426">
        <ele>1946.5999</ele>
        <time>2010-01-01T01:53:12Z</time>
      </trkpt>
      <trkpt lat="42.62979" lon="1.88436">
        <ele>1950.4</ele>
        <time>2010-01-01T01:53:16Z</time>
      </trkpt>
      <trkpt lat="42.62988" lon="1.88434">
        <ele>1952.5999</ele>
        <time>2010-01-01T01:53:20Z</time>
      </trkpt>
      <trkpt lat="42.62996" lon="1.88439">
        <ele>1955.8</ele>
        <time>2010-01-01T01:53:24Z</time>
      </trkpt>
      <trkpt lat="42.63005" lon="1.88447">
        <ele>1959.9</ele>
        <time>2010-01-01T01:53:28Z</time>
      </trkpt>
      <trkpt lat="42.63011" lon="1.88456">
        <ele>1965.4</ele>
        <time>2010-01-01T01:53:31Z</time>
      </trkpt>
      <trkpt lat="42.63019" lon="1.88464">
        <ele>1969.6999</ele>
        <time>2010-01-01T01:53:35Z</time>
      </trkpt>
      <trkpt lat="42.63029" lon="1.8846">
        <ele>1972.8</ele>
        <time>2010-01-01T01:53:39Z</time>
      </trkpt>
      <trkpt lat="42.63038" lon="1.88457">
        <ele>1975.3</ele>
        <time>2010-01-01T01:53:43Z</time>
      </trkpt>
      <trkpt lat="42.63046" lon="1.8845">
        <ele>1977.0999</ele>
        <time>2010-01-01T01:53:47Z</time>
      </trkpt>
      <trkpt lat="42.63054" lon="1.88441">
        <ele>1977.6999</ele>
        <time>2010-01-01T01:53:51Z</time>
      </trkpt>
      <trkpt lat="42.63062" lon="1.88432">
        <ele>1978.5</ele>
        <time>2010-01-01T01:53:55Z</time>
      </trkpt>
      <trkpt lat="42.63071" lon="1.88426">
        <ele>1979.8</ele>
        <time>2010-01-01T01:53:59Z</time>
      </trkpt>
      <trkpt lat="42.63079" lon="1.88419">
        <ele>1981.3</ele>
        <time>2010-01-01T01:54:03Z</time>
      </trkpt>
      <trkpt lat="42.63084" lon="1.88408">
        <ele>1981.5999</ele>
        <time>2010-01-01T01:54:07Z</time>
      </trkpt>
      <trkpt lat="42.63088" lon="1.88397">
        <ele>1981.1999</ele>
        <time>2010-01-01T01:54:10Z</time>
      </trkpt>
      <trkpt lat="42.63094" lon="1.88388">
        <ele>1980.9</ele>
        <time>2010-01-01T01:54:14Z</time>
      </trkpt>
      <trkpt lat="42.63102" lon="1.88382">
        <ele>1982.5999</ele>
        <time>2010-01-01T01:54:18Z</time>
      </trkpt>
      <trkpt lat="42.63111" lon="1.88378">
        <ele>1984.5</ele>
        <time>2010-01-01T01:54:22Z</time>
      </trkpt>
      <trkpt lat="42.63116" lon="1.88367">
        <ele>1985.0999</ele>
        <time>2010-01-01T01:54:25Z</time>
      </trkpt>
      <trkpt lat="42.63117" lon="1.88354">
        <ele>1983.8</ele>
        <time>2010-01-01T01:54:29Z</time>
      </trkpt>
      <trkpt lat="42.6312" lon="1.88342">
        <ele>1982.3</ele>
        <time>2010-01-01T01:54:33Z</time>
      </trkpt>
      <trkpt lat="42.63127" lon="1.88334">
        <ele>1983</ele>
        <time>2010-01-01T01:54:37Z</time>
      </trkpt>
      <trkpt lat="42.63134" lon="1.88325">
        <ele>1984.0999</ele>
        <time>2010-01-01T01:54:41Z</time>
      </trkpt>
      <trkpt lat="42.63141" lon="1.88334">
        <ele>1987.6999</ele>
        <time>2010-01-01T01:54:44Z</time>
      </trkpt>
      <trkpt lat="42.63145" lon="1.88346">
        <ele>1990.0999</ele>
        <time>2010-01-01T01:54:48Z</time>
      </trkpt>
      <trkpt lat="42.63146" lon="1.88358">
        <ele>1992.8</ele>
        <time>2010-01-01T01:54:52Z</time>
      </trkpt>
      <trkpt lat="42.63147" lon="1.88371">
        <ele>1995.5</ele>
        <time>2010-01-01T01:54:56Z</time>
      </trkpt>
      <trkpt lat="42.6315" lon="1.88384">
        <ele>1998.5</ele>
        <time>2010-01-01T01:55:00Z</time>
      </trkpt>
      <trkpt lat="42.63153" lon="1.88396">
        <ele>2001.1999</ele>
        <time>2010-01-01T01:55:03Z</time>
      </trkpt>
      <trkpt lat="42.63161" lon="1.88401">
        <ele>2005.5</ele>
        <time>2010-01-01T01:55:07Z</time>
      </trkpt>
      <trkpt lat="42.63168" lon="1.88393">
        <ele>2006.4</ele>
        <time>2010-01-01T01:55:11Z</time>
      </trkpt>
      <trkpt lat="42.63177" lon="1.88395">
        <ele>2009.5999</ele>
        <time>2010-01-01T01:55:15Z</time>
      </trkpt>
      <trkpt lat="42.63182" lon="1.88405">
        <ele>2012.6999</ele>
        <time>2010-01-01T01:55:18Z</time>
      </trkpt>
      <trkpt lat="42.63192" lon="1.88409">
        <ele>2016.5</ele>
        <time>2010-01-01T01:55:22Z</time>
      </trkpt>
      <trkpt lat="42.63201" lon="1.8841">
        <ele>2019.5</ele>
        <time>2010-01-01T01:55:26Z</time>
      </trkpt>
      <trkpt lat="42.63211" lon="1.8841">
        <ele>2022.8</ele>
        <time>2010-01-01T01:55:30Z</time>
      </trkpt>
      <trkpt lat="42.6322" lon="1.88413">
        <ele>2026.1999</ele>
        <time>2010-01-01T01:55:33Z</time>
      </trkpt>
      <trkpt lat="42.63229" lon="1.88412">
        <ele>2029.1999</ele>
        <time>2010-01-01T01:55:37Z</time>
      </trkpt>
      <trkpt lat="42.63239" lon="1.88413">
        <ele>2032.5</ele>
        <time>2010-01-01T01:55:41Z</time>
      </trkpt>
      <trkpt lat="42.63247" lon="1.88419">
        <ele>2035.5999</ele>
        <time>2010-01-01T01:55:45Z</time>
      </trkpt>
      <trkpt lat="42.63255" lon="1.88426">
        <ele>2039.3</ele>
        <time>2010-01-01T01:55:49Z</time>
      </trkpt>
      <trkpt lat="42.63263" lon="1.88433">
        <ele>2043.3</ele>
        <time>2010-01-01T01:55:52Z</time>
      </trkpt>
      <trkpt lat="42.63272" lon="1.88438">
        <ele>2047.1999</ele>
        <time>2010-01-01T01:55:56Z</time>
      </trkpt>
      <trkpt lat="42.6328" lon="1.88443">
        <ele>2050.8999</ele>
        <time>2010-01-01T01:56:00Z</time>
      </trkpt>
      <trkpt lat="42.63288" lon="1.8845">
        <ele>2054.5</ele>
        <time>2010-01-01T01:56:04Z</time>
      </trkpt>
      <trkpt lat="42.63296" lon="1.88458">
        <ele>2057.1999</ele>
        <time>2010-01-01T01:56:08Z</time>
      </trkpt>
      <trkpt lat="42.63304" lon="1.88464">
        <ele>2060</ele>
        <time>2010-01-01T01:56:11Z</time>
      </trkpt>
      <trkpt lat="42.63311" lon="1.88472">
        <ele>2062</ele>
        <time>2010-01-01T01:56:15Z</time>
      </trkpt>
      <trkpt lat="42.63318" lon="1.88482">
        <ele>2063.5</ele>
        <time>2010-01-01T01:56:19Z</time>
      </trkpt>
      <trkpt lat="42.63323" lon="1.88493">
        <ele>2064.1</ele>
        <time>2010-01-01T01:56:23Z</time>
      </trkpt>
      <trkpt lat="42.6333" lon="1.88501">
        <ele>2065.1</ele>
        <time>2010-01-01T01:56:26Z</time>
      </trkpt>
      <trkpt lat="42.63337" lon="1.88511">
        <ele>2067.6999</ele>
        <time>2010-01-01T01:56:30Z</time>
      </trkpt>
      <trkpt lat="42.63343" lon="1.8852">
        <ele>2070.8999</ele>
        <time>2010-01-01T01:56:34Z</time>
      </trkpt>
      <trkpt lat="42.63346" lon="1.88532">
        <ele>2073.1999</ele>
        <time>2010-01-01T01:56:38Z</time>
      </trkpt>
      <trkpt lat="42.63353" lon="1.88541">
        <ele>2075.8</ele>
        <time>2010-01-01T01:56:41Z</time>
      </trkpt>
      <trkpt lat="42.63357" lon="1.88552">
        <ele>2078.1</ele>
        <time>2010-01-01T01:56:45Z</time>
      </trkpt>
      <trkpt lat="42.63362" lon="1.88563">
        <ele>2079.8</ele>
        <time>2010-01-01T01:56:49Z</time>
      </trkpt>
      <trkpt lat="42.63368" lon="1.88573">
        <ele>2081.5</ele>
        <time>2010-01-01T01:56:53Z</time>
      </trkpt>
      <trkpt lat="42.63371" lon="1.88585">
        <ele>2082.8</ele>
        <time>2010-01-01T01:56:56Z</time>
      </trkpt>
      <trkpt lat="42.63371" lon="1.88597">
        <ele>2083.8</ele>
        <time>2010-01-01T01:57:00Z</time>
      </trkpt>
      <trkpt lat="42.63371" lon="1.8861">
        <ele>2085.1999</ele>
        <time>2010-01-01T01:57:04Z</time>
      </trkpt>
      <trkpt lat="42.63372" lon="1.88622">
        <ele>2086.8</ele>
        <time>2010-01-01T01:57:07Z</time>
      </trkpt>
      <trkpt lat="42.63374" lon="1.88635">
        <ele>2088.5</ele>
        <time>2010-01-01T01:57:11Z</time>
      </trkpt>
      <trkpt lat="42.63377" lon="1.88647">
        <ele>2090.1999</ele>
        <time>2010-01-01T01:57:15Z</time>
      </trkpt>
      <trkpt lat="42.63378" lon="1.8866">
        <ele>2091.6</ele>
        <time>2010-01-01T01:57:19Z</time>
      </trkpt>
      <trkpt lat="42.6338" lon="1.88673">
        <ele>2093.1</ele>
        <time>2010-01-01T01:57:23Z</time>
      </trkpt>
      <trkpt lat="42.63382" lon="1.88685">
        <ele>2093.5</ele>
        <time>2010-01-01T01:57:27Z</time>
      </trkpt>
      <trkpt lat="42.63382" lon="1.88699">
        <ele>2093.6</ele>
        <time>2010-01-01T01:57:31Z</time>
      </trkpt>
      <trkpt lat="42.63385" lon="1.88711">
        <ele>2093.8999</ele>
        <time>2010-01-01T01:57:34Z</time>
      </trkpt>
      <trkpt lat="42.63385" lon="1.88723">
        <ele>2094.1</ele>
        <time>2010-01-01T01:57:38Z</time>
      </trkpt>
      <trkpt lat="42.63388" lon="1.88735">
        <ele>2094.3999</ele>
        <time>2010-01-01T01:57:42Z</time>
      </trkpt>
      <trkpt lat="42.63392" lon="1.88747">
        <ele>2094.8999</ele>
        <time>2010-01-01T01:57:45Z</time>
      </trkpt>
      <trkpt lat="42.63399" lon="1.88756">
        <ele>2095.6999</ele>
        <time>2010-01-01T01:57:49Z</time>
      </trkpt>
      <trkpt lat="42.63408" lon="1.88761">
        <ele>2096.6999</ele>
        <time>2010-01-01T01:57:53Z</time>
      </trkpt>
      <trkpt lat="42.63417" lon="1.88768">
        <ele>2097.6999</ele>
        <time>2010-01-01T01:57:57Z</time>
      </trkpt>
      <trkpt lat="42.63424" lon="1.88777">
        <ele>2098.3999</ele>
        <time>2010-01-01T01:58:01Z</time>
      </trkpt>
      <trkpt lat="42.63429" lon="1.88788">
        <ele>2098.6</ele>
        <time>2010-01-01T01:58:05Z</time>
      </trkpt>
      <trkpt lat="42.63433" lon="1.88799">
        <ele>2098.5</ele>
        <time>2010-01-01T01:58:09Z</time>
      </trkpt>
      <trkpt lat="42.63435" lon="1.88811">
        <ele>2098</ele>
        <time>2010-01-01T01:58:12Z</time>
      </trkpt>
      <trkpt lat="42.63439" lon="1.88824">
        <ele>2097.3999</ele>
        <time>2010-01-01T01:58:16Z</time>
      </trkpt>
      <trkpt lat="42.63443" lon="1.88835">
        <ele>2097</ele>
        <time>2010-01-01T01:58:20Z</time>
      </trkpt>
      <trkpt lat="42.63449" lon="1.88845">
        <ele>2097.3999</ele>
        <time>2010-01-01T01:58:24Z</time>
      </trkpt>
      <trkpt lat="42.63455" lon="1.88856">
        <ele>2098.3</ele>
        <time>2010-01-01T01:58:28Z</time>
      </trkpt>
      <trkpt lat="42.63461" lon="1.88866">
        <ele>2099.3</ele>
        <time>2010-01-01T01:58:32Z</time>
      </trkpt>
      <trkpt lat="42.63469" lon="1.88874">
        <ele>2100.6999</ele>
        <time>2010-01-01T01:58:36Z</time>
      </trkpt>
      <trkpt lat="42.63477" lon="1.88882">
        <ele>2102.3</ele>
        <time>2010-01-01T01:58:40Z</time>
      </trkpt>
      <trkpt lat="42.63485" lon="1.8889">
        <ele>2104.3</ele>
        <time>2010-01-01T01:58:44Z</time>
      </trkpt>
      <trkpt lat="42.63492" lon="1.88898">
        <ele>2106.1999</ele>
        <time>2010-01-01T01:58:47Z</time>
      </trkpt>
      <trkpt lat="42.63493" lon="1.88911">
        <ele>2107.8</ele>
        <time>2010-01-01T01:58:51Z</time>
      </trkpt>
      <trkpt lat="42.63492" lon="1.88923">
        <ele>2108.3999</ele>
        <time>2010-01-01T01:58:55Z</time>
      </trkpt>
      <trkpt lat="42.63491" lon="1.88936">
        <ele>2109.5</ele>
        <time>2010-01-01T01:58:59Z</time>
      </trkpt>
      <trkpt lat="42.63489" lon="1.88948">
        <ele>2110.3999</ele>
        <time>2010-01-01T01:59:02Z</time>
      </trkpt>
      <trkpt lat="42.63487" lon="1.88961">
        <ele>2111.1</ele>
        <time>2010-01-01T01:59:06Z</time>
      </trkpt>
      <trkpt lat="42.63491" lon="1.88973">
        <ele>2113</ele>
        <time>2010-01-01T01:59:10Z</time>
      </trkpt>
      <trkpt lat="42.63489" lon="1.88985">
        <ele>2114.3999</ele>
        <time>2010-01-01T01:59:14Z</time>
      </trkpt>
      <trkpt lat="42.63493" lon="1.88997">
        <ele>2116.1</ele>
        <time>2010-01-01T01:59:17Z</time>
      </trkpt>
      <trkpt lat="42.63497" lon="1.89008">
        <ele>2118.6</ele>
        <time>2010-01-01T01:59:21Z</time>
      </trkpt>
      <trkpt lat="42.63496" lon="1.89021">
        <ele>2121.3999</ele>
        <time>2010-01-01T01:59:25Z</time>
      </trkpt>
      <trkpt lat="42.63492" lon="1.89033">
        <ele>2122.5</ele>
        <time>2010-01-01T01:59:29Z</time>
      </trkpt>
      <trkpt lat="42.63494" lon="1.89047">
        <ele>2125</ele>
        <time>2010-01-01T01:59:33Z</time>
      </trkpt>
      <trkpt lat="42.63503" lon="1.89052">
        <ele>2129</ele>
        <time>2010-01-01T01:59:36Z</time>
      </trkpt>
      <trkpt lat="42.63505" lon="1.89064">
        <ele>2131.8999</ele>
        <time>2010-01-01T01:59:40Z</time>
      </trkpt>
      <trkpt lat="42.63506" lon="1.89078">
        <ele>2134.3</ele>
        <time>2010-01-01T01:59:44Z</time>
      </trkpt>
      <trkpt lat="42.6351" lon="1.89088">
        <ele>2137.1</ele>
        <time>2010-01-01T01:59:48Z</time>
      </trkpt>
      <trkpt lat="42.63512" lon="1.89102">
        <ele>2138.5</ele>
        <time>2010-01-01T01:59:52Z</time>
      </trkpt>
      <trkpt lat="42.63512" lon="1.89115">
        <ele>2138.8</ele>
        <time>2010-01-01T01:59:56Z</time>
      </trkpt>
      <trkpt lat="42.63512" lon="1.89127">
        <ele>2139.3</ele>
        <time>2010-01-01T01:59:59Z</time>
      </trkpt>
      <trkpt lat="42.63514" lon="1.89141">
        <ele>2140</ele>
        <time>2010-01-01T02:00:03Z</time>
      </trkpt>
      <trkpt lat="42.63517" lon="1.89154">
        <ele>2141</ele>
        <time>2010-01-01T02:00:07Z</time>
      </trkpt>
      <trkpt lat="42.63517" lon="1.89167">
        <ele>2142.1</ele>
        <time>2010-01-01T02:00:11Z</time>
      </trkpt>
      <trkpt lat="42.63515" lon="1.89183">
        <ele>2141.3</ele>
        <time>2010-01-01T02:00:16Z</time>
      </trkpt>
      <trkpt lat="42.6351" lon="1.89194">
        <ele>2139.3</ele>
        <time>2010-01-01T02:00:20Z</time>
      </trkpt>
      <trkpt lat="42.63512" lon="1.89206">
        <ele>2139.1</ele>
        <time>2010-01-01T02:00:24Z</time>
      </trkpt>
      <trkpt lat="42.63514" lon="1.89219">
        <ele>2139.1</ele>
        <time>2010-01-01T02:00:27Z</time>
      </trkpt>
      <trkpt lat="42.63517" lon="1.89231">
        <ele>2140</ele>
        <time>2010-01-01T02:00:31Z</time>
      </trkpt>
      <trkpt lat="42.6352" lon="1.89243">
        <ele>2140.8999</ele>
        <time>2010-01-01T02:00:35Z</time>
      </trkpt>
      <trkpt lat="42.63519" lon="1.89255">
        <ele>2141.1</ele>
        <time>2010-01-01T02:00:38Z</time>
      </trkpt>
      <trkpt lat="42.63521" lon="1.89267">
        <ele>2143.1999</ele>
        <time>2010-01-01T02:00:42Z</time>
      </trkpt>
      <trkpt lat="42.63529" lon="1.89274">
        <ele>2148.1</ele>
        <time>2010-01-01T02:00:46Z</time>
      </trkpt>
      <trkpt lat="42.63536" lon="1.89282">
        <ele>2153</ele>
        <time>2010-01-01T02:00:49Z</time>
      </trkpt>
      <trkpt lat="42.63541" lon="1.89292">
        <ele>2157.8999</ele>
        <time>2010-01-01T02:00:53Z</time>
      </trkpt>
      <trkpt lat="42.63548" lon="1.893">
        <ele>2163.1</ele>
        <time>2010-01-01T02:00:57Z</time>
      </trkpt>
      <trkpt lat="42.63555" lon="1.89309">
        <ele>2167.8</ele>
        <time>2010-01-01T02:01:01Z</time>
      </trkpt>
      <trkpt lat="42.63561" lon="1.89319">
        <ele>2172.1999</ele>
        <time>2010-01-01T02:01:04Z</time>
      </trkpt>
      <trkpt lat="42.63566" lon="1.89329">
        <ele>2176.8999</ele>
        <time>2010-01-01T02:01:08Z</time>
      </trkpt>
      <trkpt lat="42.63576" lon="1.89332">
        <ele>2182.6999</ele>
        <time>2010-01-01T02:01:12Z</time>
      </trkpt>
      <trkpt lat="42.63584" lon="1.89338">
        <ele>2187.3</ele>
        <time>2010-01-01T02:01:16Z</time>
      </trkpt>
      <trkpt lat="42.63591" lon="1.89349">
        <ele>2192.6999</ele>
        <time>2010-01-01T02:01:20Z</time>
      </trkpt>
      <trkpt lat="42.63597" lon="1.89359">
        <ele>2198.3</ele>
        <time>2010-01-01T02:01:24Z</time>
      </trkpt>
      <trkpt lat="42.63598" lon="1.89372">
        <ele>2202.3999</ele>
        <time>2010-01-01T02:01:28Z</time>
      </trkpt>
      <trkpt lat="42.63592" lon="1.89382">
        <ele>2201.3999</ele>
        <time>2010-01-01T02:01:31Z</time>
      </trkpt>
      <trkpt lat="42.63597" lon="1.89405">
        <ele>2205</ele>
        <time>2010-01-01T02:01:39Z</time>
      </trkpt>
      <trkpt lat="42.63599" lon="1.89423">
        <ele>2210.6999</ele>
        <time>2010-01-01T02:01:44Z</time>
      </trkpt>
      <trkpt lat="42.63594" lon="1.89434">
        <ele>2213.6999</ele>
        <time>2010-01-01T02:01:48Z</time>
      </trkpt>
      <trkpt lat="42.63588" lon="1.89446">
        <ele>2214.3</ele>
        <time>2010-01-01T02:01:52Z</time>
      </trkpt>
      <trkpt lat="42.63579" lon="1.89452">
        <ele>2211.8999</ele>
        <time>2010-01-01T02:01:56Z</time>
      </trkpt>
      <trkpt lat="42.63573" lon="1.89461">
        <ele>2213.5</ele>
        <time>2010-01-01T02:01:59Z</time>
      </trkpt>
      <trkpt lat="42.63568" lon="1.89472">
        <ele>2216.3</ele>
        <time>2010-01-01T02:02:03Z</time>
      </trkpt>
      <trkpt lat="42.63562" lon="1.89482">
        <ele>2218.8999</ele>
        <time>2010-01-01T02:02:07Z</time>
      </trkpt>
      <trkpt lat="42.63562" lon="1.89495">
        <ele>2223.1999</ele>
        <time>2010-01-01T02:02:11Z</time>
      </trkpt>
      <trkpt lat="42.63566" lon="1.89506">
        <ele>2228.8999</ele>
        <time>2010-01-01T02:02:14Z</time>
      </trkpt>
      <trkpt lat="42.63566" lon="1.8952">
        <ele>2235</ele>
        <time>2010-01-01T02:02:18Z</time>
      </trkpt>
      <trkpt lat="42.63557" lon="1.89524">
        <ele>2236.3</ele>
        <time>2010-01-01T02:02:22Z</time>
      </trkpt>
      <trkpt lat="42.63556" lon="1.89536">
        <ele>2241</ele>
        <time>2010-01-01T02:02:26Z</time>
      </trkpt>
      <trkpt lat="42.63546" lon="1.89542">
        <ele>2243.3</ele>
        <time>2010-01-01T02:02:30Z</time>
      </trkpt>
      <trkpt lat="42.63537" lon="1.89546">
        <ele>2243.5</ele>
        <time>2010-01-01T02:02:34Z</time>
      </trkpt>
      <trkpt lat="42.63528" lon="1.89549">
        <ele>2244.3</ele>
        <time>2010-01-01T02:02:38Z</time>
      </trkpt>
      <trkpt lat="42.63519" lon="1.89552">
        <ele>2244.6</ele>
        <time>2010-01-01T02:02:41Z</time>
      </trkpt>
      <trkpt lat="42.63524" lon="1.89563">
        <ele>2250.1999</ele>
        <time>2010-01-01T02:02:45Z</time>
      </trkpt>
      <trkpt lat="42.63526" lon="1.89575">
        <ele>2256.5</ele>
        <time>2010-01-01T02:02:49Z</time>
      </trkpt>
      <trkpt lat="42.63533" lon="1.89586">
        <ele>2262</ele>
        <time>2010-01-01T02:02:53Z</time>
      </trkpt>
      <trkpt lat="42.63528" lon="1.89596">
        <ele>2269.3</ele>
        <time>2010-01-01T02:02:57Z</time>
      </trkpt>
      <trkpt lat="42.63521" lon="1.89605">
        <ele>2275</ele>
        <time>2010-01-01T02:03:00Z</time>
      </trkpt>
      <trkpt lat="42.63513" lon="1.89614">
        <ele>2279.6</ele>
        <time>2010-01-01T02:03:05Z</time>
      </trkpt>
      <trkpt lat="42.63505" lon="1.89621">
        <ele>2284.1999</ele>
        <time>2010-01-01T02:03:08Z</time>
      </trkpt>
      <trkpt lat="42.63496" lon="1.89629">
        <ele>2287.8999</ele>
        <time>2010-01-01T02:03:13Z</time>
      </trkpt>
      <trkpt lat="42.6349" lon="1.89638">
        <ele>2292.6999</ele>
        <time>2010-01-01T02:03:16Z</time>
      </trkpt>
      <trkpt lat="42.63488" lon="1.89651">
        <ele>2300.3999</ele>
        <time>2010-01-01T02:03:20Z</time>
      </trkpt>
      <trkpt lat="42.63485" lon="1.89663">
        <ele>2308.1</ele>
        <time>2010-01-01T02:03:24Z</time>
      </trkpt>
      <trkpt lat="42.6348" lon="1.89673">
        <ele>2314.1999</ele>
        <time>2010-01-01T02:03:28Z</time>
      </trkpt>
      <trkpt lat="42.63473" lon="1.89681">
        <ele>2317.6999</ele>
        <time>2010-01-01T02:03:31Z</time>
      </trkpt>
      <trkpt lat="42.63464" lon="1.89686">
        <ele>2320.1</ele>
        <time>2010-01-01T02:03:35Z</time>
      </trkpt>
      <trkpt lat="42.63456" lon="1.89692">
        <ele>2322.5</ele>
        <time>2010-01-01T02:03:39Z</time>
      </trkpt>
      <trkpt lat="42.63447" lon="1.89697">
        <ele>2323.8999</ele>
        <time>2010-01-01T02:03:43Z</time>
      </trkpt>
      <trkpt lat="42.63439" lon="1.89704">
        <ele>2325.6999</ele>
        <time>2010-01-01T02:03:46Z</time>
      </trkpt>
      <trkpt lat="42.63433" lon="1.89713">
        <ele>2328.3999</ele>
        <time>2010-01-01T02:03:50Z</time>
      </trkpt>
      <trkpt lat="42.6343" lon="1.89724">
        <ele>2331.5</ele>
        <time>2010-01-01T02:03:54Z</time>
      </trkpt>
      <trkpt lat="42.63428" lon="1.89737">
        <ele>2337.1</ele>
        <time>2010-01-01T02:03:58Z</time>
      </trkpt>
      <trkpt lat="42.63429" lon="1.89749">
        <ele>2343</ele>
        <time>2010-01-01T02:04:01Z</time>
      </trkpt>
      <trkpt lat="42.6343" lon="1.89762">
        <ele>2347</ele>
        <time>2010-01-01T02:04:05Z</time>
      </trkpt>
      <trkpt lat="42.63428" lon="1.89775">
        <ele>2352.1</ele>
        <time>2010-01-01T02:04:09Z</time>
      </trkpt>
      <trkpt lat="42.6343" lon="1.89787">
        <ele>2357.5</ele>
        <time>2010-01-01T02:04:12Z</time>
      </trkpt>
      <trkpt lat="42.6343" lon="1.898">
        <ele>2362.3999</ele>
        <time>2010-01-01T02:04:16Z</time>
      </trkpt>
      <trkpt lat="42.63427" lon="1.89812">
        <ele>2366</ele>
        <time>2010-01-01T02:04:20Z</time>
      </trkpt>
      <trkpt lat="42.63424" lon="1.89823">
        <ele>2368.5</ele>
        <time>2010-01-01T02:04:24Z</time>
      </trkpt>
      <trkpt lat="42.6342" lon="1.89834">
        <ele>2370.1999</ele>
        <time>2010-01-01T02:04:27Z</time>
      </trkpt>
      <trkpt lat="42.63415" lon="1.89846">
        <ele>2373.1999</ele>
        <time>2010-01-01T02:04:31Z</time>
      </trkpt>
      <trkpt lat="42.63409" lon="1.89855">
        <ele>2374</ele>
        <time>2010-01-01T02:04:35Z</time>
      </trkpt>
      <trkpt lat="42.63403" lon="1.89864">
        <ele>2374.3999</ele>
        <time>2010-01-01T02:04:38Z</time>
      </trkpt>
      <trkpt lat="42.63395" lon="1.8987">
        <ele>2373.6999</ele>
        <time>2010-01-01T02:04:42Z</time>
      </trkpt>
      <trkpt lat="42.63391" lon="1.89881">
        <ele>2375.6</ele>
        <time>2010-01-01T02:04:46Z</time>
      </trkpt>
      <trkpt lat="42.6339" lon="1.89894">
        <ele>2379.5</ele>
        <time>2010-01-01T02:04:49Z</time>
      </trkpt>
      <trkpt lat="42.63388" lon="1.89906">
        <ele>2383.6</ele>
        <time>2010-01-01T02:04:53Z</time>
      </trkpt>
      <trkpt lat="42.63383" lon="1.89916">
        <ele>2384.8</ele>
        <time>2010-01-01T02:04:57Z</time>
      </trkpt>
      <trkpt lat="42.63376" lon="1.89925">
        <ele>2385.6999</ele>
        <time>2010-01-01T02:05:01Z</time>
      </trkpt>
      <trkpt lat="42.63367" lon="1.89935">
        <ele>2385.8</ele>
        <time>2010-01-01T02:05:05Z</time>
      </trkpt>
      <trkpt lat="42.63359" lon="1.89941">
        <ele>2385.8</ele>
        <time>2010-01-01T02:05:09Z</time>
      </trkpt>
      <trkpt lat="42.63346" lon="1.89958">
        <ele>2387</ele>
        <time>2010-01-01T02:05:16Z</time>
      </trkpt>
      <trkpt lat="42.63339" lon="1.89964">
        <ele>2386.8999</ele>
        <time>2010-01-01T02:05:20Z</time>
      </trkpt>
      <trkpt lat="42.63331" lon="1.89972">
        <ele>2387.6999</ele>
        <time>2010-01-01T02:05:23Z</time>
      </trkpt>
      <trkpt lat="42.63323" lon="1.89979">
        <ele>2389.8</ele>
        <time>2010-01-01T02:05:27Z</time>
      </trkpt>
      <trkpt lat="42.63312" lon="1.89986">
        <ele>2391.8999</ele>
        <time>2010-01-01T02:05:32Z</time>
      </trkpt>
      <trkpt lat="42.63304" lon="1.89993">
        <ele>2394.5</ele>
        <time>2010-01-01T02:05:36Z</time>
      </trkpt>
      <trkpt lat="42.63297" lon="1.90001">
        <ele>2397</ele>
        <time>2010-01-01T02:05:39Z</time>
      </trkpt>
      <trkpt lat="42.63291" lon="1.90011">
        <ele>2402.6999</ele>
        <time>2010-01-01T02:05:43Z</time>
      </trkpt>
      <trkpt lat="42.63282" lon="1.90017">
        <ele>2405</ele>
        <time>2010-01-01T02:05:47Z</time>
      </trkpt>
      <trkpt lat="42.63273" lon="1.90023">
        <ele>2407.6</ele>
        <time>2010-01-01T02:05:51Z</time>
      </trkpt>
      <trkpt lat="42.63266" lon="1.90032">
        <ele>2412.1999</ele>
        <time>2010-01-01T02:05:55Z</time>
      </trkpt>
      <trkpt lat="42.63258" lon="1.90036">
        <ele>2414.8999</ele>
        <time>2010-01-01T02:05:59Z</time>
      </trkpt>
      <trkpt lat="42.63246" lon="1.90039">
        <ele>2417.8</ele>
        <time>2010-01-01T02:06:03Z</time>
      </trkpt>
      <trkpt lat="42.63238" lon="1.90044">
        <ele>2421.3</ele>
        <time>2010-01-01T02:06:07Z</time>
      </trkpt>
      <trkpt lat="42.63229" lon="1.90051">
        <ele>2426</ele>
        <time>2010-01-01T02:06:11Z</time>
      </trkpt>
      <trkpt lat="42.6322" lon="1.90048">
        <ele>2427</ele>
        <time>2010-01-01T02:06:15Z</time>
      </trkpt>
      <trkpt lat="42.6321" lon="1.90046">
        <ele>2427.5</ele>
        <time>2010-01-01T02:06:19Z</time>
      </trkpt>
      <trkpt lat="42.63203" lon="1.90054">
        <ele>2431.1999</ele>
        <time>2010-01-01T02:06:23Z</time>
      </trkpt>
      <trkpt lat="42.63195" lon="1.90066">
        <ele>2435.6999</ele>
        <time>2010-01-01T02:06:27Z</time>
      </trkpt>
      <trkpt lat="42.63192" lon="1.90079">
        <ele>2440.3999</ele>
        <time>2010-01-01T02:06:31Z</time>
      </trkpt>
      <trkpt lat="42.63188" lon="1.90091">
        <ele>2446.1</ele>
        <time>2010-01-01T02:06:35Z</time>
      </trkpt>
      <trkpt lat="42.63183" lon="1.90101">
        <ele>2451.1</ele>
        <time>2010-01-01T02:06:39Z</time>
      </trkpt>
      <trkpt lat="42.63174" lon="1.90105">
        <ele>2452.1</ele>
        <time>2010-01-01T02:06:43Z</time>
      </trkpt>
      <trkpt lat="42.63165" lon="1.90108">
        <ele>2453.3</ele>
        <time>2010-01-01T02:06:46Z</time>
      </trkpt>
      <trkpt lat="42.63155" lon="1.90109">
        <ele>2454.8</ele>
        <time>2010-01-01T02:06:50Z</time>
      </trkpt>
      <trkpt lat="42.63146" lon="1.90107">
        <ele>2455.3999</ele>
        <time>2010-01-01T02:06:54Z</time>
      </trkpt>
      <trkpt lat="42.63137" lon="1.90107">
        <ele>2456.8999</ele>
        <time>2010-01-01T02:06:58Z</time>
      </trkpt>
      <trkpt lat="42.63128" lon="1.90103">
        <ele>2457</ele>
        <time>2010-01-01T02:07:01Z</time>
      </trkpt>
      <trkpt lat="42.63118" lon="1.901">
        <ele>2457.5</ele>
        <time>2010-01-01T02:07:05Z</time>
      </trkpt>
      <trkpt lat="42.63112" lon="1.90091">
        <ele>2457</ele>
        <time>2010-01-01T02:07:09Z</time>
      </trkpt>
      <trkpt lat="42.63104" lon="1.90085">
        <ele>2457.5</ele>
        <time>2010-01-01T02:07:13Z</time>
      </trkpt>
      <trkpt lat="42.63095" lon="1.90081">
        <ele>2458.5</ele>
        <time>2010-01-01T02:07:16Z</time>
      </trkpt>
      <trkpt lat="42.63088" lon="1.9009">
        <ele>2461.3999</ele>
        <time>2010-01-01T02:07:20Z</time>
      </trkpt>
      <trkpt lat="42.63078" lon="1.90088">
        <ele>2463</ele>
        <time>2010-01-01T02:07:24Z</time>
      </trkpt>
      <trkpt lat="42.6307" lon="1.90092">
        <ele>2466.8999</ele>
        <time>2010-01-01T02:07:28Z</time>
      </trkpt>
      <trkpt lat="42.63061" lon="1.90097">
        <ele>2470.1</ele>
        <time>2010-01-01T02:07:32Z</time>
      </trkpt>
      <trkpt lat="42.63054" lon="1.90105">
        <ele>2473.1</ele>
        <time>2010-01-01T02:07:35Z</time>
      </trkpt>
      <trkpt lat="42.63045" lon="1.9011">
        <ele>2476</ele>
        <time>2010-01-01T02:07:39Z</time>
      </trkpt>
      <trkpt lat="42.63037" lon="1.90124">
        <ele>2477.3999</ele>
        <time>2010-01-01T02:07:44Z</time>
      </trkpt>
      <trkpt lat="42.63029" lon="1.90128">
        <ele>2480.6999</ele>
        <time>2010-01-01T02:07:48Z</time>
      </trkpt>
      <trkpt lat="42.6302" lon="1.90131">
        <ele>2483</ele>
        <time>2010-01-01T02:07:52Z</time>
      </trkpt>
      <trkpt lat="42.63012" lon="1.90146">
        <ele>2484.3</ele>
        <time>2010-01-01T02:07:57Z</time>
      </trkpt>
      <trkpt lat="42.62992" lon="1.90163">
        <ele>2488</ele>
        <time>2010-01-01T02:08:06Z</time>
      </trkpt>
      <trkpt lat="42.6296" lon="1.90181">
        <ele>2504</ele>
        <time>2010-01-01T02:08:20Z</time>
      </trkpt>
      <trkpt lat="42.6295" lon="1.9018">
        <ele>2513</ele>
        <time>2010-01-01T02:08:24Z</time>
      </trkpt>
      <trkpt lat="42.62944" lon="1.90189">
        <ele>2516.3999</ele>
        <time>2010-01-01T02:08:28Z</time>
      </trkpt>
      <trkpt lat="42.62938" lon="1.902">
        <ele>2522.6</ele>
        <time>2010-01-01T02:08:32Z</time>
      </trkpt>
      <trkpt lat="42.62938" lon="1.90212">
        <ele>2524.8</ele>
        <time>2010-01-01T02:08:36Z</time>
      </trkpt>
      <trkpt lat="42.62933" lon="1.90222">
        <ele>2529.1</ele>
        <time>2010-01-01T02:08:39Z</time>
      </trkpt>
      <trkpt lat="42.62926" lon="1.90231">
        <ele>2533.8</ele>
        <time>2010-01-01T02:08:43Z</time>
      </trkpt>
      <trkpt lat="42.6292" lon="1.90241">
        <ele>2538.1</ele>
        <time>2010-01-01T02:08:47Z</time>
      </trkpt>
      <trkpt lat="42.62914" lon="1.9025">
        <ele>2542.8</ele>
        <time>2010-01-01T02:08:50Z</time>
      </trkpt>
      <trkpt lat="42.62901" lon="1.90266">
        <ele>2551</ele>
        <time>2010-01-01T02:08:57Z</time>
      </trkpt>
      <trkpt lat="42.62892" lon="1.903">
        <ele>2569</ele>
        <time>2010-01-01T02:09:08Z</time>
      </trkpt>
      <trkpt lat="42.62872" lon="1.90314">
        <ele>2585</ele>
        <time>2010-01-01T02:09:17Z</time>
      </trkpt>
      <trkpt lat="42.6286" lon="1.90311">
        <ele>2594.3</ele>
        <time>2010-01-01T02:09:22Z</time>
      </trkpt>
      <trkpt lat="42.62841" lon="1.90326">
        <ele>2610</ele>
        <time>2010-01-01T02:09:31Z</time>
      </trkpt>
      <trkpt lat="42.62838" lon="1.90314">
        <ele>2612.8</ele>
        <time>2010-01-01T02:09:34Z</time>
      </trkpt>
      <trkpt lat="42.62839" lon="1.90302">
        <ele>2606.6999</ele>
        <time>2010-01-01T02:09:38Z</time>
      </trkpt>
      <trkpt lat="42.62841" lon="1.90289">
        <ele>2599.8</ele>
        <time>2010-01-01T02:09:42Z</time>
      </trkpt>
      <trkpt lat="42.6284" lon="1.90277">
        <ele>2594.1999</ele>
        <time>2010-01-01T02:09:45Z</time>
      </trkpt>
      <trkpt lat="42.62839" lon="1.90265">
        <ele>2588.6999</ele>
        <time>2010-01-01T02:09:49Z</time>
      </trkpt>
      <trkpt lat="42.6284" lon="1.90251">
        <ele>2581.3999</ele>
        <time>2010-01-01T02:09:53Z</time>
      </trkpt>
      <trkpt lat="42.62844" lon="1.90239">
        <ele>2581.1999</ele>
        <time>2010-01-01T02:09:57Z</time>
      </trkpt>
      <trkpt lat="42.62841" lon="1.90227">
        <ele>2586.1</ele>
        <time>2010-01-01T02:10:01Z</time>
      </trkpt>
      <trkpt lat="42.62839" lon="1.90215">
        <ele>2591.3</ele>
        <time>2010-01-01T02:10:04Z</time>
      </trkpt>
      <trkpt lat="42.62842" lon="1.90201">
        <ele>2593.8</ele>
        <time>2010-01-01T02:10:08Z</time>
      </trkpt>
      <trkpt lat="42.62844" lon="1.90201">
        <ele>2592</ele>
        <time>2010-01-01T02:10:09Z</time>
      </trkpt>
      <trkpt lat="42.62851" lon="1.902">
        <ele>2577.9365</ele>
        <time>2010-01-01T02:10:12Z</time>
      </trkpt>
      <trkpt lat="42.62851" lon="1.902">
        <ele>2580.2277</ele>
        <time>2010-01-01T02:10:12Z</time>
      </trkpt>
      <trkpt lat="42.62841" lon="1.90207">
        <ele>2592.0825</ele>
        <time>2010-01-01T02:10:16Z</time>
      </trkpt>
      <trkpt lat="42.62841" lon="1.90219">
        <ele>2590.1999</ele>
        <time>2010-01-01T02:10:20Z</time>
      </trkpt>
      <trkpt lat="42.62845" lon="1.9023">
        <ele>2584.8</ele>
        <time>2010-01-01T02:10:23Z</time>
      </trkpt>
      <trkpt lat="42.62846" lon="1.90242">
        <ele>2580.3999</ele>
        <time>2010-01-01T02:10:27Z</time>
      </trkpt>
      <trkpt lat="42.62846" lon="1.90255">
        <ele>2579.6</ele>
        <time>2010-01-01T02:10:31Z</time>
      </trkpt>
      <trkpt lat="42.62843" lon="1.90267">
        <ele>2585.3999</ele>
        <time>2010-01-01T02:10:35Z</time>
      </trkpt>
      <trkpt lat="42.62844" lon="1.9028">
        <ele>2591.3999</ele>
        <time>2010-01-01T02:10:38Z</time>
      </trkpt>
      <trkpt lat="42.62849" lon="1.90291">
        <ele>2593.6999</ele>
        <time>2010-01-01T02:10:42Z</time>
      </trkpt>
      <trkpt lat="42.62844" lon="1.90302">
        <ele>2601</ele>
        <time>2010-01-01T02:10:46Z</time>
      </trkpt>
      <trkpt lat="42.62839" lon="1.90313">
        <ele>2609.6</ele>
        <time>2010-01-01T02:10:50Z</time>
      </trkpt>
      <trkpt lat="42.62834" lon="1.90324">
        <ele>2618.1</ele>
        <time>2010-01-01T02:10:53Z</time>
      </trkpt>
      <trkpt lat="42.62826" lon="1.90329">
        <ele>2624.1999</ele>
        <time>2010-01-01T02:10:57Z</time>
      </trkpt>
      <trkpt lat="42.62819" lon="1.90338">
        <ele>2629.8999</ele>
        <time>2010-01-01T02:11:01Z</time>
      </trkpt>
      <trkpt lat="42.62813" lon="1.90347">
        <ele>2633.6999</ele>
        <time>2010-01-01T02:11:04Z</time>
      </trkpt>
      <trkpt lat="42.6281" lon="1.90359">
        <ele>2636.5</ele>
        <time>2010-01-01T02:11:08Z</time>
      </trkpt>
      <trkpt lat="42.62806" lon="1.9037">
        <ele>2639.1</ele>
        <time>2010-01-01T02:11:12Z</time>
      </trkpt>
      <trkpt lat="42.62798" lon="1.90376">
        <ele>2640.8</ele>
        <time>2010-01-01T02:11:15Z</time>
      </trkpt>
      <trkpt lat="42.62791" lon="1.90385">
        <ele>2641.8</ele>
        <time>2010-01-01T02:11:19Z</time>
      </trkpt>
      <trkpt lat="42.62785" lon="1.90394">
        <ele>2642.1</ele>
        <time>2010-01-01T02:11:23Z</time>
      </trkpt>
      <trkpt lat="42.62785" lon="1.90406">
        <ele>2642.3</ele>
        <time>2010-01-01T02:11:26Z</time>
      </trkpt>
      <trkpt lat="42.62783" lon="1.90419">
        <ele>2642.1999</ele>
        <time>2010-01-01T02:11:30Z</time>
      </trkpt>
      <trkpt lat="42.62773" lon="1.90422">
        <ele>2639.5</ele>
        <time>2010-01-01T02:11:34Z</time>
      </trkpt>
      <trkpt lat="42.62765" lon="1.90428">
        <ele>2635.8999</ele>
        <time>2010-01-01T02:11:38Z</time>
      </trkpt>
      <trkpt lat="42.62762" lon="1.9044">
        <ele>2630.1999</ele>
        <time>2010-01-01T02:11:42Z</time>
      </trkpt>
      <trkpt lat="42.62759" lon="1.90452">
        <ele>2625.1</ele>
        <time>2010-01-01T02:11:45Z</time>
      </trkpt>
      <trkpt lat="42.62761" lon="1.90464">
        <ele>2620.3</ele>
        <time>2010-01-01T02:11:49Z</time>
      </trkpt>
      <trkpt lat="42.62752" lon="1.90469">
        <ele>2615.3</ele>
        <time>2010-01-01T02:11:53Z</time>
      </trkpt>
      <trkpt lat="42.6275" lon="1.90481">
        <ele>2609</ele>
        <time>2010-01-01T02:11:56Z</time>
      </trkpt>
      <trkpt lat="42.62755" lon="1.90492">
        <ele>2606.1</ele>
        <time>2010-01-01T02:12:00Z</time>
      </trkpt>
      <trkpt lat="42.62755" lon="1.90505">
        <ele>2602.3</ele>
        <time>2010-01-01T02:12:04Z</time>
      </trkpt>
      <trkpt lat="42.62754" lon="1.90518">
        <ele>2598.5</ele>
        <time>2010-01-01T02:12:08Z</time>
      </trkpt>
      <trkpt lat="42.62747" lon="1.90528">
        <ele>2592.6999</ele>
        <time>2010-01-01T02:12:12Z</time>
      </trkpt>
      <trkpt lat="42.62739" lon="1.90534">
        <ele>2586.6</ele>
        <time>2010-01-01T02:12:16Z</time>
      </trkpt>
      <trkpt lat="42.62731" lon="1.90539">
        <ele>2581.8999</ele>
        <time>2010-01-01T02:12:19Z</time>
      </trkpt>
      <trkpt lat="42.62724" lon="1.90548">
        <ele>2576.6999</ele>
        <time>2010-01-01T02:12:23Z</time>
      </trkpt>
      <trkpt lat="42.62717" lon="1.90555">
        <ele>2572.1</ele>
        <time>2010-01-01T02:12:27Z</time>
      </trkpt>
      <trkpt lat="42.62708" lon="1.90561">
        <ele>2567.3</ele>
        <time>2010-01-01T02:12:30Z</time>
      </trkpt>
      <trkpt lat="42.627" lon="1.90565">
        <ele>2562.6999</ele>
        <time>2010-01-01T02:12:34Z</time>
      </trkpt>
      <trkpt lat="42.62692" lon="1.90574">
        <ele>2558.3</ele>
        <time>2010-01-01T02:12:38Z</time>
      </trkpt>
      <trkpt lat="42.62685" lon="1.90581">
        <ele>2554.1</ele>
        <time>2010-01-01T02:12:42Z</time>
      </trkpt>
      <trkpt lat="42.62677" lon="1.90588">
        <ele>2549.1</ele>
        <time>2010-01-01T02:12:45Z</time>
      </trkpt>
      <trkpt lat="42.62672" lon="1.90599">
        <ele>2544.3999</ele>
        <time>2010-01-01T02:12:49Z</time>
      </trkpt>
      <trkpt lat="42.62665" lon="1.90607">
        <ele>2541.1</ele>
        <time>2010-01-01T02:12:53Z</time>
      </trkpt>
      <trkpt lat="42.62662" lon="1.90619">
        <ele>2538</ele>
        <time>2010-01-01T02:12:56Z</time>
      </trkpt>
      <trkpt lat="42.62655" lon="1.90626">
        <ele>2535.5</ele>
        <time>2010-01-01T02:13:00Z</time>
      </trkpt>
      <trkpt lat="42.6265" lon="1.90637">
        <ele>2533.1999</ele>
        <time>2010-01-01T02:13:04Z</time>
      </trkpt>
      <trkpt lat="42.62647" lon="1.9065">
        <ele>2531.1</ele>
        <time>2010-01-01T02:13:07Z</time>
      </trkpt>
      <trkpt lat="42.62639" lon="1.90654">
        <ele>2529.6999</ele>
        <time>2010-01-01T02:13:11Z</time>
      </trkpt>
      <trkpt lat="42.6263" lon="1.9065">
        <ele>2529.3</ele>
        <time>2010-01-01T02:13:15Z</time>
      </trkpt>
      <trkpt lat="42.62622" lon="1.90644">
        <ele>2529.1</ele>
        <time>2010-01-01T02:13:18Z</time>
      </trkpt>
      <trkpt lat="42.62615" lon="1.90634">
        <ele>2529.3</ele>
        <time>2010-01-01T02:13:22Z</time>
      </trkpt>
      <trkpt lat="42.62611" lon="1.90645">
        <ele>2528.1</ele>
        <time>2010-01-01T02:13:26Z</time>
      </trkpt>
      <trkpt lat="42.62602" lon="1.90647">
        <ele>2527</ele>
        <time>2010-01-01T02:13:30Z</time>
      </trkpt>
      <trkpt lat="42.62595" lon="1.90638">
        <ele>2526.6999</ele>
        <time>2010-01-01T02:13:33Z</time>
      </trkpt>
      <trkpt lat="42.62586" lon="1.90641">
        <ele>2525.8</ele>
        <time>2010-01-01T02:13:37Z</time>
      </trkpt>
      <trkpt lat="42.62579" lon="1.90633">
        <ele>2526.8</ele>
        <time>2010-01-01T02:13:41Z</time>
      </trkpt>
      <trkpt lat="42.62573" lon="1.90644">
        <ele>2528.8</ele>
        <time>2010-01-01T02:13:45Z</time>
      </trkpt>
      <trkpt lat="42.62568" lon="1.90654">
        <ele>2530.3</ele>
        <time>2010-01-01T02:13:48Z</time>
      </trkpt>
      <trkpt lat="42.62563" lon="1.90643">
        <ele>2532.6</ele>
        <time>2010-01-01T02:13:52Z</time>
      </trkpt>
      <trkpt lat="42.62555" lon="1.90637">
        <ele>2535.5</ele>
        <time>2010-01-01T02:13:56Z</time>
      </trkpt>
      <trkpt lat="42.62551" lon="1.90626">
        <ele>2537.8999</ele>
        <time>2010-01-01T02:13:59Z</time>
      </trkpt>
      <trkpt lat="42.62543" lon="1.90619">
        <ele>2541.1</ele>
        <time>2010-01-01T02:14:03Z</time>
      </trkpt>
      <trkpt lat="42.62536" lon="1.9061">
        <ele>2544.5</ele>
        <time>2010-01-01T02:14:07Z</time>
      </trkpt>
      <trkpt lat="42.62529" lon="1.90603">
        <ele>2548.3999</ele>
        <time>2010-01-01T02:14:10Z</time>
      </trkpt>
      <trkpt lat="42.62524" lon="1.9059">
        <ele>2550.8999</ele>
        <time>2010-01-01T02:14:15Z</time>
      </trkpt>
      <trkpt lat="42.62516" lon="1.90582">
        <ele>2554.3</ele>
        <time>2010-01-01T02:14:18Z</time>
      </trkpt>
      <trkpt lat="42.62507" lon="1.90582">
        <ele>2559</ele>
        <time>2010-01-01T02:14:22Z</time>
      </trkpt>
      <trkpt lat="42.62498" lon="1.90584">
        <ele>2563.1</ele>
        <time>2010-01-01T02:14:26Z</time>
      </trkpt>
      <trkpt lat="42.62489" lon="1.90584">
        <ele>2567.6999</ele>
        <time>2010-01-01T02:14:30Z</time>
      </trkpt>
      <trkpt lat="42.6248" lon="1.90582">
        <ele>2572</ele>
        <time>2010-01-01T02:14:33Z</time>
      </trkpt>
      <trkpt lat="42.62471" lon="1.90583">
        <ele>2576.3</ele>
        <time>2010-01-01T02:14:37Z</time>
      </trkpt>
      <trkpt lat="42.62462" lon="1.90573">
        <ele>2579.6999</ele>
        <time>2010-01-01T02:14:41Z</time>
      </trkpt>
      <trkpt lat="42.62453" lon="1.90577">
        <ele>2584.1999</ele>
        <time>2010-01-01T02:14:45Z</time>
      </trkpt>
      <trkpt lat="42.62447" lon="1.90568">
        <ele>2586.5</ele>
        <time>2010-01-01T02:14:49Z</time>
      </trkpt>
      <trkpt lat="42.62456" lon="1.9055">
        <ele>2584</ele>
        <time>2010-01-01T02:14:55Z</time>
      </trkpt>
      <trkpt lat="42.62455" lon="1.90538">
        <ele>2581.1999</ele>
        <time>2010-01-01T02:14:59Z</time>
      </trkpt>
      <trkpt lat="42.62462" lon="1.90528">
        <ele>2576.6999</ele>
        <time>2010-01-01T02:15:02Z</time>
      </trkpt>
      <trkpt lat="42.62458" lon="1.90517">
        <ele>2577.1</ele>
        <time>2010-01-01T02:15:06Z</time>
      </trkpt>
      <trkpt lat="42.6246" lon="1.90505">
        <ele>2575.8999</ele>
        <time>2010-01-01T02:15:10Z</time>
      </trkpt>
      <trkpt lat="42.62461" lon="1.90493">
        <ele>2575.8999</ele>
        <time>2010-01-01T02:15:14Z</time>
      </trkpt>
      <trkpt lat="42.62461" lon="1.90479">
        <ele>2577.8999</ele>
        <time>2010-01-01T02:15:17Z</time>
      </trkpt>
      <trkpt lat="42.62458" lon="1.90468">
        <ele>2583.1999</ele>
        <time>2010-01-01T02:15:21Z</time>
      </trkpt>
      <trkpt lat="42.62454" lon="1.90456">
        <ele>2587.8999</ele>
        <time>2010-01-01T02:15:25Z</time>
      </trkpt>
      <trkpt lat="42.62455" lon="1.90444">
        <ele>2590.5</ele>
        <time>2010-01-01T02:15:28Z</time>
      </trkpt>
      <trkpt lat="42.62455" lon="1.90438">
        <ele>2591.6999</ele>
        <time>2010-01-01T02:15:30Z</time>
      </trkpt>
      <trkpt lat="42.62455" lon="1.90444">
        <ele>2590.5</ele>
        <time>2010-01-01T02:15:30Z</time>
      </trkpt>
      <trkpt lat="42.62454" lon="1.90456">
        <ele>2587.8999</ele>
        <time>2010-01-01T02:15:34Z</time>
      </trkpt>
      <trkpt lat="42.62458" lon="1.90468">
        <ele>2583.1999</ele>
        <time>2010-01-01T02:15:38Z</time>
      </trkpt>
      <trkpt lat="42.62461" lon="1.90479">
        <ele>2577.8999</ele>
        <time>2010-01-01T02:15:41Z</time>
      </trkpt>
      <trkpt lat="42.62461" lon="1.90493">
        <ele>2575.8999</ele>
        <time>2010-01-01T02:15:45Z</time>
      </trkpt>
      <trkpt lat="42.6246" lon="1.90505">
        <ele>2575.8999</ele>
        <time>2010-01-01T02:15:49Z</time>
      </trkpt>
      <trkpt lat="42.62458" lon="1.90517">
        <ele>2577.1</ele>
        <time>2010-01-01T02:15:52Z</time>
      </trkpt>
      <trkpt lat="42.62462" lon="1.90528">
        <ele>2576.6999</ele>
        <time>2010-01-01T02:15:56Z</time>
      </trkpt>
      <trkpt lat="42.62455" lon="1.90538">
        <ele>2581.1999</ele>
        <time>2010-01-01T02:16:00Z</time>
      </trkpt>
      <trkpt lat="42.62456" lon="1.9055">
        <ele>2584</ele>
        <time>2010-01-01T02:16:04Z</time>
      </trkpt>
      <trkpt lat="42.62447" lon="1.90568">
        <ele>2586.5</ele>
        <time>2010-01-01T02:16:10Z</time>
      </trkpt>
      <trkpt lat="42.62453" lon="1.90577">
        <ele>2584.1999</ele>
        <time>2010-01-01T02:16:14Z</time>
      </trkpt>
      <trkpt lat="42.62462" lon="1.90573">
        <ele>2579.6999</ele>
        <time>2010-01-01T02:16:17Z</time>
      </trkpt>
      <trkpt lat="42.62471" lon="1.90583">
        <ele>2576.3</ele>
        <time>2010-01-01T02:16:22Z</time>
      </trkpt>
      <trkpt lat="42.6248" lon="1.90582">
        <ele>2572</ele>
        <time>2010-01-01T02:16:25Z</time>
      </trkpt>
      <trkpt lat="42.62489" lon="1.90584">
        <ele>2567.6999</ele>
        <time>2010-01-01T02:16:29Z</time>
      </trkpt>
      <trkpt lat="42.62498" lon="1.90584">
        <ele>2563.1</ele>
        <time>2010-01-01T02:16:33Z</time>
      </trkpt>
      <trkpt lat="42.62507" lon="1.90582">
        <ele>2559</ele>
        <time>2010-01-01T02:16:36Z</time>
      </trkpt>
      <trkpt lat="42.62516" lon="1.90582">
        <ele>2554.3</ele>
        <time>2010-01-01T02:16:40Z</time>
      </trkpt>
      <trkpt lat="42.62524" lon="1.9059">
        <ele>2550.8999</ele>
        <time>2010-01-01T02:16:44Z</time>
      </trkpt>
      <trkpt lat="42.62529" lon="1.90603">
        <ele>2548.3999</ele>
        <time>2010-01-01T02:16:48Z</time>
      </trkpt>
      <trkpt lat="42.62536" lon="1.9061">
        <ele>2544.5</ele>
        <time>2010-01-01T02:16:52Z</time>
      </trkpt>
      <trkpt lat="42.62543" lon="1.90619">
        <ele>2541.1</ele>
        <time>2010-01-01T02:16:56Z</time>
      </trkpt>
      <trkpt lat="42.62551" lon="1.90626">
        <ele>2537.8999</ele>
        <time>2010-01-01T02:16:59Z</time>
      </trkpt>
      <trkpt lat="42.62555" lon="1.90637">
        <ele>2535.5</ele>
        <time>2010-01-01T02:17:03Z</time>
      </trkpt>
      <trkpt lat="42.62563" lon="1.90643">
        <ele>2532.6</ele>
        <time>2010-01-01T02:17:07Z</time>
      </trkpt>
      <trkpt lat="42.62568" lon="1.90654">
        <ele>2530.3</ele>
        <time>2010-01-01T02:17:11Z</time>
      </trkpt>
      <trkpt lat="42.62573" lon="1.90644">
        <ele>2528.8</ele>
        <time>2010-01-01T02:17:14Z</time>
      </trkpt>
      <trkpt lat="42.62579" lon="1.90633">
        <ele>2526.8</ele>
        <time>2010-01-01T02:17:18Z</time>
      </trkpt>
      <trkpt lat="42.62586" lon="1.90641">
        <ele>2525.8</ele>
        <time>2010-01-01T02:17:22Z</time>
      </trkpt>
      <trkpt lat="42.62595" lon="1.90638">
        <ele>2526.6999</ele>
        <time>2010-01-01T02:17:25Z</time>
      </trkpt>
      <trkpt lat="42.62602" lon="1.90647">
        <ele>2527</ele>
        <time>2010-01-01T02:17:29Z</time>
      </trkpt>
      <trkpt lat="42.62611" lon="1.90645">
        <ele>2528.1</ele>
        <time>2010-01-01T02:17:33Z</time>
      </trkpt>
      <trkpt lat="42.62615" lon="1.90634">
        <ele>2529.3</ele>
        <time>2010-01-01T02:17:36Z</time>
      </trkpt>
      <trkpt lat="42.62622" lon="1.90644">
        <ele>2529.1</ele>
        <time>2010-01-01T02:17:40Z</time>
      </trkpt>
      <trkpt lat="42.6263" lon="1.9065">
        <ele>2529.3</ele>
        <time>2010-01-01T02:17:44Z</time>
      </trkpt>
      <trkpt lat="42.62639" lon="1.90654">
        <ele>2529.6999</ele>
        <time>2010-01-01T02:17:48Z</time>
      </trkpt>
      <trkpt lat="42.62647" lon="1.9065">
        <ele>2531.1</ele>
        <time>2010-01-01T02:17:51Z</time>
      </trkpt>
      <trkpt lat="42.6265" lon="1.90637">
        <ele>2533.1999</ele>
        <time>2010-01-01T02:17:55Z</time>
      </trkpt>
      <trkpt lat="42.62655" lon="1.90626">
        <ele>2535.5</ele>
        <time>2010-01-01T02:17:59Z</time>
      </trkpt>
      <trkpt lat="42.62662" lon="1.90619">
        <ele>2538</ele>
        <time>2010-01-01T02:18:02Z</time>
      </trkpt>
      <trkpt lat="42.62665" lon="1.90607">
        <ele>2541.1</ele>
        <time>2010-01-01T02:18:06Z</time>
      </trkpt>
      <trkpt lat="42.62672" lon="1.90599">
        <ele>2544.3999</ele>
        <time>2010-01-01T02:18:10Z</time>
      </trkpt>
      <trkpt lat="42.62677" lon="1.90588">
        <ele>2549.1</ele>
        <time>2010-01-01T02:18:13Z</time>
      </trkpt>
      <trkpt lat="42.62685" lon="1.90581">
        <ele>2554.1</ele>
        <time>2010-01-01T02:18:17Z</time>
      </trkpt>
      <trkpt lat="42.62692" lon="1.90574">
        <ele>2558.3</ele>
        <time>2010-01-01T02:18:21Z</time>
      </trkpt>
      <trkpt lat="42.627" lon="1.90565">
        <ele>2562.6999</ele>
        <time>2010-01-01T02:18:25Z</time>
      </trkpt>
      <trkpt lat="42.62708" lon="1.90561">
        <ele>2567.3</ele>
        <time>2010-01-01T02:18:28Z</time>
      </trkpt>
      <trkpt lat="42.62717" lon="1.90555">
        <ele>2572.1</ele>
        <time>2010-01-01T02:18:32Z</time>
      </trkpt>
      <trkpt lat="42.62724" lon="1.90548">
        <ele>2576.6999</ele>
        <time>2010-01-01T02:18:36Z</time>
      </trkpt>
      <trkpt lat="42.62731" lon="1.90539">
        <ele>2581.8999</ele>
        <time>2010-01-01T02:18:39Z</time>
      </trkpt>
      <trkpt lat="42.62739" lon="1.90534">
        <ele>2586.6</ele>
        <time>2010-01-01T02:18:43Z</time>
      </trkpt>
      <trkpt lat="42.62747" lon="1.90528">
        <ele>2592.6999</ele>
        <time>2010-01-01T02:18:47Z</time>
      </trkpt>
      <trkpt lat="42.62754" lon="1.90518">
        <ele>2598.5</ele>
        <time>2010-01-01T02:18:51Z</time>
      </trkpt>
      <trkpt lat="42.62755" lon="1.90505">
        <ele>2602.3</ele>
        <time>2010-01-01T02:18:55Z</time>
      </trkpt>
      <trkpt lat="42.62755" lon="1.90492">
        <ele>2606.1</ele>
        <time>2010-01-01T02:18:59Z</time>
      </trkpt>
      <trkpt lat="42.6275" lon="1.90481">
        <ele>2609</ele>
        <time>2010-01-01T02:19:02Z</time>
      </trkpt>
      <trkpt lat="42.62752" lon="1.90469">
        <ele>2615.3</ele>
        <time>2010-01-01T02:19:06Z</time>
      </trkpt>
      <trkpt lat="42.62761" lon="1.90464">
        <ele>2620.3</ele>
        <time>2010-01-01T02:19:10Z</time>
      </trkpt>
      <trkpt lat="42.62759" lon="1.90452">
        <ele>2625.1</ele>
        <time>2010-01-01T02:19:13Z</time>
      </trkpt>
      <trkpt lat="42.62762" lon="1.9044">
        <ele>2630.1999</ele>
        <time>2010-01-01T02:19:17Z</time>
      </trkpt>
      <trkpt lat="42.62765" lon="1.90428">
        <ele>2635.8999</ele>
        <time>2010-01-01T02:19:21Z</time>
      </trkpt>
      <trkpt lat="42.62773" lon="1.90422">
        <ele>2639.5</ele>
        <time>2010-01-01T02:19:25Z</time>
      </trkpt>
      <trkpt lat="42.62783" lon="1.90419">
        <ele>2642.1999</ele>
        <time>2010-01-01T02:19:28Z</time>
      </trkpt>
      <trkpt lat="42.62785" lon="1.90406">
        <ele>2642.3</ele>
        <time>2010-01-01T02:19:32Z</time>
      </trkpt>
      <trkpt lat="42.62785" lon="1.90394">
        <ele>2642.1</ele>
        <time>2010-01-01T02:19:36Z</time>
      </trkpt>
      <trkpt lat="42.62791" lon="1.90385">
        <ele>2641.8</ele>
        <time>2010-01-01T02:19:39Z</time>
      </trkpt>
      <trkpt lat="42.62798" lon="1.90376">
        <ele>2640.8</ele>
        <time>2010-01-01T02:19:43Z</time>
      </trkpt>
      <trkpt lat="42.62806" lon="1.9037">
        <ele>2639.1</ele>
        <time>2010-01-01T02:19:47Z</time>
      </trkpt>
      <trkpt lat="42.6281" lon="1.90359">
        <ele>2636.5</ele>
        <time>2010-01-01T02:19:51Z</time>
      </trkpt>
      <trkpt lat="42.62813" lon="1.90347">
        <ele>2633.6999</ele>
        <time>2010-01-01T02:19:54Z</time>
      </trkpt>
      <trkpt lat="42.62819" lon="1.90338">
        <ele>2629.8999</ele>
        <time>2010-01-01T02:19:58Z</time>
      </trkpt>
      <trkpt lat="42.62826" lon="1.90329">
        <ele>2624.1999</ele>
        <time>2010-01-01T02:20:02Z</time>
      </trkpt>
      <trkpt lat="42.62834" lon="1.90324">
        <ele>2618.1</ele>
        <time>2010-01-01T02:20:05Z</time>
      </trkpt>
      <trkpt lat="42.62839" lon="1.90313">
        <ele>2609.6</ele>
        <time>2010-01-01T02:20:09Z</time>
      </trkpt>
      <trkpt lat="42.62844" lon="1.90302">
        <ele>2601</ele>
        <time>2010-01-01T02:20:13Z</time>
      </trkpt>
      <trkpt lat="42.62849" lon="1.90291">
        <ele>2593.6999</ele>
        <time>2010-01-01T02:20:17Z</time>
      </trkpt>
      <trkpt lat="42.62844" lon="1.9028">
        <ele>2591.3999</ele>
        <time>2010-01-01T02:20:20Z</time>
      </trkpt>
      <trkpt lat="42.62843" lon="1.90267">
        <ele>2585.3999</ele>
        <time>2010-01-01T02:20:24Z</time>
      </trkpt>
      <trkpt lat="42.62846" lon="1.90255">
        <ele>2579.6</ele>
        <time>2010-01-01T02:20:28Z</time>
      </trkpt>
      <trkpt lat="42.62846" lon="1.90242">
        <ele>2580.3999</ele>
        <time>2010-01-01T02:20:31Z</time>
      </trkpt>
      <trkpt lat="42.62845" lon="1.9023">
        <ele>2584.8</ele>
        <time>2010-01-01T02:20:35Z</time>
      </trkpt>
      <trkpt lat="42.62841" lon="1.90219">
        <ele>2590.1999</ele>
        <time>2010-01-01T02:20:39Z</time>
      </trkpt>
      <trkpt lat="42.62841" lon="1.90207">
        <ele>2592.0825</ele>
        <time>2010-01-01T02:20:43Z</time>
      </trkpt>
      <trkpt lat="42.62851" lon="1.902">
        <ele>2580.2277</ele>
        <time>2010-01-01T02:20:47Z</time>
      </trkpt>
      <trkpt lat="42.62844" lon="1.90201">
        <ele>2592</ele>
        <time>2010-01-01T02:20:50Z</time>
      </trkpt>
      <trkpt lat="42.62842" lon="1.90201">
        <ele>2593.8</ele>
        <time>2010-01-01T02:20:50Z</time>
      </trkpt>
      <trkpt lat="42.62839" lon="1.90215">
        <ele>2591.3</ele>
        <time>2010-01-01T02:20:54Z</time>
      </trkpt>
      <trkpt lat="42.62841" lon="1.90227">
        <ele>2586.1</ele>
        <time>2010-01-01T02:20:57Z</time>
      </trkpt>
      <trkpt lat="42.62844" lon="1.90239">
        <ele>2581.1999</ele>
        <time>2010-01-01T02:21:01Z</time>
      </trkpt>
      <trkpt lat="42.6284" lon="1.90251">
        <ele>2581.3999</ele>
        <time>2010-01-01T02:21:05Z</time>
      </trkpt>
      <trkpt lat="42.62839" lon="1.90265">
        <ele>2588.6999</ele>
        <time>2010-01-01T02:21:09Z</time>
      </trkpt>
      <trkpt lat="42.6284" lon="1.90277">
        <ele>2594.1999</ele>
        <time>2010-01-01T02:21:13Z</time>
      </trkpt>
      <trkpt lat="42.62841" lon="1.90289">
        <ele>2599.8</ele>
        <time>2010-01-01T02:21:16Z</time>
      </trkpt>
      <trkpt lat="42.62839" lon="1.90302">
        <ele>2606.6999</ele>
        <time>2010-01-01T02:21:20Z</time>
      </trkpt>
      <trkpt lat="42.62838" lon="1.90314">
        <ele>2612.8</ele>
        <time>2010-01-01T02:21:24Z</time>
      </trkpt>
      <trkpt lat="42.62841" lon="1.90326">
        <ele>2610</ele>
        <time>2010-01-01T02:21:27Z</time>
      </trkpt>
      <trkpt lat="42.6286" lon="1.90311">
        <ele>2594.3</ele>
        <time>2010-01-01T02:21:36Z</time>
      </trkpt>
      <trkpt lat="42.62872" lon="1.90314">
        <ele>2585</ele>
        <time>2010-01-01T02:21:41Z</time>
      </trkpt>
      <trkpt lat="42.62892" lon="1.903">
        <ele>2569</ele>
        <time>2010-01-01T02:21:50Z</time>
      </trkpt>
      <trkpt lat="42.62901" lon="1.90266">
        <ele>2551</ele>
        <time>2010-01-01T02:22:01Z</time>
      </trkpt>
      <trkpt lat="42.62914" lon="1.9025">
        <ele>2542.8</ele>
        <time>2010-01-01T02:22:08Z</time>
      </trkpt>
      <trkpt lat="42.6292" lon="1.90241">
        <ele>2538.1</ele>
        <time>2010-01-01T02:22:11Z</time>
      </trkpt>
      <trkpt lat="42.62926" lon="1.90231">
        <ele>2533.8</ele>
        <time>2010-01-01T02:22:15Z</time>
      </trkpt>
      <trkpt lat="42.62933" lon="1.90222">
        <ele>2529.1</ele>
        <time>2010-01-01T02:22:19Z</time>
      </trkpt>
      <trkpt lat="42.62938" lon="1.90212">
        <ele>2524.8</ele>
        <time>2010-01-01T02:22:22Z</time>
      </trkpt>
      <trkpt lat="42.62938" lon="1.902">
        <ele>2522.6</ele>
        <time>2010-01-01T02:22:26Z</time>
      </trkpt>
      <trkpt lat="42.62944" lon="1.90189">
        <ele>2516.3999</ele>
        <time>2010-01-01T02:22:30Z</time>
      </trkpt>
      <trkpt lat="42.6295" lon="1.9018">
        <ele>2513</ele>
        <time>2010-01-01T02:22:34Z</time>
      </trkpt>
      <trkpt lat="42.6296" lon="1.90181">
        <ele>2504</ele>
        <time>2010-01-01T02:22:38Z</time>
      </trkpt>
      <trkpt lat="42.62992" lon="1.90163">
        <ele>2488</ele>
        <time>2010-01-01T02:22:52Z</time>
      </trkpt>
      <trkpt lat="42.63012" lon="1.90146">
        <ele>2484.3</ele>
        <time>2010-01-01T02:23:01Z</time>
      </trkpt>
      <trkpt lat="42.6302" lon="1.90131">
        <ele>2483</ele>
        <time>2010-01-01T02:23:06Z</time>
      </trkpt>
      <trkpt lat="42.63029" lon="1.90128">
        <ele>2480.6999</ele>
        <time>2010-01-01T02:23:10Z</time>
      </trkpt>
      <trkpt lat="42.63037" lon="1.90124">
        <ele>2477.3999</ele>
        <time>2010-01-01T02:23:14Z</time>
      </trkpt>
      <trkpt lat="42.63045" lon="1.9011">
        <ele>2476</ele>
        <time>2010-01-01T02:23:19Z</time>
      </trkpt>
      <trkpt lat="42.63054" lon="1.90105">
        <ele>2473.1</ele>
        <time>2010-01-01T02:23:23Z</time>
      </trkpt>
      <trkpt lat="42.63061" lon="1.90097">
        <ele>2470.1</ele>
        <time>2010-01-01T02:23:26Z</time>
      </trkpt>
      <trkpt lat="42.6307" lon="1.90092">
        <ele>2466.8999</ele>
        <time>2010-01-01T02:23:30Z</time>
      </trkpt>
      <trkpt lat="42.63078" lon="1.90088">
        <ele>2463</ele>
        <time>2010-01-01T02:23:34Z</time>
      </trkpt>
      <trkpt lat="42.63088" lon="1.9009">
        <ele>2461.3999</ele>
        <time>2010-01-01T02:23:38Z</time>
      </trkpt>
      <trkpt lat="42.63095" lon="1.90081">
        <ele>2458.5</ele>
        <time>2010-01-01T02:23:42Z</time>
      </trkpt>
      <trkpt lat="42.63104" lon="1.90085">
        <ele>2457.5</ele>
        <time>2010-01-01T02:23:45Z</time>
      </trkpt>
      <trkpt lat="42.63112" lon="1.90091">
        <ele>2457</ele>
        <time>2010-01-01T02:23:49Z</time>
      </trkpt>
      <trkpt lat="42.63118" lon="1.901">
        <ele>2457.5</ele>
        <time>2010-01-01T02:23:53Z</time>
      </trkpt>
      <trkpt lat="42.63128" lon="1.90103">
        <ele>2457</ele>
        <time>2010-01-01T02:23:57Z</time>
      </trkpt>
      <trkpt lat="42.63137" lon="1.90107">
        <ele>2456.8999</ele>
        <time>2010-01-01T02:24:00Z</time>
      </trkpt>
      <trkpt lat="42.63146" lon="1.90107">
        <ele>2455.3999</ele>
        <time>2010-01-01T02:24:04Z</time>
      </trkpt>
      <trkpt lat="42.63155" lon="1.90109">
        <ele>2454.8</ele>
        <time>2010-01-01T02:24:08Z</time>
      </trkpt>
      <trkpt lat="42.63165" lon="1.90108">
        <ele>2453.3</ele>
        <time>2010-01-01T02:24:12Z</time>
      </trkpt>
      <trkpt lat="42.63174" lon="1.90105">
        <ele>2452.1</ele>
        <time>2010-01-01T02:24:15Z</time>
      </trkpt>
      <trkpt lat="42.63183" lon="1.90101">
        <ele>2451.1</ele>
        <time>2010-01-01T02:24:19Z</time>
      </trkpt>
      <trkpt lat="42.63188" lon="1.90091">
        <ele>2446.1</ele>
        <time>2010-01-01T02:24:23Z</time>
      </trkpt>
      <trkpt lat="42.63192" lon="1.90079">
        <ele>2440.3999</ele>
        <time>2010-01-01T02:24:27Z</time>
      </trkpt>
      <trkpt lat="42.63195" lon="1.90066">
        <ele>2435.6999</ele>
        <time>2010-01-01T02:24:31Z</time>
      </trkpt>
      <trkpt lat="42.63203" lon="1.90054">
        <ele>2431.1999</ele>
        <time>2010-01-01T02:24:35Z</time>
      </trkpt>
      <trkpt lat="42.6321" lon="1.90046">
        <ele>2427.5</ele>
        <time>2010-01-01T02:24:39Z</time>
      </trkpt>
      <trkpt lat="42.6322" lon="1.90048">
        <ele>2427</ele>
        <time>2010-01-01T02:24:43Z</time>
      </trkpt>
      <trkpt lat="42.63229" lon="1.90051">
        <ele>2426</ele>
        <time>2010-01-01T02:24:47Z</time>
      </trkpt>
      <trkpt lat="42.63238" lon="1.90044">
        <ele>2421.3</ele>
        <time>2010-01-01T02:24:51Z</time>
      </trkpt>
      <trkpt lat="42.63246" lon="1.90039">
        <ele>2417.8</ele>
        <time>2010-01-01T02:24:55Z</time>
      </trkpt>
      <trkpt lat="42.63258" lon="1.90036">
        <ele>2414.8999</ele>
        <time>2010-01-01T02:24:59Z</time>
      </trkpt>
      <trkpt lat="42.63266" lon="1.90032">
        <ele>2412.1999</ele>
        <time>2010-01-01T02:25:03Z</time>
      </trkpt>
      <trkpt lat="42.63273" lon="1.90023">
        <ele>2407.6</ele>
        <time>2010-01-01T02:25:07Z</time>
      </trkpt>
      <trkpt lat="42.63282" lon="1.90017">
        <ele>2405</ele>
        <time>2010-01-01T02:25:11Z</time>
      </trkpt>
      <trkpt lat="42.63291" lon="1.90011">
        <ele>2402.6999</ele>
        <time>2010-01-01T02:25:15Z</time>
      </trkpt>
      <trkpt lat="42.63297" lon="1.90001">
        <ele>2397</ele>
        <time>2010-01-01T02:25:19Z</time>
      </trkpt>
      <trkpt lat="42.63304" lon="1.89993">
        <ele>2394.5</ele>
        <time>2010-01-01T02:25:22Z</time>
      </trkpt>
      <trkpt lat="42.63312" lon="1.89986">
        <ele>2391.8999</ele>
        <time>2010-01-01T02:25:26Z</time>
      </trkpt>
      <trkpt lat="42.63323" lon="1.89979">
        <ele>2389.8</ele>
        <time>2010-01-01T02:25:31Z</time>
      </trkpt>
      <trkpt lat="42.63331" lon="1.89972">
        <ele>2387.6999</ele>
        <time>2010-01-01T02:25:35Z</time>
      </trkpt>
      <trkpt lat="42.63339" lon="1.89964">
        <ele>2386.8999</ele>
        <time>2010-01-01T02:25:38Z</time>
      </trkpt>
      <trkpt lat="42.63346" lon="1.89958">
        <ele>2387</ele>
        <time>2010-01-01T02:25:42Z</time>
      </trkpt>
      <trkpt lat="42.63359" lon="1.89941">
        <ele>2385.8</ele>
        <time>2010-01-01T02:25:49Z</time>
      </trkpt>
      <trkpt lat="42.63367" lon="1.89935">
        <ele>2385.8</ele>
        <time>2010-01-01T02:25:53Z</time>
      </trkpt>
      <trkpt lat="42.63376" lon="1.89925">
        <ele>2385.6999</ele>
        <time>2010-01-01T02:25:57Z</time>
      </trkpt>
      <trkpt lat="42.63383" lon="1.89916">
        <ele>2384.8</ele>
        <time>2010-01-01T02:26:01Z</time>
      </trkpt>
      <trkpt lat="42.63388" lon="1.89906">
        <ele>2383.6</ele>
        <time>2010-01-01T02:26:05Z</time>
      </trkpt>
      <trkpt lat="42.6339" lon="1.89894">
        <ele>2379.5</ele>
        <time>2010-01-01T02:26:09Z</time>
      </trkpt>
      <trkpt lat="42.63391" lon="1.89881">
        <ele>2375.6</ele>
        <time>2010-01-01T02:26:12Z</time>
      </trkpt>
      <trkpt lat="42.63395" lon="1.8987">
        <ele>2373.6999</ele>
        <time>2010-01-01T02:26:16Z</time>
      </trkpt>
      <trkpt lat="42.63403" lon="1.89864">
        <ele>2374.3999</ele>
        <time>2010-01-01T02:26:20Z</time>
      </trkpt>
      <trkpt lat="42.63409" lon="1.89855">
        <ele>2374</ele>
        <time>2010-01-01T02:26:23Z</time>
      </trkpt>
      <trkpt lat="42.63415" lon="1.89846">
        <ele>2373.1999</ele>
        <time>2010-01-01T02:26:27Z</time>
      </trkpt>
      <trkpt lat="42.6342" lon="1.89834">
        <ele>2370.1999</ele>
        <time>2010-01-01T02:26:31Z</time>
      </trkpt>
      <trkpt lat="42.63424" lon="1.89823">
        <ele>2368.5</ele>
        <time>2010-01-01T02:26:34Z</time>
      </trkpt>
      <trkpt lat="42.63427" lon="1.89812">
        <ele>2366</ele>
        <time>2010-01-01T02:26:38Z</time>
      </trkpt>
      <trkpt lat="42.6343" lon="1.898">
        <ele>2362.3999</ele>
        <time>2010-01-01T02:26:42Z</time>
      </trkpt>
      <trkpt lat="42.6343" lon="1.89787">
        <ele>2357.5</ele>
        <time>2010-01-01T02:26:46Z</time>
      </trkpt>
      <trkpt lat="42.63428" lon="1.89775">
        <ele>2352.1</ele>
        <time>2010-01-01T02:26:49Z</time>
      </trkpt>
      <trkpt lat="42.6343" lon="1.89762">
        <ele>2347</ele>
        <time>2010-01-01T02:26:53Z</time>
      </trkpt>
      <trkpt lat="42.63429" lon="1.89749">
        <ele>2343</ele>
        <time>2010-01-01T02:26:57Z</time>
      </trkpt>
      <trkpt lat="42.63428" lon="1.89737">
        <ele>2337.1</ele>
        <time>2010-01-01T02:27:00Z</time>
      </trkpt>
      <trkpt lat="42.6343" lon="1.89724">
        <ele>2331.5</ele>
        <time>2010-01-01T02:27:04Z</time>
      </trkpt>
      <trkpt lat="42.63433" lon="1.89713">
        <ele>2328.3999</ele>
        <time>2010-01-01T02:27:08Z</time>
      </trkpt>
      <trkpt lat="42.63439" lon="1.89704">
        <ele>2325.6999</ele>
        <time>2010-01-01T02:27:12Z</time>
      </trkpt>
      <trkpt lat="42.63447" lon="1.89697">
        <ele>2323.8999</ele>
        <time>2010-01-01T02:27:15Z</time>
      </trkpt>
      <trkpt lat="42.63456" lon="1.89692">
        <ele>2322.5</ele>
        <time>2010-01-01T02:27:19Z</time>
      </trkpt>
      <trkpt lat="42.63464" lon="1.89686">
        <ele>2320.1</ele>
        <time>2010-01-01T02:27:23Z</time>
      </trkpt>
      <trkpt lat="42.63473" lon="1.89681">
        <ele>2317.6999</ele>
        <time>2010-01-01T02:27:27Z</time>
      </trkpt>
      <trkpt lat="42.6348" lon="1.89673">
        <ele>2314.1999</ele>
        <time>2010-01-01T02:27:30Z</time>
      </trkpt>
      <trkpt lat="42.63485" lon="1.89663">
        <ele>2308.1</ele>
        <time>2010-01-01T02:27:34Z</time>
      </trkpt>
      <trkpt lat="42.63488" lon="1.89651">
        <ele>2300.3999</ele>
        <time>2010-01-01T02:27:38Z</time>
      </trkpt>
      <trkpt lat="42.6349" lon="1.89638">
        <ele>2292.6999</ele>
        <time>2010-01-01T02:27:42Z</time>
      </trkpt>
      <trkpt lat="42.63496" lon="1.89629">
        <ele>2287.8999</ele>
        <time>2010-01-01T02:27:45Z</time>
      </trkpt>
      <trkpt lat="42.63505" lon="1.89621">
        <ele>2284.1999</ele>
        <time>2010-01-01T02:27:50Z</time>
      </trkpt>
      <trkpt lat="42.63513" lon="1.89614">
        <ele>2279.6</ele>
        <time>2010-01-01T02:27:53Z</time>
      </trkpt>
      <trkpt lat="42.63521" lon="1.89605">
        <ele>2275</ele>
        <time>2010-01-01T02:27:58Z</time>
      </trkpt>
      <trkpt lat="42.63528" lon="1.89596">
        <ele>2269.3</ele>
        <time>2010-01-01T02:28:01Z</time>
      </trkpt>
      <trkpt lat="42.63533" lon="1.89586">
        <ele>2262</ele>
        <time>2010-01-01T02:28:05Z</time>
      </trkpt>
      <trkpt lat="42.63526" lon="1.89575">
        <ele>2256.5</ele>
        <time>2010-01-01T02:28:09Z</time>
      </trkpt>
      <trkpt lat="42.63524" lon="1.89563">
        <ele>2250.1999</ele>
        <time>2010-01-01T02:28:13Z</time>
      </trkpt>
      <trkpt lat="42.63519" lon="1.89552">
        <ele>2244.6</ele>
        <time>2010-01-01T02:28:17Z</time>
      </trkpt>
      <trkpt lat="42.63528" lon="1.89549">
        <ele>2244.3</ele>
        <time>2010-01-01T02:28:20Z</time>
      </trkpt>
      <trkpt lat="42.63537" lon="1.89546">
        <ele>2243.5</ele>
        <time>2010-01-01T02:28:24Z</time>
      </trkpt>
      <trkpt lat="42.63546" lon="1.89542">
        <ele>2243.3</ele>
        <time>2010-01-01T02:28:28Z</time>
      </trkpt>
      <trkpt lat="42.63556" lon="1.89536">
        <ele>2241</ele>
        <time>2010-01-01T02:28:32Z</time>
      </trkpt>
      <trkpt lat="42.63557" lon="1.89524">
        <ele>2236.3</ele>
        <time>2010-01-01T02:28:36Z</time>
      </trkpt>
      <trkpt lat="42.63566" lon="1.8952">
        <ele>2235</ele>
        <time>2010-01-01T02:28:40Z</time>
      </trkpt>
      <trkpt lat="42.63566" lon="1.89506">
        <ele>2228.8999</ele>
        <time>2010-01-01T02:28:44Z</time>
      </trkpt>
      <trkpt lat="42.63562" lon="1.89495">
        <ele>2223.1999</ele>
        <time>2010-01-01T02:28:47Z</time>
      </trkpt>
      <trkpt lat="42.63562" lon="1.89482">
        <ele>2218.8999</ele>
        <time>2010-01-01T02:28:51Z</time>
      </trkpt>
      <trkpt lat="42.63568" lon="1.89472">
        <ele>2216.3</ele>
        <time>2010-01-01T02:28:55Z</time>
      </trkpt>
      <trkpt lat="42.63573" lon="1.89461">
        <ele>2213.5</ele>
        <time>2010-01-01T02:28:59Z</time>
      </trkpt>
      <trkpt lat="42.63579" lon="1.89452">
        <ele>2211.8999</ele>
        <time>2010-01-01T02:29:02Z</time>
      </trkpt>
      <trkpt lat="42.63588" lon="1.89446">
        <ele>2214.3</ele>
        <time>2010-01-01T02:29:06Z</time>
      </trkpt>
      <trkpt lat="42.63594" lon="1.89434">
        <ele>2213.6999</ele>
        <time>2010-01-01T02:29:10Z</time>
      </trkpt>
      <trkpt lat="42.63599" lon="1.89423">
        <ele>2210.6999</ele>
        <time>2010-01-01T02:29:14Z</time>
      </trkpt>
      <trkpt lat="42.63597" lon="1.89405">
        <ele>2205</ele>
        <time>2010-01-01T02:29:19Z</time>
      </trkpt>
      <trkpt lat="42.63592" lon="1.89382">
        <ele>2201.3999</ele>
        <time>2010-01-01T02:29:27Z</time>
      </trkpt>
      <trkpt lat="42.63598" lon="1.89372">
        <ele>2202.3999</ele>
        <time>2010-01-01T02:29:30Z</time>
      </trkpt>
      <trkpt lat="42.63597" lon="1.89359">
        <ele>2198.3</ele>
        <time>2010-01-01T02:29:34Z</time>
      </trkpt>
      <trkpt lat="42.63591" lon="1.89349">
        <ele>2192.6999</ele>
        <time>2010-01-01T02:29:38Z</time>
      </trkpt>
      <trkpt lat="42.63584" lon="1.89338">
        <ele>2187.3</ele>
        <time>2010-01-01T02:29:42Z</time>
      </trkpt>
      <trkpt lat="42.63576" lon="1.89332">
        <ele>2182.6999</ele>
        <time>2010-01-01T02:29:46Z</time>
      </trkpt>
      <trkpt lat="42.63566" lon="1.89329">
        <ele>2176.8999</ele>
        <time>2010-01-01T02:29:50Z</time>
      </trkpt>
      <trkpt lat="42.63561" lon="1.89319">
        <ele>2172.1999</ele>
        <time>2010-01-01T02:29:54Z</time>
      </trkpt>
      <trkpt lat="42.63555" lon="1.89309">
        <ele>2167.8</ele>
        <time>2010-01-01T02:29:57Z</time>
      </trkpt>
      <trkpt lat="42.63548" lon="1.893">
        <ele>2163.1</ele>
        <time>2010-01-01T02:30:01Z</time>
      </trkpt>
      <trkpt lat="42.63541" lon="1.89292">
        <ele>2157.8999</ele>
        <time>2010-01-01T02:30:05Z</time>
      </trkpt>
      <trkpt lat="42.63536" lon="1.89282">
        <ele>2153</ele>
        <time>2010-01-01T02:30:09Z</time>
      </trkpt>
      <trkpt lat="42.63529" lon="1.89274">
        <ele>2148.1</ele>
        <time>2010-01-01T02:30:12Z</time>
      </trkpt>
      <trkpt lat="42.63521" lon="1.89267">
        <ele>2143.1999</ele>
        <time>2010-01-01T02:30:16Z</time>
      </trkpt>
      <trkpt lat="42.63519" lon="1.89255">
        <ele>2141.1</ele>
        <time>2010-01-01T02:30:20Z</time>
      </trkpt>
      <trkpt lat="42.6352" lon="1.89243">
        <ele>2140.8999</ele>
        <time>2010-01-01T02:30:23Z</time>
      </trkpt>
      <trkpt lat="42.63517" lon="1.89231">
        <ele>2140</ele>
        <time>2010-01-01T02:30:27Z</time>
      </trkpt>
      <trkpt lat="42.63514" lon="1.89219">
        <ele>2139.1</ele>
        <time>2010-01-01T02:30:31Z</time>
      </trkpt>
      <trkpt lat="42.63512" lon="1.89206">
        <ele>2139.1</ele>
        <time>2010-01-01T02:30:34Z</time>
      </trkpt>
      <trkpt lat="42.6351" lon="1.89194">
        <ele>2139.3</ele>
        <time>2010-01-01T02:30:38Z</time>
      </trkpt>
      <trkpt lat="42.63515" lon="1.89183">
        <ele>2141.3</ele>
        <time>2010-01-01T02:30:42Z</time>
      </trkpt>
      <trkpt lat="42.63517" lon="1.89167">
        <ele>2142.1</ele>
        <time>2010-01-01T02:30:47Z</time>
      </trkpt>
      <trkpt lat="42.63517" lon="1.89154">
        <ele>2141</ele>
        <time>2010-01-01T02:30:51Z</time>
      </trkpt>
      <trkpt lat="42.63514" lon="1.89141">
        <ele>2140</ele>
        <time>2010-01-01T02:30:55Z</time>
      </trkpt>
      <trkpt lat="42.63512" lon="1.89127">
        <ele>2139.3</ele>
        <time>2010-01-01T02:30:59Z</time>
      </trkpt>
      <trkpt lat="42.63512" lon="1.89115">
        <ele>2138.8</ele>
        <time>2010-01-01T02:31:02Z</time>
      </trkpt>
      <trkpt lat="42.63512" lon="1.89102">
        <ele>2138.5</ele>
        <time>2010-01-01T02:31:06Z</time>
      </trkpt>
      <trkpt lat="42.6351" lon="1.89088">
        <ele>2137.1</ele>
        <time>2010-01-01T02:31:10Z</time>
      </trkpt>
      <trkpt lat="42.63506" lon="1.89078">
        <ele>2134.3</ele>
        <time>2010-01-01T02:31:14Z</time>
      </trkpt>
      <trkpt lat="42.63505" lon="1.89064">
        <ele>2131.8999</ele>
        <time>2010-01-01T02:31:18Z</time>
      </trkpt>
      <trkpt lat="42.63503" lon="1.89052">
        <ele>2129</ele>
        <time>2010-01-01T02:31:22Z</time>
      </trkpt>
      <trkpt lat="42.63494" lon="1.89047">
        <ele>2125</ele>
        <time>2010-01-01T02:31:25Z</time>
      </trkpt>
      <trkpt lat="42.63492" lon="1.89033">
        <ele>2122.5</ele>
        <time>2010-01-01T02:31:29Z</time>
      </trkpt>
      <trkpt lat="42.63496" lon="1.89021">
        <ele>2121.3999</ele>
        <time>2010-01-01T02:31:33Z</time>
      </trkpt>
      <trkpt lat="42.63497" lon="1.89008">
        <ele>2118.6</ele>
        <time>2010-01-01T02:31:37Z</time>
      </trkpt>
      <trkpt lat="42.63493" lon="1.88997">
        <ele>2116.1</ele>
        <time>2010-01-01T02:31:41Z</time>
      </trkpt>
      <trkpt lat="42.63489" lon="1.88985">
        <ele>2114.3999</ele>
        <time>2010-01-01T02:31:44Z</time>
      </trkpt>
      <trkpt lat="42.63491" lon="1.88973">
        <ele>2113</ele>
        <time>2010-01-01T02:31:48Z</time>
      </trkpt>
      <trkpt lat="42.63487" lon="1.88961">
        <ele>2111.1</ele>
        <time>2010-01-01T02:31:52Z</time>
      </trkpt>
      <trkpt lat="42.63489" lon="1.88948">
        <ele>2110.3999</ele>
        <time>2010-01-01T02:31:56Z</time>
      </trkpt>
      <trkpt lat="42.63491" lon="1.88936">
        <ele>2109.5</ele>
        <time>2010-01-01T02:31:59Z</time>
      </trkpt>
      <trkpt lat="42.63492" lon="1.88923">
        <ele>2108.3999</ele>
        <time>2010-01-01T02:32:03Z</time>
      </trkpt>
      <trkpt lat="42.63493" lon="1.88911">
        <ele>2107.8</ele>
        <time>2010-01-01T02:32:07Z</time>
      </trkpt>
      <trkpt lat="42.63492" lon="1.88898">
        <ele>2106.1999</ele>
        <time>2010-01-01T02:32:11Z</time>
      </trkpt>
      <trkpt lat="42.63485" lon="1.8889">
        <ele>2104.3</ele>
        <time>2010-01-01T02:32:14Z</time>
      </trkpt>
      <trkpt lat="42.63477" lon="1.88882">
        <ele>2102.3</ele>
        <time>2010-01-01T02:32:18Z</time>
      </trkpt>
      <trkpt lat="42.63469" lon="1.88874">
        <ele>2100.6999</ele>
        <time>2010-01-01T02:32:22Z</time>
      </trkpt>
      <trkpt lat="42.63461" lon="1.88866">
        <ele>2099.3</ele>
        <time>2010-01-01T02:32:26Z</time>
      </trkpt>
      <trkpt lat="42.63455" lon="1.88856">
        <ele>2098.3</ele>
        <time>2010-01-01T02:32:30Z</time>
      </trkpt>
      <trkpt lat="42.63449" lon="1.88845">
        <ele>2097.3999</ele>
        <time>2010-01-01T02:32:34Z</time>
      </trkpt>
      <trkpt lat="42.63443" lon="1.88835">
        <ele>2097</ele>
        <time>2010-01-01T02:32:38Z</time>
      </trkpt>
      <trkpt lat="42.63439" lon="1.88824">
        <ele>2097.3999</ele>
        <time>2010-01-01T02:32:42Z</time>
      </trkpt>
      <trkpt lat="42.63435" lon="1.88811">
        <ele>2098</ele>
        <time>2010-01-01T02:32:46Z</time>
      </trkpt>
      <trkpt lat="42.63433" lon="1.88799">
        <ele>2098.5</ele>
        <time>2010-01-01T02:32:49Z</time>
      </trkpt>
      <trkpt lat="42.63429" lon="1.88788">
        <ele>2098.6</ele>
        <time>2010-01-01T02:32:53Z</time>
      </trkpt>
      <trkpt lat="42.63424" lon="1.88777">
        <ele>2098.3999</ele>
        <time>2010-01-01T02:32:57Z</time>
      </trkpt>
      <trkpt lat="42.63417" lon="1.88768">
        <ele>2097.6999</ele>
        <time>2010-01-01T02:33:01Z</time>
      </trkpt>
      <trkpt lat="42.63408" lon="1.88761">
        <ele>2096.6999</ele>
        <time>2010-01-01T02:33:05Z</time>
      </trkpt>
      <trkpt lat="42.63399" lon="1.88756">
        <ele>2095.6999</ele>
        <time>2010-01-01T02:33:09Z</time>
      </trkpt>
      <trkpt lat="42.63392" lon="1.88747">
        <ele>2094.8999</ele>
        <time>2010-01-01T02:33:13Z</time>
      </trkpt>
      <trkpt lat="42.63388" lon="1.88735">
        <ele>2094.3999</ele>
        <time>2010-01-01T02:33:16Z</time>
      </trkpt>
      <trkpt lat="42.63385" lon="1.88723">
        <ele>2094.1</ele>
        <time>2010-01-01T02:33:20Z</time>
      </trkpt>
      <trkpt lat="42.63385" lon="1.88711">
        <ele>2093.8999</ele>
        <time>2010-01-01T02:33:24Z</time>
      </trkpt>
      <trkpt lat="42.63382" lon="1.88699">
        <ele>2093.6</ele>
        <time>2010-01-01T02:33:27Z</time>
      </trkpt>
      <trkpt lat="42.63382" lon="1.88685">
        <ele>2093.5</ele>
        <time>2010-01-01T02:33:31Z</time>
      </trkpt>
      <trkpt lat="42.6338" lon="1.88673">
        <ele>2093.1</ele>
        <time>2010-01-01T02:33:35Z</time>
      </trkpt>
      <trkpt lat="42.63378" lon="1.8866">
        <ele>2091.6</ele>
        <time>2010-01-01T02:33:39Z</time>
      </trkpt>
      <trkpt lat="42.63377" lon="1.88647">
        <ele>2090.1999</ele>
        <time>2010-01-01T02:33:43Z</time>
      </trkpt>
      <trkpt lat="42.63374" lon="1.88635">
        <ele>2088.5</ele>
        <time>2010-01-01T02:33:47Z</time>
      </trkpt>
      <trkpt lat="42.63372" lon="1.88622">
        <ele>2086.8</ele>
        <time>2010-01-01T02:33:51Z</time>
      </trkpt>
      <trkpt lat="42.63371" lon="1.8861">
        <ele>2085.1999</ele>
        <time>2010-01-01T02:33:54Z</time>
      </trkpt>
      <trkpt lat="42.63371" lon="1.88597">
        <ele>2083.8</ele>
        <time>2010-01-01T02:33:58Z</time>
      </trkpt>
      <trkpt lat="42.63371" lon="1.88585">
        <ele>2082.8</ele>
        <time>2010-01-01T02:34:02Z</time>
      </trkpt>
      <trkpt lat="42.63368" lon="1.88573">
        <ele>2081.5</ele>
        <time>2010-01-01T02:34:05Z</time>
      </trkpt>
      <trkpt lat="42.63362" lon="1.88563">
        <ele>2079.8</ele>
        <time>2010-01-01T02:34:09Z</time>
      </trkpt>
      <trkpt lat="42.63357" lon="1.88552">
        <ele>2078.1</ele>
        <time>2010-01-01T02:34:13Z</time>
      </trkpt>
      <trkpt lat="42.63353" lon="1.88541">
        <ele>2075.8</ele>
        <time>2010-01-01T02:34:17Z</time>
      </trkpt>
      <trkpt lat="42.63346" lon="1.88532">
        <ele>2073.1999</ele>
        <time>2010-01-01T02:34:20Z</time>
      </trkpt>
      <trkpt lat="42.63343" lon="1.8852">
        <ele>2070.8999</ele>
        <time>2010-01-01T02:34:24Z</time>
      </trkpt>
      <trkpt lat="42.63337" lon="1.88511">
        <ele>2067.6999</ele>
        <time>2010-01-01T02:34:28Z</time>
      </trkpt>
      <trkpt lat="42.6333" lon="1.88501">
        <ele>2065.1</ele>
        <time>2010-01-01T02:34:32Z</time>
      </trkpt>
      <trkpt lat="42.63323" lon="1.88493">
        <ele>2064.1</ele>
        <time>2010-01-01T02:34:35Z</time>
      </trkpt>
      <trkpt lat="42.63318" lon="1.88482">
        <ele>2063.5</ele>
        <time>2010-01-01T02:34:39Z</time>
      </trkpt>
      <trkpt lat="42.63311" lon="1.88472">
        <ele>2062</ele>
        <time>2010-01-01T02:34:43Z</time>
      </trkpt>
      <trkpt lat="42.63304" lon="1.88464">
        <ele>2060</ele>
        <time>2010-01-01T02:34:47Z</time>
      </trkpt>
      <trkpt lat="42.63296" lon="1.88458">
        <ele>2057.1999</ele>
        <time>2010-01-01T02:34:50Z</time>
      </trkpt>
      <trkpt lat="42.63288" lon="1.8845">
        <ele>2054.5</ele>
        <time>2010-01-01T02:34:54Z</time>
      </trkpt>
      <trkpt lat="42.6328" lon="1.88443">
        <ele>2050.8999</ele>
        <time>2010-01-01T02:34:58Z</time>
      </trkpt>
      <trkpt lat="42.63272" lon="1.88438">
        <ele>2047.1999</ele>
        <time>2010-01-01T02:35:02Z</time>
      </trkpt>
      <trkpt lat="42.63263" lon="1.88433">
        <ele>2043.3</ele>
        <time>2010-01-01T02:35:06Z</time>
      </trkpt>
      <trkpt lat="42.63255" lon="1.88426">
        <ele>2039.3</ele>
        <time>2010-01-01T02:35:09Z</time>
      </trkpt>
      <trkpt lat="42.63247" lon="1.88419">
        <ele>2035.5999</ele>
        <time>2010-01-01T02:35:13Z</time>
      </trkpt>
      <trkpt lat="42.63239" lon="1.88413">
        <ele>2032.5</ele>
        <time>2010-01-01T02:35:17Z</time>
      </trkpt>
      <trkpt lat="42.63229" lon="1.88412">
        <ele>2029.1999</ele>
        <time>2010-01-01T02:35:21Z</time>
      </trkpt>
      <trkpt lat="42.6322" lon="1.88413">
        <ele>2026.1999</ele>
        <time>2010-01-01T02:35:25Z</time>
      </trkpt>
      <trkpt lat="42.63211" lon="1.8841">
        <ele>2022.8</ele>
        <time>2010-01-01T02:35:28Z</time>
      </trkpt>
      <trkpt lat="42.63201" lon="1.8841">
        <ele>2019.5</ele>
        <time>2010-01-01T02:35:32Z</time>
      </trkpt>
      <trkpt lat="42.63192" lon="1.88409">
        <ele>2016.5</ele>
        <time>2010-01-01T02:35:36Z</time>
      </trkpt>
      <trkpt lat="42.63182" lon="1.88405">
        <ele>2012.6999</ele>
        <time>2010-01-01T02:35:40Z</time>
      </trkpt>
      <trkpt lat="42.63177" lon="1.88395">
        <ele>2009.5999</ele>
        <time>2010-01-01T02:35:43Z</time>
      </trkpt>
      <trkpt lat="42.63168" lon="1.88393">
        <ele>2006.4</ele>
        <time>2010-01-01T02:35:47Z</time>
      </trkpt>
      <trkpt lat="42.63161" lon="1.88401">
        <ele>2005.5</ele>
        <time>2010-01-01T02:35:51Z</time>
      </trkpt>
      <trkpt lat="42.63153" lon="1.88396">
        <ele>2001.1999</ele>
        <time>2010-01-01T02:35:55Z</time>
      </trkpt>
      <trkpt lat="42.6315" lon="1.88384">
        <ele>1998.5</ele>
        <time>2010-01-01T02:35:58Z</time>
      </trkpt>
      <trkpt lat="42.63147" lon="1.88371">
        <ele>1995.5</ele>
        <time>2010-01-01T02:36:02Z</time>
      </trkpt>
      <trkpt lat="42.63146" lon="1.88358">
        <ele>1992.8</ele>
        <time>2010-01-01T02:36:06Z</time>
      </trkpt>
      <trkpt lat="42.63145" lon="1.88346">
        <ele>1990.0999</ele>
        <time>2010-01-01T02:36:10Z</time>
      </trkpt>
      <trkpt lat="42.63141" lon="1.88334">
        <ele>1987.6999</ele>
        <time>2010-01-01T02:36:14Z</time>
      </trkpt>
      <trkpt lat="42.63134" lon="1.88325">
        <ele>1984.0999</ele>
        <time>2010-01-01T02:36:17Z</time>
      </trkpt>
      <trkpt lat="42.63127" lon="1.88334">
        <ele>1983</ele>
        <time>2010-01-01T02:36:21Z</time>
      </trkpt>
      <trkpt lat="42.6312" lon="1.88342">
        <ele>1982.3</ele>
        <time>2010-01-01T02:36:25Z</time>
      </trkpt>
      <trkpt lat="42.63117" lon="1.88354">
        <ele>1983.8</ele>
        <time>2010-01-01T02:36:29Z</time>
      </trkpt>
      <trkpt lat="42.63116" lon="1.88367">
        <ele>1985.0999</ele>
        <time>2010-01-01T02:36:33Z</time>
      </trkpt>
      <trkpt lat="42.63111" lon="1.88378">
        <ele>1984.5</ele>
        <time>2010-01-01T02:36:36Z</time>
      </trkpt>
      <trkpt lat="42.63102" lon="1.88382">
        <ele>1982.5999</ele>
        <time>2010-01-01T02:36:40Z</time>
      </trkpt>
      <trkpt lat="42.63094" lon="1.88388">
        <ele>1980.9</ele>
        <time>2010-01-01T02:36:44Z</time>
      </trkpt>
      <trkpt lat="42.63088" lon="1.88397">
        <ele>1981.1999</ele>
        <time>2010-01-01T02:36:48Z</time>
      </trkpt>
      <trkpt lat="42.63084" lon="1.88408">
        <ele>1981.5999</ele>
        <time>2010-01-01T02:36:51Z</time>
      </trkpt>
      <trkpt lat="42.63079" lon="1.88419">
        <ele>1981.3</ele>
        <time>2010-01-01T02:36:55Z</time>
      </trkpt>
      <trkpt lat="42.63071" lon="1.88426">
        <ele>1979.8</ele>
        <time>2010-01-01T02:36:59Z</time>
      </trkpt>
      <trkpt lat="42.63062" lon="1.88432">
        <ele>1978.5</ele>
        <time>2010-01-01T02:37:03Z</time>
      </trkpt>
      <trkpt lat="42.63054" lon="1.88441">
        <ele>1977.6999</ele>
        <time>2010-01-01T02:37:07Z</time>
      </trkpt>
      <trkpt lat="42.63046" lon="1.8845">
        <ele>1977.0999</ele>
        <time>2010-01-01T02:37:11Z</time>
      </trkpt>
      <trkpt lat="42.63038" lon="1.88457">
        <ele>1975.3</ele>
        <time>2010-01-01T02:37:15Z</time>
      </trkpt>
      <trkpt lat="42.63029" lon="1.8846">
        <ele>1972.8</ele>
        <time>2010-01-01T02:37:19Z</time>
      </trkpt>
      <trkpt lat="42.63019" lon="1.88464">
        <ele>1969.6999</ele>
        <time>2010-01-01T02:37:23Z</time>
      </trkpt>
      <trkpt lat="42.63011" lon="1.88456">
        <ele>1965.4</ele>
        <time>2010-01-01T02:37:27Z</time>
      </trkpt>
      <trkpt lat="42.63005" lon="1.88447">
        <ele>1959.9</ele>
        <time>2010-01-01T02:37:30Z</time>
      </trkpt>
      <trkpt lat="42.62996" lon="1.88439">
        <ele>1955.8</ele>
        <time>2010-01-01T02:37:34Z</time>
      </trkpt>
      <trkpt lat="42.62988" lon="1.88434">
        <ele>1952.5999</ele>
        <time>2010-01-01T02:37:38Z</time>
      </trkpt>
      <trkpt lat="42.62979" lon="1.88436">
        <ele>1950.4</ele>
        <time>2010-01-01T02:37:42Z</time>
      </trkpt>
      <trkpt lat="42.62973" lon="1.88426">
        <ele>1946.5999</ele>
        <time>2010-01-01T02:37:46Z</time>
      </trkpt>
      <trkpt lat="42.62966" lon="1.88418">
        <ele>1943</ele>
        <time>2010-01-01T02:37:49Z</time>
      </trkpt>
      <trkpt lat="42.62967" lon="1.88405">
        <ele>1940.8</ele>
        <time>2010-01-01T02:37:53Z</time>
      </trkpt>
      <trkpt lat="42.62963" lon="1.88393">
        <ele>1937.6999</ele>
        <time>2010-01-01T02:37:57Z</time>
      </trkpt>
      <trkpt lat="42.62956" lon="1.88383">
        <ele>1934.8</ele>
        <time>2010-01-01T02:38:01Z</time>
      </trkpt>
      <trkpt lat="42.62947" lon="1.8838">
        <ele>1931.9</ele>
        <time>2010-01-01T02:38:05Z</time>
      </trkpt>
      <trkpt lat="42.62938" lon="1.8838">
        <ele>1929.4</ele>
        <time>2010-01-01T02:38:09Z</time>
      </trkpt>
      <trkpt lat="42.62929" lon="1.88375">
        <ele>1926.5999</ele>
        <time>2010-01-01T02:38:12Z</time>
      </trkpt>
      <trkpt lat="42.6292" lon="1.88369">
        <ele>1924</ele>
        <time>2010-01-01T02:38:16Z</time>
      </trkpt>
      <trkpt lat="42.62918" lon="1.88356">
        <ele>1921.9</ele>
        <time>2010-01-01T02:38:20Z</time>
      </trkpt>
      <trkpt lat="42.62918" lon="1.88344">
        <ele>1920</ele>
        <time>2010-01-01T02:38:24Z</time>
      </trkpt>
      <trkpt lat="42.62918" lon="1.8833">
        <ele>1917.0999</ele>
        <time>2010-01-01T02:38:28Z</time>
      </trkpt>
      <trkpt lat="42.62914" lon="1.88318">
        <ele>1913.3</ele>
        <time>2010-01-01T02:38:32Z</time>
      </trkpt>
      <trkpt lat="42.62904" lon="1.8832">
        <ele>1912.9</ele>
        <time>2010-01-01T02:38:36Z</time>
      </trkpt>
      <trkpt lat="42.62913" lon="1.88317">
        <ele>1914.1999</ele>
        <time>2010-01-01T02:38:39Z</time>
      </trkpt>
      <trkpt lat="42.62922" lon="1.88311">
        <ele>1915.1999</ele>
        <time>2010-01-01T02:38:43Z</time>
      </trkpt>
      <trkpt lat="42.6293" lon="1.88316">
        <ele>1917.8</ele>
        <time>2010-01-01T02:38:47Z</time>
      </trkpt>
      <trkpt lat="42.62937" lon="1.88308">
        <ele>1917.5999</ele>
        <time>2010-01-01T02:38:51Z</time>
      </trkpt>
      <trkpt lat="42.62945" lon="1.88301">
        <ele>1917.5</ele>
        <time>2010-01-01T02:38:54Z</time>
      </trkpt>
      <trkpt lat="42.62952" lon="1.88293">
        <ele>1917.6999</ele>
        <time>2010-01-01T02:38:58Z</time>
      </trkpt>
      <trkpt lat="42.62961" lon="1.8829">
        <ele>1918.8</ele>
        <time>2010-01-01T02:39:02Z</time>
      </trkpt>
      <trkpt lat="42.62952" lon="1.88289">
        <ele>1916.8</ele>
        <time>2010-01-01T02:39:05Z</time>
      </trkpt>
      <trkpt lat="42.62943" lon="1.88289">
        <ele>1914</ele>
        <time>2010-01-01T02:39:09Z</time>
      </trkpt>
      <trkpt lat="42.62943" lon="1.88276">
        <ele>1910.5</ele>
        <time>2010-01-01T02:39:13Z</time>
      </trkpt>
      <trkpt lat="42.62934" lon="1.88271">
        <ele>1907</ele>
        <time>2010-01-01T02:39:17Z</time>
      </trkpt>
      <trkpt lat="42.62924" lon="1.88267">
        <ele>1903.9</ele>
        <time>2010-01-01T02:39:21Z</time>
      </trkpt>
      <trkpt lat="42.62926" lon="1.88255">
        <ele>1901.4</ele>
        <time>2010-01-01T02:39:25Z</time>
      </trkpt>
      <trkpt lat="42.62928" lon="1.88242">
        <ele>1898.1999</ele>
        <time>2010-01-01T02:39:29Z</time>
      </trkpt>
      <trkpt lat="42.62928" lon="1.88229">
        <ele>1893.6999</ele>
        <time>2010-01-01T02:39:32Z</time>
      </trkpt>
      <trkpt lat="42.62927" lon="1.88217">
        <ele>1889.6999</ele>
        <time>2010-01-01T02:39:36Z</time>
      </trkpt>
      <trkpt lat="42.62933" lon="1.88209">
        <ele>1890.3</ele>
        <time>2010-01-01T02:39:40Z</time>
      </trkpt>
      <trkpt lat="42.62943" lon="1.88205">
        <ele>1891.0999</ele>
        <time>2010-01-01T02:39:44Z</time>
      </trkpt>
      <trkpt lat="42.62948" lon="1.88194">
        <ele>1889.3</ele>
        <time>2010-01-01T02:39:47Z</time>
      </trkpt>
      <trkpt lat="42.62949" lon="1.88182">
        <ele>1885.9</ele>
        <time>2010-01-01T02:39:51Z</time>
      </trkpt>
      <trkpt lat="42.62955" lon="1.88172">
        <ele>1885.0999</ele>
        <time>2010-01-01T02:39:55Z</time>
      </trkpt>
      <trkpt lat="42.62955" lon="1.88159">
        <ele>1880.9</ele>
        <time>2010-01-01T02:39:58Z</time>
      </trkpt>
      <trkpt lat="42.62958" lon="1.88147">
        <ele>1879.0999</ele>
        <time>2010-01-01T02:40:02Z</time>
      </trkpt>
      <trkpt lat="42.62963" lon="1.88137">
        <ele>1878.4</ele>
        <time>2010-01-01T02:40:06Z</time>
      </trkpt>
      <trkpt lat="42.6297" lon="1.88128">
        <ele>1877.9</ele>
        <time>2010-01-01T02:40:10Z</time>
      </trkpt>
      <trkpt lat="42.62975" lon="1.88118">
        <ele>1876.9</ele>
        <time>2010-01-01T02:40:13Z</time>
      </trkpt>
      <trkpt lat="42.62979" lon="1.88107">
        <ele>1874.3</ele>
        <time>2010-01-01T02:40:17Z</time>
      </trkpt>
      <trkpt lat="42.6298" lon="1.88094">
        <ele>1872.4</ele>
        <time>2010-01-01T02:40:21Z</time>
      </trkpt>
      <trkpt lat="42.62988" lon="1.88087">
        <ele>1873</ele>
        <time>2010-01-01T02:40:24Z</time>
      </trkpt>
      <trkpt lat="42.62991" lon="1.88076">
        <ele>1871.5</ele>
        <time>2010-01-01T02:40:28Z</time>
      </trkpt>
      <trkpt lat="42.62989" lon="1.88063">
        <ele>1870.1999</ele>
        <time>2010-01-01T02:40:32Z</time>
      </trkpt>
      <trkpt lat="42.62994" lon="1.88053">
        <ele>1870.5</ele>
        <time>2010-01-01T02:40:35Z</time>
      </trkpt>
      <trkpt lat="42.62993" lon="1.88041">
        <ele>1868.9</ele>
        <time>2010-01-01T02:40:39Z</time>
      </trkpt>
      <trkpt lat="42.62991" lon="1.88029">
        <ele>1867.5999</ele>
        <time>2010-01-01T02:40:43Z</time>
      </trkpt>
      <trkpt lat="42.62993" lon="1.88016">
        <ele>1866.8</ele>
        <time>2010-01-01T02:40:46Z</time>
      </trkpt>
      <trkpt lat="42.62994" lon="1.88003">
        <ele>1866.0999</ele>
        <time>2010-01-01T02:40:50Z</time>
      </trkpt>
      <trkpt lat="42.62996" lon="1.8799">
        <ele>1865</ele>
        <time>2010-01-01T02:40:54Z</time>
      </trkpt>
      <trkpt lat="42.62997" lon="1.87978">
        <ele>1864.0999</ele>
        <time>2010-01-01T02:40:58Z</time>
      </trkpt>
      <trkpt lat="42.63002" lon="1.87966">
        <ele>1865.4</ele>
        <time>2010-01-01T02:41:02Z</time>
      </trkpt>
      <trkpt lat="42.63" lon="1.87954">
        <ele>1861.8</ele>
        <time>2010-01-01T02:41:05Z</time>
      </trkpt>
      <trkpt lat="42.62997" lon="1.87942">
        <ele>1859.4</ele>
        <time>2010-01-01T02:41:09Z</time>
      </trkpt>
      <trkpt lat="42.62996" lon="1.87929">
        <ele>1858.4</ele>
        <time>2010-01-01T02:41:13Z</time>
      </trkpt>
      <trkpt lat="42.63001" lon="1.87918">
        <ele>1858.5</ele>
        <time>2010-01-01T02:41:17Z</time>
      </trkpt>
      <trkpt lat="42.63003" lon="1.87905">
        <ele>1857</ele>
        <time>2010-01-01T02:41:21Z</time>
      </trkpt>
      <trkpt lat="42.63003" lon="1.87892">
        <ele>1855.5</ele>
        <time>2010-01-01T02:41:24Z</time>
      </trkpt>
      <trkpt lat="42.63001" lon="1.8788">
        <ele>1852.5</ele>
        <time>2010-01-01T02:41:28Z</time>
      </trkpt>
      <trkpt lat="42.63001" lon="1.87867">
        <ele>1850.5999</ele>
        <time>2010-01-01T02:41:32Z</time>
      </trkpt>
      <trkpt lat="42.63" lon="1.87855">
        <ele>1848.5</ele>
        <time>2010-01-01T02:41:36Z</time>
      </trkpt>
      <trkpt lat="42.62994" lon="1.87844">
        <ele>1846.0999</ele>
        <time>2010-01-01T02:41:39Z</time>
      </trkpt>
      <trkpt lat="42.62999" lon="1.87833">
        <ele>1845.9</ele>
        <time>2010-01-01T02:41:43Z</time>
      </trkpt>
      <trkpt lat="42.63006" lon="1.87823">
        <ele>1847.0999</ele>
        <time>2010-01-01T02:41:47Z</time>
      </trkpt>
      <trkpt lat="42.63011" lon="1.87812">
        <ele>1847.5</ele>
        <time>2010-01-01T02:41:51Z</time>
      </trkpt>
      <trkpt lat="42.63017" lon="1.87803">
        <ele>1848.5</ele>
        <time>2010-01-01T02:41:55Z</time>
      </trkpt>
      <trkpt lat="42.63022" lon="1.87791">
        <ele>1848.5999</ele>
        <time>2010-01-01T02:41:59Z</time>
      </trkpt>
      <trkpt lat="42.63026" lon="1.87779">
        <ele>1847.9</ele>
        <time>2010-01-01T02:42:02Z</time>
      </trkpt>
      <trkpt lat="42.63027" lon="1.87767">
        <ele>1846.5</ele>
        <time>2010-01-01T02:42:06Z</time>
      </trkpt>
      <trkpt lat="42.63026" lon="1.87754">
        <ele>1843</ele>
        <time>2010-01-01T02:42:10Z</time>
      </trkpt>
      <trkpt lat="42.63025" lon="1.87741">
        <ele>1841.8</ele>
        <time>2010-01-01T02:42:14Z</time>
      </trkpt>
      <trkpt lat="42.6303" lon="1.8773">
        <ele>1842.4</ele>
        <time>2010-01-01T02:42:17Z</time>
      </trkpt>
      <trkpt lat="42.63035" lon="1.87718">
        <ele>1842.0999</ele>
        <time>2010-01-01T02:42:21Z</time>
      </trkpt>
      <trkpt lat="42.63037" lon="1.87705">
        <ele>1841.5</ele>
        <time>2010-01-01T02:42:25Z</time>
      </trkpt>
      <trkpt lat="42.63041" lon="1.87694">
        <ele>1841.1999</ele>
        <time>2010-01-01T02:42:29Z</time>
      </trkpt>
      <trkpt lat="42.63044" lon="1.87682">
        <ele>1840.6999</ele>
        <time>2010-01-01T02:42:33Z</time>
      </trkpt>
      <trkpt lat="42.63047" lon="1.87669">
        <ele>1840.5</ele>
        <time>2010-01-01T02:42:37Z</time>
      </trkpt>
      <trkpt lat="42.63052" lon="1.87658">
        <ele>1841.8</ele>
        <time>2010-01-01T02:42:40Z</time>
      </trkpt>
      <trkpt lat="42.63059" lon="1.87649">
        <ele>1843.9</ele>
        <time>2010-01-01T02:42:44Z</time>
      </trkpt>
      <trkpt lat="42.63062" lon="1.87636">
        <ele>1843.8</ele>
        <time>2010-01-01T02:42:48Z</time>
      </trkpt>
      <trkpt lat="42.63067" lon="1.87625">
        <ele>1844.5</ele>
        <time>2010-01-01T02:42:52Z</time>
      </trkpt>
      <trkpt lat="42.63068" lon="1.87612">
        <ele>1842.6999</ele>
        <time>2010-01-01T02:42:56Z</time>
      </trkpt>
      <trkpt lat="42.63066" lon="1.876">
        <ele>1840.0999</ele>
        <time>2010-01-01T02:43:00Z</time>
      </trkpt>
      <trkpt lat="42.63066" lon="1.87587">
        <ele>1839.3</ele>
        <time>2010-01-01T02:43:03Z</time>
      </trkpt>
      <trkpt lat="42.63071" lon="1.87577">
        <ele>1839.5999</ele>
        <time>2010-01-01T02:43:07Z</time>
      </trkpt>
      <trkpt lat="42.63071" lon="1.87564">
        <ele>1839</ele>
        <time>2010-01-01T02:43:11Z</time>
      </trkpt>
      <trkpt lat="42.63077" lon="1.87555">
        <ele>1841.3</ele>
        <time>2010-01-01T02:43:15Z</time>
      </trkpt>
      <trkpt lat="42.63081" lon="1.87544">
        <ele>1841.4</ele>
        <time>2010-01-01T02:43:18Z</time>
      </trkpt>
      <trkpt lat="42.63085" lon="1.87532">
        <ele>1842.8</ele>
        <time>2010-01-01T02:43:22Z</time>
      </trkpt>
      <trkpt lat="42.63088" lon="1.8752">
        <ele>1843.9</ele>
        <time>2010-01-01T02:43:26Z</time>
      </trkpt>
      <trkpt lat="42.63091" lon="1.87507">
        <ele>1844.0999</ele>
        <time>2010-01-01T02:43:30Z</time>
      </trkpt>
      <trkpt lat="42.63098" lon="1.87498">
        <ele>1847.5999</ele>
        <time>2010-01-01T02:43:34Z</time>
      </trkpt>
      <trkpt lat="42.63103" lon="1.87487">
        <ele>1848.5999</ele>
        <time>2010-01-01T02:43:37Z</time>
      </trkpt>
      <trkpt lat="42.63106" lon="1.87475">
        <ele>1847.0999</ele>
        <time>2010-01-01T02:43:41Z</time>
      </trkpt>
      <trkpt lat="42.63106" lon="1.87463">
        <ele>1842.3</ele>
        <time>2010-01-01T02:43:45Z</time>
      </trkpt>
      <trkpt lat="42.63103" lon="1.87451">
        <ele>1837.4</ele>
        <time>2010-01-01T02:43:48Z</time>
      </trkpt>
      <trkpt lat="42.63101" lon="1.87439">
        <ele>1832.5999</ele>
        <time>2010-01-01T02:43:52Z</time>
      </trkpt>
      <trkpt lat="42.631" lon="1.87426">
        <ele>1829.9</ele>
        <time>2010-01-01T02:43:56Z</time>
      </trkpt>
      <trkpt lat="42.63104" lon="1.87414">
        <ele>1829.1999</ele>
        <time>2010-01-01T02:44:00Z</time>
      </trkpt>
      <trkpt lat="42.63105" lon="1.87402">
        <ele>1826.8</ele>
        <time>2010-01-01T02:44:03Z</time>
      </trkpt>
      <trkpt lat="42.63109" lon="1.87391">
        <ele>1825.5</ele>
        <time>2010-01-01T02:44:07Z</time>
      </trkpt>
      <trkpt lat="42.63109" lon="1.87378">
        <ele>1822.9</ele>
        <time>2010-01-01T02:44:11Z</time>
      </trkpt>
      <trkpt lat="42.63113" lon="1.87367">
        <ele>1820.1999</ele>
        <time>2010-01-01T02:44:14Z</time>
      </trkpt>
      <trkpt lat="42.63111" lon="1.87355">
        <ele>1815.5999</ele>
        <time>2010-01-01T02:44:18Z</time>
      </trkpt>
      <trkpt lat="42.63109" lon="1.87341">
        <ele>1811.9</ele>
        <time>2010-01-01T02:44:22Z</time>
      </trkpt>
      <trkpt lat="42.63113" lon="1.8733">
        <ele>1810.9</ele>
        <time>2010-01-01T02:44:26Z</time>
      </trkpt>
      <trkpt lat="42.63118" lon="1.87318">
        <ele>1810.0999</ele>
        <time>2010-01-01T02:44:30Z</time>
      </trkpt>
      <trkpt lat="42.63123" lon="1.87308">
        <ele>1808.5999</ele>
        <time>2010-01-01T02:44:33Z</time>
      </trkpt>
      <trkpt lat="42.63126" lon="1.87295">
        <ele>1806.4</ele>
        <time>2010-01-01T02:44:37Z</time>
      </trkpt>
      <trkpt lat="42.63132" lon="1.87285">
        <ele>1806.5</ele>
        <time>2010-01-01T02:44:41Z</time>
      </trkpt>
      <trkpt lat="42.6314" lon="1.87278">
        <ele>1806.8</ele>
        <time>2010-01-01T02:44:45Z</time>
      </trkpt>
      <trkpt lat="42.63145" lon="1.87267">
        <ele>1803.4</ele>
        <time>2010-01-01T02:44:49Z</time>
      </trkpt>
      <trkpt lat="42.63147" lon="1.87255">
        <ele>1799.9</ele>
        <time>2010-01-01T02:44:52Z</time>
      </trkpt>
      <trkpt lat="42.63151" lon="1.87244">
        <ele>1798.5</ele>
        <time>2010-01-01T02:44:56Z</time>
      </trkpt>
      <trkpt lat="42.63155" lon="1.87232">
        <ele>1795.9</ele>
        <time>2010-01-01T02:45:00Z</time>
      </trkpt>
      <trkpt lat="42.63162" lon="1.87223">
        <ele>1794.1999</ele>
        <time>2010-01-01T02:45:04Z</time>
      </trkpt>
      <trkpt lat="42.63164" lon="1.87211">
        <ele>1790.8</ele>
        <time>2010-01-01T02:45:08Z</time>
      </trkpt>
      <trkpt lat="42.6317" lon="1.87201">
        <ele>1788.9</ele>
        <time>2010-01-01T02:45:11Z</time>
      </trkpt>
      <trkpt lat="42.63177" lon="1.87191">
        <ele>1787.4</ele>
        <time>2010-01-01T02:45:15Z</time>
      </trkpt>
      <trkpt lat="42.63185" lon="1.87184">
        <ele>1786.5999</ele>
        <time>2010-01-01T02:45:19Z</time>
      </trkpt>
      <trkpt lat="42.63192" lon="1.87176">
        <ele>1784.8</ele>
        <time>2010-01-01T02:45:23Z</time>
      </trkpt>
      <trkpt lat="42.632" lon="1.87168">
        <ele>1782.5999</ele>
        <time>2010-01-01T02:45:27Z</time>
      </trkpt>
      <trkpt lat="42.63208" lon="1.87163">
        <ele>1782</ele>
        <time>2010-01-01T02:45:30Z</time>
      </trkpt>
      <trkpt lat="42.63214" lon="1.87154">
        <ele>1780.3</ele>
        <time>2010-01-01T02:45:34Z</time>
      </trkpt>
      <trkpt lat="42.63222" lon="1.87148">
        <ele>1779.3</ele>
        <time>2010-01-01T02:45:38Z</time>
      </trkpt>
      <trkpt lat="42.63231" lon="1.87143">
        <ele>1777.5999</ele>
        <time>2010-01-01T02:45:41Z</time>
      </trkpt>
      <trkpt lat="42.63238" lon="1.87135">
        <ele>1774.5999</ele>
        <time>2010-01-01T02:45:45Z</time>
      </trkpt>
      <trkpt lat="42.63239" lon="1.87122">
        <ele>1769.8</ele>
        <time>2010-01-01T02:45:49Z</time>
      </trkpt>
      <trkpt lat="42.63239" lon="1.8711">
        <ele>1766</ele>
        <time>2010-01-01T02:45:53Z</time>
      </trkpt>
      <trkpt lat="42.63246" lon="1.87101">
        <ele>1763.6999</ele>
        <time>2010-01-01T02:45:56Z</time>
      </trkpt>
      <trkpt lat="42.63252" lon="1.87093">
        <ele>1761.5999</ele>
        <time>2010-01-01T02:46:00Z</time>
      </trkpt>
      <trkpt lat="42.63258" lon="1.87083">
        <ele>1760.5</ele>
        <time>2010-01-01T02:46:04Z</time>
      </trkpt>
      <trkpt lat="42.63265" lon="1.87074">
        <ele>1761.5</ele>
        <time>2010-01-01T02:46:07Z</time>
      </trkpt>
      <trkpt lat="42.63274" lon="1.87071">
        <ele>1762</ele>
        <time>2010-01-01T02:46:11Z</time>
      </trkpt>
      <trkpt lat="42.63273" lon="1.87059">
        <ele>1760.0999</ele>
        <time>2010-01-01T02:46:15Z</time>
      </trkpt>
      <trkpt lat="42.63281" lon="1.87053">
        <ele>1761</ele>
        <time>2010-01-01T02:46:19Z</time>
      </trkpt>
      <trkpt lat="42.63285" lon="1.87042">
        <ele>1759.4</ele>
        <time>2010-01-01T02:46:22Z</time>
      </trkpt>
      <trkpt lat="42.63291" lon="1.87032">
        <ele>1759.1999</ele>
        <time>2010-01-01T02:46:26Z</time>
      </trkpt>
      <trkpt lat="42.63301" lon="1.87028">
        <ele>1760.1999</ele>
        <time>2010-01-01T02:46:30Z</time>
      </trkpt>
      <trkpt lat="42.63305" lon="1.87016">
        <ele>1757.4</ele>
        <time>2010-01-01T02:46:34Z</time>
      </trkpt>
      <trkpt lat="42.63311" lon="1.87006">
        <ele>1756.5999</ele>
        <time>2010-01-01T02:46:38Z</time>
      </trkpt>
      <trkpt lat="42.63318" lon="1.86998">
        <ele>1756.5999</ele>
        <time>2010-01-01T02:46:42Z</time>
      </trkpt>
      <trkpt lat="42.63327" lon="1.86993">
        <ele>1757.1999</ele>
        <time>2010-01-01T02:46:46Z</time>
      </trkpt>
      <trkpt lat="42.63336" lon="1.86991">
        <ele>1758.5</ele>
        <time>2010-01-01T02:46:49Z</time>
      </trkpt>
      <trkpt lat="42.63344" lon="1.86985">
        <ele>1756.9</ele>
        <time>2010-01-01T02:46:53Z</time>
      </trkpt>
      <trkpt lat="42.63349" lon="1.86974">
        <ele>1754.8</ele>
        <time>2010-01-01T02:46:57Z</time>
      </trkpt>
      <trkpt lat="42.63352" lon="1.86962">
        <ele>1751.3</ele>
        <time>2010-01-01T02:47:00Z</time>
      </trkpt>
      <trkpt lat="42.63357" lon="1.86951">
        <ele>1748.9</ele>
        <time>2010-01-01T02:47:04Z</time>
      </trkpt>
      <trkpt lat="42.63365" lon="1.86944">
        <ele>1747.6999</ele>
        <time>2010-01-01T02:47:08Z</time>
      </trkpt>
      <trkpt lat="42.63374" lon="1.8694">
        <ele>1746.9</ele>
        <time>2010-01-01T02:47:12Z</time>
      </trkpt>
      <trkpt lat="42.63383" lon="1.86935">
        <ele>1745.1999</ele>
        <time>2010-01-01T02:47:16Z</time>
      </trkpt>
      <trkpt lat="42.63391" lon="1.86928">
        <ele>1743.5999</ele>
        <time>2010-01-01T02:47:20Z</time>
      </trkpt>
      <trkpt lat="42.634" lon="1.86927">
        <ele>1743.4</ele>
        <time>2010-01-01T02:47:23Z</time>
      </trkpt>
      <trkpt lat="42.63409" lon="1.86922">
        <ele>1741.3</ele>
        <time>2010-01-01T02:47:27Z</time>
      </trkpt>
      <trkpt lat="42.63417" lon="1.86916">
        <ele>1739.5</ele>
        <time>2010-01-01T02:47:31Z</time>
      </trkpt>
      <trkpt lat="42.63425" lon="1.86909">
        <ele>1738.3</ele>
        <time>2010-01-01T02:47:34Z</time>
      </trkpt>
      <trkpt lat="42.63434" lon="1.86904">
        <ele>1737.3</ele>
        <time>2010-01-01T02:47:38Z</time>
      </trkpt>
      <trkpt lat="42.63441" lon="1.86896">
        <ele>1735.9</ele>
        <time>2010-01-01T02:47:42Z</time>
      </trkpt>
      <trkpt lat="42.63451" lon="1.86892">
        <ele>1735.3</ele>
        <time>2010-01-01T02:47:46Z</time>
      </trkpt>
      <trkpt lat="42.6346" lon="1.86888">
        <ele>1734.5999</ele>
        <time>2010-01-01T02:47:50Z</time>
      </trkpt>
      <trkpt lat="42.63468" lon="1.86882">
        <ele>1733.5</ele>
        <time>2010-01-01T02:47:54Z</time>
      </trkpt>
      <trkpt lat="42.63477" lon="1.86878">
        <ele>1732.5999</ele>
        <time>2010-01-01T02:47:58Z</time>
      </trkpt>
      <trkpt lat="42.63486" lon="1.86873">
        <ele>1731.6999</ele>
        <time>2010-01-01T02:48:01Z</time>
      </trkpt>
      <trkpt lat="42.63495" lon="1.86871">
        <ele>1731.6999</ele>
        <time>2010-01-01T02:48:05Z</time>
      </trkpt>
      <trkpt lat="42.63504" lon="1.8687">
        <ele>1732.0999</ele>
        <time>2010-01-01T02:48:09Z</time>
      </trkpt>
      <trkpt lat="42.6351" lon="1.8686">
        <ele>1730.6999</ele>
        <time>2010-01-01T02:48:13Z</time>
      </trkpt>
      <trkpt lat="42.63518" lon="1.86852">
        <ele>1730.0999</ele>
        <time>2010-01-01T02:48:17Z</time>
      </trkpt>
      <trkpt lat="42.63527" lon="1.86846">
        <ele>1729.6999</ele>
        <time>2010-01-01T02:48:20Z</time>
      </trkpt>
      <trkpt lat="42.63535" lon="1.86841">
        <ele>1729.8</ele>
        <time>2010-01-01T02:48:24Z</time>
      </trkpt>
      <trkpt lat="42.63544" lon="1.86836">
        <ele>1729.4</ele>
        <time>2010-01-01T02:48:28Z</time>
      </trkpt>
      <trkpt lat="42.63553" lon="1.86831">
        <ele>1729.1999</ele>
        <time>2010-01-01T02:48:32Z</time>
      </trkpt>
      <trkpt lat="42.63562" lon="1.86825">
        <ele>1728.1999</ele>
        <time>2010-01-01T02:48:36Z</time>
      </trkpt>
      <trkpt lat="42.63571" lon="1.86817">
        <ele>1726.1999</ele>
        <time>2010-01-01T02:48:40Z</time>
      </trkpt>
      <trkpt lat="42.63578" lon="1.86808">
        <ele>1723.6999</ele>
        <time>2010-01-01T02:48:44Z</time>
      </trkpt>
      <trkpt lat="42.63586" lon="1.86803">
        <ele>1722.5999</ele>
        <time>2010-01-01T02:48:48Z</time>
      </trkpt>
      <trkpt lat="42.63595" lon="1.86798">
        <ele>1721.9</ele>
        <time>2010-01-01T02:48:51Z</time>
      </trkpt>
      <trkpt lat="42.63604" lon="1.86792">
        <ele>1719.9</ele>
        <time>2010-01-01T02:48:55Z</time>
      </trkpt>
      <trkpt lat="42.63611" lon="1.86783">
        <ele>1717.4</ele>
        <time>2010-01-01T02:48:59Z</time>
      </trkpt>
      <trkpt lat="42.63618" lon="1.86775">
        <ele>1716.0999</ele>
        <time>2010-01-01T02:49:03Z</time>
      </trkpt>
      <trkpt lat="42.63628" lon="1.86775">
        <ele>1716.9</ele>
        <time>2010-01-01T02:49:07Z</time>
      </trkpt>
      <trkpt lat="42.63637" lon="1.86769">
        <ele>1715.6999</ele>
        <time>2010-01-01T02:49:11Z</time>
      </trkpt>
      <trkpt lat="42.63646" lon="1.8677">
        <ele>1717.5</ele>
        <time>2010-01-01T02:49:15Z</time>
      </trkpt>
      <trkpt lat="42.63656" lon="1.86769">
        <ele>1717</ele>
        <time>2010-01-01T02:49:19Z</time>
      </trkpt>
      <trkpt lat="42.63663" lon="1.86761">
        <ele>1714.5</ele>
        <time>2010-01-01T02:49:22Z</time>
      </trkpt>
      <trkpt lat="42.63672" lon="1.86757">
        <ele>1712.6999</ele>
        <time>2010-01-01T02:49:26Z</time>
      </trkpt>
      <trkpt lat="42.6368" lon="1.86751">
        <ele>1709.8</ele>
        <time>2010-01-01T02:49:30Z</time>
      </trkpt>
      <trkpt lat="42.63689" lon="1.86744">
        <ele>1708.4</ele>
        <time>2010-01-01T02:49:34Z</time>
      </trkpt>
      <trkpt lat="42.63697" lon="1.86738">
        <ele>1706.4</ele>
        <time>2010-01-01T02:49:38Z</time>
      </trkpt>
      <trkpt lat="42.63706" lon="1.86734">
        <ele>1705.0999</ele>
        <time>2010-01-01T02:49:41Z</time>
      </trkpt>
      <trkpt lat="42.63715" lon="1.86732">
        <ele>1704.4</ele>
        <time>2010-01-01T02:49:45Z</time>
      </trkpt>
      <trkpt lat="42.63724" lon="1.86728">
        <ele>1702.3</ele>
        <time>2010-01-01T02:49:49Z</time>
      </trkpt>
      <trkpt lat="42.63731" lon="1.86721">
        <ele>1699.5</ele>
        <time>2010-01-01T02:49:52Z</time>
      </trkpt>
      <trkpt lat="42.6374" lon="1.8672">
        <ele>1698.1999</ele>
        <time>2010-01-01T02:49:56Z</time>
      </trkpt>
      <trkpt lat="42.63749" lon="1.86716">
        <ele>1695.9</ele>
        <time>2010-01-01T02:50:00Z</time>
      </trkpt>
      <trkpt lat="42.63759" lon="1.86711">
        <ele>1694.6999</ele>
        <time>2010-01-01T02:50:04Z</time>
      </trkpt>
      <trkpt lat="42.63765" lon="1.86703">
        <ele>1691.4</ele>
        <time>2010-01-01T02:50:07Z</time>
      </trkpt>
      <trkpt lat="42.63773" lon="1.86696">
        <ele>1688.1999</ele>
        <time>2010-01-01T02:50:11Z</time>
      </trkpt>
      <trkpt lat="42.63782" lon="1.86694">
        <ele>1687.3</ele>
        <time>2010-01-01T02:50:15Z</time>
      </trkpt>
      <trkpt lat="42.63791" lon="1.86691">
        <ele>1686.5999</ele>
        <time>2010-01-01T02:50:18Z</time>
      </trkpt>
      <trkpt lat="42.63801" lon="1.86692">
        <ele>1686.3</ele>
        <time>2010-01-01T02:50:22Z</time>
      </trkpt>
      <trkpt lat="42.63807" lon="1.86682">
        <ele>1681.4</ele>
        <time>2010-01-01T02:50:26Z</time>
      </trkpt>
      <trkpt lat="42.63817" lon="1.86683">
        <ele>1681.5</ele>
        <time>2010-01-01T02:50:30Z</time>
      </trkpt>
      <trkpt lat="42.63825" lon="1.86676">
        <ele>1677</ele>
        <time>2010-01-01T02:50:34Z</time>
      </trkpt>
      <trkpt lat="42.63833" lon="1.8667">
        <ele>1674.3</ele>
        <time>2010-01-01T02:50:37Z</time>
      </trkpt>
      <trkpt lat="42.63841" lon="1.86663">
        <ele>1673.6999</ele>
        <time>2010-01-01T02:50:41Z</time>
      </trkpt>
      <trkpt lat="42.63848" lon="1.86655">
        <ele>1673.1999</ele>
        <time>2010-01-01T02:50:45Z</time>
      </trkpt>
      <trkpt lat="42.63854" lon="1.86645">
        <ele>1671.4</ele>
        <time>2010-01-01T02:50:49Z</time>
      </trkpt>
      <trkpt lat="42.63862" lon="1.86639">
        <ele>1672.5999</ele>
        <time>2010-01-01T02:50:52Z</time>
      </trkpt>
      <trkpt lat="42.6387" lon="1.86632">
        <ele>1672</ele>
        <time>2010-01-01T02:50:56Z</time>
      </trkpt>
      <trkpt lat="42.63877" lon="1.86625">
        <ele>1671.1999</ele>
        <time>2010-01-01T02:51:00Z</time>
      </trkpt>
      <trkpt lat="42.63884" lon="1.86616">
        <ele>1668.5999</ele>
        <time>2010-01-01T02:51:03Z</time>
      </trkpt>
      <trkpt lat="42.63892" lon="1.86614">
        <ele>1671.0999</ele>
        <time>2010-01-01T02:51:07Z</time>
      </trkpt>
      <trkpt lat="42.63902" lon="1.8661">
        <ele>1671.4</ele>
        <time>2010-01-01T02:51:11Z</time>
      </trkpt>
      <trkpt lat="42.63909" lon="1.86603">
        <ele>1670.0999</ele>
        <time>2010-01-01T02:51:15Z</time>
      </trkpt>
      <trkpt lat="42.63918" lon="1.86598">
        <ele>1669.8</ele>
        <time>2010-01-01T02:51:18Z</time>
      </trkpt>
      <trkpt lat="42.63925" lon="1.8659">
        <ele>1666.4</ele>
        <time>2010-01-01T02:51:22Z</time>
      </trkpt>
      <trkpt lat="42.6393" lon="1.8658">
        <ele>1663.4</ele>
        <time>2010-01-01T02:51:26Z</time>
      </trkpt>
      <trkpt lat="42.63934" lon="1.86568">
        <ele>1659.8</ele>
        <time>2010-01-01T02:51:29Z</time>
      </trkpt>
      <trkpt lat="42.63939" lon="1.86558">
        <ele>1656.5</ele>
        <time>2010-01-01T02:51:33Z</time>
      </trkpt>
      <trkpt lat="42.63942" lon="1.86545">
        <ele>1652.5999</ele>
        <time>2010-01-01T02:51:37Z</time>
      </trkpt>
      <trkpt lat="42.63949" lon="1.86537">
        <ele>1650.1999</ele>
        <time>2010-01-01T02:51:41Z</time>
      </trkpt>
      <trkpt lat="42.63955" lon="1.86526">
        <ele>1647.3</ele>
        <time>2010-01-01T02:51:45Z</time>
      </trkpt>
      <trkpt lat="42.6396" lon="1.86514">
        <ele>1642.8</ele>
        <time>2010-01-01T02:51:49Z</time>
      </trkpt>
      <trkpt lat="42.63966" lon="1.86504">
        <ele>1639.4</ele>
        <time>2010-01-01T02:51:53Z</time>
      </trkpt>
      <trkpt lat="42.6397" lon="1.86493">
        <ele>1634.1999</ele>
        <time>2010-01-01T02:51:56Z</time>
      </trkpt>
      <trkpt lat="42.63972" lon="1.8648">
        <ele>1628.5999</ele>
        <time>2010-01-01T02:52:00Z</time>
      </trkpt>
      <trkpt lat="42.63976" lon="1.86469">
        <ele>1623.4</ele>
        <time>2010-01-01T02:52:04Z</time>
      </trkpt>
      <trkpt lat="42.63981" lon="1.86457">
        <ele>1618.0999</ele>
        <time>2010-01-01T02:52:08Z</time>
      </trkpt>
      <trkpt lat="42.63988" lon="1.8645">
        <ele>1614.1999</ele>
        <time>2010-01-01T02:52:11Z</time>
      </trkpt>
      <trkpt lat="42.63998" lon="1.86447">
        <ele>1612</ele>
        <time>2010-01-01T02:52:15Z</time>
      </trkpt>
      <trkpt lat="42.64006" lon="1.86441">
        <ele>1608.8</ele>
        <time>2010-01-01T02:52:19Z</time>
      </trkpt>
      <trkpt lat="42.64015" lon="1.86439">
        <ele>1608.4</ele>
        <time>2010-01-01T02:52:23Z</time>
      </trkpt>
      <trkpt lat="42.64024" lon="1.86437">
        <ele>1607.3</ele>
        <time>2010-01-01T02:52:26Z</time>
      </trkpt>
      <trkpt lat="42.64034" lon="1.86435">
        <ele>1606.0999</ele>
        <time>2010-01-01T02:52:30Z</time>
      </trkpt>
      <trkpt lat="42.64043" lon="1.86434">
        <ele>1605.8</ele>
        <time>2010-01-01T02:52:34Z</time>
      </trkpt>
      <trkpt lat="42.64051" lon="1.86429">
        <ele>1602.9</ele>
        <time>2010-01-01T02:52:38Z</time>
      </trkpt>
      <trkpt lat="42.64059" lon="1.86421">
        <ele>1599.0999</ele>
        <time>2010-01-01T02:52:41Z</time>
      </trkpt>
      <trkpt lat="42.64068" lon="1.86416">
        <ele>1597.1999</ele>
        <time>2010-01-01T02:52:45Z</time>
      </trkpt>
      <trkpt lat="42.64076" lon="1.86409">
        <ele>1594.4</ele>
        <time>2010-01-01T02:52:49Z</time>
      </trkpt>
      <trkpt lat="42.64084" lon="1.86402">
        <ele>1591.6999</ele>
        <time>2010-01-01T02:52:53Z</time>
      </trkpt>
      <trkpt lat="42.64092" lon="1.86395">
        <ele>1588.0999</ele>
        <time>2010-01-01T02:52:57Z</time>
      </trkpt>
      <trkpt lat="42.641" lon="1.86392">
        <ele>1586.0999</ele>
        <time>2010-01-01T02:53:00Z</time>
      </trkpt>
      <trkpt lat="42.64109" lon="1.86386">
        <ele>1582.4</ele>
        <time>2010-01-01T02:53:04Z</time>
      </trkpt>
      <trkpt lat="42.64117" lon="1.86378">
        <ele>1578.6999</ele>
        <time>2010-01-01T02:53:08Z</time>
      </trkpt>
      <trkpt lat="42.64124" lon="1.86369">
        <ele>1574</ele>
        <time>2010-01-01T02:53:12Z</time>
      </trkpt>
      <trkpt lat="42.64128" lon="1.86358">
        <ele>1568.9</ele>
        <time>2010-01-01T02:53:15Z</time>
      </trkpt>
      <trkpt lat="42.64131" lon="1.86346">
        <ele>1562.6999</ele>
        <time>2010-01-01T02:53:19Z</time>
      </trkpt>
      <trkpt lat="42.64137" lon="1.86336">
        <ele>1558.1999</ele>
        <time>2010-01-01T02:53:23Z</time>
      </trkpt>
      <trkpt lat="42.64144" lon="1.8633">
        <ele>1555.8</ele>
        <time>2010-01-01T02:53:26Z</time>
      </trkpt>
      <trkpt lat="42.64149" lon="1.86319">
        <ele>1552.5999</ele>
        <time>2010-01-01T02:53:30Z</time>
      </trkpt>
      <trkpt lat="42.64157" lon="1.86312">
        <ele>1549.9</ele>
        <time>2010-01-01T02:53:34Z</time>
      </trkpt>
      <trkpt lat="42.64167" lon="1.8631">
        <ele>1548.1999</ele>
        <time>2010-01-01T02:53:38Z</time>
      </trkpt>
      <trkpt lat="42.64171" lon="1.86299">
        <ele>1544.4</ele>
        <time>2010-01-01T02:53:41Z</time>
      </trkpt>
      <trkpt lat="42.64179" lon="1.86293">
        <ele>1541.9</ele>
        <time>2010-01-01T02:53:45Z</time>
      </trkpt>
      <trkpt lat="42.64188" lon="1.86291">
        <ele>1540.4</ele>
        <time>2010-01-01T02:53:49Z</time>
      </trkpt>
      <trkpt lat="42.64197" lon="1.86288">
        <ele>1538.8</ele>
        <time>2010-01-01T02:53:53Z</time>
      </trkpt>
      <trkpt lat="42.64207" lon="1.86288">
        <ele>1537.5</ele>
        <time>2010-01-01T02:53:56Z</time>
      </trkpt>
      <trkpt lat="42.64216" lon="1.86284">
        <ele>1535.3</ele>
        <time>2010-01-01T02:54:00Z</time>
      </trkpt>
      <trkpt lat="42.64225" lon="1.8628">
        <ele>1533.5999</ele>
        <time>2010-01-01T02:54:04Z</time>
      </trkpt>
      <trkpt lat="42.64233" lon="1.86276">
        <ele>1531.9</ele>
        <time>2010-01-01T02:54:08Z</time>
      </trkpt>
      <trkpt lat="42.64243" lon="1.86276">
        <ele>1531</ele>
        <time>2010-01-01T02:54:11Z</time>
      </trkpt>
      <trkpt lat="42.64252" lon="1.86278">
        <ele>1531.4</ele>
        <time>2010-01-01T02:54:15Z</time>
      </trkpt>
      <trkpt lat="42.6426" lon="1.86283">
        <ele>1532.4</ele>
        <time>2010-01-01T02:54:19Z</time>
      </trkpt>
      <trkpt lat="42.6427" lon="1.86283">
        <ele>1532</ele>
        <time>2010-01-01T02:54:22Z</time>
      </trkpt>
      <trkpt lat="42.64278" lon="1.86278">
        <ele>1530.6999</ele>
        <time>2010-01-01T02:54:26Z</time>
      </trkpt>
      <trkpt lat="42.64287" lon="1.86274">
        <ele>1529.5999</ele>
        <time>2010-01-01T02:54:30Z</time>
      </trkpt>
      <trkpt lat="42.64297" lon="1.86274">
        <ele>1529.1999</ele>
        <time>2010-01-01T02:54:34Z</time>
      </trkpt>
      <trkpt lat="42.64306" lon="1.86271">
        <ele>1528.1999</ele>
        <time>2010-01-01T02:54:37Z</time>
      </trkpt>
      <trkpt lat="42.64315" lon="1.86271">
        <ele>1528</ele>
        <time>2010-01-01T02:54:41Z</time>
      </trkpt>
      <trkpt lat="42.64324" lon="1.86268">
        <ele>1526.4</ele>
        <time>2010-01-01T02:54:45Z</time>
      </trkpt>
      <trkpt lat="42.64333" lon="1.86264">
        <ele>1525.5</ele>
        <time>2010-01-01T02:54:49Z</time>
      </trkpt>
      <trkpt lat="42.64342" lon="1.86262">
        <ele>1525.1999</ele>
        <time>2010-01-01T02:54:52Z</time>
      </trkpt>
      <trkpt lat="42.6435" lon="1.86257">
        <ele>1524.8</ele>
        <time>2010-01-01T02:54:56Z</time>
      </trkpt>
      <trkpt lat="42.6436" lon="1.86254">
        <ele>1525.6999</ele>
        <time>2010-01-01T02:55:00Z</time>
      </trkpt>
      <trkpt lat="42.64369" lon="1.86254">
        <ele>1527</ele>
        <time>2010-01-01T02:55:04Z</time>
      </trkpt>
      <trkpt lat="42.64378" lon="1.86253">
        <ele>1527.4</ele>
        <time>2010-01-01T02:55:07Z</time>
      </trkpt>
      <trkpt lat="42.64388" lon="1.8625">
        <ele>1528</ele>
        <time>2010-01-01T02:55:11Z</time>
      </trkpt>
      <trkpt lat="42.64397" lon="1.8625">
        <ele>1529.3</ele>
        <time>2010-01-01T02:55:15Z</time>
      </trkpt>
      <trkpt lat="42.64406" lon="1.8625">
        <ele>1530.4</ele>
        <time>2010-01-01T02:55:19Z</time>
      </trkpt>
      <trkpt lat="42.64415" lon="1.86247">
        <ele>1530.8</ele>
        <time>2010-01-01T02:55:22Z</time>
      </trkpt>
      <trkpt lat="42.64424" lon="1.86246">
        <ele>1531</ele>
        <time>2010-01-01T02:55:26Z</time>
      </trkpt>
      <trkpt lat="42.64433" lon="1.86241">
        <ele>1530.6999</ele>
        <time>2010-01-01T02:55:30Z</time>
      </trkpt>
      <trkpt lat="42.64443" lon="1.86238">
        <ele>1531.5</ele>
        <time>2010-01-01T02:55:34Z</time>
      </trkpt>
      <trkpt lat="42.64451" lon="1.86243">
        <ele>1534.1999</ele>
        <time>2010-01-01T02:55:37Z</time>
      </trkpt>
      <trkpt lat="42.6446" lon="1.86243">
        <ele>1535.1999</ele>
        <time>2010-01-01T02:55:41Z</time>
      </trkpt>
      <trkpt lat="42.6447" lon="1.86242">
        <ele>1535.9</ele>
        <time>2010-01-01T02:55:45Z</time>
      </trkpt>
      <trkpt lat="42.64478" lon="1.86237">
        <ele>1533.8</ele>
        <time>2010-01-01T02:55:48Z</time>
      </trkpt>
      <trkpt lat="42.64482" lon="1.86225">
        <ele>1530.5</ele>
        <time>2010-01-01T02:55:52Z</time>
      </trkpt>
      <trkpt lat="42.64491" lon="1.86219">
        <ele>1529.8</ele>
        <time>2010-01-01T02:55:56Z</time>
      </trkpt>
      <trkpt lat="42.64499" lon="1.86213">
        <ele>1528.6999</ele>
        <time>2010-01-01T02:56:00Z</time>
      </trkpt>
      <trkpt lat="42.64508" lon="1.86209">
        <ele>1526.9</ele>
        <time>2010-01-01T02:56:04Z</time>
      </trkpt>
      <trkpt lat="42.64514" lon="1.86199">
        <ele>1523.6999</ele>
        <time>2010-01-01T02:56:07Z</time>
      </trkpt>
      <trkpt lat="42.64518" lon="1.86187">
        <ele>1519.6999</ele>
        <time>2010-01-01T02:56:11Z</time>
      </trkpt>
      <trkpt lat="42.64521" lon="1.86175">
        <ele>1515.4</ele>
        <time>2010-01-01T02:56:15Z</time>
      </trkpt>
      <trkpt lat="42.64522" lon="1.86163">
        <ele>1510.8</ele>
        <time>2010-01-01T02:56:19Z</time>
      </trkpt>
      <trkpt lat="42.64527" lon="1.86152">
        <ele>1507.1999</ele>
        <time>2010-01-01T02:56:22Z</time>
      </trkpt>
      <trkpt lat="42.64534" lon="1.86144">
        <ele>1504.4</ele>
        <time>2010-01-01T02:56:26Z</time>
      </trkpt>
      <trkpt lat="42.64542" lon="1.86137">
        <ele>1502.0999</ele>
        <time>2010-01-01T02:56:30Z</time>
      </trkpt>
      <trkpt lat="42.64549" lon="1.86128">
        <ele>1498.8</ele>
        <time>2010-01-01T02:56:34Z</time>
      </trkpt>
      <trkpt lat="42.64554" lon="1.86117">
        <ele>1495.0999</ele>
        <time>2010-01-01T02:56:37Z</time>
      </trkpt>
      <trkpt lat="42.64561" lon="1.86109">
        <ele>1491.8</ele>
        <time>2010-01-01T02:56:41Z</time>
      </trkpt>
      <trkpt lat="42.64567" lon="1.86099">
        <ele>1488.3</ele>
        <time>2010-01-01T02:56:45Z</time>
      </trkpt>
      <trkpt lat="42.64573" lon="1.86089">
        <ele>1484.5999</ele>
        <time>2010-01-01T02:56:49Z</time>
      </trkpt>
      <trkpt lat="42.64579" lon="1.86079">
        <ele>1481.8</ele>
        <time>2010-01-01T02:56:53Z</time>
      </trkpt>
      <trkpt lat="42.64586" lon="1.8607">
        <ele>1479.5999</ele>
        <time>2010-01-01T02:56:56Z</time>
      </trkpt>
      <trkpt lat="42.6459" lon="1.86059">
        <ele>1477.5999</ele>
        <time>2010-01-01T02:57:00Z</time>
      </trkpt>
      <trkpt lat="42.64596" lon="1.8605">
        <ele>1476.3</ele>
        <time>2010-01-01T02:57:04Z</time>
      </trkpt>
      <trkpt lat="42.64599" lon="1.86037">
        <ele>1472.4</ele>
        <time>2010-01-01T02:57:08Z</time>
      </trkpt>
      <trkpt lat="42.64602" lon="1.86026">
        <ele>1469.9</ele>
        <time>2010-01-01T02:57:11Z</time>
      </trkpt>
      <trkpt lat="42.64611" lon="1.86027">
        <ele>1473.4</ele>
        <time>2010-01-01T02:57:15Z</time>
      </trkpt>
      <trkpt lat="42.64621" lon="1.86028">
        <ele>1475.5</ele>
        <time>2010-01-01T02:57:18Z</time>
      </trkpt>
      <trkpt lat="42.64628" lon="1.86021">
        <ele>1473.6999</ele>
        <time>2010-01-01T02:57:22Z</time>
      </trkpt>
      <trkpt lat="42.64632" lon="1.8601">
        <ele>1470.0999</ele>
        <time>2010-01-01T02:57:26Z</time>
      </trkpt>
      <trkpt lat="42.64633" lon="1.85997">
        <ele>1466.0999</ele>
        <time>2010-01-01T02:57:30Z</time>
      </trkpt>
      <trkpt lat="42.6464" lon="1.85989">
        <ele>1464.3</ele>
        <time>2010-01-01T02:57:33Z</time>
      </trkpt>
      <trkpt lat="42.64646" lon="1.85979">
        <ele>1461.1999</ele>
        <time>2010-01-01T02:57:37Z</time>
      </trkpt>
      <trkpt lat="42.6465" lon="1.85968">
        <ele>1458.0999</ele>
        <time>2010-01-01T02:57:41Z</time>
      </trkpt>
      <trkpt lat="42.64659" lon="1.85963">
        <ele>1457.8</ele>
        <time>2010-01-01T02:57:45Z</time>
      </trkpt>
      <trkpt lat="42.64665" lon="1.85953">
        <ele>1455.0999</ele>
        <time>2010-01-01T02:57:48Z</time>
      </trkpt>
      <trkpt lat="42.64671" lon="1.85944">
        <ele>1453.5</ele>
        <time>2010-01-01T02:57:52Z</time>
      </trkpt>
      <trkpt lat="42.64679" lon="1.85936">
        <ele>1452.8</ele>
        <time>2010-01-01T02:57:56Z</time>
      </trkpt>
      <trkpt lat="42.64686" lon="1.85928">
        <ele>1452.0999</ele>
        <time>2010-01-01T02:57:59Z</time>
      </trkpt>
      <trkpt lat="42.64694" lon="1.85923">
        <ele>1452.9</ele>
        <time>2010-01-01T02:58:03Z</time>
      </trkpt>
      <trkpt lat="42.64703" lon="1.85918">
        <ele>1452.5</ele>
        <time>2010-01-01T02:58:07Z</time>
      </trkpt>
      <trkpt lat="42.64709" lon="1.8591">
        <ele>1451.6999</ele>
        <time>2010-01-01T02:58:11Z</time>
      </trkpt>
      <trkpt lat="42.64716" lon="1.85901">
        <ele>1450.5999</ele>
        <time>2010-01-01T02:58:14Z</time>
      </trkpt>
      <trkpt lat="42.64723" lon="1.85893">
        <ele>1448.8</ele>
        <time>2010-01-01T02:58:18Z</time>
      </trkpt>
      <trkpt lat="42.64729" lon="1.85883">
        <ele>1446</ele>
        <time>2010-01-01T02:58:22Z</time>
      </trkpt>
      <trkpt lat="42.64734" lon="1.85871">
        <ele>1442.5999</ele>
        <time>2010-01-01T02:58:26Z</time>
      </trkpt>
      <trkpt lat="42.64738" lon="1.8586">
        <ele>1438.9</ele>
        <time>2010-01-01T02:58:29Z</time>
      </trkpt>
      <trkpt lat="42.64743" lon="1.8585">
        <ele>1435.6999</ele>
        <time>2010-01-01T02:58:33Z</time>
      </trkpt>
      <trkpt lat="42.64746" lon="1.85838">
        <ele>1431.4</ele>
        <time>2010-01-01T02:58:37Z</time>
      </trkpt>
      <trkpt lat="42.64753" lon="1.85829">
        <ele>1430</ele>
        <time>2010-01-01T02:58:40Z</time>
      </trkpt>
      <trkpt lat="42.6476" lon="1.8582">
        <ele>1429</ele>
        <time>2010-01-01T02:58:44Z</time>
      </trkpt>
      <trkpt lat="42.64767" lon="1.85812">
        <ele>1428.4</ele>
        <time>2010-01-01T02:58:48Z</time>
      </trkpt>
      <trkpt lat="42.64773" lon="1.85803">
        <ele>1426.5999</ele>
        <time>2010-01-01T02:58:52Z</time>
      </trkpt>
      <trkpt lat="42.64778" lon="1.85792">
        <ele>1425.0999</ele>
        <time>2010-01-01T02:58:55Z</time>
      </trkpt>
      <trkpt lat="42.64786" lon="1.85787">
        <ele>1425.9</ele>
        <time>2010-01-01T02:58:59Z</time>
      </trkpt>
      <trkpt lat="42.64794" lon="1.85779">
        <ele>1425</ele>
        <time>2010-01-01T02:59:03Z</time>
      </trkpt>
      <trkpt lat="42.64801" lon="1.85771">
        <ele>1424.1999</ele>
        <time>2010-01-01T02:59:06Z</time>
      </trkpt>
      <trkpt lat="42.64808" lon="1.85764">
        <ele>1423.8</ele>
        <time>2010-01-01T02:59:10Z</time>
      </trkpt>
      <trkpt lat="42.64815" lon="1.85754">
        <ele>1422.5</ele>
        <time>2010-01-01T02:59:14Z</time>
      </trkpt>
      <trkpt lat="42.64823" lon="1.85746">
        <ele>1422.9</ele>
        <time>2010-01-01T02:59:18Z</time>
      </trkpt>
      <trkpt lat="42.64831" lon="1.8574">
        <ele>1423.6999</ele>
        <time>2010-01-01T02:59:22Z</time>
      </trkpt>
      <trkpt lat="42.6484" lon="1.85738">
        <ele>1427.8</ele>
        <time>2010-01-01T02:59:25Z</time>
      </trkpt>
      <trkpt lat="42.64847" lon="1.85731">
        <ele>1429.9</ele>
        <time>2010-01-01T02:59:29Z</time>
      </trkpt>
      <trkpt lat="42.64855" lon="1.85723">
        <ele>1431.5999</ele>
        <time>2010-01-01T02:59:33Z</time>
      </trkpt>
      <trkpt lat="42.64862" lon="1.85714">
        <ele>1431.8</ele>
        <time>2010-01-01T02:59:36Z</time>
      </trkpt>
      <trkpt lat="42.64868" lon="1.85704">
        <ele>1431.3</ele>
        <time>2010-01-01T02:59:40Z</time>
      </trkpt>
      <trkpt lat="42.64872" lon="1.85692">
        <ele>1429.9</ele>
        <time>2010-01-01T02:59:44Z</time>
      </trkpt>
      <trkpt lat="42.64879" lon="1.85683">
        <ele>1429.8</ele>
        <time>2010-01-01T02:59:48Z</time>
      </trkpt>
      <trkpt lat="42.64885" lon="1.85672">
        <ele>1428.6999</ele>
        <time>2010-01-01T02:59:52Z</time>
      </trkpt>
      <trkpt lat="42.6489" lon="1.85662">
        <ele>1427.5999</ele>
        <time>2010-01-01T02:59:56Z</time>
      </trkpt>
      <trkpt lat="42.64895" lon="1.85651">
        <ele>1425.4</ele>
        <time>2010-01-01T03:00:00Z</time>
      </trkpt>
      <trkpt lat="42.649" lon="1.8564">
        <ele>1424.4</ele>
        <time>2010-01-01T03:00:03Z</time>
      </trkpt>
      <trkpt lat="42.64906" lon="1.85631">
        <ele>1423.3</ele>
        <time>2010-01-01T03:00:07Z</time>
      </trkpt>
      <trkpt lat="42.64912" lon="1.85621">
        <ele>1422.0999</ele>
        <time>2010-01-01T03:00:11Z</time>
      </trkpt>
      <trkpt lat="42.64918" lon="1.85611">
        <ele>1421.8</ele>
        <time>2010-01-01T03:00:15Z</time>
      </trkpt>
      <trkpt lat="42.64925" lon="1.85603">
        <ele>1421.5999</ele>
        <time>2010-01-01T03:00:18Z</time>
      </trkpt>
      <trkpt lat="42.64932" lon="1.85594">
        <ele>1420.4</ele>
        <time>2010-01-01T03:00:22Z</time>
      </trkpt>
      <trkpt lat="42.64938" lon="1.85585">
        <ele>1419.5999</ele>
        <time>2010-01-01T03:00:26Z</time>
      </trkpt>
      <trkpt lat="42.64945" lon="1.85576">
        <ele>1419</ele>
        <time>2010-01-01T03:00:30Z</time>
      </trkpt>
      <trkpt lat="42.64948" lon="1.85563">
        <ele>1415</ele>
        <time>2010-01-01T03:00:33Z</time>
      </trkpt>
      <trkpt lat="42.64947" lon="1.8555">
        <ele>1410.6999</ele>
        <time>2010-01-01T03:00:37Z</time>
      </trkpt>
      <trkpt lat="42.64949" lon="1.85537">
        <ele>1406.9</ele>
        <time>2010-01-01T03:00:41Z</time>
      </trkpt>
      <trkpt lat="42.6495" lon="1.85524">
        <ele>1403.5999</ele>
        <time>2010-01-01T03:00:45Z</time>
      </trkpt>
      <trkpt lat="42.64956" lon="1.85513">
        <ele>1402.1999</ele>
        <time>2010-01-01T03:00:49Z</time>
      </trkpt>
      <trkpt lat="42.64962" lon="1.85504">
        <ele>1401.9</ele>
        <time>2010-01-01T03:00:53Z</time>
      </trkpt>
      <trkpt lat="42.6497" lon="1.85497">
        <ele>1402.0999</ele>
        <time>2010-01-01T03:00:56Z</time>
      </trkpt>
      <trkpt lat="42.64978" lon="1.85489">
        <ele>1402.4</ele>
        <time>2010-01-01T03:01:00Z</time>
      </trkpt>
      <trkpt lat="42.64986" lon="1.85483">
        <ele>1403.5</ele>
        <time>2010-01-01T03:01:04Z</time>
      </trkpt>
      <trkpt lat="42.64995" lon="1.85476">
        <ele>1404</ele>
        <time>2010-01-01T03:01:08Z</time>
      </trkpt>
      <trkpt lat="42.65003" lon="1.85469">
        <ele>1403.5</ele>
        <time>2010-01-01T03:01:12Z</time>
      </trkpt>
      <trkpt lat="42.65006" lon="1.85457">
        <ele>1400.1999</ele>
        <time>2010-01-01T03:01:16Z</time>
      </trkpt>
      <trkpt lat="42.65009" lon="1.85445">
        <ele>1397</ele>
        <time>2010-01-01T03:01:19Z</time>
      </trkpt>
      <trkpt lat="42.65013" lon="1.85434">
        <ele>1394.4</ele>
        <time>2010-01-01T03:01:23Z</time>
      </trkpt>
      <trkpt lat="42.65018" lon="1.85422">
        <ele>1391.9</ele>
        <time>2010-01-01T03:01:27Z</time>
      </trkpt>
      <trkpt lat="42.65023" lon="1.85412">
        <ele>1388.8</ele>
        <time>2010-01-01T03:01:31Z</time>
      </trkpt>
      <trkpt lat="42.65028" lon="1.85401">
        <ele>1385.8</ele>
        <time>2010-01-01T03:01:35Z</time>
      </trkpt>
      <trkpt lat="42.6503" lon="1.85388">
        <ele>1381.1999</ele>
        <time>2010-01-01T03:01:38Z</time>
      </trkpt>
      <trkpt lat="42.65033" lon="1.85377">
        <ele>1377</ele>
        <time>2010-01-01T03:01:42Z</time>
      </trkpt>
      <trkpt lat="42.65038" lon="1.85365">
        <ele>1373.6999</ele>
        <time>2010-01-01T03:01:46Z</time>
      </trkpt>
      <trkpt lat="42.65044" lon="1.85355">
        <ele>1370.0999</ele>
        <time>2010-01-01T03:01:50Z</time>
      </trkpt>
      <trkpt lat="42.65049" lon="1.85346">
        <ele>1366.9</ele>
        <time>2010-01-01T03:01:53Z</time>
      </trkpt>
      <trkpt lat="42.65055" lon="1.85335">
        <ele>1362.6999</ele>
        <time>2010-01-01T03:01:57Z</time>
      </trkpt>
      <trkpt lat="42.65058" lon="1.85322">
        <ele>1358.5</ele>
        <time>2010-01-01T03:02:01Z</time>
      </trkpt>
      <trkpt lat="42.65061" lon="1.8531">
        <ele>1354.6999</ele>
        <time>2010-01-01T03:02:05Z</time>
      </trkpt>
      <trkpt lat="42.65067" lon="1.85301">
        <ele>1352.1999</ele>
        <time>2010-01-01T03:02:08Z</time>
      </trkpt>
      <trkpt lat="42.65073" lon="1.85292">
        <ele>1349.9</ele>
        <time>2010-01-01T03:02:12Z</time>
      </trkpt>
      <trkpt lat="42.65081" lon="1.85285">
        <ele>1348.0999</ele>
        <time>2010-01-01T03:02:16Z</time>
      </trkpt>
      <trkpt lat="42.65091" lon="1.8528">
        <ele>1348.3</ele>
        <time>2010-01-01T03:02:20Z</time>
      </trkpt>
      <trkpt lat="42.651" lon="1.85282">
        <ele>1349.6999</ele>
        <time>2010-01-01T03:02:24Z</time>
      </trkpt>
      <trkpt lat="42.65107" lon="1.85274">
        <ele>1347.4</ele>
        <time>2010-01-01T03:02:28Z</time>
      </trkpt>
      <trkpt lat="42.65112" lon="1.85264">
        <ele>1343.9</ele>
        <time>2010-01-01T03:02:31Z</time>
      </trkpt>
      <trkpt lat="42.65117" lon="1.85253">
        <ele>1340</ele>
        <time>2010-01-01T03:02:35Z</time>
      </trkpt>
      <trkpt lat="42.65125" lon="1.85245">
        <ele>1338</ele>
        <time>2010-01-01T03:02:39Z</time>
      </trkpt>
      <trkpt lat="42.65133" lon="1.8524">
        <ele>1337.3</ele>
        <time>2010-01-01T03:02:43Z</time>
      </trkpt>
      <trkpt lat="42.65142" lon="1.85239">
        <ele>1338.0999</ele>
        <time>2010-01-01T03:02:46Z</time>
      </trkpt>
      <trkpt lat="42.65151" lon="1.85237">
        <ele>1338.4</ele>
        <time>2010-01-01T03:02:50Z</time>
      </trkpt>
      <trkpt lat="42.65161" lon="1.85234">
        <ele>1339.1999</ele>
        <time>2010-01-01T03:02:54Z</time>
      </trkpt>
      <trkpt lat="42.65171" lon="1.85236">
        <ele>1340.3</ele>
        <time>2010-01-01T03:02:58Z</time>
      </trkpt>
      <trkpt lat="42.65179" lon="1.85231">
        <ele>1339.6999</ele>
        <time>2010-01-01T03:03:01Z</time>
      </trkpt>
      <trkpt lat="42.65188" lon="1.85225">
        <ele>1338.6999</ele>
        <time>2010-01-01T03:03:05Z</time>
      </trkpt>
      <trkpt lat="42.65194" lon="1.85214">
        <ele>1335.5999</ele>
        <time>2010-01-01T03:03:09Z</time>
      </trkpt>
      <trkpt lat="42.65186" lon="1.85206">
        <ele>1331.3</ele>
        <time>2010-01-01T03:03:13Z</time>
      </trkpt>
      <trkpt lat="42.65194" lon="1.85198">
        <ele>1329.8</ele>
        <time>2010-01-01T03:03:17Z</time>
      </trkpt>
      <trkpt lat="42.65191" lon="1.85186">
        <ele>1324.5999</ele>
        <time>2010-01-01T03:03:20Z</time>
      </trkpt>
      <trkpt lat="42.65199" lon="1.8518">
        <ele>1322.8</ele>
        <time>2010-01-01T03:03:24Z</time>
      </trkpt>
      <trkpt lat="42.65198" lon="1.85166">
        <ele>1317.6999</ele>
        <time>2010-01-01T03:03:28Z</time>
      </trkpt>
      <trkpt lat="42.652" lon="1.85154">
        <ele>1311.8</ele>
        <time>2010-01-01T03:03:32Z</time>
      </trkpt>
      <trkpt lat="42.65194" lon="1.85144">
        <ele>1306.9</ele>
        <time>2010-01-01T03:03:35Z</time>
      </trkpt>
      <trkpt lat="42.65196" lon="1.85132">
        <ele>1301.1999</ele>
        <time>2010-01-01T03:03:39Z</time>
      </trkpt>
      <trkpt lat="42.65205" lon="1.85129">
        <ele>1301.5999</ele>
        <time>2010-01-01T03:03:43Z</time>
      </trkpt>
      <trkpt lat="42.65209" lon="1.85118">
        <ele>1297.5</ele>
        <time>2010-01-01T03:03:47Z</time>
      </trkpt>
      <trkpt lat="42.65217" lon="1.85111">
        <ele>1294.8</ele>
        <time>2010-01-01T03:03:50Z</time>
      </trkpt>
      <trkpt lat="42.65226" lon="1.85103">
        <ele>1292</ele>
        <time>2010-01-01T03:03:55Z</time>
      </trkpt>
      <trkpt lat="42.6522" lon="1.85093">
        <ele>1286.1999</ele>
        <time>2010-01-01T03:03:59Z</time>
      </trkpt>
      <trkpt lat="42.65224" lon="1.85082">
        <ele>1281.8</ele>
        <time>2010-01-01T03:04:02Z</time>
      </trkpt>
      <trkpt lat="42.65231" lon="1.85075">
        <ele>1279.9</ele>
        <time>2010-01-01T03:04:06Z</time>
      </trkpt>
      <trkpt lat="42.65238" lon="1.85066">
        <ele>1277.3</ele>
        <time>2010-01-01T03:04:10Z</time>
      </trkpt>
      <trkpt lat="42.65244" lon="1.85057">
        <ele>1274.4</ele>
        <time>2010-01-01T03:04:14Z</time>
      </trkpt>
      <trkpt lat="42.65252" lon="1.8505">
        <ele>1271.8</ele>
        <time>2010-01-01T03:04:17Z</time>
      </trkpt>
      <trkpt lat="42.65256" lon="1.85039">
        <ele>1267.1999</ele>
        <time>2010-01-01T03:04:21Z</time>
      </trkpt>
      <trkpt lat="42.65259" lon="1.85027">
        <ele>1262.6999</ele>
        <time>2010-01-01T03:04:25Z</time>
      </trkpt>
      <trkpt lat="42.65267" lon="1.8502">
        <ele>1260.6999</ele>
        <time>2010-01-01T03:04:28Z</time>
      </trkpt>
      <trkpt lat="42.65275" lon="1.85014">
        <ele>1259</ele>
        <time>2010-01-01T03:04:32Z</time>
      </trkpt>
      <trkpt lat="42.65283" lon="1.85007">
        <ele>1256.8</ele>
        <time>2010-01-01T03:04:36Z</time>
      </trkpt>
      <trkpt lat="42.65292" lon="1.85003">
        <ele>1255.8</ele>
        <time>2010-01-01T03:04:39Z</time>
      </trkpt>
      <trkpt lat="42.653" lon="1.84999">
        <ele>1255.5</ele>
        <time>2010-01-01T03:04:43Z</time>
      </trkpt>
      <trkpt lat="42.65309" lon="1.84994">
        <ele>1253.6999</ele>
        <time>2010-01-01T03:04:47Z</time>
      </trkpt>
      <trkpt lat="42.65313" lon="1.84983">
        <ele>1250</ele>
        <time>2010-01-01T03:04:51Z</time>
      </trkpt>
      <trkpt lat="42.65321" lon="1.84975">
        <ele>1248</ele>
        <time>2010-01-01T03:04:55Z</time>
      </trkpt>
      <trkpt lat="42.65329" lon="1.84969">
        <ele>1246.5</ele>
        <time>2010-01-01T03:04:58Z</time>
      </trkpt>
      <trkpt lat="42.65332" lon="1.84957">
        <ele>1242.6999</ele>
        <time>2010-01-01T03:05:02Z</time>
      </trkpt>
      <trkpt lat="42.65338" lon="1.84947">
        <ele>1239.8</ele>
        <time>2010-01-01T03:05:06Z</time>
      </trkpt>
      <trkpt lat="42.65342" lon="1.84936">
        <ele>1237.0999</ele>
        <time>2010-01-01T03:05:09Z</time>
      </trkpt>
      <trkpt lat="42.6535" lon="1.84929">
        <ele>1235.4</ele>
        <time>2010-01-01T03:05:13Z</time>
      </trkpt>
      <trkpt lat="42.65356" lon="1.8492">
        <ele>1233</ele>
        <time>2010-01-01T03:05:17Z</time>
      </trkpt>
      <trkpt lat="42.65362" lon="1.8491">
        <ele>1231.6999</ele>
        <time>2010-01-01T03:05:20Z</time>
      </trkpt>
      <trkpt lat="42.6537" lon="1.84904">
        <ele>1231.9</ele>
        <time>2010-01-01T03:05:24Z</time>
      </trkpt>
      <trkpt lat="42.65379" lon="1.849">
        <ele>1232.0999</ele>
        <time>2010-01-01T03:05:28Z</time>
      </trkpt>
      <trkpt lat="42.65387" lon="1.84894">
        <ele>1231.5999</ele>
        <time>2010-01-01T03:05:32Z</time>
      </trkpt>
      <trkpt lat="42.65392" lon="1.84882">
        <ele>1229.5999</ele>
        <time>2010-01-01T03:05:36Z</time>
      </trkpt>
      <trkpt lat="42.65396" lon="1.84871">
        <ele>1228.0999</ele>
        <time>2010-01-01T03:05:39Z</time>
      </trkpt>
      <trkpt lat="42.65403" lon="1.84861">
        <ele>1226.4</ele>
        <time>2010-01-01T03:05:43Z</time>
      </trkpt>
      <trkpt lat="42.65407" lon="1.84849">
        <ele>1224.5</ele>
        <time>2010-01-01T03:05:47Z</time>
      </trkpt>
      <trkpt lat="42.65412" lon="1.84837">
        <ele>1222.1999</ele>
        <time>2010-01-01T03:05:51Z</time>
      </trkpt>
      <trkpt lat="42.65413" lon="1.84824">
        <ele>1220.3</ele>
        <time>2010-01-01T03:05:55Z</time>
      </trkpt>
      <trkpt lat="42.65414" lon="1.84811">
        <ele>1219</ele>
        <time>2010-01-01T03:05:59Z</time>
      </trkpt>
      <trkpt lat="42.65418" lon="1.848">
        <ele>1218.0999</ele>
        <time>2010-01-01T03:06:03Z</time>
      </trkpt>
      <trkpt lat="42.65426" lon="1.84792">
        <ele>1217.6999</ele>
        <time>2010-01-01T03:06:07Z</time>
      </trkpt>
      <trkpt lat="42.65432" lon="1.84782">
        <ele>1216.9</ele>
        <time>2010-01-01T03:06:10Z</time>
      </trkpt>
      <trkpt lat="42.65439" lon="1.84773">
        <ele>1215.6999</ele>
        <time>2010-01-01T03:06:14Z</time>
      </trkpt>
      <trkpt lat="42.65444" lon="1.84762">
        <ele>1214.0999</ele>
        <time>2010-01-01T03:06:18Z</time>
      </trkpt>
      <trkpt lat="42.65448" lon="1.84749">
        <ele>1212.5</ele>
        <time>2010-01-01T03:06:22Z</time>
      </trkpt>
      <trkpt lat="42.65447" lon="1.84737">
        <ele>1210.1999</ele>
        <time>2010-01-01T03:06:26Z</time>
      </trkpt>
      <trkpt lat="42.65447" lon="1.84724">
        <ele>1208.3</ele>
        <time>2010-01-01T03:06:30Z</time>
      </trkpt>
      <trkpt lat="42.65445" lon="1.84711">
        <ele>1206</ele>
        <time>2010-01-01T03:06:33Z</time>
      </trkpt>
      <trkpt lat="42.65443" lon="1.84699">
        <ele>1203.6999</ele>
        <time>2010-01-01T03:06:37Z</time>
      </trkpt>
      <trkpt lat="42.65446" lon="1.84687">
        <ele>1201.9</ele>
        <time>2010-01-01T03:06:41Z</time>
      </trkpt>
      <trkpt lat="42.65449" lon="1.84674">
        <ele>1200</ele>
        <time>2010-01-01T03:06:45Z</time>
      </trkpt>
      <trkpt lat="42.65453" lon="1.84663">
        <ele>1198.1999</ele>
        <time>2010-01-01T03:06:48Z</time>
      </trkpt>
      <trkpt lat="42.65459" lon="1.84653">
        <ele>1196.8</ele>
        <time>2010-01-01T03:06:52Z</time>
      </trkpt>
      <trkpt lat="42.65463" lon="1.84642">
        <ele>1194.5</ele>
        <time>2010-01-01T03:06:56Z</time>
      </trkpt>
      <trkpt lat="42.65464" lon="1.84629">
        <ele>1192.1999</ele>
        <time>2010-01-01T03:07:00Z</time>
      </trkpt>
      <trkpt lat="42.65459" lon="1.84618">
        <ele>1189.5</ele>
        <time>2010-01-01T03:07:03Z</time>
      </trkpt>
      <trkpt lat="42.65462" lon="1.84606">
        <ele>1187.1999</ele>
        <time>2010-01-01T03:07:07Z</time>
      </trkpt>
      <trkpt lat="42.65468" lon="1.84596">
        <ele>1186.5</ele>
        <time>2010-01-01T03:07:11Z</time>
      </trkpt>
      <trkpt lat="42.65478" lon="1.84594">
        <ele>1186.4</ele>
        <time>2010-01-01T03:07:15Z</time>
      </trkpt>
      <trkpt lat="42.65488" lon="1.84592">
        <ele>1186.3</ele>
        <time>2010-01-01T03:07:19Z</time>
      </trkpt>
      <trkpt lat="42.65499" lon="1.84591">
        <ele>1186.4</ele>
        <time>2010-01-01T03:07:23Z</time>
      </trkpt>
      <trkpt lat="42.65508" lon="1.8459">
        <ele>1187.0999</ele>
        <time>2010-01-01T03:07:27Z</time>
      </trkpt>
      <trkpt lat="42.65517" lon="1.84588">
        <ele>1187.4</ele>
        <time>2010-01-01T03:07:30Z</time>
      </trkpt>
      <trkpt lat="42.65526" lon="1.84585">
        <ele>1188.0999</ele>
        <time>2010-01-01T03:07:34Z</time>
      </trkpt>
      <trkpt lat="42.65535" lon="1.84585">
        <ele>1189</ele>
        <time>2010-01-01T03:07:38Z</time>
      </trkpt>
      <trkpt lat="42.65555" lon="1.846">
        <ele>1193.559</ele>
        <time>2010-01-01T03:07:47Z</time>
      </trkpt>
    </trkseg>
  </trk>
</gpx>